<?xml version="1.0" encoding="UTF-8" standalone="no" ?>
<gpx xmlns="http://www.topografix.com/GPX/1/1" xmlns:xsi="http://www.w3.org/2001/XMLSchema-instance" xsi:schemaLocation="http://www.topografix.com/GPX/1/1 http://www.topografix.com/GPX/1/1/gpx.xsd" version="1.1" creator="VisuGPX - https://www.visugpx.com">
  <metadata>
    <name>BIGREEN 2019 </name>
    <desc><![CDATA[BIGREEN 2019 - ST VALLIER / GRASSE]]></desc>
  </metadata>
  <trk>
    <name><![CDATA[2019-03-24T07:27:52Z]]></name>
    <trkseg>
      <trkpt lat="43.69918" lon="6.85064">
        <ele>717</ele>
        <time>2019-03-24T07:27:52Z</time>
      </trkpt>
      <trkpt lat="43.69918" lon="6.85059">
        <ele>717.2</ele>
        <time>2019-03-24T07:28:08Z</time>
      </trkpt>
      <trkpt lat="43.69918" lon="6.85052">
        <ele>717.8</ele>
        <time>2019-03-24T07:28:11Z</time>
      </trkpt>
      <trkpt lat="43.69919" lon="6.85049">
        <ele>718</ele>
        <time>2019-03-24T07:28:12Z</time>
      </trkpt>
      <trkpt lat="43.69921" lon="6.8503">
        <ele>718.4</ele>
        <time>2019-03-24T07:28:17Z</time>
      </trkpt>
      <trkpt lat="43.6992" lon="6.85003">
        <ele>718.6</ele>
        <time>2019-03-24T07:28:23Z</time>
      </trkpt>
      <trkpt lat="43.69923" lon="6.84966">
        <ele>717.2</ele>
        <time>2019-03-24T07:28:30Z</time>
      </trkpt>
      <trkpt lat="43.69935" lon="6.84941">
        <ele>717.4</ele>
        <time>2019-03-24T07:28:36Z</time>
      </trkpt>
      <trkpt lat="43.69938" lon="6.84937">
        <ele>717</ele>
        <time>2019-03-24T07:28:37Z</time>
      </trkpt>
      <trkpt lat="43.69951" lon="6.84915">
        <ele>718.2</ele>
        <time>2019-03-24T07:28:44Z</time>
      </trkpt>
      <trkpt lat="43.69965" lon="6.84887">
        <ele>718.2</ele>
        <time>2019-03-24T07:28:53Z</time>
      </trkpt>
      <trkpt lat="43.69968" lon="6.84876">
        <ele>718.6</ele>
        <time>2019-03-24T07:28:58Z</time>
      </trkpt>
      <trkpt lat="43.69972" lon="6.84859">
        <ele>719</ele>
        <time>2019-03-24T07:29:04Z</time>
      </trkpt>
      <trkpt lat="43.69974" lon="6.84849">
        <ele>719.4</ele>
        <time>2019-03-24T07:29:07Z</time>
      </trkpt>
      <trkpt lat="43.69982" lon="6.84842">
        <ele>719.4</ele>
        <time>2019-03-24T07:29:10Z</time>
      </trkpt>
      <trkpt lat="43.69998" lon="6.84812">
        <ele>719.8</ele>
        <time>2019-03-24T07:29:19Z</time>
      </trkpt>
      <trkpt lat="43.70009" lon="6.8478">
        <ele>719.6</ele>
        <time>2019-03-24T07:29:27Z</time>
      </trkpt>
      <trkpt lat="43.70017" lon="6.84761">
        <ele>720.6</ele>
        <time>2019-03-24T07:29:32Z</time>
      </trkpt>
      <trkpt lat="43.70019" lon="6.84753">
        <ele>721.2</ele>
        <time>2019-03-24T07:29:34Z</time>
      </trkpt>
      <trkpt lat="43.70022" lon="6.84745">
        <ele>721.6</ele>
        <time>2019-03-24T07:29:36Z</time>
      </trkpt>
      <trkpt lat="43.70029" lon="6.84726">
        <ele>722.8</ele>
        <time>2019-03-24T07:29:41Z</time>
      </trkpt>
      <trkpt lat="43.7003" lon="6.84723">
        <ele>723</ele>
        <time>2019-03-24T07:29:42Z</time>
      </trkpt>
      <trkpt lat="43.70035" lon="6.84712">
        <ele>723.8</ele>
        <time>2019-03-24T07:29:45Z</time>
      </trkpt>
      <trkpt lat="43.70039" lon="6.847">
        <ele>725</ele>
        <time>2019-03-24T07:29:48Z</time>
      </trkpt>
      <trkpt lat="43.70044" lon="6.84689">
        <ele>725.6</ele>
        <time>2019-03-24T07:29:51Z</time>
      </trkpt>
      <trkpt lat="43.70048" lon="6.84677">
        <ele>726.2</ele>
        <time>2019-03-24T07:29:54Z</time>
      </trkpt>
      <trkpt lat="43.70055" lon="6.84656">
        <ele>727</ele>
        <time>2019-03-24T07:29:59Z</time>
      </trkpt>
      <trkpt lat="43.70066" lon="6.84622">
        <ele>727.6</ele>
        <time>2019-03-24T07:30:07Z</time>
      </trkpt>
      <trkpt lat="43.70071" lon="6.84603">
        <ele>728.8</ele>
        <time>2019-03-24T07:30:12Z</time>
      </trkpt>
      <trkpt lat="43.70071" lon="6.84599">
        <ele>729.2</ele>
        <time>2019-03-24T07:30:13Z</time>
      </trkpt>
      <trkpt lat="43.70072" lon="6.8459">
        <ele>729.8</ele>
        <time>2019-03-24T07:30:15Z</time>
      </trkpt>
      <trkpt lat="43.70079" lon="6.84557">
        <ele>730.8</ele>
        <time>2019-03-24T07:30:22Z</time>
      </trkpt>
      <trkpt lat="43.70087" lon="6.84516">
        <ele>731.2</ele>
        <time>2019-03-24T07:30:29Z</time>
      </trkpt>
      <trkpt lat="43.701" lon="6.84474">
        <ele>730.2</ele>
        <time>2019-03-24T07:30:35Z</time>
      </trkpt>
      <trkpt lat="43.70109" lon="6.84456">
        <ele>729.6</ele>
        <time>2019-03-24T07:30:37Z</time>
      </trkpt>
      <trkpt lat="43.70118" lon="6.84436">
        <ele>728.8</ele>
        <time>2019-03-24T07:30:39Z</time>
      </trkpt>
      <trkpt lat="43.70123" lon="6.84426">
        <ele>728.6</ele>
        <time>2019-03-24T07:30:40Z</time>
      </trkpt>
      <trkpt lat="43.70132" lon="6.84393">
        <ele>727.6</ele>
        <time>2019-03-24T07:30:43Z</time>
      </trkpt>
      <trkpt lat="43.70134" lon="6.8438">
        <ele>727.6</ele>
        <time>2019-03-24T07:30:44Z</time>
      </trkpt>
      <trkpt lat="43.70137" lon="6.84353">
        <ele>727.6</ele>
        <time>2019-03-24T07:30:46Z</time>
      </trkpt>
      <trkpt lat="43.70136" lon="6.84323">
        <ele>726.2</ele>
        <time>2019-03-24T07:30:48Z</time>
      </trkpt>
      <trkpt lat="43.70136" lon="6.84295">
        <ele>724.4</ele>
        <time>2019-03-24T07:30:50Z</time>
      </trkpt>
      <trkpt lat="43.70139" lon="6.84267">
        <ele>723.4</ele>
        <time>2019-03-24T07:30:52Z</time>
      </trkpt>
      <trkpt lat="43.70141" lon="6.84237">
        <ele>721.6</ele>
        <time>2019-03-24T07:30:54Z</time>
      </trkpt>
      <trkpt lat="43.70145" lon="6.84223">
        <ele>720.6</ele>
        <time>2019-03-24T07:30:55Z</time>
      </trkpt>
      <trkpt lat="43.70151" lon="6.84209">
        <ele>719.4</ele>
        <time>2019-03-24T07:30:56Z</time>
      </trkpt>
      <trkpt lat="43.70156" lon="6.84195">
        <ele>718.4</ele>
        <time>2019-03-24T07:30:57Z</time>
      </trkpt>
      <trkpt lat="43.7016" lon="6.84184">
        <ele>717.4</ele>
        <time>2019-03-24T07:30:58Z</time>
      </trkpt>
      <trkpt lat="43.70165" lon="6.84172">
        <ele>716.4</ele>
        <time>2019-03-24T07:30:59Z</time>
      </trkpt>
      <trkpt lat="43.70169" lon="6.84159">
        <ele>715.4</ele>
        <time>2019-03-24T07:31:00Z</time>
      </trkpt>
      <trkpt lat="43.70174" lon="6.84137">
        <ele>713.4</ele>
        <time>2019-03-24T07:31:02Z</time>
      </trkpt>
      <trkpt lat="43.70176" lon="6.84127">
        <ele>712.6</ele>
        <time>2019-03-24T07:31:03Z</time>
      </trkpt>
      <trkpt lat="43.70176" lon="6.84117">
        <ele>711.8</ele>
        <time>2019-03-24T07:31:04Z</time>
      </trkpt>
      <trkpt lat="43.70172" lon="6.84097">
        <ele>710.4</ele>
        <time>2019-03-24T07:31:06Z</time>
      </trkpt>
      <trkpt lat="43.70169" lon="6.84088">
        <ele>709.8</ele>
        <time>2019-03-24T07:31:07Z</time>
      </trkpt>
      <trkpt lat="43.70166" lon="6.8408">
        <ele>709.2</ele>
        <time>2019-03-24T07:31:08Z</time>
      </trkpt>
      <trkpt lat="43.7015" lon="6.84062">
        <ele>708</ele>
        <time>2019-03-24T07:31:11Z</time>
      </trkpt>
      <trkpt lat="43.70132" lon="6.84058">
        <ele>706.6</ele>
        <time>2019-03-24T07:31:14Z</time>
      </trkpt>
      <trkpt lat="43.70126" lon="6.84059">
        <ele>706.2</ele>
        <time>2019-03-24T07:31:15Z</time>
      </trkpt>
      <trkpt lat="43.7012" lon="6.84061">
        <ele>705.8</ele>
        <time>2019-03-24T07:31:16Z</time>
      </trkpt>
      <trkpt lat="43.70113" lon="6.84065">
        <ele>705.4</ele>
        <time>2019-03-24T07:31:17Z</time>
      </trkpt>
      <trkpt lat="43.70105" lon="6.84067">
        <ele>705</ele>
        <time>2019-03-24T07:31:18Z</time>
      </trkpt>
      <trkpt lat="43.70091" lon="6.84069">
        <ele>704.2</ele>
        <time>2019-03-24T07:31:20Z</time>
      </trkpt>
      <trkpt lat="43.70077" lon="6.84068">
        <ele>703.8</ele>
        <time>2019-03-24T07:31:22Z</time>
      </trkpt>
      <trkpt lat="43.70064" lon="6.84072">
        <ele>703.2</ele>
        <time>2019-03-24T07:31:24Z</time>
      </trkpt>
      <trkpt lat="43.70053" lon="6.84075">
        <ele>702.8</ele>
        <time>2019-03-24T07:31:26Z</time>
      </trkpt>
      <trkpt lat="43.70048" lon="6.84077">
        <ele>702.8</ele>
        <time>2019-03-24T07:31:27Z</time>
      </trkpt>
      <trkpt lat="43.70025" lon="6.84089">
        <ele>702.8</ele>
        <time>2019-03-24T07:31:31Z</time>
      </trkpt>
      <trkpt lat="43.69982" lon="6.84107">
        <ele>702.6</ele>
        <time>2019-03-24T07:31:38Z</time>
      </trkpt>
      <trkpt lat="43.6997" lon="6.84111">
        <ele>702.8</ele>
        <time>2019-03-24T07:31:42Z</time>
      </trkpt>
      <trkpt lat="43.69959" lon="6.84118">
        <ele>702.8</ele>
        <time>2019-03-24T07:31:56Z</time>
      </trkpt>
      <trkpt lat="43.69954" lon="6.84126">
        <ele>702</ele>
        <time>2019-03-24T07:31:58Z</time>
      </trkpt>
      <trkpt lat="43.69951" lon="6.84128">
        <ele>702</ele>
        <time>2019-03-24T07:31:59Z</time>
      </trkpt>
      <trkpt lat="43.6994" lon="6.84133">
        <ele>701.6</ele>
        <time>2019-03-24T07:32:04Z</time>
      </trkpt>
      <trkpt lat="43.69931" lon="6.84136">
        <ele>700.4</ele>
        <time>2019-03-24T07:32:11Z</time>
      </trkpt>
      <trkpt lat="43.69929" lon="6.84135">
        <ele>700.4</ele>
        <time>2019-03-24T07:32:12Z</time>
      </trkpt>
      <trkpt lat="43.69924" lon="6.84129">
        <ele>698.2</ele>
        <time>2019-03-24T07:32:22Z</time>
      </trkpt>
      <trkpt lat="43.69914" lon="6.84117">
        <ele>697</ele>
        <time>2019-03-24T07:32:26Z</time>
      </trkpt>
      <trkpt lat="43.69911" lon="6.84114">
        <ele>696.8</ele>
        <time>2019-03-24T07:32:27Z</time>
      </trkpt>
      <trkpt lat="43.69894" lon="6.84092">
        <ele>696.2</ele>
        <time>2019-03-24T07:32:32Z</time>
      </trkpt>
      <trkpt lat="43.69887" lon="6.84083">
        <ele>696</ele>
        <time>2019-03-24T07:32:34Z</time>
      </trkpt>
      <trkpt lat="43.69866" lon="6.84062">
        <ele>695.2</ele>
        <time>2019-03-24T07:32:39Z</time>
      </trkpt>
      <trkpt lat="43.69858" lon="6.84052">
        <ele>694.8</ele>
        <time>2019-03-24T07:32:41Z</time>
      </trkpt>
      <trkpt lat="43.69843" lon="6.84037">
        <ele>694.2</ele>
        <time>2019-03-24T07:32:44Z</time>
      </trkpt>
      <trkpt lat="43.69838" lon="6.84035">
        <ele>694.2</ele>
        <time>2019-03-24T07:32:45Z</time>
      </trkpt>
      <trkpt lat="43.6983" lon="6.84031">
        <ele>694.6</ele>
        <time>2019-03-24T07:32:48Z</time>
      </trkpt>
      <trkpt lat="43.69825" lon="6.84025">
        <ele>694.6</ele>
        <time>2019-03-24T07:32:50Z</time>
      </trkpt>
      <trkpt lat="43.69821" lon="6.84013">
        <ele>694.6</ele>
        <time>2019-03-24T07:32:53Z</time>
      </trkpt>
      <trkpt lat="43.69822" lon="6.83987">
        <ele>695</ele>
        <time>2019-03-24T07:32:58Z</time>
      </trkpt>
      <trkpt lat="43.69831" lon="6.8396">
        <ele>695.6</ele>
        <time>2019-03-24T07:33:04Z</time>
      </trkpt>
      <trkpt lat="43.69833" lon="6.83955">
        <ele>695.8</ele>
        <time>2019-03-24T07:33:05Z</time>
      </trkpt>
      <trkpt lat="43.69842" lon="6.83936">
        <ele>696.2</ele>
        <time>2019-03-24T07:33:09Z</time>
      </trkpt>
      <trkpt lat="43.69848" lon="6.83922">
        <ele>696.4</ele>
        <time>2019-03-24T07:33:12Z</time>
      </trkpt>
      <trkpt lat="43.69856" lon="6.83897">
        <ele>696.2</ele>
        <time>2019-03-24T07:33:18Z</time>
      </trkpt>
      <trkpt lat="43.69865" lon="6.83867">
        <ele>696.2</ele>
        <time>2019-03-24T07:33:24Z</time>
      </trkpt>
      <trkpt lat="43.69868" lon="6.83855">
        <ele>697</ele>
        <time>2019-03-24T07:33:27Z</time>
      </trkpt>
      <trkpt lat="43.69872" lon="6.83837">
        <ele>698</ele>
        <time>2019-03-24T07:33:31Z</time>
      </trkpt>
      <trkpt lat="43.69873" lon="6.83832">
        <ele>698.2</ele>
        <time>2019-03-24T07:33:32Z</time>
      </trkpt>
      <trkpt lat="43.69879" lon="6.83812">
        <ele>699.4</ele>
        <time>2019-03-24T07:33:37Z</time>
      </trkpt>
      <trkpt lat="43.69883" lon="6.83801">
        <ele>700.2</ele>
        <time>2019-03-24T07:33:40Z</time>
      </trkpt>
      <trkpt lat="43.69886" lon="6.83794">
        <ele>700.4</ele>
        <time>2019-03-24T07:33:42Z</time>
      </trkpt>
      <trkpt lat="43.69891" lon="6.83781">
        <ele>701.6</ele>
        <time>2019-03-24T07:33:46Z</time>
      </trkpt>
      <trkpt lat="43.69897" lon="6.83768">
        <ele>702.8</ele>
        <time>2019-03-24T07:33:50Z</time>
      </trkpt>
      <trkpt lat="43.69902" lon="6.83753">
        <ele>703.2</ele>
        <time>2019-03-24T07:33:54Z</time>
      </trkpt>
      <trkpt lat="43.69906" lon="6.83738">
        <ele>704</ele>
        <time>2019-03-24T07:33:58Z</time>
      </trkpt>
      <trkpt lat="43.69907" lon="6.8373">
        <ele>704.2</ele>
        <time>2019-03-24T07:34:00Z</time>
      </trkpt>
      <trkpt lat="43.69908" lon="6.8372">
        <ele>705.2</ele>
        <time>2019-03-24T07:34:03Z</time>
      </trkpt>
      <trkpt lat="43.69906" lon="6.83707">
        <ele>706.6</ele>
        <time>2019-03-24T07:34:06Z</time>
      </trkpt>
      <trkpt lat="43.69904" lon="6.837">
        <ele>707.6</ele>
        <time>2019-03-24T07:34:08Z</time>
      </trkpt>
      <trkpt lat="43.69902" lon="6.83693">
        <ele>708.8</ele>
        <time>2019-03-24T07:34:10Z</time>
      </trkpt>
      <trkpt lat="43.69898" lon="6.83682">
        <ele>710.2</ele>
        <time>2019-03-24T07:34:13Z</time>
      </trkpt>
      <trkpt lat="43.69892" lon="6.83664">
        <ele>711.6</ele>
        <time>2019-03-24T07:34:18Z</time>
      </trkpt>
      <trkpt lat="43.69891" lon="6.8366">
        <ele>711.8</ele>
        <time>2019-03-24T07:34:19Z</time>
      </trkpt>
      <trkpt lat="43.6989" lon="6.83654">
        <ele>712.8</ele>
        <time>2019-03-24T07:34:21Z</time>
      </trkpt>
      <trkpt lat="43.69889" lon="6.83647">
        <ele>714.2</ele>
        <time>2019-03-24T07:34:23Z</time>
      </trkpt>
      <trkpt lat="43.69887" lon="6.83639">
        <ele>715.4</ele>
        <time>2019-03-24T07:34:25Z</time>
      </trkpt>
      <trkpt lat="43.69886" lon="6.83635">
        <ele>716</ele>
        <time>2019-03-24T07:34:26Z</time>
      </trkpt>
      <trkpt lat="43.69886" lon="6.83631">
        <ele>716.6</ele>
        <time>2019-03-24T07:34:27Z</time>
      </trkpt>
      <trkpt lat="43.69876" lon="6.83608">
        <ele>717</ele>
        <time>2019-03-24T07:34:31Z</time>
      </trkpt>
      <trkpt lat="43.69866" lon="6.83604">
        <ele>716.8</ele>
        <time>2019-03-24T07:34:35Z</time>
      </trkpt>
      <trkpt lat="43.69855" lon="6.83612">
        <ele>716.6</ele>
        <time>2019-03-24T07:34:41Z</time>
      </trkpt>
      <trkpt lat="43.69845" lon="6.83615">
        <ele>717.4</ele>
        <time>2019-03-24T07:34:46Z</time>
      </trkpt>
      <trkpt lat="43.6983" lon="6.83625">
        <ele>717</ele>
        <time>2019-03-24T07:34:52Z</time>
      </trkpt>
      <trkpt lat="43.69823" lon="6.83639">
        <ele>717.8</ele>
        <time>2019-03-24T07:34:57Z</time>
      </trkpt>
      <trkpt lat="43.6981" lon="6.83646">
        <ele>718.4</ele>
        <time>2019-03-24T07:35:03Z</time>
      </trkpt>
      <trkpt lat="43.69803" lon="6.8365">
        <ele>719</ele>
        <time>2019-03-24T07:35:06Z</time>
      </trkpt>
      <trkpt lat="43.698" lon="6.8365">
        <ele>718.8</ele>
        <time>2019-03-24T07:35:07Z</time>
      </trkpt>
      <trkpt lat="43.69797" lon="6.8365">
        <ele>718.6</ele>
        <time>2019-03-24T07:35:08Z</time>
      </trkpt>
      <trkpt lat="43.6979" lon="6.83654">
        <ele>718.4</ele>
        <time>2019-03-24T07:35:11Z</time>
      </trkpt>
      <trkpt lat="43.69788" lon="6.83654">
        <ele>718.4</ele>
        <time>2019-03-24T07:35:12Z</time>
      </trkpt>
      <trkpt lat="43.69779" lon="6.83647">
        <ele>718.6</ele>
        <time>2019-03-24T07:35:16Z</time>
      </trkpt>
      <trkpt lat="43.69776" lon="6.83646">
        <ele>718.4</ele>
        <time>2019-03-24T07:35:17Z</time>
      </trkpt>
      <trkpt lat="43.69774" lon="6.83646">
        <ele>717.8</ele>
        <time>2019-03-24T07:35:18Z</time>
      </trkpt>
      <trkpt lat="43.69765" lon="6.83646">
        <ele>716.4</ele>
        <time>2019-03-24T07:35:21Z</time>
      </trkpt>
      <trkpt lat="43.69761" lon="6.83647">
        <ele>716</ele>
        <time>2019-03-24T07:35:22Z</time>
      </trkpt>
      <trkpt lat="43.69753" lon="6.8365">
        <ele>715</ele>
        <time>2019-03-24T07:35:24Z</time>
      </trkpt>
      <trkpt lat="43.69741" lon="6.83648">
        <ele>714.4</ele>
        <time>2019-03-24T07:35:27Z</time>
      </trkpt>
      <trkpt lat="43.69737" lon="6.83644">
        <ele>714</ele>
        <time>2019-03-24T07:35:28Z</time>
      </trkpt>
      <trkpt lat="43.69727" lon="6.83635">
        <ele>713</ele>
        <time>2019-03-24T07:35:31Z</time>
      </trkpt>
      <trkpt lat="43.6971" lon="6.83634">
        <ele>712.2</ele>
        <time>2019-03-24T07:35:35Z</time>
      </trkpt>
      <trkpt lat="43.69706" lon="6.83632">
        <ele>712</ele>
        <time>2019-03-24T07:35:36Z</time>
      </trkpt>
      <trkpt lat="43.69703" lon="6.83629">
        <ele>712</ele>
        <time>2019-03-24T07:35:37Z</time>
      </trkpt>
      <trkpt lat="43.69697" lon="6.83624">
        <ele>711.6</ele>
        <time>2019-03-24T07:35:39Z</time>
      </trkpt>
      <trkpt lat="43.69692" lon="6.83619">
        <ele>710.8</ele>
        <time>2019-03-24T07:35:41Z</time>
      </trkpt>
      <trkpt lat="43.69684" lon="6.83615">
        <ele>710</ele>
        <time>2019-03-24T07:35:43Z</time>
      </trkpt>
      <trkpt lat="43.6968" lon="6.83613">
        <ele>709.8</ele>
        <time>2019-03-24T07:35:44Z</time>
      </trkpt>
      <trkpt lat="43.69665" lon="6.83609">
        <ele>708.4</ele>
        <time>2019-03-24T07:35:48Z</time>
      </trkpt>
      <trkpt lat="43.69656" lon="6.83603">
        <ele>707</ele>
        <time>2019-03-24T07:35:51Z</time>
      </trkpt>
      <trkpt lat="43.69654" lon="6.83601">
        <ele>706.2</ele>
        <time>2019-03-24T07:35:52Z</time>
      </trkpt>
      <trkpt lat="43.69651" lon="6.83599">
        <ele>705.6</ele>
        <time>2019-03-24T07:35:53Z</time>
      </trkpt>
      <trkpt lat="43.69642" lon="6.83603">
        <ele>704.6</ele>
        <time>2019-03-24T07:35:56Z</time>
      </trkpt>
      <trkpt lat="43.69638" lon="6.83605">
        <ele>704.4</ele>
        <time>2019-03-24T07:35:57Z</time>
      </trkpt>
      <trkpt lat="43.69624" lon="6.83621">
        <ele>703.6</ele>
        <time>2019-03-24T07:36:01Z</time>
      </trkpt>
      <trkpt lat="43.6962" lon="6.83623">
        <ele>703.4</ele>
        <time>2019-03-24T07:36:02Z</time>
      </trkpt>
      <trkpt lat="43.69616" lon="6.8362">
        <ele>703.2</ele>
        <time>2019-03-24T07:36:03Z</time>
      </trkpt>
      <trkpt lat="43.69612" lon="6.83619">
        <ele>703</ele>
        <time>2019-03-24T07:36:04Z</time>
      </trkpt>
      <trkpt lat="43.69602" lon="6.83621">
        <ele>702.2</ele>
        <time>2019-03-24T07:36:07Z</time>
      </trkpt>
      <trkpt lat="43.69589" lon="6.83619">
        <ele>702.2</ele>
        <time>2019-03-24T07:36:11Z</time>
      </trkpt>
      <trkpt lat="43.69583" lon="6.83612">
        <ele>702.2</ele>
        <time>2019-03-24T07:36:14Z</time>
      </trkpt>
      <trkpt lat="43.69582" lon="6.83612">
        <ele>702.4</ele>
        <time>2019-03-24T07:36:15Z</time>
      </trkpt>
      <trkpt lat="43.6957" lon="6.83604">
        <ele>702.4</ele>
        <time>2019-03-24T07:36:19Z</time>
      </trkpt>
      <trkpt lat="43.69567" lon="6.83602">
        <ele>702.6</ele>
        <time>2019-03-24T07:36:20Z</time>
      </trkpt>
      <trkpt lat="43.69557" lon="6.83603">
        <ele>703</ele>
        <time>2019-03-24T07:36:23Z</time>
      </trkpt>
      <trkpt lat="43.69555" lon="6.83603">
        <ele>702.6</ele>
        <time>2019-03-24T07:36:24Z</time>
      </trkpt>
      <trkpt lat="43.69549" lon="6.83598">
        <ele>702.4</ele>
        <time>2019-03-24T07:36:27Z</time>
      </trkpt>
      <trkpt lat="43.69544" lon="6.83595">
        <ele>702.8</ele>
        <time>2019-03-24T07:36:30Z</time>
      </trkpt>
      <trkpt lat="43.69543" lon="6.83595">
        <ele>703.6</ele>
        <time>2019-03-24T07:36:31Z</time>
      </trkpt>
      <trkpt lat="43.69542" lon="6.83595">
        <ele>703.6</ele>
        <time>2019-03-24T07:36:32Z</time>
      </trkpt>
      <trkpt lat="43.69535" lon="6.83584">
        <ele>705.8</ele>
        <time>2019-03-24T07:36:51Z</time>
      </trkpt>
      <trkpt lat="43.69533" lon="6.83582">
        <ele>705.8</ele>
        <time>2019-03-24T07:36:53Z</time>
      </trkpt>
      <trkpt lat="43.6953" lon="6.83576">
        <ele>704.4</ele>
        <time>2019-03-24T07:36:57Z</time>
      </trkpt>
      <trkpt lat="43.69526" lon="6.83573">
        <ele>704.4</ele>
        <time>2019-03-24T07:37:00Z</time>
      </trkpt>
      <trkpt lat="43.69515" lon="6.8357">
        <ele>704.8</ele>
        <time>2019-03-24T07:37:06Z</time>
      </trkpt>
      <trkpt lat="43.69505" lon="6.83569">
        <ele>704.6</ele>
        <time>2019-03-24T07:37:11Z</time>
      </trkpt>
      <trkpt lat="43.69494" lon="6.83573">
        <ele>703.6</ele>
        <time>2019-03-24T07:37:16Z</time>
      </trkpt>
      <trkpt lat="43.69491" lon="6.83575">
        <ele>703.4</ele>
        <time>2019-03-24T07:37:17Z</time>
      </trkpt>
      <trkpt lat="43.69479" lon="6.83583">
        <ele>702.4</ele>
        <time>2019-03-24T07:37:22Z</time>
      </trkpt>
      <trkpt lat="43.69477" lon="6.83585">
        <ele>702.2</ele>
        <time>2019-03-24T07:37:23Z</time>
      </trkpt>
      <trkpt lat="43.69465" lon="6.83589">
        <ele>701</ele>
        <time>2019-03-24T07:37:26Z</time>
      </trkpt>
      <trkpt lat="43.69461" lon="6.83591">
        <ele>700.8</ele>
        <time>2019-03-24T07:37:27Z</time>
      </trkpt>
      <trkpt lat="43.69457" lon="6.83592">
        <ele>700.6</ele>
        <time>2019-03-24T07:37:28Z</time>
      </trkpt>
      <trkpt lat="43.69448" lon="6.83591">
        <ele>700.2</ele>
        <time>2019-03-24T07:37:31Z</time>
      </trkpt>
      <trkpt lat="43.69446" lon="6.83597">
        <ele>699.8</ele>
        <time>2019-03-24T07:37:32Z</time>
      </trkpt>
      <trkpt lat="43.69444" lon="6.83604">
        <ele>699.4</ele>
        <time>2019-03-24T07:37:34Z</time>
      </trkpt>
      <trkpt lat="43.69441" lon="6.83607">
        <ele>699.2</ele>
        <time>2019-03-24T07:37:36Z</time>
      </trkpt>
      <trkpt lat="43.69438" lon="6.83608">
        <ele>699</ele>
        <time>2019-03-24T07:37:37Z</time>
      </trkpt>
      <trkpt lat="43.69436" lon="6.83611">
        <ele>698.8</ele>
        <time>2019-03-24T07:37:38Z</time>
      </trkpt>
      <trkpt lat="43.69433" lon="6.83621">
        <ele>698.2</ele>
        <time>2019-03-24T07:37:41Z</time>
      </trkpt>
      <trkpt lat="43.69422" lon="6.83624">
        <ele>697.8</ele>
        <time>2019-03-24T07:37:45Z</time>
      </trkpt>
      <trkpt lat="43.69419" lon="6.83623">
        <ele>697.6</ele>
        <time>2019-03-24T07:37:46Z</time>
      </trkpt>
      <trkpt lat="43.69413" lon="6.83621">
        <ele>697.2</ele>
        <time>2019-03-24T07:37:48Z</time>
      </trkpt>
      <trkpt lat="43.6941" lon="6.83622">
        <ele>696.8</ele>
        <time>2019-03-24T07:37:50Z</time>
      </trkpt>
      <trkpt lat="43.6941" lon="6.83627">
        <ele>696.4</ele>
        <time>2019-03-24T07:37:56Z</time>
      </trkpt>
      <trkpt lat="43.69408" lon="6.83631">
        <ele>695.2</ele>
        <time>2019-03-24T07:37:57Z</time>
      </trkpt>
      <trkpt lat="43.69406" lon="6.83634">
        <ele>694.8</ele>
        <time>2019-03-24T07:37:58Z</time>
      </trkpt>
      <trkpt lat="43.69407" lon="6.8364">
        <ele>694</ele>
        <time>2019-03-24T07:38:00Z</time>
      </trkpt>
      <trkpt lat="43.69407" lon="6.83648">
        <ele>693</ele>
        <time>2019-03-24T07:38:02Z</time>
      </trkpt>
      <trkpt lat="43.69408" lon="6.83652">
        <ele>692.8</ele>
        <time>2019-03-24T07:38:03Z</time>
      </trkpt>
      <trkpt lat="43.69406" lon="6.83667">
        <ele>692.2</ele>
        <time>2019-03-24T07:38:06Z</time>
      </trkpt>
      <trkpt lat="43.69407" lon="6.83671">
        <ele>692</ele>
        <time>2019-03-24T07:38:07Z</time>
      </trkpt>
      <trkpt lat="43.69407" lon="6.83675">
        <ele>691.8</ele>
        <time>2019-03-24T07:38:08Z</time>
      </trkpt>
      <trkpt lat="43.69406" lon="6.8369">
        <ele>691.2</ele>
        <time>2019-03-24T07:38:11Z</time>
      </trkpt>
      <trkpt lat="43.69404" lon="6.83694">
        <ele>691</ele>
        <time>2019-03-24T07:38:12Z</time>
      </trkpt>
      <trkpt lat="43.694" lon="6.83694">
        <ele>690.6</ele>
        <time>2019-03-24T07:38:13Z</time>
      </trkpt>
      <trkpt lat="43.69397" lon="6.83696">
        <ele>690.2</ele>
        <time>2019-03-24T07:38:14Z</time>
      </trkpt>
      <trkpt lat="43.69392" lon="6.83696">
        <ele>689.8</ele>
        <time>2019-03-24T07:38:16Z</time>
      </trkpt>
      <trkpt lat="43.6939" lon="6.83697">
        <ele>689.8</ele>
        <time>2019-03-24T07:38:17Z</time>
      </trkpt>
      <trkpt lat="43.69388" lon="6.83699">
        <ele>689.2</ele>
        <time>2019-03-24T07:38:18Z</time>
      </trkpt>
      <trkpt lat="43.69383" lon="6.83709">
        <ele>688</ele>
        <time>2019-03-24T07:38:21Z</time>
      </trkpt>
      <trkpt lat="43.69382" lon="6.83717">
        <ele>687</ele>
        <time>2019-03-24T07:38:23Z</time>
      </trkpt>
      <trkpt lat="43.69378" lon="6.83725">
        <ele>685.8</ele>
        <time>2019-03-24T07:38:25Z</time>
      </trkpt>
      <trkpt lat="43.69375" lon="6.83726">
        <ele>685.4</ele>
        <time>2019-03-24T07:38:26Z</time>
      </trkpt>
      <trkpt lat="43.69367" lon="6.83726">
        <ele>685</ele>
        <time>2019-03-24T07:38:28Z</time>
      </trkpt>
      <trkpt lat="43.69363" lon="6.83724">
        <ele>684.2</ele>
        <time>2019-03-24T07:38:29Z</time>
      </trkpt>
      <trkpt lat="43.69359" lon="6.83723">
        <ele>684</ele>
        <time>2019-03-24T07:38:30Z</time>
      </trkpt>
      <trkpt lat="43.69355" lon="6.8372">
        <ele>683.8</ele>
        <time>2019-03-24T07:38:31Z</time>
      </trkpt>
      <trkpt lat="43.6935" lon="6.83714">
        <ele>682.8</ele>
        <time>2019-03-24T07:38:33Z</time>
      </trkpt>
      <trkpt lat="43.69344" lon="6.83711">
        <ele>681.8</ele>
        <time>2019-03-24T07:38:35Z</time>
      </trkpt>
      <trkpt lat="43.6934" lon="6.83711">
        <ele>681</ele>
        <time>2019-03-24T07:38:36Z</time>
      </trkpt>
      <trkpt lat="43.69336" lon="6.83713">
        <ele>680.2</ele>
        <time>2019-03-24T07:38:37Z</time>
      </trkpt>
      <trkpt lat="43.69328" lon="6.83713">
        <ele>679.2</ele>
        <time>2019-03-24T07:38:39Z</time>
      </trkpt>
      <trkpt lat="43.69324" lon="6.83711">
        <ele>678.8</ele>
        <time>2019-03-24T07:38:40Z</time>
      </trkpt>
      <trkpt lat="43.69316" lon="6.83703">
        <ele>677.6</ele>
        <time>2019-03-24T07:38:42Z</time>
      </trkpt>
      <trkpt lat="43.69313" lon="6.83699">
        <ele>677</ele>
        <time>2019-03-24T07:38:43Z</time>
      </trkpt>
      <trkpt lat="43.69309" lon="6.83694">
        <ele>676.4</ele>
        <time>2019-03-24T07:38:44Z</time>
      </trkpt>
      <trkpt lat="43.69305" lon="6.8369">
        <ele>675.8</ele>
        <time>2019-03-24T07:38:45Z</time>
      </trkpt>
      <trkpt lat="43.69297" lon="6.83679">
        <ele>675.4</ele>
        <time>2019-03-24T07:38:47Z</time>
      </trkpt>
      <trkpt lat="43.69295" lon="6.83672">
        <ele>674.8</ele>
        <time>2019-03-24T07:38:48Z</time>
      </trkpt>
      <trkpt lat="43.69292" lon="6.83665">
        <ele>673.8</ele>
        <time>2019-03-24T07:38:49Z</time>
      </trkpt>
      <trkpt lat="43.69286" lon="6.83652">
        <ele>673</ele>
        <time>2019-03-24T07:38:51Z</time>
      </trkpt>
      <trkpt lat="43.69284" lon="6.83645">
        <ele>672.6</ele>
        <time>2019-03-24T07:38:52Z</time>
      </trkpt>
      <trkpt lat="43.69276" lon="6.83623">
        <ele>671.4</ele>
        <time>2019-03-24T07:38:55Z</time>
      </trkpt>
      <trkpt lat="43.69272" lon="6.83611">
        <ele>670.8</ele>
        <time>2019-03-24T07:38:57Z</time>
      </trkpt>
      <trkpt lat="43.69267" lon="6.83601">
        <ele>670.2</ele>
        <time>2019-03-24T07:38:59Z</time>
      </trkpt>
      <trkpt lat="43.69264" lon="6.83596">
        <ele>670</ele>
        <time>2019-03-24T07:39:00Z</time>
      </trkpt>
      <trkpt lat="43.69258" lon="6.83586">
        <ele>669.6</ele>
        <time>2019-03-24T07:39:02Z</time>
      </trkpt>
      <trkpt lat="43.69256" lon="6.83579">
        <ele>669.4</ele>
        <time>2019-03-24T07:39:03Z</time>
      </trkpt>
      <trkpt lat="43.69251" lon="6.83567">
        <ele>669</ele>
        <time>2019-03-24T07:39:05Z</time>
      </trkpt>
      <trkpt lat="43.69247" lon="6.83562">
        <ele>668.4</ele>
        <time>2019-03-24T07:39:06Z</time>
      </trkpt>
      <trkpt lat="43.69238" lon="6.83553">
        <ele>667.6</ele>
        <time>2019-03-24T07:39:08Z</time>
      </trkpt>
      <trkpt lat="43.69229" lon="6.83546">
        <ele>666.6</ele>
        <time>2019-03-24T07:39:10Z</time>
      </trkpt>
      <trkpt lat="43.69224" lon="6.83543">
        <ele>666.2</ele>
        <time>2019-03-24T07:39:11Z</time>
      </trkpt>
      <trkpt lat="43.69214" lon="6.83534">
        <ele>665</ele>
        <time>2019-03-24T07:39:13Z</time>
      </trkpt>
      <trkpt lat="43.6921" lon="6.83528">
        <ele>664.4</ele>
        <time>2019-03-24T07:39:14Z</time>
      </trkpt>
      <trkpt lat="43.69206" lon="6.83523">
        <ele>663.8</ele>
        <time>2019-03-24T07:39:15Z</time>
      </trkpt>
      <trkpt lat="43.69203" lon="6.83517">
        <ele>663.2</ele>
        <time>2019-03-24T07:39:16Z</time>
      </trkpt>
      <trkpt lat="43.692" lon="6.8351">
        <ele>662.8</ele>
        <time>2019-03-24T07:39:17Z</time>
      </trkpt>
      <trkpt lat="43.69196" lon="6.83505">
        <ele>662.4</ele>
        <time>2019-03-24T07:39:18Z</time>
      </trkpt>
      <trkpt lat="43.69189" lon="6.83495">
        <ele>661.6</ele>
        <time>2019-03-24T07:39:20Z</time>
      </trkpt>
      <trkpt lat="43.69186" lon="6.83492">
        <ele>661.2</ele>
        <time>2019-03-24T07:39:21Z</time>
      </trkpt>
      <trkpt lat="43.69183" lon="6.83489">
        <ele>660.4</ele>
        <time>2019-03-24T07:39:23Z</time>
      </trkpt>
      <trkpt lat="43.69182" lon="6.83487">
        <ele>660.2</ele>
        <time>2019-03-24T07:39:25Z</time>
      </trkpt>
      <trkpt lat="43.69181" lon="6.83486">
        <ele>660</ele>
        <time>2019-03-24T07:39:27Z</time>
      </trkpt>
      <trkpt lat="43.69177" lon="6.83485">
        <ele>660.2</ele>
        <time>2019-03-24T07:39:30Z</time>
      </trkpt>
      <trkpt lat="43.6917" lon="6.83483">
        <ele>659.8</ele>
        <time>2019-03-24T07:39:33Z</time>
      </trkpt>
      <trkpt lat="43.69166" lon="6.8348">
        <ele>659.4</ele>
        <time>2019-03-24T07:39:34Z</time>
      </trkpt>
      <trkpt lat="43.69164" lon="6.83477">
        <ele>659.2</ele>
        <time>2019-03-24T07:39:35Z</time>
      </trkpt>
      <trkpt lat="43.69162" lon="6.83476">
        <ele>659</ele>
        <time>2019-03-24T07:39:36Z</time>
      </trkpt>
      <trkpt lat="43.6916" lon="6.83477">
        <ele>659</ele>
        <time>2019-03-24T07:39:37Z</time>
      </trkpt>
      <trkpt lat="43.69155" lon="6.8348">
        <ele>659</ele>
        <time>2019-03-24T07:39:39Z</time>
      </trkpt>
      <trkpt lat="43.69149" lon="6.83479">
        <ele>658.8</ele>
        <time>2019-03-24T07:39:41Z</time>
      </trkpt>
      <trkpt lat="43.69138" lon="6.83468">
        <ele>658.4</ele>
        <time>2019-03-24T07:39:44Z</time>
      </trkpt>
      <trkpt lat="43.69129" lon="6.83463">
        <ele>658.4</ele>
        <time>2019-03-24T07:39:46Z</time>
      </trkpt>
      <trkpt lat="43.69121" lon="6.83457">
        <ele>658.2</ele>
        <time>2019-03-24T07:39:48Z</time>
      </trkpt>
      <trkpt lat="43.69118" lon="6.83453">
        <ele>658.2</ele>
        <time>2019-03-24T07:39:49Z</time>
      </trkpt>
      <trkpt lat="43.69114" lon="6.83449">
        <ele>658</ele>
        <time>2019-03-24T07:39:50Z</time>
      </trkpt>
      <trkpt lat="43.69104" lon="6.83448">
        <ele>657.8</ele>
        <time>2019-03-24T07:39:53Z</time>
      </trkpt>
      <trkpt lat="43.69101" lon="6.83449">
        <ele>657.8</ele>
        <time>2019-03-24T07:39:54Z</time>
      </trkpt>
      <trkpt lat="43.69088" lon="6.83453">
        <ele>658.2</ele>
        <time>2019-03-24T07:39:58Z</time>
      </trkpt>
      <trkpt lat="43.69076" lon="6.83461">
        <ele>659.4</ele>
        <time>2019-03-24T07:40:02Z</time>
      </trkpt>
      <trkpt lat="43.6907" lon="6.83464">
        <ele>660.2</ele>
        <time>2019-03-24T07:40:04Z</time>
      </trkpt>
      <trkpt lat="43.69067" lon="6.83466">
        <ele>660.4</ele>
        <time>2019-03-24T07:40:05Z</time>
      </trkpt>
      <trkpt lat="43.69057" lon="6.83467">
        <ele>661.4</ele>
        <time>2019-03-24T07:40:08Z</time>
      </trkpt>
      <trkpt lat="43.69055" lon="6.83467">
        <ele>661.8</ele>
        <time>2019-03-24T07:40:09Z</time>
      </trkpt>
      <trkpt lat="43.69049" lon="6.83471">
        <ele>663.2</ele>
        <time>2019-03-24T07:40:11Z</time>
      </trkpt>
      <trkpt lat="43.69045" lon="6.83473">
        <ele>664.4</ele>
        <time>2019-03-24T07:40:13Z</time>
      </trkpt>
      <trkpt lat="43.69044" lon="6.83474">
        <ele>664.8</ele>
        <time>2019-03-24T07:40:14Z</time>
      </trkpt>
      <trkpt lat="43.69042" lon="6.83476">
        <ele>665.2</ele>
        <time>2019-03-24T07:40:15Z</time>
      </trkpt>
      <trkpt lat="43.69041" lon="6.83479">
        <ele>665.6</ele>
        <time>2019-03-24T07:40:16Z</time>
      </trkpt>
      <trkpt lat="43.69041" lon="6.83488">
        <ele>666</ele>
        <time>2019-03-24T07:40:18Z</time>
      </trkpt>
      <trkpt lat="43.69041" lon="6.83492">
        <ele>666</ele>
        <time>2019-03-24T07:40:19Z</time>
      </trkpt>
      <trkpt lat="43.69039" lon="6.83511">
        <ele>667</ele>
        <time>2019-03-24T07:40:23Z</time>
      </trkpt>
      <trkpt lat="43.69037" lon="6.83515">
        <ele>667.4</ele>
        <time>2019-03-24T07:40:24Z</time>
      </trkpt>
      <trkpt lat="43.69035" lon="6.83523">
        <ele>668.2</ele>
        <time>2019-03-24T07:40:26Z</time>
      </trkpt>
      <trkpt lat="43.69032" lon="6.83533">
        <ele>668.6</ele>
        <time>2019-03-24T07:40:29Z</time>
      </trkpt>
      <trkpt lat="43.69031" lon="6.8355">
        <ele>669.2</ele>
        <time>2019-03-24T07:40:33Z</time>
      </trkpt>
      <trkpt lat="43.6903" lon="6.83554">
        <ele>669.4</ele>
        <time>2019-03-24T07:40:34Z</time>
      </trkpt>
      <trkpt lat="43.69024" lon="6.83577">
        <ele>670.4</ele>
        <time>2019-03-24T07:40:40Z</time>
      </trkpt>
      <trkpt lat="43.69023" lon="6.8358">
        <ele>670.2</ele>
        <time>2019-03-24T07:40:41Z</time>
      </trkpt>
      <trkpt lat="43.69018" lon="6.836">
        <ele>671.2</ele>
        <time>2019-03-24T07:40:47Z</time>
      </trkpt>
      <trkpt lat="43.69016" lon="6.83603">
        <ele>671.4</ele>
        <time>2019-03-24T07:40:48Z</time>
      </trkpt>
      <trkpt lat="43.69014" lon="6.83614">
        <ele>671.6</ele>
        <time>2019-03-24T07:40:51Z</time>
      </trkpt>
      <trkpt lat="43.69013" lon="6.83628">
        <ele>672</ele>
        <time>2019-03-24T07:40:56Z</time>
      </trkpt>
      <trkpt lat="43.69014" lon="6.8364">
        <ele>672.4</ele>
        <time>2019-03-24T07:41:03Z</time>
      </trkpt>
      <trkpt lat="43.69014" lon="6.83643">
        <ele>672.4</ele>
        <time>2019-03-24T07:41:04Z</time>
      </trkpt>
      <trkpt lat="43.69017" lon="6.83658">
        <ele>672.8</ele>
        <time>2019-03-24T07:41:10Z</time>
      </trkpt>
      <trkpt lat="43.69021" lon="6.83677">
        <ele>673</ele>
        <time>2019-03-24T07:41:15Z</time>
      </trkpt>
      <trkpt lat="43.6902" lon="6.83691">
        <ele>673.6</ele>
        <time>2019-03-24T07:41:19Z</time>
      </trkpt>
      <trkpt lat="43.69016" lon="6.83707">
        <ele>674.2</ele>
        <time>2019-03-24T07:41:24Z</time>
      </trkpt>
      <trkpt lat="43.6901" lon="6.83732">
        <ele>674</ele>
        <time>2019-03-24T07:41:30Z</time>
      </trkpt>
      <trkpt lat="43.69002" lon="6.8375">
        <ele>674.2</ele>
        <time>2019-03-24T07:41:35Z</time>
      </trkpt>
      <trkpt lat="43.68993" lon="6.83753">
        <ele>674.6</ele>
        <time>2019-03-24T07:41:39Z</time>
      </trkpt>
      <trkpt lat="43.68982" lon="6.83765">
        <ele>675.2</ele>
        <time>2019-03-24T07:41:43Z</time>
      </trkpt>
      <trkpt lat="43.6898" lon="6.83768">
        <ele>675.4</ele>
        <time>2019-03-24T07:41:44Z</time>
      </trkpt>
      <trkpt lat="43.68977" lon="6.83771">
        <ele>675.8</ele>
        <time>2019-03-24T07:41:45Z</time>
      </trkpt>
      <trkpt lat="43.68965" lon="6.83783">
        <ele>676.8</ele>
        <time>2019-03-24T07:41:49Z</time>
      </trkpt>
      <trkpt lat="43.68961" lon="6.83784">
        <ele>677</ele>
        <time>2019-03-24T07:41:50Z</time>
      </trkpt>
      <trkpt lat="43.6895" lon="6.83785">
        <ele>677</ele>
        <time>2019-03-24T07:41:53Z</time>
      </trkpt>
      <trkpt lat="43.68933" lon="6.83793">
        <ele>678</ele>
        <time>2019-03-24T07:41:58Z</time>
      </trkpt>
      <trkpt lat="43.68927" lon="6.83797">
        <ele>678.4</ele>
        <time>2019-03-24T07:42:00Z</time>
      </trkpt>
      <trkpt lat="43.68911" lon="6.83802">
        <ele>678.6</ele>
        <time>2019-03-24T07:42:05Z</time>
      </trkpt>
      <trkpt lat="43.68897" lon="6.83804">
        <ele>679</ele>
        <time>2019-03-24T07:42:09Z</time>
      </trkpt>
      <trkpt lat="43.68887" lon="6.83807">
        <ele>679.4</ele>
        <time>2019-03-24T07:42:12Z</time>
      </trkpt>
      <trkpt lat="43.68874" lon="6.83813">
        <ele>679.4</ele>
        <time>2019-03-24T07:42:16Z</time>
      </trkpt>
      <trkpt lat="43.6886" lon="6.83827">
        <ele>680.2</ele>
        <time>2019-03-24T07:42:21Z</time>
      </trkpt>
      <trkpt lat="43.68853" lon="6.83829">
        <ele>680.2</ele>
        <time>2019-03-24T07:42:23Z</time>
      </trkpt>
      <trkpt lat="43.68834" lon="6.83834">
        <ele>681.2</ele>
        <time>2019-03-24T07:42:29Z</time>
      </trkpt>
      <trkpt lat="43.6882" lon="6.83845">
        <ele>681.8</ele>
        <time>2019-03-24T07:42:34Z</time>
      </trkpt>
      <trkpt lat="43.6881" lon="6.83867">
        <ele>681.8</ele>
        <time>2019-03-24T07:42:39Z</time>
      </trkpt>
      <trkpt lat="43.688" lon="6.83899">
        <ele>682</ele>
        <time>2019-03-24T07:42:45Z</time>
      </trkpt>
      <trkpt lat="43.68791" lon="6.83922">
        <ele>681.8</ele>
        <time>2019-03-24T07:42:50Z</time>
      </trkpt>
      <trkpt lat="43.6879" lon="6.83927">
        <ele>681.8</ele>
        <time>2019-03-24T07:42:51Z</time>
      </trkpt>
      <trkpt lat="43.68789" lon="6.83943">
        <ele>681.4</ele>
        <time>2019-03-24T07:42:54Z</time>
      </trkpt>
      <trkpt lat="43.68781" lon="6.83963">
        <ele>681.2</ele>
        <time>2019-03-24T07:42:58Z</time>
      </trkpt>
      <trkpt lat="43.68771" lon="6.83982">
        <ele>681.8</ele>
        <time>2019-03-24T07:43:02Z</time>
      </trkpt>
      <trkpt lat="43.68766" lon="6.83992">
        <ele>682</ele>
        <time>2019-03-24T07:43:04Z</time>
      </trkpt>
      <trkpt lat="43.68759" lon="6.84008">
        <ele>681.2</ele>
        <time>2019-03-24T07:43:07Z</time>
      </trkpt>
      <trkpt lat="43.68751" lon="6.84032">
        <ele>681.4</ele>
        <time>2019-03-24T07:43:11Z</time>
      </trkpt>
      <trkpt lat="43.68752" lon="6.84055">
        <ele>681</ele>
        <time>2019-03-24T07:43:14Z</time>
      </trkpt>
      <trkpt lat="43.68753" lon="6.84072">
        <ele>680.6</ele>
        <time>2019-03-24T07:43:16Z</time>
      </trkpt>
      <trkpt lat="43.68752" lon="6.8408">
        <ele>680.4</ele>
        <time>2019-03-24T07:43:17Z</time>
      </trkpt>
      <trkpt lat="43.68752" lon="6.84087">
        <ele>680.2</ele>
        <time>2019-03-24T07:43:18Z</time>
      </trkpt>
      <trkpt lat="43.6875" lon="6.84094">
        <ele>680.2</ele>
        <time>2019-03-24T07:43:19Z</time>
      </trkpt>
      <trkpt lat="43.68749" lon="6.84114">
        <ele>680</ele>
        <time>2019-03-24T07:43:22Z</time>
      </trkpt>
      <trkpt lat="43.6876" lon="6.84136">
        <ele>680.2</ele>
        <time>2019-03-24T07:43:26Z</time>
      </trkpt>
      <trkpt lat="43.68767" lon="6.84144">
        <ele>680.4</ele>
        <time>2019-03-24T07:43:28Z</time>
      </trkpt>
      <trkpt lat="43.68779" lon="6.84154">
        <ele>680.4</ele>
        <time>2019-03-24T07:43:31Z</time>
      </trkpt>
      <trkpt lat="43.68806" lon="6.84177">
        <ele>681</ele>
        <time>2019-03-24T07:43:39Z</time>
      </trkpt>
      <trkpt lat="43.68809" lon="6.84181">
        <ele>681.2</ele>
        <time>2019-03-24T07:43:40Z</time>
      </trkpt>
      <trkpt lat="43.68822" lon="6.84198">
        <ele>682.6</ele>
        <time>2019-03-24T07:43:45Z</time>
      </trkpt>
      <trkpt lat="43.68824" lon="6.84202">
        <ele>683</ele>
        <time>2019-03-24T07:43:46Z</time>
      </trkpt>
      <trkpt lat="43.68833" lon="6.84211">
        <ele>683.8</ele>
        <time>2019-03-24T07:43:49Z</time>
      </trkpt>
      <trkpt lat="43.68843" lon="6.84221">
        <ele>685.2</ele>
        <time>2019-03-24T07:43:53Z</time>
      </trkpt>
      <trkpt lat="43.68846" lon="6.84224">
        <ele>685.6</ele>
        <time>2019-03-24T07:43:54Z</time>
      </trkpt>
      <trkpt lat="43.68854" lon="6.84231">
        <ele>686.4</ele>
        <time>2019-03-24T07:43:57Z</time>
      </trkpt>
      <trkpt lat="43.68863" lon="6.84237">
        <ele>687.2</ele>
        <time>2019-03-24T07:44:00Z</time>
      </trkpt>
      <trkpt lat="43.68864" lon="6.84239">
        <ele>687.8</ele>
        <time>2019-03-24T07:44:01Z</time>
      </trkpt>
      <trkpt lat="43.68864" lon="6.84243">
        <ele>689.2</ele>
        <time>2019-03-24T07:44:03Z</time>
      </trkpt>
      <trkpt lat="43.6886" lon="6.84248">
        <ele>690.6</ele>
        <time>2019-03-24T07:44:05Z</time>
      </trkpt>
      <trkpt lat="43.68852" lon="6.84251">
        <ele>691.8</ele>
        <time>2019-03-24T07:44:07Z</time>
      </trkpt>
      <trkpt lat="43.68835" lon="6.84253">
        <ele>692.2</ele>
        <time>2019-03-24T07:44:11Z</time>
      </trkpt>
      <trkpt lat="43.68815" lon="6.84257">
        <ele>692.2</ele>
        <time>2019-03-24T07:44:15Z</time>
      </trkpt>
      <trkpt lat="43.68805" lon="6.84259">
        <ele>692.4</ele>
        <time>2019-03-24T07:44:17Z</time>
      </trkpt>
      <trkpt lat="43.68794" lon="6.8426">
        <ele>692.2</ele>
        <time>2019-03-24T07:44:19Z</time>
      </trkpt>
      <trkpt lat="43.68773" lon="6.84261">
        <ele>691.8</ele>
        <time>2019-03-24T07:44:23Z</time>
      </trkpt>
      <trkpt lat="43.68755" lon="6.84262">
        <ele>693.2</ele>
        <time>2019-03-24T07:44:27Z</time>
      </trkpt>
      <trkpt lat="43.68746" lon="6.84266">
        <ele>694</ele>
        <time>2019-03-24T07:44:29Z</time>
      </trkpt>
      <trkpt lat="43.68741" lon="6.84267">
        <ele>694.2</ele>
        <time>2019-03-24T07:44:30Z</time>
      </trkpt>
      <trkpt lat="43.68736" lon="6.84268">
        <ele>694</ele>
        <time>2019-03-24T07:44:31Z</time>
      </trkpt>
      <trkpt lat="43.68731" lon="6.84269">
        <ele>694</ele>
        <time>2019-03-24T07:44:32Z</time>
      </trkpt>
      <trkpt lat="43.68714" lon="6.84271">
        <ele>693.8</ele>
        <time>2019-03-24T07:44:35Z</time>
      </trkpt>
      <trkpt lat="43.68697" lon="6.84269">
        <ele>693.8</ele>
        <time>2019-03-24T07:44:38Z</time>
      </trkpt>
      <trkpt lat="43.68691" lon="6.8427">
        <ele>693.6</ele>
        <time>2019-03-24T07:44:39Z</time>
      </trkpt>
      <trkpt lat="43.68685" lon="6.84271">
        <ele>693.4</ele>
        <time>2019-03-24T07:44:40Z</time>
      </trkpt>
      <trkpt lat="43.6868" lon="6.84274">
        <ele>693</ele>
        <time>2019-03-24T07:44:41Z</time>
      </trkpt>
      <trkpt lat="43.68675" lon="6.84275">
        <ele>692.6</ele>
        <time>2019-03-24T07:44:42Z</time>
      </trkpt>
      <trkpt lat="43.68665" lon="6.84289">
        <ele>691.8</ele>
        <time>2019-03-24T07:44:45Z</time>
      </trkpt>
      <trkpt lat="43.68663" lon="6.84308">
        <ele>690.8</ele>
        <time>2019-03-24T07:44:48Z</time>
      </trkpt>
      <trkpt lat="43.68664" lon="6.8432">
        <ele>690.2</ele>
        <time>2019-03-24T07:44:50Z</time>
      </trkpt>
      <trkpt lat="43.68665" lon="6.84331">
        <ele>689.4</ele>
        <time>2019-03-24T07:44:52Z</time>
      </trkpt>
      <trkpt lat="43.68666" lon="6.8434">
        <ele>688.6</ele>
        <time>2019-03-24T07:44:54Z</time>
      </trkpt>
      <trkpt lat="43.68665" lon="6.84342">
        <ele>688.4</ele>
        <time>2019-03-24T07:44:55Z</time>
      </trkpt>
      <trkpt lat="43.68663" lon="6.84343">
        <ele>688.4</ele>
        <time>2019-03-24T07:44:56Z</time>
      </trkpt>
      <trkpt lat="43.68657" lon="6.84343">
        <ele>688</ele>
        <time>2019-03-24T07:44:58Z</time>
      </trkpt>
      <trkpt lat="43.68653" lon="6.84343">
        <ele>687.8</ele>
        <time>2019-03-24T07:44:59Z</time>
      </trkpt>
      <trkpt lat="43.68645" lon="6.8434">
        <ele>687.2</ele>
        <time>2019-03-24T07:45:01Z</time>
      </trkpt>
      <trkpt lat="43.68639" lon="6.8434">
        <ele>686.4</ele>
        <time>2019-03-24T07:45:03Z</time>
      </trkpt>
      <trkpt lat="43.68635" lon="6.8434">
        <ele>685.8</ele>
        <time>2019-03-24T07:45:04Z</time>
      </trkpt>
      <trkpt lat="43.68627" lon="6.84339">
        <ele>684</ele>
        <time>2019-03-24T07:45:06Z</time>
      </trkpt>
      <trkpt lat="43.68619" lon="6.84338">
        <ele>682.8</ele>
        <time>2019-03-24T07:45:08Z</time>
      </trkpt>
      <trkpt lat="43.68601" lon="6.84332">
        <ele>681.4</ele>
        <time>2019-03-24T07:45:13Z</time>
      </trkpt>
      <trkpt lat="43.68585" lon="6.84329">
        <ele>681.2</ele>
        <time>2019-03-24T07:45:18Z</time>
      </trkpt>
      <trkpt lat="43.68574" lon="6.84325">
        <ele>681.8</ele>
        <time>2019-03-24T07:45:23Z</time>
      </trkpt>
      <trkpt lat="43.68571" lon="6.84325">
        <ele>681.8</ele>
        <time>2019-03-24T07:45:24Z</time>
      </trkpt>
      <trkpt lat="43.68564" lon="6.84324">
        <ele>682.2</ele>
        <time>2019-03-24T07:45:29Z</time>
      </trkpt>
      <trkpt lat="43.68561" lon="6.84323">
        <ele>682.8</ele>
        <time>2019-03-24T07:45:31Z</time>
      </trkpt>
      <trkpt lat="43.68554" lon="6.84319">
        <ele>683.6</ele>
        <time>2019-03-24T07:45:36Z</time>
      </trkpt>
      <trkpt lat="43.68552" lon="6.84317">
        <ele>683.8</ele>
        <time>2019-03-24T07:45:38Z</time>
      </trkpt>
      <trkpt lat="43.68549" lon="6.84316">
        <ele>684.2</ele>
        <time>2019-03-24T07:45:45Z</time>
      </trkpt>
      <trkpt lat="43.68548" lon="6.84317">
        <ele>684.2</ele>
        <time>2019-03-24T07:45:46Z</time>
      </trkpt>
      <trkpt lat="43.68542" lon="6.84316">
        <ele>684.8</ele>
        <time>2019-03-24T07:45:49Z</time>
      </trkpt>
      <trkpt lat="43.68539" lon="6.84316">
        <ele>685.4</ele>
        <time>2019-03-24T07:45:50Z</time>
      </trkpt>
      <trkpt lat="43.68536" lon="6.84316">
        <ele>685.8</ele>
        <time>2019-03-24T07:45:51Z</time>
      </trkpt>
      <trkpt lat="43.68534" lon="6.84316">
        <ele>686.4</ele>
        <time>2019-03-24T07:45:52Z</time>
      </trkpt>
      <trkpt lat="43.68529" lon="6.84316">
        <ele>687.4</ele>
        <time>2019-03-24T07:45:54Z</time>
      </trkpt>
      <trkpt lat="43.68522" lon="6.84315">
        <ele>688.2</ele>
        <time>2019-03-24T07:45:58Z</time>
      </trkpt>
      <trkpt lat="43.68518" lon="6.84314">
        <ele>688.8</ele>
        <time>2019-03-24T07:46:00Z</time>
      </trkpt>
      <trkpt lat="43.68511" lon="6.84313">
        <ele>690</ele>
        <time>2019-03-24T07:46:04Z</time>
      </trkpt>
      <trkpt lat="43.68502" lon="6.84308">
        <ele>689.8</ele>
        <time>2019-03-24T07:46:08Z</time>
      </trkpt>
      <trkpt lat="43.68497" lon="6.84306">
        <ele>689.8</ele>
        <time>2019-03-24T07:46:10Z</time>
      </trkpt>
      <trkpt lat="43.68485" lon="6.84301">
        <ele>690</ele>
        <time>2019-03-24T07:46:14Z</time>
      </trkpt>
      <trkpt lat="43.68466" lon="6.84295">
        <ele>690</ele>
        <time>2019-03-24T07:46:20Z</time>
      </trkpt>
      <trkpt lat="43.68453" lon="6.8429">
        <ele>690</ele>
        <time>2019-03-24T07:46:23Z</time>
      </trkpt>
      <trkpt lat="43.68444" lon="6.84286">
        <ele>690.2</ele>
        <time>2019-03-24T07:46:25Z</time>
      </trkpt>
      <trkpt lat="43.68416" lon="6.84273">
        <ele>689.4</ele>
        <time>2019-03-24T07:46:30Z</time>
      </trkpt>
      <trkpt lat="43.68394" lon="6.84265">
        <ele>688.8</ele>
        <time>2019-03-24T07:46:33Z</time>
      </trkpt>
      <trkpt lat="43.68378" lon="6.84259">
        <ele>688.4</ele>
        <time>2019-03-24T07:46:35Z</time>
      </trkpt>
      <trkpt lat="43.68362" lon="6.84252">
        <ele>687.8</ele>
        <time>2019-03-24T07:46:37Z</time>
      </trkpt>
      <trkpt lat="43.68341" lon="6.84243">
        <ele>686.8</ele>
        <time>2019-03-24T07:46:40Z</time>
      </trkpt>
      <trkpt lat="43.68335" lon="6.8424">
        <ele>686.4</ele>
        <time>2019-03-24T07:46:41Z</time>
      </trkpt>
      <trkpt lat="43.68313" lon="6.8423">
        <ele>685.6</ele>
        <time>2019-03-24T07:46:45Z</time>
      </trkpt>
      <trkpt lat="43.68308" lon="6.84232">
        <ele>685.4</ele>
        <time>2019-03-24T07:46:46Z</time>
      </trkpt>
      <trkpt lat="43.68302" lon="6.84235">
        <ele>685.4</ele>
        <time>2019-03-24T07:46:47Z</time>
      </trkpt>
      <trkpt lat="43.68288" lon="6.84233">
        <ele>685.2</ele>
        <time>2019-03-24T07:46:50Z</time>
      </trkpt>
      <trkpt lat="43.68279" lon="6.84232">
        <ele>684.8</ele>
        <time>2019-03-24T07:46:54Z</time>
      </trkpt>
      <trkpt lat="43.68276" lon="6.84232">
        <ele>684.6</ele>
        <time>2019-03-24T07:46:56Z</time>
      </trkpt>
      <trkpt lat="43.68273" lon="6.84231">
        <ele>684.2</ele>
        <time>2019-03-24T07:46:59Z</time>
      </trkpt>
      <trkpt lat="43.68272" lon="6.84231">
        <ele>684.2</ele>
        <time>2019-03-24T07:47:00Z</time>
      </trkpt>
      <trkpt lat="43.68271" lon="6.84231">
        <ele>684</ele>
        <time>2019-03-24T07:47:01Z</time>
      </trkpt>
      <trkpt lat="43.68265" lon="6.84231">
        <ele>684.4</ele>
        <time>2019-03-24T07:47:05Z</time>
      </trkpt>
      <trkpt lat="43.68255" lon="6.84218">
        <ele>685</ele>
        <time>2019-03-24T07:47:10Z</time>
      </trkpt>
      <trkpt lat="43.68242" lon="6.84204">
        <ele>685.4</ele>
        <time>2019-03-24T07:47:15Z</time>
      </trkpt>
      <trkpt lat="43.68236" lon="6.84197">
        <ele>685.8</ele>
        <time>2019-03-24T07:47:18Z</time>
      </trkpt>
      <trkpt lat="43.68233" lon="6.84197">
        <ele>686.2</ele>
        <time>2019-03-24T07:47:19Z</time>
      </trkpt>
      <trkpt lat="43.68221" lon="6.842">
        <ele>686.4</ele>
        <time>2019-03-24T07:47:24Z</time>
      </trkpt>
      <trkpt lat="43.68219" lon="6.842">
        <ele>686.4</ele>
        <time>2019-03-24T07:47:25Z</time>
      </trkpt>
      <trkpt lat="43.68207" lon="6.84202">
        <ele>686.4</ele>
        <time>2019-03-24T07:47:30Z</time>
      </trkpt>
      <trkpt lat="43.68199" lon="6.84205">
        <ele>686.2</ele>
        <time>2019-03-24T07:47:33Z</time>
      </trkpt>
      <trkpt lat="43.68197" lon="6.84209">
        <ele>686.2</ele>
        <time>2019-03-24T07:47:34Z</time>
      </trkpt>
      <trkpt lat="43.68187" lon="6.84217">
        <ele>685.4</ele>
        <time>2019-03-24T07:47:37Z</time>
      </trkpt>
      <trkpt lat="43.68185" lon="6.84222">
        <ele>685.2</ele>
        <time>2019-03-24T07:47:38Z</time>
      </trkpt>
      <trkpt lat="43.6817" lon="6.84239">
        <ele>684.8</ele>
        <time>2019-03-24T07:47:42Z</time>
      </trkpt>
      <trkpt lat="43.68165" lon="6.84244">
        <ele>684.4</ele>
        <time>2019-03-24T07:47:43Z</time>
      </trkpt>
      <trkpt lat="43.68155" lon="6.8425">
        <ele>683.8</ele>
        <time>2019-03-24T07:47:45Z</time>
      </trkpt>
      <trkpt lat="43.68144" lon="6.84253">
        <ele>684</ele>
        <time>2019-03-24T07:47:47Z</time>
      </trkpt>
      <trkpt lat="43.68131" lon="6.84257">
        <ele>683.6</ele>
        <time>2019-03-24T07:47:49Z</time>
      </trkpt>
      <trkpt lat="43.6812" lon="6.84263">
        <ele>683.2</ele>
        <time>2019-03-24T07:47:51Z</time>
      </trkpt>
      <trkpt lat="43.68117" lon="6.84267">
        <ele>682.8</ele>
        <time>2019-03-24T07:47:52Z</time>
      </trkpt>
      <trkpt lat="43.68113" lon="6.84281">
        <ele>682.6</ele>
        <time>2019-03-24T07:47:56Z</time>
      </trkpt>
      <trkpt lat="43.68114" lon="6.84287">
        <ele>682.2</ele>
        <time>2019-03-24T07:47:58Z</time>
      </trkpt>
      <trkpt lat="43.68114" lon="6.843">
        <ele>682.4</ele>
        <time>2019-03-24T07:48:01Z</time>
      </trkpt>
      <trkpt lat="43.68113" lon="6.84328">
        <ele>682.6</ele>
        <time>2019-03-24T07:48:06Z</time>
      </trkpt>
      <trkpt lat="43.68114" lon="6.84334">
        <ele>682.8</ele>
        <time>2019-03-24T07:48:07Z</time>
      </trkpt>
      <trkpt lat="43.68115" lon="6.84354">
        <ele>683.4</ele>
        <time>2019-03-24T07:48:10Z</time>
      </trkpt>
      <trkpt lat="43.68115" lon="6.84366">
        <ele>683.8</ele>
        <time>2019-03-24T07:48:12Z</time>
      </trkpt>
      <trkpt lat="43.68113" lon="6.84372">
        <ele>683.8</ele>
        <time>2019-03-24T07:48:13Z</time>
      </trkpt>
      <trkpt lat="43.68111" lon="6.8439">
        <ele>683.8</ele>
        <time>2019-03-24T07:48:16Z</time>
      </trkpt>
      <trkpt lat="43.68111" lon="6.84397">
        <ele>683.8</ele>
        <time>2019-03-24T07:48:17Z</time>
      </trkpt>
      <trkpt lat="43.68112" lon="6.84411">
        <ele>683.8</ele>
        <time>2019-03-24T07:48:20Z</time>
      </trkpt>
      <trkpt lat="43.68111" lon="6.84415">
        <ele>684</ele>
        <time>2019-03-24T07:48:21Z</time>
      </trkpt>
      <trkpt lat="43.68105" lon="6.84419">
        <ele>684.4</ele>
        <time>2019-03-24T07:48:23Z</time>
      </trkpt>
      <trkpt lat="43.68089" lon="6.84429">
        <ele>684.4</ele>
        <time>2019-03-24T07:48:28Z</time>
      </trkpt>
      <trkpt lat="43.68079" lon="6.84435">
        <ele>684.4</ele>
        <time>2019-03-24T07:48:32Z</time>
      </trkpt>
      <trkpt lat="43.68076" lon="6.84437">
        <ele>684.4</ele>
        <time>2019-03-24T07:48:33Z</time>
      </trkpt>
      <trkpt lat="43.68073" lon="6.84443">
        <ele>684.2</ele>
        <time>2019-03-24T07:48:35Z</time>
      </trkpt>
      <trkpt lat="43.68066" lon="6.84452">
        <ele>684.2</ele>
        <time>2019-03-24T07:48:38Z</time>
      </trkpt>
      <trkpt lat="43.68064" lon="6.84456">
        <ele>684</ele>
        <time>2019-03-24T07:48:39Z</time>
      </trkpt>
      <trkpt lat="43.68051" lon="6.8447">
        <ele>684.4</ele>
        <time>2019-03-24T07:48:44Z</time>
      </trkpt>
      <trkpt lat="43.68035" lon="6.84476">
        <ele>684</ele>
        <time>2019-03-24T07:48:49Z</time>
      </trkpt>
      <trkpt lat="43.68019" lon="6.84485">
        <ele>684.4</ele>
        <time>2019-03-24T07:48:54Z</time>
      </trkpt>
      <trkpt lat="43.68007" lon="6.84497">
        <ele>685.2</ele>
        <time>2019-03-24T07:49:00Z</time>
      </trkpt>
      <trkpt lat="43.68005" lon="6.84498">
        <ele>685.2</ele>
        <time>2019-03-24T07:49:01Z</time>
      </trkpt>
      <trkpt lat="43.68003" lon="6.84499">
        <ele>685.6</ele>
        <time>2019-03-24T07:49:02Z</time>
      </trkpt>
      <trkpt lat="43.68" lon="6.845">
        <ele>686.2</ele>
        <time>2019-03-24T07:49:04Z</time>
      </trkpt>
      <trkpt lat="43.67995" lon="6.84501">
        <ele>686.6</ele>
        <time>2019-03-24T07:49:07Z</time>
      </trkpt>
      <trkpt lat="43.67992" lon="6.84501">
        <ele>687</ele>
        <time>2019-03-24T07:49:09Z</time>
      </trkpt>
      <trkpt lat="43.67987" lon="6.84504">
        <ele>687.8</ele>
        <time>2019-03-24T07:49:12Z</time>
      </trkpt>
      <trkpt lat="43.67981" lon="6.84509">
        <ele>689.4</ele>
        <time>2019-03-24T07:49:15Z</time>
      </trkpt>
      <trkpt lat="43.67974" lon="6.84515">
        <ele>690.4</ele>
        <time>2019-03-24T07:49:18Z</time>
      </trkpt>
      <trkpt lat="43.67965" lon="6.84523">
        <ele>691.6</ele>
        <time>2019-03-24T07:49:22Z</time>
      </trkpt>
      <trkpt lat="43.67955" lon="6.84532">
        <ele>692.6</ele>
        <time>2019-03-24T07:49:27Z</time>
      </trkpt>
      <trkpt lat="43.67953" lon="6.84534">
        <ele>692.4</ele>
        <time>2019-03-24T07:49:28Z</time>
      </trkpt>
      <trkpt lat="43.67947" lon="6.84541">
        <ele>691.4</ele>
        <time>2019-03-24T07:49:31Z</time>
      </trkpt>
      <trkpt lat="43.67939" lon="6.84547">
        <ele>691.2</ele>
        <time>2019-03-24T07:49:34Z</time>
      </trkpt>
      <trkpt lat="43.67924" lon="6.84563">
        <ele>691.6</ele>
        <time>2019-03-24T07:49:39Z</time>
      </trkpt>
      <trkpt lat="43.6792" lon="6.84584">
        <ele>692</ele>
        <time>2019-03-24T07:49:44Z</time>
      </trkpt>
      <trkpt lat="43.67922" lon="6.8459">
        <ele>692</ele>
        <time>2019-03-24T07:49:45Z</time>
      </trkpt>
      <trkpt lat="43.67924" lon="6.84606">
        <ele>692</ele>
        <time>2019-03-24T07:49:47Z</time>
      </trkpt>
      <trkpt lat="43.67925" lon="6.84614">
        <ele>691.8</ele>
        <time>2019-03-24T07:49:48Z</time>
      </trkpt>
      <trkpt lat="43.67931" lon="6.8465">
        <ele>691</ele>
        <time>2019-03-24T07:49:52Z</time>
      </trkpt>
      <trkpt lat="43.67935" lon="6.84659">
        <ele>690.8</ele>
        <time>2019-03-24T07:49:53Z</time>
      </trkpt>
      <trkpt lat="43.67943" lon="6.84678">
        <ele>690</ele>
        <time>2019-03-24T07:49:55Z</time>
      </trkpt>
      <trkpt lat="43.67948" lon="6.84687">
        <ele>689.6</ele>
        <time>2019-03-24T07:49:56Z</time>
      </trkpt>
      <trkpt lat="43.67953" lon="6.84697">
        <ele>689.2</ele>
        <time>2019-03-24T07:49:57Z</time>
      </trkpt>
      <trkpt lat="43.67958" lon="6.84706">
        <ele>688.8</ele>
        <time>2019-03-24T07:49:58Z</time>
      </trkpt>
      <trkpt lat="43.6797" lon="6.84732">
        <ele>687.8</ele>
        <time>2019-03-24T07:50:01Z</time>
      </trkpt>
      <trkpt lat="43.67973" lon="6.8474">
        <ele>687.6</ele>
        <time>2019-03-24T07:50:02Z</time>
      </trkpt>
      <trkpt lat="43.67981" lon="6.84762">
        <ele>686.8</ele>
        <time>2019-03-24T07:50:05Z</time>
      </trkpt>
      <trkpt lat="43.67984" lon="6.84776">
        <ele>686.6</ele>
        <time>2019-03-24T07:50:07Z</time>
      </trkpt>
      <trkpt lat="43.67988" lon="6.84793">
        <ele>686.4</ele>
        <time>2019-03-24T07:50:10Z</time>
      </trkpt>
      <trkpt lat="43.67995" lon="6.84806">
        <ele>686.4</ele>
        <time>2019-03-24T07:50:13Z</time>
      </trkpt>
      <trkpt lat="43.68008" lon="6.84824">
        <ele>687.6</ele>
        <time>2019-03-24T07:50:19Z</time>
      </trkpt>
      <trkpt lat="43.68013" lon="6.84835">
        <ele>687.8</ele>
        <time>2019-03-24T07:50:23Z</time>
      </trkpt>
      <trkpt lat="43.68015" lon="6.84837">
        <ele>688.2</ele>
        <time>2019-03-24T07:50:24Z</time>
      </trkpt>
      <trkpt lat="43.6802" lon="6.84843">
        <ele>689</ele>
        <time>2019-03-24T07:50:27Z</time>
      </trkpt>
      <trkpt lat="43.68028" lon="6.84847">
        <ele>690.4</ele>
        <time>2019-03-24T07:50:31Z</time>
      </trkpt>
      <trkpt lat="43.68034" lon="6.8485">
        <ele>691.8</ele>
        <time>2019-03-24T07:50:34Z</time>
      </trkpt>
      <trkpt lat="43.68041" lon="6.84858">
        <ele>692.6</ele>
        <time>2019-03-24T07:50:38Z</time>
      </trkpt>
      <trkpt lat="43.68042" lon="6.84861">
        <ele>692.8</ele>
        <time>2019-03-24T07:50:39Z</time>
      </trkpt>
      <trkpt lat="43.68045" lon="6.84878">
        <ele>693.8</ele>
        <time>2019-03-24T07:50:44Z</time>
      </trkpt>
      <trkpt lat="43.68046" lon="6.84881">
        <ele>694</ele>
        <time>2019-03-24T07:50:45Z</time>
      </trkpt>
      <trkpt lat="43.68051" lon="6.84899">
        <ele>694.6</ele>
        <time>2019-03-24T07:50:50Z</time>
      </trkpt>
      <trkpt lat="43.68055" lon="6.84923">
        <ele>694</ele>
        <time>2019-03-24T07:50:56Z</time>
      </trkpt>
      <trkpt lat="43.6806" lon="6.84952">
        <ele>694.4</ele>
        <time>2019-03-24T07:51:03Z</time>
      </trkpt>
      <trkpt lat="43.68056" lon="6.84975">
        <ele>694</ele>
        <time>2019-03-24T07:51:09Z</time>
      </trkpt>
      <trkpt lat="43.68038" lon="6.84984">
        <ele>693</ele>
        <time>2019-03-24T07:51:14Z</time>
      </trkpt>
      <trkpt lat="43.68027" lon="6.84986">
        <ele>693</ele>
        <time>2019-03-24T07:51:17Z</time>
      </trkpt>
      <trkpt lat="43.68012" lon="6.84989">
        <ele>692.4</ele>
        <time>2019-03-24T07:51:21Z</time>
      </trkpt>
      <trkpt lat="43.67999" lon="6.84999">
        <ele>692.2</ele>
        <time>2019-03-24T07:51:26Z</time>
      </trkpt>
      <trkpt lat="43.67993" lon="6.85014">
        <ele>692.6</ele>
        <time>2019-03-24T07:51:31Z</time>
      </trkpt>
      <trkpt lat="43.67985" lon="6.85036">
        <ele>693.6</ele>
        <time>2019-03-24T07:51:38Z</time>
      </trkpt>
      <trkpt lat="43.67984" lon="6.8505">
        <ele>694</ele>
        <time>2019-03-24T07:51:42Z</time>
      </trkpt>
      <trkpt lat="43.67985" lon="6.85054">
        <ele>694.2</ele>
        <time>2019-03-24T07:51:43Z</time>
      </trkpt>
      <trkpt lat="43.67988" lon="6.85075">
        <ele>695.4</ele>
        <time>2019-03-24T07:51:49Z</time>
      </trkpt>
      <trkpt lat="43.67989" lon="6.85082">
        <ele>695.6</ele>
        <time>2019-03-24T07:51:51Z</time>
      </trkpt>
      <trkpt lat="43.67998" lon="6.85098">
        <ele>696.4</ele>
        <time>2019-03-24T07:51:57Z</time>
      </trkpt>
      <trkpt lat="43.67999" lon="6.85101">
        <ele>696.8</ele>
        <time>2019-03-24T07:51:58Z</time>
      </trkpt>
      <trkpt lat="43.68003" lon="6.85112">
        <ele>697.4</ele>
        <time>2019-03-24T07:52:03Z</time>
      </trkpt>
      <trkpt lat="43.68009" lon="6.85119">
        <ele>697.6</ele>
        <time>2019-03-24T07:52:08Z</time>
      </trkpt>
      <trkpt lat="43.6801" lon="6.8512">
        <ele>697.8</ele>
        <time>2019-03-24T07:52:09Z</time>
      </trkpt>
      <trkpt lat="43.6801" lon="6.85122">
        <ele>697.8</ele>
        <time>2019-03-24T07:52:10Z</time>
      </trkpt>
      <trkpt lat="43.6801" lon="6.85124">
        <ele>697.8</ele>
        <time>2019-03-24T07:52:12Z</time>
      </trkpt>
      <trkpt lat="43.6801" lon="6.85127">
        <ele>697.8</ele>
        <time>2019-03-24T07:52:14Z</time>
      </trkpt>
      <trkpt lat="43.68008" lon="6.85142">
        <ele>698.4</ele>
        <time>2019-03-24T07:52:23Z</time>
      </trkpt>
      <trkpt lat="43.68009" lon="6.85147">
        <ele>698.8</ele>
        <time>2019-03-24T07:52:25Z</time>
      </trkpt>
      <trkpt lat="43.68012" lon="6.85157">
        <ele>699.4</ele>
        <time>2019-03-24T07:52:29Z</time>
      </trkpt>
      <trkpt lat="43.68013" lon="6.8516">
        <ele>699.8</ele>
        <time>2019-03-24T07:52:31Z</time>
      </trkpt>
      <trkpt lat="43.68015" lon="6.85169">
        <ele>700.6</ele>
        <time>2019-03-24T07:52:36Z</time>
      </trkpt>
      <trkpt lat="43.68015" lon="6.85171">
        <ele>701</ele>
        <time>2019-03-24T07:52:37Z</time>
      </trkpt>
      <trkpt lat="43.68013" lon="6.85181">
        <ele>701.6</ele>
        <time>2019-03-24T07:52:42Z</time>
      </trkpt>
      <trkpt lat="43.68013" lon="6.85187">
        <ele>702</ele>
        <time>2019-03-24T07:52:45Z</time>
      </trkpt>
      <trkpt lat="43.68013" lon="6.85198">
        <ele>702.4</ele>
        <time>2019-03-24T07:52:50Z</time>
      </trkpt>
      <trkpt lat="43.68008" lon="6.85211">
        <ele>702.4</ele>
        <time>2019-03-24T07:52:56Z</time>
      </trkpt>
      <trkpt lat="43.68009" lon="6.85213">
        <ele>702.4</ele>
        <time>2019-03-24T07:52:57Z</time>
      </trkpt>
      <trkpt lat="43.68009" lon="6.8522">
        <ele>702.6</ele>
        <time>2019-03-24T07:53:00Z</time>
      </trkpt>
      <trkpt lat="43.68008" lon="6.85226">
        <ele>703.2</ele>
        <time>2019-03-24T07:53:03Z</time>
      </trkpt>
      <trkpt lat="43.68008" lon="6.85228">
        <ele>703.4</ele>
        <time>2019-03-24T07:53:04Z</time>
      </trkpt>
      <trkpt lat="43.68009" lon="6.85234">
        <ele>704</ele>
        <time>2019-03-24T07:53:07Z</time>
      </trkpt>
      <trkpt lat="43.68011" lon="6.85235">
        <ele>704.2</ele>
        <time>2019-03-24T07:53:08Z</time>
      </trkpt>
      <trkpt lat="43.68014" lon="6.85251">
        <ele>703.4</ele>
        <time>2019-03-24T07:53:13Z</time>
      </trkpt>
      <trkpt lat="43.68011" lon="6.85263">
        <ele>703.4</ele>
        <time>2019-03-24T07:53:16Z</time>
      </trkpt>
      <trkpt lat="43.68009" lon="6.85274">
        <ele>703.6</ele>
        <time>2019-03-24T07:53:19Z</time>
      </trkpt>
      <trkpt lat="43.68005" lon="6.85286">
        <ele>703.6</ele>
        <time>2019-03-24T07:53:23Z</time>
      </trkpt>
      <trkpt lat="43.68002" lon="6.85307">
        <ele>703.8</ele>
        <time>2019-03-24T07:53:30Z</time>
      </trkpt>
      <trkpt lat="43.68001" lon="6.85326">
        <ele>703.6</ele>
        <time>2019-03-24T07:53:36Z</time>
      </trkpt>
      <trkpt lat="43.68008" lon="6.85345">
        <ele>703.6</ele>
        <time>2019-03-24T07:53:41Z</time>
      </trkpt>
      <trkpt lat="43.68009" lon="6.85351">
        <ele>703.6</ele>
        <time>2019-03-24T07:53:42Z</time>
      </trkpt>
      <trkpt lat="43.68011" lon="6.85371">
        <ele>703.6</ele>
        <time>2019-03-24T07:53:45Z</time>
      </trkpt>
      <trkpt lat="43.68012" lon="6.85377">
        <ele>703.6</ele>
        <time>2019-03-24T07:53:46Z</time>
      </trkpt>
      <trkpt lat="43.68016" lon="6.85388">
        <ele>703.2</ele>
        <time>2019-03-24T07:53:48Z</time>
      </trkpt>
      <trkpt lat="43.68021" lon="6.85399">
        <ele>703</ele>
        <time>2019-03-24T07:53:50Z</time>
      </trkpt>
      <trkpt lat="43.68024" lon="6.85413">
        <ele>702.2</ele>
        <time>2019-03-24T07:53:53Z</time>
      </trkpt>
      <trkpt lat="43.68025" lon="6.85419">
        <ele>701.8</ele>
        <time>2019-03-24T07:53:54Z</time>
      </trkpt>
      <trkpt lat="43.68023" lon="6.85425">
        <ele>701.4</ele>
        <time>2019-03-24T07:53:55Z</time>
      </trkpt>
      <trkpt lat="43.6802" lon="6.85439">
        <ele>700.8</ele>
        <time>2019-03-24T07:53:57Z</time>
      </trkpt>
      <trkpt lat="43.6802" lon="6.85453">
        <ele>700.2</ele>
        <time>2019-03-24T07:53:59Z</time>
      </trkpt>
      <trkpt lat="43.68021" lon="6.85467">
        <ele>699.8</ele>
        <time>2019-03-24T07:54:01Z</time>
      </trkpt>
      <trkpt lat="43.68021" lon="6.85475">
        <ele>699.6</ele>
        <time>2019-03-24T07:54:02Z</time>
      </trkpt>
      <trkpt lat="43.68021" lon="6.85482">
        <ele>699.4</ele>
        <time>2019-03-24T07:54:03Z</time>
      </trkpt>
      <trkpt lat="43.68023" lon="6.85503">
        <ele>698.4</ele>
        <time>2019-03-24T07:54:06Z</time>
      </trkpt>
      <trkpt lat="43.68026" lon="6.85509">
        <ele>698.2</ele>
        <time>2019-03-24T07:54:07Z</time>
      </trkpt>
      <trkpt lat="43.68029" lon="6.85521">
        <ele>697.2</ele>
        <time>2019-03-24T07:54:09Z</time>
      </trkpt>
      <trkpt lat="43.68028" lon="6.85527">
        <ele>697</ele>
        <time>2019-03-24T07:54:10Z</time>
      </trkpt>
      <trkpt lat="43.68027" lon="6.85542">
        <ele>697</ele>
        <time>2019-03-24T07:54:13Z</time>
      </trkpt>
      <trkpt lat="43.6802" lon="6.85556">
        <ele>697.2</ele>
        <time>2019-03-24T07:54:16Z</time>
      </trkpt>
      <trkpt lat="43.68012" lon="6.85566">
        <ele>697.8</ele>
        <time>2019-03-24T07:54:20Z</time>
      </trkpt>
      <trkpt lat="43.68012" lon="6.85575">
        <ele>697.8</ele>
        <time>2019-03-24T07:54:22Z</time>
      </trkpt>
      <trkpt lat="43.68012" lon="6.85581">
        <ele>697.6</ele>
        <time>2019-03-24T07:54:23Z</time>
      </trkpt>
      <trkpt lat="43.6801" lon="6.85587">
        <ele>697.4</ele>
        <time>2019-03-24T07:54:24Z</time>
      </trkpt>
      <trkpt lat="43.68005" lon="6.85599">
        <ele>696.8</ele>
        <time>2019-03-24T07:54:26Z</time>
      </trkpt>
      <trkpt lat="43.67998" lon="6.85607">
        <ele>696.6</ele>
        <time>2019-03-24T07:54:28Z</time>
      </trkpt>
      <trkpt lat="43.67989" lon="6.85614">
        <ele>696.2</ele>
        <time>2019-03-24T07:54:30Z</time>
      </trkpt>
      <trkpt lat="43.67979" lon="6.85628">
        <ele>695.6</ele>
        <time>2019-03-24T07:54:33Z</time>
      </trkpt>
      <trkpt lat="43.67975" lon="6.8563">
        <ele>695</ele>
        <time>2019-03-24T07:54:34Z</time>
      </trkpt>
      <trkpt lat="43.67968" lon="6.85632">
        <ele>694.4</ele>
        <time>2019-03-24T07:54:36Z</time>
      </trkpt>
      <trkpt lat="43.67965" lon="6.85634">
        <ele>694</ele>
        <time>2019-03-24T07:54:37Z</time>
      </trkpt>
      <trkpt lat="43.67961" lon="6.85637">
        <ele>693.8</ele>
        <time>2019-03-24T07:54:38Z</time>
      </trkpt>
      <trkpt lat="43.67951" lon="6.85646">
        <ele>693.6</ele>
        <time>2019-03-24T07:54:41Z</time>
      </trkpt>
      <trkpt lat="43.67935" lon="6.85658">
        <ele>693.4</ele>
        <time>2019-03-24T07:54:45Z</time>
      </trkpt>
      <trkpt lat="43.6792" lon="6.85666">
        <ele>693</ele>
        <time>2019-03-24T07:54:48Z</time>
      </trkpt>
      <trkpt lat="43.67915" lon="6.85668">
        <ele>692.8</ele>
        <time>2019-03-24T07:54:49Z</time>
      </trkpt>
      <trkpt lat="43.67906" lon="6.85672">
        <ele>692.2</ele>
        <time>2019-03-24T07:54:52Z</time>
      </trkpt>
      <trkpt lat="43.67905" lon="6.85674">
        <ele>691.8</ele>
        <time>2019-03-24T07:54:53Z</time>
      </trkpt>
      <trkpt lat="43.67903" lon="6.85679">
        <ele>691</ele>
        <time>2019-03-24T07:54:55Z</time>
      </trkpt>
      <trkpt lat="43.679" lon="6.85684">
        <ele>690.4</ele>
        <time>2019-03-24T07:54:56Z</time>
      </trkpt>
      <trkpt lat="43.67894" lon="6.8569">
        <ele>689.4</ele>
        <time>2019-03-24T07:54:58Z</time>
      </trkpt>
      <trkpt lat="43.6789" lon="6.85693">
        <ele>688.8</ele>
        <time>2019-03-24T07:54:59Z</time>
      </trkpt>
      <trkpt lat="43.67884" lon="6.857">
        <ele>688.2</ele>
        <time>2019-03-24T07:55:01Z</time>
      </trkpt>
      <trkpt lat="43.67875" lon="6.85709">
        <ele>687.2</ele>
        <time>2019-03-24T07:55:04Z</time>
      </trkpt>
      <trkpt lat="43.67875" lon="6.85709">
        <ele>687</ele>
        <time>2019-03-24T07:55:05Z</time>
      </trkpt>
      <trkpt lat="43.67873" lon="6.85712">
        <ele>686.6</ele>
        <time>2019-03-24T07:55:07Z</time>
      </trkpt>
      <trkpt lat="43.67872" lon="6.85716">
        <ele>685.8</ele>
        <time>2019-03-24T07:55:09Z</time>
      </trkpt>
      <trkpt lat="43.67869" lon="6.85722">
        <ele>684.8</ele>
        <time>2019-03-24T07:55:12Z</time>
      </trkpt>
      <trkpt lat="43.67868" lon="6.85729">
        <ele>683.6</ele>
        <time>2019-03-24T07:55:15Z</time>
      </trkpt>
      <trkpt lat="43.67866" lon="6.8573">
        <ele>683</ele>
        <time>2019-03-24T07:55:16Z</time>
      </trkpt>
      <trkpt lat="43.67864" lon="6.85732">
        <ele>682.4</ele>
        <time>2019-03-24T07:55:17Z</time>
      </trkpt>
      <trkpt lat="43.67862" lon="6.85734">
        <ele>681.8</ele>
        <time>2019-03-24T07:55:18Z</time>
      </trkpt>
      <trkpt lat="43.6786" lon="6.85735">
        <ele>681.2</ele>
        <time>2019-03-24T07:55:19Z</time>
      </trkpt>
      <trkpt lat="43.67856" lon="6.85735">
        <ele>680</ele>
        <time>2019-03-24T07:55:21Z</time>
      </trkpt>
      <trkpt lat="43.67853" lon="6.8574">
        <ele>678.8</ele>
        <time>2019-03-24T07:55:24Z</time>
      </trkpt>
      <trkpt lat="43.67853" lon="6.85744">
        <ele>678.6</ele>
        <time>2019-03-24T07:55:25Z</time>
      </trkpt>
      <trkpt lat="43.67854" lon="6.85754">
        <ele>677.6</ele>
        <time>2019-03-24T07:55:27Z</time>
      </trkpt>
      <trkpt lat="43.67852" lon="6.85762">
        <ele>677</ele>
        <time>2019-03-24T07:55:29Z</time>
      </trkpt>
      <trkpt lat="43.67848" lon="6.85771">
        <ele>676.6</ele>
        <time>2019-03-24T07:55:31Z</time>
      </trkpt>
      <trkpt lat="43.67843" lon="6.85779">
        <ele>676.4</ele>
        <time>2019-03-24T07:55:33Z</time>
      </trkpt>
      <trkpt lat="43.67839" lon="6.8579">
        <ele>676.2</ele>
        <time>2019-03-24T07:55:37Z</time>
      </trkpt>
      <trkpt lat="43.67835" lon="6.858">
        <ele>676.2</ele>
        <time>2019-03-24T07:55:42Z</time>
      </trkpt>
      <trkpt lat="43.67839" lon="6.85803">
        <ele>676.2</ele>
        <time>2019-03-24T07:55:48Z</time>
      </trkpt>
      <trkpt lat="43.67841" lon="6.85804">
        <ele>676.2</ele>
        <time>2019-03-24T07:55:49Z</time>
      </trkpt>
      <trkpt lat="43.67856" lon="6.85805">
        <ele>676.2</ele>
        <time>2019-03-24T07:55:54Z</time>
      </trkpt>
      <trkpt lat="43.67873" lon="6.85803">
        <ele>676.4</ele>
        <time>2019-03-24T07:56:00Z</time>
      </trkpt>
      <trkpt lat="43.67891" lon="6.85799">
        <ele>677.6</ele>
        <time>2019-03-24T07:56:06Z</time>
      </trkpt>
      <trkpt lat="43.67905" lon="6.85802">
        <ele>678.8</ele>
        <time>2019-03-24T07:56:10Z</time>
      </trkpt>
      <trkpt lat="43.67919" lon="6.85804">
        <ele>680</ele>
        <time>2019-03-24T07:56:15Z</time>
      </trkpt>
      <trkpt lat="43.67926" lon="6.85809">
        <ele>681.4</ele>
        <time>2019-03-24T07:56:18Z</time>
      </trkpt>
      <trkpt lat="43.67931" lon="6.85811">
        <ele>682.2</ele>
        <time>2019-03-24T07:56:20Z</time>
      </trkpt>
      <trkpt lat="43.67937" lon="6.85816">
        <ele>682.6</ele>
        <time>2019-03-24T07:56:23Z</time>
      </trkpt>
      <trkpt lat="43.67938" lon="6.85818">
        <ele>682.8</ele>
        <time>2019-03-24T07:56:24Z</time>
      </trkpt>
      <trkpt lat="43.67939" lon="6.85821">
        <ele>683</ele>
        <time>2019-03-24T07:56:25Z</time>
      </trkpt>
      <trkpt lat="43.67944" lon="6.85824">
        <ele>683.6</ele>
        <time>2019-03-24T07:56:27Z</time>
      </trkpt>
      <trkpt lat="43.67949" lon="6.85826">
        <ele>684.2</ele>
        <time>2019-03-24T07:56:29Z</time>
      </trkpt>
      <trkpt lat="43.67961" lon="6.85822">
        <ele>684.6</ele>
        <time>2019-03-24T07:56:33Z</time>
      </trkpt>
      <trkpt lat="43.67965" lon="6.85821">
        <ele>684.6</ele>
        <time>2019-03-24T07:56:34Z</time>
      </trkpt>
      <trkpt lat="43.67983" lon="6.85813">
        <ele>684.8</ele>
        <time>2019-03-24T07:56:40Z</time>
      </trkpt>
      <trkpt lat="43.67991" lon="6.85811">
        <ele>685</ele>
        <time>2019-03-24T07:56:43Z</time>
      </trkpt>
      <trkpt lat="43.67996" lon="6.85815">
        <ele>685.6</ele>
        <time>2019-03-24T07:56:45Z</time>
      </trkpt>
      <trkpt lat="43.68" lon="6.85818">
        <ele>686</ele>
        <time>2019-03-24T07:56:46Z</time>
      </trkpt>
      <trkpt lat="43.68009" lon="6.8582">
        <ele>686.8</ele>
        <time>2019-03-24T07:56:49Z</time>
      </trkpt>
      <trkpt lat="43.68013" lon="6.8582">
        <ele>687.2</ele>
        <time>2019-03-24T07:56:50Z</time>
      </trkpt>
      <trkpt lat="43.68022" lon="6.85819">
        <ele>688.4</ele>
        <time>2019-03-24T07:56:53Z</time>
      </trkpt>
      <trkpt lat="43.68024" lon="6.85817">
        <ele>688.8</ele>
        <time>2019-03-24T07:56:54Z</time>
      </trkpt>
      <trkpt lat="43.68026" lon="6.85813">
        <ele>689.2</ele>
        <time>2019-03-24T07:56:55Z</time>
      </trkpt>
      <trkpt lat="43.68028" lon="6.85811">
        <ele>689.6</ele>
        <time>2019-03-24T07:56:56Z</time>
      </trkpt>
      <trkpt lat="43.68031" lon="6.85804">
        <ele>690.6</ele>
        <time>2019-03-24T07:56:58Z</time>
      </trkpt>
      <trkpt lat="43.68037" lon="6.85794">
        <ele>691.8</ele>
        <time>2019-03-24T07:57:01Z</time>
      </trkpt>
      <trkpt lat="43.6804" lon="6.85791">
        <ele>692</ele>
        <time>2019-03-24T07:57:02Z</time>
      </trkpt>
      <trkpt lat="43.68049" lon="6.85786">
        <ele>692.6</ele>
        <time>2019-03-24T07:57:05Z</time>
      </trkpt>
      <trkpt lat="43.68052" lon="6.85783">
        <ele>692.8</ele>
        <time>2019-03-24T07:57:06Z</time>
      </trkpt>
      <trkpt lat="43.68065" lon="6.85775">
        <ele>694.2</ele>
        <time>2019-03-24T07:57:10Z</time>
      </trkpt>
      <trkpt lat="43.68068" lon="6.85774">
        <ele>694.4</ele>
        <time>2019-03-24T07:57:11Z</time>
      </trkpt>
      <trkpt lat="43.68075" lon="6.85776">
        <ele>694.8</ele>
        <time>2019-03-24T07:57:13Z</time>
      </trkpt>
      <trkpt lat="43.68081" lon="6.85781">
        <ele>695.2</ele>
        <time>2019-03-24T07:57:15Z</time>
      </trkpt>
      <trkpt lat="43.68089" lon="6.85786">
        <ele>696.2</ele>
        <time>2019-03-24T07:57:18Z</time>
      </trkpt>
      <trkpt lat="43.68093" lon="6.85789">
        <ele>696.4</ele>
        <time>2019-03-24T07:57:19Z</time>
      </trkpt>
      <trkpt lat="43.68096" lon="6.85792">
        <ele>696.4</ele>
        <time>2019-03-24T07:57:20Z</time>
      </trkpt>
      <trkpt lat="43.68111" lon="6.85804">
        <ele>695.6</ele>
        <time>2019-03-24T07:57:25Z</time>
      </trkpt>
      <trkpt lat="43.68119" lon="6.85805">
        <ele>695.2</ele>
        <time>2019-03-24T07:57:27Z</time>
      </trkpt>
      <trkpt lat="43.68132" lon="6.85801">
        <ele>696.2</ele>
        <time>2019-03-24T07:57:31Z</time>
      </trkpt>
      <trkpt lat="43.68145" lon="6.85794">
        <ele>697.4</ele>
        <time>2019-03-24T07:57:35Z</time>
      </trkpt>
      <trkpt lat="43.68151" lon="6.85789">
        <ele>697.8</ele>
        <time>2019-03-24T07:57:37Z</time>
      </trkpt>
      <trkpt lat="43.68163" lon="6.8578">
        <ele>698.4</ele>
        <time>2019-03-24T07:57:41Z</time>
      </trkpt>
      <trkpt lat="43.68173" lon="6.85777">
        <ele>698.4</ele>
        <time>2019-03-24T07:57:44Z</time>
      </trkpt>
      <trkpt lat="43.6819" lon="6.85771">
        <ele>698.2</ele>
        <time>2019-03-24T07:57:49Z</time>
      </trkpt>
      <trkpt lat="43.68205" lon="6.85772">
        <ele>698</ele>
        <time>2019-03-24T07:57:54Z</time>
      </trkpt>
      <trkpt lat="43.68209" lon="6.85769">
        <ele>697.6</ele>
        <time>2019-03-24T07:57:56Z</time>
      </trkpt>
      <trkpt lat="43.6821" lon="6.85767">
        <ele>697.2</ele>
        <time>2019-03-24T07:57:57Z</time>
      </trkpt>
      <trkpt lat="43.68206" lon="6.8575">
        <ele>696.2</ele>
        <time>2019-03-24T07:58:01Z</time>
      </trkpt>
      <trkpt lat="43.68199" lon="6.85733">
        <ele>695.4</ele>
        <time>2019-03-24T07:58:05Z</time>
      </trkpt>
      <trkpt lat="43.68198" lon="6.85731">
        <ele>695</ele>
        <time>2019-03-24T07:58:06Z</time>
      </trkpt>
      <trkpt lat="43.68195" lon="6.85724">
        <ele>694.2</ele>
        <time>2019-03-24T07:58:08Z</time>
      </trkpt>
      <trkpt lat="43.68195" lon="6.85717">
        <ele>693.8</ele>
        <time>2019-03-24T07:58:10Z</time>
      </trkpt>
      <trkpt lat="43.68194" lon="6.8571">
        <ele>693.2</ele>
        <time>2019-03-24T07:58:13Z</time>
      </trkpt>
      <trkpt lat="43.68191" lon="6.85702">
        <ele>692.2</ele>
        <time>2019-03-24T07:58:15Z</time>
      </trkpt>
      <trkpt lat="43.68191" lon="6.85697">
        <ele>691.6</ele>
        <time>2019-03-24T07:58:16Z</time>
      </trkpt>
      <trkpt lat="43.68191" lon="6.85692">
        <ele>691</ele>
        <time>2019-03-24T07:58:17Z</time>
      </trkpt>
      <trkpt lat="43.68193" lon="6.85684">
        <ele>690</ele>
        <time>2019-03-24T07:58:19Z</time>
      </trkpt>
      <trkpt lat="43.68194" lon="6.85675">
        <ele>689.4</ele>
        <time>2019-03-24T07:58:21Z</time>
      </trkpt>
      <trkpt lat="43.68193" lon="6.85666">
        <ele>689</ele>
        <time>2019-03-24T07:58:23Z</time>
      </trkpt>
      <trkpt lat="43.68196" lon="6.85648">
        <ele>688.8</ele>
        <time>2019-03-24T07:58:27Z</time>
      </trkpt>
      <trkpt lat="43.682" lon="6.85628">
        <ele>688.4</ele>
        <time>2019-03-24T07:58:32Z</time>
      </trkpt>
      <trkpt lat="43.68201" lon="6.85603">
        <ele>688.8</ele>
        <time>2019-03-24T07:58:38Z</time>
      </trkpt>
      <trkpt lat="43.68202" lon="6.85589">
        <ele>688.6</ele>
        <time>2019-03-24T07:58:41Z</time>
      </trkpt>
      <trkpt lat="43.68204" lon="6.85586">
        <ele>688.6</ele>
        <time>2019-03-24T07:58:42Z</time>
      </trkpt>
      <trkpt lat="43.68214" lon="6.85584">
        <ele>688.8</ele>
        <time>2019-03-24T07:58:45Z</time>
      </trkpt>
      <trkpt lat="43.68223" lon="6.85573">
        <ele>688.8</ele>
        <time>2019-03-24T07:58:49Z</time>
      </trkpt>
      <trkpt lat="43.68234" lon="6.85569">
        <ele>689</ele>
        <time>2019-03-24T07:58:53Z</time>
      </trkpt>
      <trkpt lat="43.68251" lon="6.85569">
        <ele>689.8</ele>
        <time>2019-03-24T07:58:58Z</time>
      </trkpt>
      <trkpt lat="43.6826" lon="6.85568">
        <ele>690</ele>
        <time>2019-03-24T07:59:01Z</time>
      </trkpt>
      <trkpt lat="43.68263" lon="6.85569">
        <ele>690</ele>
        <time>2019-03-24T07:59:02Z</time>
      </trkpt>
      <trkpt lat="43.68267" lon="6.8557">
        <ele>690</ele>
        <time>2019-03-24T07:59:03Z</time>
      </trkpt>
      <trkpt lat="43.68285" lon="6.85575">
        <ele>691</ele>
        <time>2019-03-24T07:59:09Z</time>
      </trkpt>
      <trkpt lat="43.68287" lon="6.85576">
        <ele>691.2</ele>
        <time>2019-03-24T07:59:10Z</time>
      </trkpt>
      <trkpt lat="43.6829" lon="6.85574">
        <ele>691.2</ele>
        <time>2019-03-24T07:59:11Z</time>
      </trkpt>
      <trkpt lat="43.68297" lon="6.85575">
        <ele>691.6</ele>
        <time>2019-03-24T07:59:13Z</time>
      </trkpt>
      <trkpt lat="43.68303" lon="6.85577">
        <ele>692.2</ele>
        <time>2019-03-24T07:59:15Z</time>
      </trkpt>
      <trkpt lat="43.68316" lon="6.85583">
        <ele>693.2</ele>
        <time>2019-03-24T07:59:20Z</time>
      </trkpt>
      <trkpt lat="43.68328" lon="6.85591">
        <ele>694.4</ele>
        <time>2019-03-24T07:59:25Z</time>
      </trkpt>
      <trkpt lat="43.68332" lon="6.85595">
        <ele>694.8</ele>
        <time>2019-03-24T07:59:27Z</time>
      </trkpt>
      <trkpt lat="43.6835" lon="6.85604">
        <ele>695.4</ele>
        <time>2019-03-24T07:59:34Z</time>
      </trkpt>
      <trkpt lat="43.68357" lon="6.85608">
        <ele>696.8</ele>
        <time>2019-03-24T07:59:37Z</time>
      </trkpt>
      <trkpt lat="43.68369" lon="6.85617">
        <ele>697.8</ele>
        <time>2019-03-24T07:59:42Z</time>
      </trkpt>
      <trkpt lat="43.68374" lon="6.8562">
        <ele>699</ele>
        <time>2019-03-24T07:59:44Z</time>
      </trkpt>
      <trkpt lat="43.68379" lon="6.85623">
        <ele>700.4</ele>
        <time>2019-03-24T07:59:46Z</time>
      </trkpt>
      <trkpt lat="43.68384" lon="6.85627">
        <ele>701.8</ele>
        <time>2019-03-24T07:59:48Z</time>
      </trkpt>
      <trkpt lat="43.68391" lon="6.85631">
        <ele>702.8</ele>
        <time>2019-03-24T07:59:51Z</time>
      </trkpt>
      <trkpt lat="43.68398" lon="6.85632">
        <ele>703.6</ele>
        <time>2019-03-24T07:59:54Z</time>
      </trkpt>
      <trkpt lat="43.684" lon="6.85632">
        <ele>704</ele>
        <time>2019-03-24T07:59:56Z</time>
      </trkpt>
      <trkpt lat="43.68408" lon="6.85631">
        <ele>705.2</ele>
        <time>2019-03-24T07:59:59Z</time>
      </trkpt>
      <trkpt lat="43.68413" lon="6.85631">
        <ele>705.8</ele>
        <time>2019-03-24T08:00:01Z</time>
      </trkpt>
      <trkpt lat="43.68428" lon="6.8563">
        <ele>706.2</ele>
        <time>2019-03-24T08:00:07Z</time>
      </trkpt>
      <trkpt lat="43.68431" lon="6.8563">
        <ele>706.4</ele>
        <time>2019-03-24T08:00:08Z</time>
      </trkpt>
      <trkpt lat="43.6844" lon="6.85629">
        <ele>707.6</ele>
        <time>2019-03-24T08:00:12Z</time>
      </trkpt>
      <trkpt lat="43.68442" lon="6.85629">
        <ele>707.4</ele>
        <time>2019-03-24T08:00:13Z</time>
      </trkpt>
      <trkpt lat="43.68457" lon="6.85631">
        <ele>708.2</ele>
        <time>2019-03-24T08:00:19Z</time>
      </trkpt>
      <trkpt lat="43.68463" lon="6.85632">
        <ele>708.8</ele>
        <time>2019-03-24T08:00:21Z</time>
      </trkpt>
      <trkpt lat="43.68469" lon="6.85633">
        <ele>709.4</ele>
        <time>2019-03-24T08:00:24Z</time>
      </trkpt>
      <trkpt lat="43.68474" lon="6.85634">
        <ele>710</ele>
        <time>2019-03-24T08:00:26Z</time>
      </trkpt>
      <trkpt lat="43.68483" lon="6.85636">
        <ele>711.4</ele>
        <time>2019-03-24T08:00:30Z</time>
      </trkpt>
      <trkpt lat="43.6849" lon="6.85638">
        <ele>712.6</ele>
        <time>2019-03-24T08:00:33Z</time>
      </trkpt>
      <trkpt lat="43.68496" lon="6.85642">
        <ele>713.4</ele>
        <time>2019-03-24T08:00:36Z</time>
      </trkpt>
      <trkpt lat="43.68498" lon="6.85643">
        <ele>714</ele>
        <time>2019-03-24T08:00:37Z</time>
      </trkpt>
      <trkpt lat="43.68503" lon="6.85646">
        <ele>715.2</ele>
        <time>2019-03-24T08:00:39Z</time>
      </trkpt>
      <trkpt lat="43.68508" lon="6.85649">
        <ele>716.2</ele>
        <time>2019-03-24T08:00:41Z</time>
      </trkpt>
      <trkpt lat="43.68512" lon="6.85652">
        <ele>717</ele>
        <time>2019-03-24T08:00:43Z</time>
      </trkpt>
      <trkpt lat="43.68515" lon="6.85653">
        <ele>717.4</ele>
        <time>2019-03-24T08:00:44Z</time>
      </trkpt>
      <trkpt lat="43.68524" lon="6.85658">
        <ele>718.6</ele>
        <time>2019-03-24T08:00:48Z</time>
      </trkpt>
      <trkpt lat="43.68528" lon="6.85661">
        <ele>719.4</ele>
        <time>2019-03-24T08:00:50Z</time>
      </trkpt>
      <trkpt lat="43.68533" lon="6.85664">
        <ele>719.6</ele>
        <time>2019-03-24T08:00:52Z</time>
      </trkpt>
      <trkpt lat="43.68543" lon="6.85666">
        <ele>720.8</ele>
        <time>2019-03-24T08:00:56Z</time>
      </trkpt>
      <trkpt lat="43.68559" lon="6.85663">
        <ele>720.6</ele>
        <time>2019-03-24T08:01:02Z</time>
      </trkpt>
      <trkpt lat="43.68574" lon="6.8565">
        <ele>720.6</ele>
        <time>2019-03-24T08:01:07Z</time>
      </trkpt>
      <trkpt lat="43.6859" lon="6.85643">
        <ele>721.8</ele>
        <time>2019-03-24T08:01:12Z</time>
      </trkpt>
      <trkpt lat="43.68611" lon="6.85641">
        <ele>722</ele>
        <time>2019-03-24T08:01:18Z</time>
      </trkpt>
      <trkpt lat="43.68631" lon="6.85648">
        <ele>721.2</ele>
        <time>2019-03-24T08:01:24Z</time>
      </trkpt>
      <trkpt lat="43.68646" lon="6.8565">
        <ele>720.6</ele>
        <time>2019-03-24T08:01:28Z</time>
      </trkpt>
      <trkpt lat="43.68658" lon="6.85651">
        <ele>719.8</ele>
        <time>2019-03-24T08:01:31Z</time>
      </trkpt>
      <trkpt lat="43.68662" lon="6.85652">
        <ele>719.4</ele>
        <time>2019-03-24T08:01:32Z</time>
      </trkpt>
      <trkpt lat="43.68674" lon="6.85652">
        <ele>718.4</ele>
        <time>2019-03-24T08:01:35Z</time>
      </trkpt>
      <trkpt lat="43.68681" lon="6.85649">
        <ele>718</ele>
        <time>2019-03-24T08:01:37Z</time>
      </trkpt>
      <trkpt lat="43.68683" lon="6.85645">
        <ele>717.6</ele>
        <time>2019-03-24T08:01:38Z</time>
      </trkpt>
      <trkpt lat="43.68685" lon="6.8564">
        <ele>717</ele>
        <time>2019-03-24T08:01:39Z</time>
      </trkpt>
      <trkpt lat="43.68686" lon="6.85635">
        <ele>716.6</ele>
        <time>2019-03-24T08:01:40Z</time>
      </trkpt>
      <trkpt lat="43.68686" lon="6.85619">
        <ele>715.8</ele>
        <time>2019-03-24T08:01:43Z</time>
      </trkpt>
      <trkpt lat="43.68686" lon="6.85609">
        <ele>715</ele>
        <time>2019-03-24T08:01:45Z</time>
      </trkpt>
      <trkpt lat="43.68687" lon="6.85599">
        <ele>714.6</ele>
        <time>2019-03-24T08:01:47Z</time>
      </trkpt>
      <trkpt lat="43.68687" lon="6.85584">
        <ele>713.6</ele>
        <time>2019-03-24T08:01:50Z</time>
      </trkpt>
      <trkpt lat="43.68686" lon="6.8558">
        <ele>713.4</ele>
        <time>2019-03-24T08:01:51Z</time>
      </trkpt>
      <trkpt lat="43.68688" lon="6.85576">
        <ele>713</ele>
        <time>2019-03-24T08:01:52Z</time>
      </trkpt>
      <trkpt lat="43.68692" lon="6.85574">
        <ele>713</ele>
        <time>2019-03-24T08:01:54Z</time>
      </trkpt>
      <trkpt lat="43.68705" lon="6.85578">
        <ele>713</ele>
        <time>2019-03-24T08:01:58Z</time>
      </trkpt>
      <trkpt lat="43.68717" lon="6.85578">
        <ele>712.2</ele>
        <time>2019-03-24T08:02:01Z</time>
      </trkpt>
      <trkpt lat="43.68721" lon="6.85579">
        <ele>712</ele>
        <time>2019-03-24T08:02:03Z</time>
      </trkpt>
      <trkpt lat="43.68723" lon="6.85578">
        <ele>712</ele>
        <time>2019-03-24T08:02:04Z</time>
      </trkpt>
      <trkpt lat="43.68722" lon="6.85573">
        <ele>712</ele>
        <time>2019-03-24T08:02:06Z</time>
      </trkpt>
      <trkpt lat="43.68719" lon="6.85574">
        <ele>711.6</ele>
        <time>2019-03-24T08:02:09Z</time>
      </trkpt>
      <trkpt lat="43.68721" lon="6.85577">
        <ele>711.2</ele>
        <time>2019-03-24T08:03:08Z</time>
      </trkpt>
      <trkpt lat="43.68725" lon="6.8558">
        <ele>711</ele>
        <time>2019-03-24T08:03:10Z</time>
      </trkpt>
      <trkpt lat="43.68731" lon="6.85583">
        <ele>710.8</ele>
        <time>2019-03-24T08:03:12Z</time>
      </trkpt>
      <trkpt lat="43.68742" lon="6.85588">
        <ele>710.4</ele>
        <time>2019-03-24T08:03:15Z</time>
      </trkpt>
      <trkpt lat="43.68764" lon="6.85598">
        <ele>711.6</ele>
        <time>2019-03-24T08:03:22Z</time>
      </trkpt>
      <trkpt lat="43.68774" lon="6.85602">
        <ele>712.4</ele>
        <time>2019-03-24T08:03:26Z</time>
      </trkpt>
      <trkpt lat="43.68775" lon="6.85602">
        <ele>712.6</ele>
        <time>2019-03-24T08:03:27Z</time>
      </trkpt>
      <trkpt lat="43.68781" lon="6.85603">
        <ele>713.6</ele>
        <time>2019-03-24T08:03:31Z</time>
      </trkpt>
      <trkpt lat="43.68784" lon="6.85603">
        <ele>713.8</ele>
        <time>2019-03-24T08:03:34Z</time>
      </trkpt>
      <trkpt lat="43.68789" lon="6.85609">
        <ele>713.6</ele>
        <time>2019-03-24T08:03:40Z</time>
      </trkpt>
      <trkpt lat="43.68791" lon="6.85615">
        <ele>713.4</ele>
        <time>2019-03-24T08:04:33Z</time>
      </trkpt>
      <trkpt lat="43.68792" lon="6.85618">
        <ele>713.4</ele>
        <time>2019-03-24T08:04:34Z</time>
      </trkpt>
      <trkpt lat="43.68798" lon="6.85636">
        <ele>713.6</ele>
        <time>2019-03-24T08:04:39Z</time>
      </trkpt>
      <trkpt lat="43.68795" lon="6.85656">
        <ele>713.2</ele>
        <time>2019-03-24T08:04:43Z</time>
      </trkpt>
      <trkpt lat="43.68792" lon="6.85692">
        <ele>713.2</ele>
        <time>2019-03-24T08:04:49Z</time>
      </trkpt>
      <trkpt lat="43.68792" lon="6.85732">
        <ele>713.6</ele>
        <time>2019-03-24T08:04:56Z</time>
      </trkpt>
      <trkpt lat="43.68794" lon="6.8577">
        <ele>713.2</ele>
        <time>2019-03-24T08:05:03Z</time>
      </trkpt>
      <trkpt lat="43.68794" lon="6.85776">
        <ele>713.2</ele>
        <time>2019-03-24T08:05:04Z</time>
      </trkpt>
      <trkpt lat="43.6879" lon="6.85793">
        <ele>713.4</ele>
        <time>2019-03-24T08:05:07Z</time>
      </trkpt>
      <trkpt lat="43.68792" lon="6.85819">
        <ele>712.6</ele>
        <time>2019-03-24T08:05:11Z</time>
      </trkpt>
      <trkpt lat="43.68795" lon="6.85836">
        <ele>712.4</ele>
        <time>2019-03-24T08:05:14Z</time>
      </trkpt>
      <trkpt lat="43.68798" lon="6.85851">
        <ele>712.8</ele>
        <time>2019-03-24T08:05:17Z</time>
      </trkpt>
      <trkpt lat="43.68808" lon="6.85879">
        <ele>713.6</ele>
        <time>2019-03-24T08:05:24Z</time>
      </trkpt>
      <trkpt lat="43.68812" lon="6.8589">
        <ele>714.8</ele>
        <time>2019-03-24T08:05:27Z</time>
      </trkpt>
      <trkpt lat="43.68815" lon="6.85898">
        <ele>716</ele>
        <time>2019-03-24T08:05:30Z</time>
      </trkpt>
      <trkpt lat="43.68815" lon="6.859">
        <ele>716.2</ele>
        <time>2019-03-24T08:05:31Z</time>
      </trkpt>
      <trkpt lat="43.68818" lon="6.85912">
        <ele>716.8</ele>
        <time>2019-03-24T08:05:37Z</time>
      </trkpt>
      <trkpt lat="43.68819" lon="6.85917">
        <ele>717</ele>
        <time>2019-03-24T08:05:42Z</time>
      </trkpt>
      <trkpt lat="43.6882" lon="6.85921">
        <ele>717</ele>
        <time>2019-03-24T08:05:44Z</time>
      </trkpt>
      <trkpt lat="43.68822" lon="6.8592">
        <ele>718.2</ele>
        <time>2019-03-24T08:05:47Z</time>
      </trkpt>
      <trkpt lat="43.68823" lon="6.8592">
        <ele>718.4</ele>
        <time>2019-03-24T08:05:48Z</time>
      </trkpt>
      <trkpt lat="43.68825" lon="6.85916">
        <ele>719.2</ele>
        <time>2019-03-24T08:05:51Z</time>
      </trkpt>
      <trkpt lat="43.68823" lon="6.85913">
        <ele>719.6</ele>
        <time>2019-03-24T08:05:54Z</time>
      </trkpt>
      <trkpt lat="43.68821" lon="6.85908">
        <ele>719.4</ele>
        <time>2019-03-24T08:06:00Z</time>
      </trkpt>
      <trkpt lat="43.68819" lon="6.85901">
        <ele>718.6</ele>
        <time>2019-03-24T08:08:17Z</time>
      </trkpt>
      <trkpt lat="43.68818" lon="6.85899">
        <ele>718.4</ele>
        <time>2019-03-24T08:08:18Z</time>
      </trkpt>
      <trkpt lat="43.68817" lon="6.85896">
        <ele>718.2</ele>
        <time>2019-03-24T08:08:19Z</time>
      </trkpt>
      <trkpt lat="43.68811" lon="6.8588">
        <ele>717.4</ele>
        <time>2019-03-24T08:08:23Z</time>
      </trkpt>
      <trkpt lat="43.68809" lon="6.85875">
        <ele>717</ele>
        <time>2019-03-24T08:08:24Z</time>
      </trkpt>
      <trkpt lat="43.68802" lon="6.85853">
        <ele>716.4</ele>
        <time>2019-03-24T08:08:27Z</time>
      </trkpt>
      <trkpt lat="43.68799" lon="6.85843">
        <ele>716</ele>
        <time>2019-03-24T08:08:28Z</time>
      </trkpt>
      <trkpt lat="43.68792" lon="6.8581">
        <ele>714.8</ele>
        <time>2019-03-24T08:08:31Z</time>
      </trkpt>
      <trkpt lat="43.68791" lon="6.85788">
        <ele>713.8</ele>
        <time>2019-03-24T08:08:33Z</time>
      </trkpt>
      <trkpt lat="43.68793" lon="6.8578">
        <ele>713.6</ele>
        <time>2019-03-24T08:08:34Z</time>
      </trkpt>
      <trkpt lat="43.68795" lon="6.85763">
        <ele>713.2</ele>
        <time>2019-03-24T08:08:36Z</time>
      </trkpt>
      <trkpt lat="43.68793" lon="6.85744">
        <ele>712.8</ele>
        <time>2019-03-24T08:08:38Z</time>
      </trkpt>
      <trkpt lat="43.68793" lon="6.85733">
        <ele>712.6</ele>
        <time>2019-03-24T08:08:39Z</time>
      </trkpt>
      <trkpt lat="43.68793" lon="6.85723">
        <ele>712.4</ele>
        <time>2019-03-24T08:08:40Z</time>
      </trkpt>
      <trkpt lat="43.68793" lon="6.85691">
        <ele>711.8</ele>
        <time>2019-03-24T08:08:43Z</time>
      </trkpt>
      <trkpt lat="43.68793" lon="6.85681">
        <ele>711.4</ele>
        <time>2019-03-24T08:08:44Z</time>
      </trkpt>
      <trkpt lat="43.68794" lon="6.85648">
        <ele>710.6</ele>
        <time>2019-03-24T08:08:48Z</time>
      </trkpt>
      <trkpt lat="43.68796" lon="6.85641">
        <ele>710.4</ele>
        <time>2019-03-24T08:08:49Z</time>
      </trkpt>
      <trkpt lat="43.68795" lon="6.85625">
        <ele>710</ele>
        <time>2019-03-24T08:08:51Z</time>
      </trkpt>
      <trkpt lat="43.68787" lon="6.85608">
        <ele>709.4</ele>
        <time>2019-03-24T08:08:53Z</time>
      </trkpt>
      <trkpt lat="43.68782" lon="6.85601">
        <ele>709</ele>
        <time>2019-03-24T08:08:54Z</time>
      </trkpt>
      <trkpt lat="43.68766" lon="6.85597">
        <ele>708.4</ele>
        <time>2019-03-24T08:08:56Z</time>
      </trkpt>
      <trkpt lat="43.68758" lon="6.85595">
        <ele>707.8</ele>
        <time>2019-03-24T08:08:57Z</time>
      </trkpt>
      <trkpt lat="43.6875" lon="6.85592">
        <ele>707.4</ele>
        <time>2019-03-24T08:08:58Z</time>
      </trkpt>
      <trkpt lat="43.68741" lon="6.85587">
        <ele>706.6</ele>
        <time>2019-03-24T08:08:59Z</time>
      </trkpt>
      <trkpt lat="43.68732" lon="6.85582">
        <ele>705.8</ele>
        <time>2019-03-24T08:09:00Z</time>
      </trkpt>
      <trkpt lat="43.68715" lon="6.85573">
        <ele>704.6</ele>
        <time>2019-03-24T08:09:02Z</time>
      </trkpt>
      <trkpt lat="43.68706" lon="6.85573">
        <ele>704</ele>
        <time>2019-03-24T08:09:03Z</time>
      </trkpt>
      <trkpt lat="43.68699" lon="6.85572">
        <ele>703.6</ele>
        <time>2019-03-24T08:09:04Z</time>
      </trkpt>
      <trkpt lat="43.68693" lon="6.85571">
        <ele>703.4</ele>
        <time>2019-03-24T08:09:05Z</time>
      </trkpt>
      <trkpt lat="43.68679" lon="6.85571">
        <ele>703.2</ele>
        <time>2019-03-24T08:09:08Z</time>
      </trkpt>
      <trkpt lat="43.68668" lon="6.85575">
        <ele>703.4</ele>
        <time>2019-03-24T08:09:12Z</time>
      </trkpt>
      <trkpt lat="43.6867" lon="6.85577">
        <ele>703.6</ele>
        <time>2019-03-24T08:09:26Z</time>
      </trkpt>
      <trkpt lat="43.68675" lon="6.85582">
        <ele>703.6</ele>
        <time>2019-03-24T08:09:30Z</time>
      </trkpt>
      <trkpt lat="43.68678" lon="6.85591">
        <ele>703.2</ele>
        <time>2019-03-24T08:09:33Z</time>
      </trkpt>
      <trkpt lat="43.68679" lon="6.85595">
        <ele>703.2</ele>
        <time>2019-03-24T08:09:34Z</time>
      </trkpt>
      <trkpt lat="43.68679" lon="6.85606">
        <ele>703.2</ele>
        <time>2019-03-24T08:09:38Z</time>
      </trkpt>
      <trkpt lat="43.68678" lon="6.85609">
        <ele>703</ele>
        <time>2019-03-24T08:09:39Z</time>
      </trkpt>
      <trkpt lat="43.68672" lon="6.85625">
        <ele>702.8</ele>
        <time>2019-03-24T08:09:44Z</time>
      </trkpt>
      <trkpt lat="43.68671" lon="6.85631">
        <ele>702.6</ele>
        <time>2019-03-24T08:09:51Z</time>
      </trkpt>
      <trkpt lat="43.68669" lon="6.85635">
        <ele>702.4</ele>
        <time>2019-03-24T08:09:53Z</time>
      </trkpt>
      <trkpt lat="43.68664" lon="6.85639">
        <ele>702.2</ele>
        <time>2019-03-24T08:09:55Z</time>
      </trkpt>
      <trkpt lat="43.68659" lon="6.85643">
        <ele>702.2</ele>
        <time>2019-03-24T08:09:57Z</time>
      </trkpt>
      <trkpt lat="43.68652" lon="6.85645">
        <ele>702.4</ele>
        <time>2019-03-24T08:10:00Z</time>
      </trkpt>
      <trkpt lat="43.68637" lon="6.85645">
        <ele>702.2</ele>
        <time>2019-03-24T08:10:05Z</time>
      </trkpt>
      <trkpt lat="43.68618" lon="6.85642">
        <ele>701.2</ele>
        <time>2019-03-24T08:10:10Z</time>
      </trkpt>
      <trkpt lat="43.68615" lon="6.85643">
        <ele>701.2</ele>
        <time>2019-03-24T08:10:11Z</time>
      </trkpt>
      <trkpt lat="43.68601" lon="6.85652">
        <ele>700.8</ele>
        <time>2019-03-24T08:10:15Z</time>
      </trkpt>
      <trkpt lat="43.68595" lon="6.85665">
        <ele>701</ele>
        <time>2019-03-24T08:10:18Z</time>
      </trkpt>
      <trkpt lat="43.68594" lon="6.85669">
        <ele>701</ele>
        <time>2019-03-24T08:10:19Z</time>
      </trkpt>
      <trkpt lat="43.68595" lon="6.85693">
        <ele>700.8</ele>
        <time>2019-03-24T08:10:24Z</time>
      </trkpt>
      <trkpt lat="43.68593" lon="6.85698">
        <ele>700.6</ele>
        <time>2019-03-24T08:10:25Z</time>
      </trkpt>
      <trkpt lat="43.68591" lon="6.85716">
        <ele>700.6</ele>
        <time>2019-03-24T08:10:28Z</time>
      </trkpt>
      <trkpt lat="43.68583" lon="6.85728">
        <ele>700.6</ele>
        <time>2019-03-24T08:10:31Z</time>
      </trkpt>
      <trkpt lat="43.68577" lon="6.85732">
        <ele>700.2</ele>
        <time>2019-03-24T08:10:33Z</time>
      </trkpt>
      <trkpt lat="43.68573" lon="6.85735">
        <ele>700.4</ele>
        <time>2019-03-24T08:10:35Z</time>
      </trkpt>
      <trkpt lat="43.68573" lon="6.85737">
        <ele>700</ele>
        <time>2019-03-24T08:10:36Z</time>
      </trkpt>
      <trkpt lat="43.68578" lon="6.85744">
        <ele>700.2</ele>
        <time>2019-03-24T08:10:39Z</time>
      </trkpt>
      <trkpt lat="43.68587" lon="6.85757">
        <ele>701.4</ele>
        <time>2019-03-24T08:10:43Z</time>
      </trkpt>
      <trkpt lat="43.68584" lon="6.85769">
        <ele>702.2</ele>
        <time>2019-03-24T08:10:46Z</time>
      </trkpt>
      <trkpt lat="43.68572" lon="6.85781">
        <ele>702.4</ele>
        <time>2019-03-24T08:10:50Z</time>
      </trkpt>
      <trkpt lat="43.68568" lon="6.85782">
        <ele>702.6</ele>
        <time>2019-03-24T08:10:51Z</time>
      </trkpt>
      <trkpt lat="43.68557" lon="6.85778">
        <ele>702.2</ele>
        <time>2019-03-24T08:10:54Z</time>
      </trkpt>
      <trkpt lat="43.68542" lon="6.85759">
        <ele>702.2</ele>
        <time>2019-03-24T08:10:59Z</time>
      </trkpt>
      <trkpt lat="43.68532" lon="6.85763">
        <ele>702</ele>
        <time>2019-03-24T08:11:02Z</time>
      </trkpt>
      <trkpt lat="43.68528" lon="6.85774">
        <ele>702.2</ele>
        <time>2019-03-24T08:11:04Z</time>
      </trkpt>
      <trkpt lat="43.68523" lon="6.85789">
        <ele>702.6</ele>
        <time>2019-03-24T08:11:07Z</time>
      </trkpt>
      <trkpt lat="43.68527" lon="6.85809">
        <ele>702.4</ele>
        <time>2019-03-24T08:11:11Z</time>
      </trkpt>
      <trkpt lat="43.68527" lon="6.8583">
        <ele>702</ele>
        <time>2019-03-24T08:11:15Z</time>
      </trkpt>
      <trkpt lat="43.68525" lon="6.85856">
        <ele>702.4</ele>
        <time>2019-03-24T08:11:20Z</time>
      </trkpt>
      <trkpt lat="43.68528" lon="6.85861">
        <ele>702.4</ele>
        <time>2019-03-24T08:11:21Z</time>
      </trkpt>
      <trkpt lat="43.6853" lon="6.8587">
        <ele>702.6</ele>
        <time>2019-03-24T08:11:23Z</time>
      </trkpt>
      <trkpt lat="43.6853" lon="6.85879">
        <ele>702.6</ele>
        <time>2019-03-24T08:11:25Z</time>
      </trkpt>
      <trkpt lat="43.68531" lon="6.85894">
        <ele>703</ele>
        <time>2019-03-24T08:11:28Z</time>
      </trkpt>
      <trkpt lat="43.68534" lon="6.85904">
        <ele>703.8</ele>
        <time>2019-03-24T08:11:30Z</time>
      </trkpt>
      <trkpt lat="43.68541" lon="6.85917">
        <ele>704.8</ele>
        <time>2019-03-24T08:11:33Z</time>
      </trkpt>
      <trkpt lat="43.68547" lon="6.85935">
        <ele>706</ele>
        <time>2019-03-24T08:11:37Z</time>
      </trkpt>
      <trkpt lat="43.68548" lon="6.85944">
        <ele>706.4</ele>
        <time>2019-03-24T08:11:39Z</time>
      </trkpt>
      <trkpt lat="43.68552" lon="6.85962">
        <ele>707.4</ele>
        <time>2019-03-24T08:11:43Z</time>
      </trkpt>
      <trkpt lat="43.68554" lon="6.85966">
        <ele>707.4</ele>
        <time>2019-03-24T08:11:45Z</time>
      </trkpt>
      <trkpt lat="43.68563" lon="6.85978">
        <ele>708.2</ele>
        <time>2019-03-24T08:11:50Z</time>
      </trkpt>
      <trkpt lat="43.68566" lon="6.85981">
        <ele>708.4</ele>
        <time>2019-03-24T08:11:51Z</time>
      </trkpt>
      <trkpt lat="43.68577" lon="6.85998">
        <ele>709</ele>
        <time>2019-03-24T08:11:56Z</time>
      </trkpt>
      <trkpt lat="43.68581" lon="6.86014">
        <ele>708.6</ele>
        <time>2019-03-24T08:12:00Z</time>
      </trkpt>
      <trkpt lat="43.68578" lon="6.86018">
        <ele>708.6</ele>
        <time>2019-03-24T08:12:01Z</time>
      </trkpt>
      <trkpt lat="43.68574" lon="6.86029">
        <ele>709</ele>
        <time>2019-03-24T08:12:03Z</time>
      </trkpt>
      <trkpt lat="43.6857" lon="6.8604">
        <ele>709.2</ele>
        <time>2019-03-24T08:12:05Z</time>
      </trkpt>
      <trkpt lat="43.68568" lon="6.86056">
        <ele>709.2</ele>
        <time>2019-03-24T08:12:08Z</time>
      </trkpt>
      <trkpt lat="43.68567" lon="6.86064">
        <ele>709.6</ele>
        <time>2019-03-24T08:12:10Z</time>
      </trkpt>
      <trkpt lat="43.68565" lon="6.86073">
        <ele>709.8</ele>
        <time>2019-03-24T08:12:12Z</time>
      </trkpt>
      <trkpt lat="43.68566" lon="6.86077">
        <ele>710</ele>
        <time>2019-03-24T08:12:13Z</time>
      </trkpt>
      <trkpt lat="43.68569" lon="6.86087">
        <ele>710.6</ele>
        <time>2019-03-24T08:12:16Z</time>
      </trkpt>
      <trkpt lat="43.68571" lon="6.86099">
        <ele>711</ele>
        <time>2019-03-24T08:12:19Z</time>
      </trkpt>
      <trkpt lat="43.68573" lon="6.86113">
        <ele>711.6</ele>
        <time>2019-03-24T08:12:23Z</time>
      </trkpt>
      <trkpt lat="43.68573" lon="6.86116">
        <ele>711.8</ele>
        <time>2019-03-24T08:12:24Z</time>
      </trkpt>
      <trkpt lat="43.68576" lon="6.86131">
        <ele>712.8</ele>
        <time>2019-03-24T08:12:28Z</time>
      </trkpt>
      <trkpt lat="43.68578" lon="6.86148">
        <ele>713.6</ele>
        <time>2019-03-24T08:12:32Z</time>
      </trkpt>
      <trkpt lat="43.68582" lon="6.86176">
        <ele>714</ele>
        <time>2019-03-24T08:12:38Z</time>
      </trkpt>
      <trkpt lat="43.68582" lon="6.8618">
        <ele>714</ele>
        <time>2019-03-24T08:12:39Z</time>
      </trkpt>
      <trkpt lat="43.6858" lon="6.86184">
        <ele>714</ele>
        <time>2019-03-24T08:12:40Z</time>
      </trkpt>
      <trkpt lat="43.68574" lon="6.86193">
        <ele>713.8</ele>
        <time>2019-03-24T08:12:43Z</time>
      </trkpt>
      <trkpt lat="43.68571" lon="6.86196">
        <ele>713.6</ele>
        <time>2019-03-24T08:12:44Z</time>
      </trkpt>
      <trkpt lat="43.68568" lon="6.862">
        <ele>713.6</ele>
        <time>2019-03-24T08:12:46Z</time>
      </trkpt>
      <trkpt lat="43.68563" lon="6.86203">
        <ele>714</ele>
        <time>2019-03-24T08:12:48Z</time>
      </trkpt>
      <trkpt lat="43.68556" lon="6.86215">
        <ele>714.2</ele>
        <time>2019-03-24T08:12:53Z</time>
      </trkpt>
      <trkpt lat="43.68552" lon="6.86233">
        <ele>713.2</ele>
        <time>2019-03-24T08:12:58Z</time>
      </trkpt>
      <trkpt lat="43.68551" lon="6.86236">
        <ele>712.8</ele>
        <time>2019-03-24T08:12:59Z</time>
      </trkpt>
      <trkpt lat="43.68546" lon="6.86258">
        <ele>712.2</ele>
        <time>2019-03-24T08:13:04Z</time>
      </trkpt>
      <trkpt lat="43.6854" lon="6.86282">
        <ele>712.4</ele>
        <time>2019-03-24T08:13:10Z</time>
      </trkpt>
      <trkpt lat="43.68537" lon="6.86287">
        <ele>713.2</ele>
        <time>2019-03-24T08:13:14Z</time>
      </trkpt>
      <trkpt lat="43.6853" lon="6.86302">
        <ele>713.4</ele>
        <time>2019-03-24T08:13:19Z</time>
      </trkpt>
      <trkpt lat="43.68513" lon="6.86332">
        <ele>713.8</ele>
        <time>2019-03-24T08:13:27Z</time>
      </trkpt>
      <trkpt lat="43.68506" lon="6.86352">
        <ele>714.6</ele>
        <time>2019-03-24T08:13:33Z</time>
      </trkpt>
      <trkpt lat="43.68499" lon="6.86362">
        <ele>714.6</ele>
        <time>2019-03-24T08:13:37Z</time>
      </trkpt>
      <trkpt lat="43.68483" lon="6.86362">
        <ele>713.4</ele>
        <time>2019-03-24T08:13:41Z</time>
      </trkpt>
      <trkpt lat="43.6847" lon="6.86365">
        <ele>712.8</ele>
        <time>2019-03-24T08:13:44Z</time>
      </trkpt>
      <trkpt lat="43.6846" lon="6.86367">
        <ele>712.4</ele>
        <time>2019-03-24T08:13:46Z</time>
      </trkpt>
      <trkpt lat="43.68455" lon="6.86367">
        <ele>712.2</ele>
        <time>2019-03-24T08:13:47Z</time>
      </trkpt>
      <trkpt lat="43.68444" lon="6.86362">
        <ele>711.6</ele>
        <time>2019-03-24T08:13:49Z</time>
      </trkpt>
      <trkpt lat="43.6844" lon="6.86358">
        <ele>711.4</ele>
        <time>2019-03-24T08:13:50Z</time>
      </trkpt>
      <trkpt lat="43.68435" lon="6.86354">
        <ele>711.2</ele>
        <time>2019-03-24T08:13:51Z</time>
      </trkpt>
      <trkpt lat="43.68431" lon="6.86351">
        <ele>711.2</ele>
        <time>2019-03-24T08:13:52Z</time>
      </trkpt>
      <trkpt lat="43.6842" lon="6.86339">
        <ele>711.2</ele>
        <time>2019-03-24T08:13:55Z</time>
      </trkpt>
      <trkpt lat="43.68417" lon="6.86337">
        <ele>711</ele>
        <time>2019-03-24T08:13:56Z</time>
      </trkpt>
      <trkpt lat="43.68408" lon="6.86332">
        <ele>711.2</ele>
        <time>2019-03-24T08:13:59Z</time>
      </trkpt>
      <trkpt lat="43.68386" lon="6.86328">
        <ele>710.6</ele>
        <time>2019-03-24T08:14:05Z</time>
      </trkpt>
      <trkpt lat="43.68359" lon="6.8632">
        <ele>710.6</ele>
        <time>2019-03-24T08:14:12Z</time>
      </trkpt>
      <trkpt lat="43.68355" lon="6.86318">
        <ele>710.6</ele>
        <time>2019-03-24T08:14:13Z</time>
      </trkpt>
      <trkpt lat="43.68346" lon="6.86315">
        <ele>710.4</ele>
        <time>2019-03-24T08:14:15Z</time>
      </trkpt>
      <trkpt lat="43.68334" lon="6.86313">
        <ele>710.2</ele>
        <time>2019-03-24T08:14:18Z</time>
      </trkpt>
      <trkpt lat="43.68309" lon="6.8632">
        <ele>709.6</ele>
        <time>2019-03-24T08:14:23Z</time>
      </trkpt>
      <trkpt lat="43.68275" lon="6.86322">
        <ele>709.4</ele>
        <time>2019-03-24T08:14:29Z</time>
      </trkpt>
      <trkpt lat="43.6827" lon="6.86323">
        <ele>709.4</ele>
        <time>2019-03-24T08:14:30Z</time>
      </trkpt>
      <trkpt lat="43.6824" lon="6.86328">
        <ele>709.6</ele>
        <time>2019-03-24T08:14:36Z</time>
      </trkpt>
      <trkpt lat="43.68221" lon="6.8633">
        <ele>709.6</ele>
        <time>2019-03-24T08:14:41Z</time>
      </trkpt>
      <trkpt lat="43.68212" lon="6.86333">
        <ele>709.8</ele>
        <time>2019-03-24T08:14:43Z</time>
      </trkpt>
      <trkpt lat="43.68197" lon="6.86336">
        <ele>709.8</ele>
        <time>2019-03-24T08:14:46Z</time>
      </trkpt>
      <trkpt lat="43.68163" lon="6.86339">
        <ele>710.2</ele>
        <time>2019-03-24T08:14:53Z</time>
      </trkpt>
      <trkpt lat="43.68151" lon="6.86345">
        <ele>710.4</ele>
        <time>2019-03-24T08:14:56Z</time>
      </trkpt>
      <trkpt lat="43.68143" lon="6.86351">
        <ele>710.6</ele>
        <time>2019-03-24T08:14:58Z</time>
      </trkpt>
      <trkpt lat="43.68139" lon="6.86354">
        <ele>710.6</ele>
        <time>2019-03-24T08:14:59Z</time>
      </trkpt>
      <trkpt lat="43.68121" lon="6.86362">
        <ele>710.8</ele>
        <time>2019-03-24T08:15:03Z</time>
      </trkpt>
      <trkpt lat="43.68096" lon="6.86364">
        <ele>711.2</ele>
        <time>2019-03-24T08:15:08Z</time>
      </trkpt>
      <trkpt lat="43.68067" lon="6.86371">
        <ele>711.6</ele>
        <time>2019-03-24T08:15:14Z</time>
      </trkpt>
      <trkpt lat="43.68044" lon="6.86382">
        <ele>712.4</ele>
        <time>2019-03-24T08:15:20Z</time>
      </trkpt>
      <trkpt lat="43.68022" lon="6.86398">
        <ele>711.8</ele>
        <time>2019-03-24T08:15:27Z</time>
      </trkpt>
      <trkpt lat="43.67995" lon="6.86411">
        <ele>710.8</ele>
        <time>2019-03-24T08:15:34Z</time>
      </trkpt>
      <trkpt lat="43.67988" lon="6.86414">
        <ele>710.6</ele>
        <time>2019-03-24T08:15:36Z</time>
      </trkpt>
      <trkpt lat="43.67969" lon="6.86417">
        <ele>710.2</ele>
        <time>2019-03-24T08:15:41Z</time>
      </trkpt>
      <trkpt lat="43.67943" lon="6.86427">
        <ele>710.4</ele>
        <time>2019-03-24T08:15:48Z</time>
      </trkpt>
      <trkpt lat="43.67927" lon="6.8644">
        <ele>711.8</ele>
        <time>2019-03-24T08:15:54Z</time>
      </trkpt>
      <trkpt lat="43.67925" lon="6.86442">
        <ele>712</ele>
        <time>2019-03-24T08:15:55Z</time>
      </trkpt>
      <trkpt lat="43.67917" lon="6.86453">
        <ele>712.8</ele>
        <time>2019-03-24T08:15:59Z</time>
      </trkpt>
      <trkpt lat="43.67914" lon="6.86456">
        <ele>713.2</ele>
        <time>2019-03-24T08:16:01Z</time>
      </trkpt>
      <trkpt lat="43.67902" lon="6.86475">
        <ele>713.6</ele>
        <time>2019-03-24T08:16:08Z</time>
      </trkpt>
      <trkpt lat="43.67896" lon="6.86483">
        <ele>714.2</ele>
        <time>2019-03-24T08:16:11Z</time>
      </trkpt>
      <trkpt lat="43.6789" lon="6.86493">
        <ele>715.6</ele>
        <time>2019-03-24T08:16:14Z</time>
      </trkpt>
      <trkpt lat="43.67888" lon="6.86497">
        <ele>716</ele>
        <time>2019-03-24T08:16:15Z</time>
      </trkpt>
      <trkpt lat="43.67883" lon="6.86506">
        <ele>716.8</ele>
        <time>2019-03-24T08:16:18Z</time>
      </trkpt>
      <trkpt lat="43.67879" lon="6.86511">
        <ele>717.2</ele>
        <time>2019-03-24T08:16:20Z</time>
      </trkpt>
      <trkpt lat="43.67876" lon="6.86518">
        <ele>718</ele>
        <time>2019-03-24T08:16:22Z</time>
      </trkpt>
      <trkpt lat="43.67866" lon="6.86536">
        <ele>718.6</ele>
        <time>2019-03-24T08:16:27Z</time>
      </trkpt>
      <trkpt lat="43.67852" lon="6.86552">
        <ele>719</ele>
        <time>2019-03-24T08:16:32Z</time>
      </trkpt>
      <trkpt lat="43.67842" lon="6.86556">
        <ele>719.2</ele>
        <time>2019-03-24T08:16:35Z</time>
      </trkpt>
      <trkpt lat="43.67832" lon="6.86558">
        <ele>719.6</ele>
        <time>2019-03-24T08:16:38Z</time>
      </trkpt>
      <trkpt lat="43.67813" lon="6.86566">
        <ele>720.2</ele>
        <time>2019-03-24T08:16:44Z</time>
      </trkpt>
      <trkpt lat="43.6779" lon="6.86579">
        <ele>720.4</ele>
        <time>2019-03-24T08:16:52Z</time>
      </trkpt>
      <trkpt lat="43.67767" lon="6.86596">
        <ele>721.4</ele>
        <time>2019-03-24T08:16:59Z</time>
      </trkpt>
      <trkpt lat="43.67752" lon="6.86604">
        <ele>721.6</ele>
        <time>2019-03-24T08:17:03Z</time>
      </trkpt>
      <trkpt lat="43.67743" lon="6.86607">
        <ele>721.8</ele>
        <time>2019-03-24T08:17:05Z</time>
      </trkpt>
      <trkpt lat="43.67739" lon="6.86607">
        <ele>722</ele>
        <time>2019-03-24T08:17:06Z</time>
      </trkpt>
      <trkpt lat="43.67726" lon="6.86613">
        <ele>722</ele>
        <time>2019-03-24T08:17:09Z</time>
      </trkpt>
      <trkpt lat="43.67707" lon="6.86638">
        <ele>721.8</ele>
        <time>2019-03-24T08:17:14Z</time>
      </trkpt>
      <trkpt lat="43.67704" lon="6.86644">
        <ele>721.6</ele>
        <time>2019-03-24T08:17:15Z</time>
      </trkpt>
      <trkpt lat="43.67697" lon="6.86656">
        <ele>721.8</ele>
        <time>2019-03-24T08:17:17Z</time>
      </trkpt>
      <trkpt lat="43.67685" lon="6.8667">
        <ele>721.6</ele>
        <time>2019-03-24T08:17:20Z</time>
      </trkpt>
      <trkpt lat="43.67674" lon="6.86684">
        <ele>721.2</ele>
        <time>2019-03-24T08:17:23Z</time>
      </trkpt>
      <trkpt lat="43.67664" lon="6.86688">
        <ele>720.8</ele>
        <time>2019-03-24T08:17:25Z</time>
      </trkpt>
      <trkpt lat="43.67648" lon="6.86689">
        <ele>720.6</ele>
        <time>2019-03-24T08:17:28Z</time>
      </trkpt>
      <trkpt lat="43.67643" lon="6.86691">
        <ele>720.6</ele>
        <time>2019-03-24T08:17:29Z</time>
      </trkpt>
      <trkpt lat="43.67629" lon="6.86704">
        <ele>720.2</ele>
        <time>2019-03-24T08:17:32Z</time>
      </trkpt>
      <trkpt lat="43.67624" lon="6.86707">
        <ele>720</ele>
        <time>2019-03-24T08:17:33Z</time>
      </trkpt>
      <trkpt lat="43.67598" lon="6.86728">
        <ele>719.4</ele>
        <time>2019-03-24T08:17:39Z</time>
      </trkpt>
      <trkpt lat="43.67589" lon="6.86735">
        <ele>719.2</ele>
        <time>2019-03-24T08:17:41Z</time>
      </trkpt>
      <trkpt lat="43.67585" lon="6.86739">
        <ele>719.2</ele>
        <time>2019-03-24T08:17:42Z</time>
      </trkpt>
      <trkpt lat="43.67582" lon="6.86743">
        <ele>719</ele>
        <time>2019-03-24T08:17:43Z</time>
      </trkpt>
      <trkpt lat="43.67575" lon="6.86752">
        <ele>718.8</ele>
        <time>2019-03-24T08:17:45Z</time>
      </trkpt>
      <trkpt lat="43.67559" lon="6.8677">
        <ele>718</ele>
        <time>2019-03-24T08:17:49Z</time>
      </trkpt>
      <trkpt lat="43.6755" lon="6.86779">
        <ele>717.6</ele>
        <time>2019-03-24T08:17:51Z</time>
      </trkpt>
      <trkpt lat="43.67529" lon="6.86799">
        <ele>717</ele>
        <time>2019-03-24T08:17:56Z</time>
      </trkpt>
      <trkpt lat="43.6752" lon="6.86808">
        <ele>716.6</ele>
        <time>2019-03-24T08:17:59Z</time>
      </trkpt>
      <trkpt lat="43.67502" lon="6.86828">
        <ele>716</ele>
        <time>2019-03-24T08:18:05Z</time>
      </trkpt>
      <trkpt lat="43.67495" lon="6.86836">
        <ele>716</ele>
        <time>2019-03-24T08:18:07Z</time>
      </trkpt>
      <trkpt lat="43.67476" lon="6.86857">
        <ele>715.8</ele>
        <time>2019-03-24T08:18:13Z</time>
      </trkpt>
      <trkpt lat="43.67468" lon="6.86863">
        <ele>715.6</ele>
        <time>2019-03-24T08:18:15Z</time>
      </trkpt>
      <trkpt lat="43.67451" lon="6.86876">
        <ele>715.6</ele>
        <time>2019-03-24T08:18:19Z</time>
      </trkpt>
      <trkpt lat="43.67437" lon="6.86884">
        <ele>715.2</ele>
        <time>2019-03-24T08:18:22Z</time>
      </trkpt>
      <trkpt lat="43.67424" lon="6.86894">
        <ele>715</ele>
        <time>2019-03-24T08:18:25Z</time>
      </trkpt>
      <trkpt lat="43.67403" lon="6.86907">
        <ele>714.4</ele>
        <time>2019-03-24T08:18:30Z</time>
      </trkpt>
      <trkpt lat="43.67391" lon="6.86916">
        <ele>714.2</ele>
        <time>2019-03-24T08:18:33Z</time>
      </trkpt>
      <trkpt lat="43.67381" lon="6.86923">
        <ele>714.4</ele>
        <time>2019-03-24T08:18:36Z</time>
      </trkpt>
      <trkpt lat="43.6736" lon="6.8694">
        <ele>715.2</ele>
        <time>2019-03-24T08:18:43Z</time>
      </trkpt>
      <trkpt lat="43.67343" lon="6.86956">
        <ele>715.4</ele>
        <time>2019-03-24T08:18:49Z</time>
      </trkpt>
      <trkpt lat="43.67336" lon="6.86965">
        <ele>716.2</ele>
        <time>2019-03-24T08:18:52Z</time>
      </trkpt>
      <trkpt lat="43.67324" lon="6.86979">
        <ele>716.4</ele>
        <time>2019-03-24T08:18:56Z</time>
      </trkpt>
      <trkpt lat="43.67312" lon="6.86993">
        <ele>716.6</ele>
        <time>2019-03-24T08:19:00Z</time>
      </trkpt>
      <trkpt lat="43.67299" lon="6.87002">
        <ele>716.6</ele>
        <time>2019-03-24T08:19:03Z</time>
      </trkpt>
      <trkpt lat="43.67264" lon="6.87027">
        <ele>716.8</ele>
        <time>2019-03-24T08:19:11Z</time>
      </trkpt>
      <trkpt lat="43.67234" lon="6.8705">
        <ele>716.4</ele>
        <time>2019-03-24T08:19:17Z</time>
      </trkpt>
      <trkpt lat="43.67223" lon="6.87061">
        <ele>715.6</ele>
        <time>2019-03-24T08:19:21Z</time>
      </trkpt>
      <trkpt lat="43.67218" lon="6.87068">
        <ele>715.8</ele>
        <time>2019-03-24T08:19:26Z</time>
      </trkpt>
      <trkpt lat="43.67223" lon="6.87075">
        <ele>716.8</ele>
        <time>2019-03-24T08:19:30Z</time>
      </trkpt>
      <trkpt lat="43.67228" lon="6.87079">
        <ele>717.2</ele>
        <time>2019-03-24T08:19:32Z</time>
      </trkpt>
      <trkpt lat="43.6723" lon="6.87081">
        <ele>717.4</ele>
        <time>2019-03-24T08:19:33Z</time>
      </trkpt>
      <trkpt lat="43.67234" lon="6.87084">
        <ele>718.2</ele>
        <time>2019-03-24T08:19:35Z</time>
      </trkpt>
      <trkpt lat="43.67236" lon="6.87085">
        <ele>718.6</ele>
        <time>2019-03-24T08:19:36Z</time>
      </trkpt>
      <trkpt lat="43.67248" lon="6.87093">
        <ele>718.8</ele>
        <time>2019-03-24T08:19:39Z</time>
      </trkpt>
      <trkpt lat="43.67252" lon="6.87097">
        <ele>718.8</ele>
        <time>2019-03-24T08:19:40Z</time>
      </trkpt>
      <trkpt lat="43.67267" lon="6.87108">
        <ele>719.8</ele>
        <time>2019-03-24T08:19:43Z</time>
      </trkpt>
      <trkpt lat="43.67281" lon="6.87118">
        <ele>720.4</ele>
        <time>2019-03-24T08:19:46Z</time>
      </trkpt>
      <trkpt lat="43.67305" lon="6.87139">
        <ele>720.2</ele>
        <time>2019-03-24T08:19:51Z</time>
      </trkpt>
      <trkpt lat="43.67323" lon="6.87153">
        <ele>719.6</ele>
        <time>2019-03-24T08:19:54Z</time>
      </trkpt>
      <trkpt lat="43.67335" lon="6.87165">
        <ele>719</ele>
        <time>2019-03-24T08:19:56Z</time>
      </trkpt>
      <trkpt lat="43.67347" lon="6.87174">
        <ele>718.4</ele>
        <time>2019-03-24T08:19:58Z</time>
      </trkpt>
      <trkpt lat="43.6735" lon="6.87176">
        <ele>718.4</ele>
        <time>2019-03-24T08:19:59Z</time>
      </trkpt>
      <trkpt lat="43.67352" lon="6.87177">
        <ele>718</ele>
        <time>2019-03-24T08:20:00Z</time>
      </trkpt>
      <trkpt lat="43.67356" lon="6.8718">
        <ele>717.6</ele>
        <time>2019-03-24T08:20:04Z</time>
      </trkpt>
      <trkpt lat="43.67357" lon="6.87181">
        <ele>717.6</ele>
        <time>2019-03-24T08:20:05Z</time>
      </trkpt>
      <trkpt lat="43.67361" lon="6.87184">
        <ele>717.8</ele>
        <time>2019-03-24T08:20:10Z</time>
      </trkpt>
      <trkpt lat="43.67365" lon="6.87186">
        <ele>718.4</ele>
        <time>2019-03-24T08:20:16Z</time>
      </trkpt>
      <trkpt lat="43.67372" lon="6.87192">
        <ele>719.6</ele>
        <time>2019-03-24T08:20:24Z</time>
      </trkpt>
      <trkpt lat="43.67376" lon="6.87195">
        <ele>720.6</ele>
        <time>2019-03-24T08:20:30Z</time>
      </trkpt>
      <trkpt lat="43.67378" lon="6.87196">
        <ele>721.2</ele>
        <time>2019-03-24T08:20:31Z</time>
      </trkpt>
      <trkpt lat="43.67379" lon="6.87197">
        <ele>722</ele>
        <time>2019-03-24T08:20:33Z</time>
      </trkpt>
      <trkpt lat="43.67381" lon="6.87199">
        <ele>723</ele>
        <time>2019-03-24T08:20:36Z</time>
      </trkpt>
      <trkpt lat="43.67384" lon="6.87201">
        <ele>724.2</ele>
        <time>2019-03-24T08:20:39Z</time>
      </trkpt>
      <trkpt lat="43.67386" lon="6.87204">
        <ele>725.2</ele>
        <time>2019-03-24T08:20:42Z</time>
      </trkpt>
      <trkpt lat="43.67387" lon="6.87204">
        <ele>725.6</ele>
        <time>2019-03-24T08:20:43Z</time>
      </trkpt>
      <trkpt lat="43.67389" lon="6.87205">
        <ele>726.2</ele>
        <time>2019-03-24T08:20:45Z</time>
      </trkpt>
      <trkpt lat="43.6739" lon="6.87206">
        <ele>726.4</ele>
        <time>2019-03-24T08:20:46Z</time>
      </trkpt>
      <trkpt lat="43.67392" lon="6.87208">
        <ele>726.8</ele>
        <time>2019-03-24T08:20:48Z</time>
      </trkpt>
      <trkpt lat="43.67395" lon="6.87214">
        <ele>727.4</ele>
        <time>2019-03-24T08:20:52Z</time>
      </trkpt>
      <trkpt lat="43.67397" lon="6.87217">
        <ele>728.6</ele>
        <time>2019-03-24T08:20:55Z</time>
      </trkpt>
      <trkpt lat="43.674" lon="6.8722">
        <ele>729.2</ele>
        <time>2019-03-24T08:20:58Z</time>
      </trkpt>
      <trkpt lat="43.67401" lon="6.87222">
        <ele>729.4</ele>
        <time>2019-03-24T08:20:59Z</time>
      </trkpt>
      <trkpt lat="43.67412" lon="6.87232">
        <ele>728.6</ele>
        <time>2019-03-24T08:21:04Z</time>
      </trkpt>
      <trkpt lat="43.67425" lon="6.87248">
        <ele>728.8</ele>
        <time>2019-03-24T08:21:11Z</time>
      </trkpt>
      <trkpt lat="43.67433" lon="6.87264">
        <ele>728.8</ele>
        <time>2019-03-24T08:21:18Z</time>
      </trkpt>
      <trkpt lat="43.67435" lon="6.87285">
        <ele>727.6</ele>
        <time>2019-03-24T08:21:26Z</time>
      </trkpt>
      <trkpt lat="43.67435" lon="6.87287">
        <ele>727.6</ele>
        <time>2019-03-24T08:21:27Z</time>
      </trkpt>
      <trkpt lat="43.67434" lon="6.87295">
        <ele>727.2</ele>
        <time>2019-03-24T08:21:32Z</time>
      </trkpt>
      <trkpt lat="43.67435" lon="6.87305">
        <ele>726.6</ele>
        <time>2019-03-24T08:21:38Z</time>
      </trkpt>
      <trkpt lat="43.67435" lon="6.87307">
        <ele>726.6</ele>
        <time>2019-03-24T08:21:39Z</time>
      </trkpt>
      <trkpt lat="43.67434" lon="6.87311">
        <ele>726.4</ele>
        <time>2019-03-24T08:21:42Z</time>
      </trkpt>
      <trkpt lat="43.67431" lon="6.87314">
        <ele>725.8</ele>
        <time>2019-03-24T08:21:53Z</time>
      </trkpt>
      <trkpt lat="43.67426" lon="6.87327">
        <ele>726</ele>
        <time>2019-03-24T08:21:57Z</time>
      </trkpt>
      <trkpt lat="43.67418" lon="6.87337">
        <ele>726</ele>
        <time>2019-03-24T08:22:01Z</time>
      </trkpt>
      <trkpt lat="43.67405" lon="6.87358">
        <ele>726.2</ele>
        <time>2019-03-24T08:22:07Z</time>
      </trkpt>
      <trkpt lat="43.67406" lon="6.87363">
        <ele>726.4</ele>
        <time>2019-03-24T08:22:08Z</time>
      </trkpt>
      <trkpt lat="43.67407" lon="6.87373">
        <ele>726.6</ele>
        <time>2019-03-24T08:22:10Z</time>
      </trkpt>
      <trkpt lat="43.67411" lon="6.8739">
        <ele>725.2</ele>
        <time>2019-03-24T08:22:13Z</time>
      </trkpt>
      <trkpt lat="43.67414" lon="6.87399">
        <ele>724.8</ele>
        <time>2019-03-24T08:22:15Z</time>
      </trkpt>
      <trkpt lat="43.67417" lon="6.87412">
        <ele>724.2</ele>
        <time>2019-03-24T08:22:17Z</time>
      </trkpt>
      <trkpt lat="43.67416" lon="6.87428">
        <ele>724.4</ele>
        <time>2019-03-24T08:22:19Z</time>
      </trkpt>
      <trkpt lat="43.67423" lon="6.87451">
        <ele>724.2</ele>
        <time>2019-03-24T08:22:22Z</time>
      </trkpt>
      <trkpt lat="43.67423" lon="6.87476">
        <ele>723.4</ele>
        <time>2019-03-24T08:22:25Z</time>
      </trkpt>
      <trkpt lat="43.67422" lon="6.87485">
        <ele>723.2</ele>
        <time>2019-03-24T08:22:26Z</time>
      </trkpt>
      <trkpt lat="43.67422" lon="6.87498">
        <ele>722.6</ele>
        <time>2019-03-24T08:22:28Z</time>
      </trkpt>
      <trkpt lat="43.67426" lon="6.87506">
        <ele>722.2</ele>
        <time>2019-03-24T08:22:29Z</time>
      </trkpt>
      <trkpt lat="43.67428" lon="6.87514">
        <ele>722</ele>
        <time>2019-03-24T08:22:30Z</time>
      </trkpt>
      <trkpt lat="43.67428" lon="6.87522">
        <ele>721.8</ele>
        <time>2019-03-24T08:22:31Z</time>
      </trkpt>
      <trkpt lat="43.67428" lon="6.8754">
        <ele>721.6</ele>
        <time>2019-03-24T08:22:33Z</time>
      </trkpt>
      <trkpt lat="43.67427" lon="6.87555">
        <ele>721.4</ele>
        <time>2019-03-24T08:22:35Z</time>
      </trkpt>
      <trkpt lat="43.67427" lon="6.87562">
        <ele>721.2</ele>
        <time>2019-03-24T08:22:37Z</time>
      </trkpt>
      <trkpt lat="43.67427" lon="6.8758">
        <ele>721.2</ele>
        <time>2019-03-24T08:22:41Z</time>
      </trkpt>
      <trkpt lat="43.67426" lon="6.876">
        <ele>721.2</ele>
        <time>2019-03-24T08:22:46Z</time>
      </trkpt>
      <trkpt lat="43.67426" lon="6.87603">
        <ele>721.2</ele>
        <time>2019-03-24T08:22:48Z</time>
      </trkpt>
      <trkpt lat="43.67427" lon="6.87611">
        <ele>721.2</ele>
        <time>2019-03-24T08:22:50Z</time>
      </trkpt>
      <trkpt lat="43.67434" lon="6.87633">
        <ele>721.2</ele>
        <time>2019-03-24T08:22:54Z</time>
      </trkpt>
      <trkpt lat="43.67445" lon="6.87648">
        <ele>721</ele>
        <time>2019-03-24T08:22:57Z</time>
      </trkpt>
      <trkpt lat="43.67447" lon="6.87655">
        <ele>720.8</ele>
        <time>2019-03-24T08:22:58Z</time>
      </trkpt>
      <trkpt lat="43.6745" lon="6.87662">
        <ele>720.6</ele>
        <time>2019-03-24T08:22:59Z</time>
      </trkpt>
      <trkpt lat="43.67454" lon="6.87668">
        <ele>720.4</ele>
        <time>2019-03-24T08:23:00Z</time>
      </trkpt>
      <trkpt lat="43.67461" lon="6.87679">
        <ele>719.8</ele>
        <time>2019-03-24T08:23:02Z</time>
      </trkpt>
      <trkpt lat="43.67473" lon="6.87689">
        <ele>718.8</ele>
        <time>2019-03-24T08:23:05Z</time>
      </trkpt>
      <trkpt lat="43.67473" lon="6.87693">
        <ele>718.6</ele>
        <time>2019-03-24T08:23:06Z</time>
      </trkpt>
      <trkpt lat="43.67479" lon="6.87705">
        <ele>718.2</ele>
        <time>2019-03-24T08:23:10Z</time>
      </trkpt>
      <trkpt lat="43.67482" lon="6.87707">
        <ele>718</ele>
        <time>2019-03-24T08:23:26Z</time>
      </trkpt>
      <trkpt lat="43.67486" lon="6.87711">
        <ele>718.4</ele>
        <time>2019-03-24T08:23:28Z</time>
      </trkpt>
      <trkpt lat="43.6749" lon="6.87716">
        <ele>719.2</ele>
        <time>2019-03-24T08:23:32Z</time>
      </trkpt>
      <trkpt lat="43.67493" lon="6.87721">
        <ele>719.4</ele>
        <time>2019-03-24T08:23:35Z</time>
      </trkpt>
      <trkpt lat="43.67496" lon="6.87723">
        <ele>719.8</ele>
        <time>2019-03-24T08:23:37Z</time>
      </trkpt>
      <trkpt lat="43.67497" lon="6.87725">
        <ele>720</ele>
        <time>2019-03-24T08:23:38Z</time>
      </trkpt>
      <trkpt lat="43.67499" lon="6.8774">
        <ele>721</ele>
        <time>2019-03-24T08:23:42Z</time>
      </trkpt>
      <trkpt lat="43.67505" lon="6.87757">
        <ele>722.2</ele>
        <time>2019-03-24T08:23:47Z</time>
      </trkpt>
      <trkpt lat="43.67507" lon="6.87759">
        <ele>722.4</ele>
        <time>2019-03-24T08:23:48Z</time>
      </trkpt>
      <trkpt lat="43.67509" lon="6.87766">
        <ele>722.6</ele>
        <time>2019-03-24T08:23:50Z</time>
      </trkpt>
      <trkpt lat="43.67508" lon="6.87775">
        <ele>722.8</ele>
        <time>2019-03-24T08:23:52Z</time>
      </trkpt>
      <trkpt lat="43.675" lon="6.87784">
        <ele>723</ele>
        <time>2019-03-24T08:23:56Z</time>
      </trkpt>
      <trkpt lat="43.67497" lon="6.87793">
        <ele>723.2</ele>
        <time>2019-03-24T08:23:59Z</time>
      </trkpt>
      <trkpt lat="43.67497" lon="6.87796">
        <ele>723.4</ele>
        <time>2019-03-24T08:24:00Z</time>
      </trkpt>
      <trkpt lat="43.67493" lon="6.87814">
        <ele>723.6</ele>
        <time>2019-03-24T08:24:06Z</time>
      </trkpt>
      <trkpt lat="43.67493" lon="6.87817">
        <ele>723.6</ele>
        <time>2019-03-24T08:24:07Z</time>
      </trkpt>
      <trkpt lat="43.67494" lon="6.87832">
        <ele>723.8</ele>
        <time>2019-03-24T08:24:13Z</time>
      </trkpt>
      <trkpt lat="43.67494" lon="6.87851">
        <ele>722.8</ele>
        <time>2019-03-24T08:24:19Z</time>
      </trkpt>
      <trkpt lat="43.67495" lon="6.87854">
        <ele>722.2</ele>
        <time>2019-03-24T08:24:20Z</time>
      </trkpt>
      <trkpt lat="43.675" lon="6.87861">
        <ele>721.4</ele>
        <time>2019-03-24T08:24:23Z</time>
      </trkpt>
      <trkpt lat="43.67506" lon="6.87874">
        <ele>721.8</ele>
        <time>2019-03-24T08:24:29Z</time>
      </trkpt>
      <trkpt lat="43.67507" lon="6.87877">
        <ele>721.8</ele>
        <time>2019-03-24T08:24:30Z</time>
      </trkpt>
      <trkpt lat="43.67513" lon="6.87887">
        <ele>722</ele>
        <time>2019-03-24T08:24:35Z</time>
      </trkpt>
      <trkpt lat="43.67514" lon="6.87901">
        <ele>722.4</ele>
        <time>2019-03-24T08:24:40Z</time>
      </trkpt>
      <trkpt lat="43.67515" lon="6.87905">
        <ele>722.4</ele>
        <time>2019-03-24T08:24:41Z</time>
      </trkpt>
      <trkpt lat="43.67523" lon="6.87927">
        <ele>722.2</ele>
        <time>2019-03-24T08:24:47Z</time>
      </trkpt>
      <trkpt lat="43.67529" lon="6.8794">
        <ele>722.8</ele>
        <time>2019-03-24T08:24:53Z</time>
      </trkpt>
      <trkpt lat="43.67533" lon="6.87949">
        <ele>723</ele>
        <time>2019-03-24T08:24:58Z</time>
      </trkpt>
      <trkpt lat="43.67534" lon="6.87955">
        <ele>723.2</ele>
        <time>2019-03-24T08:25:00Z</time>
      </trkpt>
      <trkpt lat="43.67535" lon="6.87963">
        <ele>723.8</ele>
        <time>2019-03-24T08:25:03Z</time>
      </trkpt>
      <trkpt lat="43.67537" lon="6.87971">
        <ele>724.4</ele>
        <time>2019-03-24T08:25:06Z</time>
      </trkpt>
      <trkpt lat="43.6754" lon="6.87977">
        <ele>725</ele>
        <time>2019-03-24T08:25:09Z</time>
      </trkpt>
      <trkpt lat="43.67543" lon="6.87981">
        <ele>725.6</ele>
        <time>2019-03-24T08:25:11Z</time>
      </trkpt>
      <trkpt lat="43.67543" lon="6.87983">
        <ele>726</ele>
        <time>2019-03-24T08:25:12Z</time>
      </trkpt>
      <trkpt lat="43.67543" lon="6.8799">
        <ele>726.4</ele>
        <time>2019-03-24T08:25:15Z</time>
      </trkpt>
      <trkpt lat="43.67543" lon="6.87994">
        <ele>726.4</ele>
        <time>2019-03-24T08:25:17Z</time>
      </trkpt>
      <trkpt lat="43.67546" lon="6.88003">
        <ele>726.4</ele>
        <time>2019-03-24T08:25:21Z</time>
      </trkpt>
      <trkpt lat="43.67547" lon="6.88005">
        <ele>726.6</ele>
        <time>2019-03-24T08:25:22Z</time>
      </trkpt>
      <trkpt lat="43.67547" lon="6.88015">
        <ele>727.4</ele>
        <time>2019-03-24T08:25:27Z</time>
      </trkpt>
      <trkpt lat="43.67547" lon="6.8803">
        <ele>727.4</ele>
        <time>2019-03-24T08:25:33Z</time>
      </trkpt>
      <trkpt lat="43.67545" lon="6.88045">
        <ele>727.2</ele>
        <time>2019-03-24T08:25:38Z</time>
      </trkpt>
      <trkpt lat="43.67548" lon="6.88059">
        <ele>727</ele>
        <time>2019-03-24T08:25:43Z</time>
      </trkpt>
      <trkpt lat="43.67549" lon="6.88077">
        <ele>727.8</ele>
        <time>2019-03-24T08:25:48Z</time>
      </trkpt>
      <trkpt lat="43.6755" lon="6.881">
        <ele>728.6</ele>
        <time>2019-03-24T08:25:54Z</time>
      </trkpt>
      <trkpt lat="43.6755" lon="6.88108">
        <ele>729</ele>
        <time>2019-03-24T08:25:56Z</time>
      </trkpt>
      <trkpt lat="43.67553" lon="6.88127">
        <ele>729.2</ele>
        <time>2019-03-24T08:26:01Z</time>
      </trkpt>
      <trkpt lat="43.67559" lon="6.8814">
        <ele>729</ele>
        <time>2019-03-24T08:26:06Z</time>
      </trkpt>
      <trkpt lat="43.67568" lon="6.88161">
        <ele>728.8</ele>
        <time>2019-03-24T08:26:11Z</time>
      </trkpt>
      <trkpt lat="43.67569" lon="6.88167">
        <ele>728.8</ele>
        <time>2019-03-24T08:26:12Z</time>
      </trkpt>
      <trkpt lat="43.67575" lon="6.88181">
        <ele>728.4</ele>
        <time>2019-03-24T08:26:15Z</time>
      </trkpt>
      <trkpt lat="43.67582" lon="6.88195">
        <ele>728.4</ele>
        <time>2019-03-24T08:26:18Z</time>
      </trkpt>
      <trkpt lat="43.67584" lon="6.88201">
        <ele>728.2</ele>
        <time>2019-03-24T08:26:19Z</time>
      </trkpt>
      <trkpt lat="43.67589" lon="6.88214">
        <ele>728.2</ele>
        <time>2019-03-24T08:26:21Z</time>
      </trkpt>
      <trkpt lat="43.67596" lon="6.88231">
        <ele>728</ele>
        <time>2019-03-24T08:26:24Z</time>
      </trkpt>
      <trkpt lat="43.67596" lon="6.88238">
        <ele>728</ele>
        <time>2019-03-24T08:26:25Z</time>
      </trkpt>
      <trkpt lat="43.676" lon="6.88249">
        <ele>727.6</ele>
        <time>2019-03-24T08:26:27Z</time>
      </trkpt>
      <trkpt lat="43.67603" lon="6.88266">
        <ele>727.2</ele>
        <time>2019-03-24T08:26:29Z</time>
      </trkpt>
      <trkpt lat="43.67603" lon="6.88274">
        <ele>727.2</ele>
        <time>2019-03-24T08:26:30Z</time>
      </trkpt>
      <trkpt lat="43.67599" lon="6.88297">
        <ele>727</ele>
        <time>2019-03-24T08:26:33Z</time>
      </trkpt>
      <trkpt lat="43.67598" lon="6.88305">
        <ele>726.8</ele>
        <time>2019-03-24T08:26:34Z</time>
      </trkpt>
      <trkpt lat="43.67598" lon="6.8832">
        <ele>726.8</ele>
        <time>2019-03-24T08:26:36Z</time>
      </trkpt>
      <trkpt lat="43.67601" lon="6.88342">
        <ele>726.4</ele>
        <time>2019-03-24T08:26:39Z</time>
      </trkpt>
      <trkpt lat="43.67602" lon="6.88348">
        <ele>725.6</ele>
        <time>2019-03-24T08:26:42Z</time>
      </trkpt>
      <trkpt lat="43.67605" lon="6.88363">
        <ele>725.6</ele>
        <time>2019-03-24T08:26:47Z</time>
      </trkpt>
      <trkpt lat="43.67606" lon="6.88367">
        <ele>725</ele>
        <time>2019-03-24T08:26:48Z</time>
      </trkpt>
      <trkpt lat="43.67608" lon="6.88368">
        <ele>724.6</ele>
        <time>2019-03-24T08:26:49Z</time>
      </trkpt>
      <trkpt lat="43.6761" lon="6.8837">
        <ele>724.6</ele>
        <time>2019-03-24T08:26:50Z</time>
      </trkpt>
      <trkpt lat="43.67611" lon="6.88374">
        <ele>724.2</ele>
        <time>2019-03-24T08:26:51Z</time>
      </trkpt>
      <trkpt lat="43.67615" lon="6.88388">
        <ele>723.4</ele>
        <time>2019-03-24T08:26:54Z</time>
      </trkpt>
      <trkpt lat="43.67619" lon="6.88398">
        <ele>722.8</ele>
        <time>2019-03-24T08:26:56Z</time>
      </trkpt>
      <trkpt lat="43.67621" lon="6.88404">
        <ele>722.2</ele>
        <time>2019-03-24T08:26:58Z</time>
      </trkpt>
      <trkpt lat="43.67622" lon="6.88408">
        <ele>721.8</ele>
        <time>2019-03-24T08:27:03Z</time>
      </trkpt>
      <trkpt lat="43.67625" lon="6.88414">
        <ele>721.4</ele>
        <time>2019-03-24T08:27:05Z</time>
      </trkpt>
      <trkpt lat="43.67626" lon="6.88417">
        <ele>721.2</ele>
        <time>2019-03-24T08:27:06Z</time>
      </trkpt>
      <trkpt lat="43.67629" lon="6.88424">
        <ele>720.4</ele>
        <time>2019-03-24T08:27:08Z</time>
      </trkpt>
      <trkpt lat="43.67632" lon="6.88433">
        <ele>720</ele>
        <time>2019-03-24T08:27:10Z</time>
      </trkpt>
      <trkpt lat="43.67636" lon="6.88445">
        <ele>718.8</ele>
        <time>2019-03-24T08:27:13Z</time>
      </trkpt>
      <trkpt lat="43.67636" lon="6.88448">
        <ele>718.6</ele>
        <time>2019-03-24T08:27:14Z</time>
      </trkpt>
      <trkpt lat="43.67637" lon="6.88452">
        <ele>718.2</ele>
        <time>2019-03-24T08:27:15Z</time>
      </trkpt>
      <trkpt lat="43.67638" lon="6.88456">
        <ele>717.8</ele>
        <time>2019-03-24T08:27:16Z</time>
      </trkpt>
      <trkpt lat="43.67642" lon="6.88464">
        <ele>717</ele>
        <time>2019-03-24T08:27:18Z</time>
      </trkpt>
      <trkpt lat="43.67643" lon="6.88469">
        <ele>716.4</ele>
        <time>2019-03-24T08:27:19Z</time>
      </trkpt>
      <trkpt lat="43.67643" lon="6.88473">
        <ele>716.2</ele>
        <time>2019-03-24T08:27:20Z</time>
      </trkpt>
      <trkpt lat="43.67645" lon="6.88484">
        <ele>715.4</ele>
        <time>2019-03-24T08:27:22Z</time>
      </trkpt>
      <trkpt lat="43.67647" lon="6.88492">
        <ele>714.8</ele>
        <time>2019-03-24T08:27:24Z</time>
      </trkpt>
      <trkpt lat="43.67649" lon="6.88499">
        <ele>714.4</ele>
        <time>2019-03-24T08:27:26Z</time>
      </trkpt>
      <trkpt lat="43.67651" lon="6.88511">
        <ele>714</ele>
        <time>2019-03-24T08:27:29Z</time>
      </trkpt>
      <trkpt lat="43.67652" lon="6.88525">
        <ele>713.6</ele>
        <time>2019-03-24T08:27:33Z</time>
      </trkpt>
      <trkpt lat="43.67651" lon="6.88527">
        <ele>713.2</ele>
        <time>2019-03-24T08:27:34Z</time>
      </trkpt>
      <trkpt lat="43.6765" lon="6.88532">
        <ele>712</ele>
        <time>2019-03-24T08:27:40Z</time>
      </trkpt>
      <trkpt lat="43.67647" lon="6.88545">
        <ele>710.8</ele>
        <time>2019-03-24T08:27:44Z</time>
      </trkpt>
      <trkpt lat="43.67645" lon="6.88551">
        <ele>710.6</ele>
        <time>2019-03-24T08:27:46Z</time>
      </trkpt>
      <trkpt lat="43.67643" lon="6.88556">
        <ele>710.6</ele>
        <time>2019-03-24T08:27:49Z</time>
      </trkpt>
      <trkpt lat="43.67638" lon="6.88564">
        <ele>709.8</ele>
        <time>2019-03-24T08:27:54Z</time>
      </trkpt>
      <trkpt lat="43.67639" lon="6.88574">
        <ele>708.6</ele>
        <time>2019-03-24T08:27:57Z</time>
      </trkpt>
      <trkpt lat="43.67638" lon="6.88578">
        <ele>707.4</ele>
        <time>2019-03-24T08:27:58Z</time>
      </trkpt>
      <trkpt lat="43.67634" lon="6.88586">
        <ele>706.4</ele>
        <time>2019-03-24T08:28:01Z</time>
      </trkpt>
      <trkpt lat="43.67631" lon="6.88593">
        <ele>705.6</ele>
        <time>2019-03-24T08:28:03Z</time>
      </trkpt>
      <trkpt lat="43.67628" lon="6.88597">
        <ele>705</ele>
        <time>2019-03-24T08:28:04Z</time>
      </trkpt>
      <trkpt lat="43.67626" lon="6.886">
        <ele>704.6</ele>
        <time>2019-03-24T08:28:05Z</time>
      </trkpt>
      <trkpt lat="43.6762" lon="6.88609">
        <ele>703.6</ele>
        <time>2019-03-24T08:28:07Z</time>
      </trkpt>
      <trkpt lat="43.67618" lon="6.88613">
        <ele>702.8</ele>
        <time>2019-03-24T08:28:08Z</time>
      </trkpt>
      <trkpt lat="43.67617" lon="6.88622">
        <ele>702.4</ele>
        <time>2019-03-24T08:28:10Z</time>
      </trkpt>
      <trkpt lat="43.6761" lon="6.88639">
        <ele>702</ele>
        <time>2019-03-24T08:28:14Z</time>
      </trkpt>
      <trkpt lat="43.67607" lon="6.88646">
        <ele>701.8</ele>
        <time>2019-03-24T08:28:15Z</time>
      </trkpt>
      <trkpt lat="43.67606" lon="6.88652">
        <ele>701.4</ele>
        <time>2019-03-24T08:28:16Z</time>
      </trkpt>
      <trkpt lat="43.67603" lon="6.88657">
        <ele>700.4</ele>
        <time>2019-03-24T08:28:17Z</time>
      </trkpt>
      <trkpt lat="43.676" lon="6.88662">
        <ele>700</ele>
        <time>2019-03-24T08:28:18Z</time>
      </trkpt>
      <trkpt lat="43.67591" lon="6.88675">
        <ele>699</ele>
        <time>2019-03-24T08:28:22Z</time>
      </trkpt>
      <trkpt lat="43.6758" lon="6.88683">
        <ele>698.2</ele>
        <time>2019-03-24T08:28:26Z</time>
      </trkpt>
      <trkpt lat="43.67578" lon="6.88688">
        <ele>697.8</ele>
        <time>2019-03-24T08:28:27Z</time>
      </trkpt>
      <trkpt lat="43.67575" lon="6.88701">
        <ele>697.2</ele>
        <time>2019-03-24T08:28:30Z</time>
      </trkpt>
      <trkpt lat="43.67572" lon="6.88716">
        <ele>696.4</ele>
        <time>2019-03-24T08:28:35Z</time>
      </trkpt>
      <trkpt lat="43.6757" lon="6.88722">
        <ele>696.2</ele>
        <time>2019-03-24T08:28:37Z</time>
      </trkpt>
      <trkpt lat="43.67566" lon="6.88734">
        <ele>695.4</ele>
        <time>2019-03-24T08:28:41Z</time>
      </trkpt>
      <trkpt lat="43.67563" lon="6.8874">
        <ele>695</ele>
        <time>2019-03-24T08:28:43Z</time>
      </trkpt>
      <trkpt lat="43.67559" lon="6.88753">
        <ele>694</ele>
        <time>2019-03-24T08:28:47Z</time>
      </trkpt>
      <trkpt lat="43.67558" lon="6.88757">
        <ele>693.4</ele>
        <time>2019-03-24T08:28:48Z</time>
      </trkpt>
      <trkpt lat="43.67558" lon="6.8876">
        <ele>692.8</ele>
        <time>2019-03-24T08:28:49Z</time>
      </trkpt>
      <trkpt lat="43.67557" lon="6.88766">
        <ele>691.6</ele>
        <time>2019-03-24T08:28:51Z</time>
      </trkpt>
      <trkpt lat="43.67556" lon="6.8877">
        <ele>691</ele>
        <time>2019-03-24T08:28:53Z</time>
      </trkpt>
      <trkpt lat="43.67556" lon="6.88771">
        <ele>690.6</ele>
        <time>2019-03-24T08:28:54Z</time>
      </trkpt>
      <trkpt lat="43.67556" lon="6.88774">
        <ele>690.2</ele>
        <time>2019-03-24T08:29:05Z</time>
      </trkpt>
      <trkpt lat="43.67556" lon="6.88777">
        <ele>690</ele>
        <time>2019-03-24T08:29:06Z</time>
      </trkpt>
      <trkpt lat="43.67554" lon="6.88789">
        <ele>689.6</ele>
        <time>2019-03-24T08:29:09Z</time>
      </trkpt>
      <trkpt lat="43.67552" lon="6.88793">
        <ele>689</ele>
        <time>2019-03-24T08:29:10Z</time>
      </trkpt>
      <trkpt lat="43.6755" lon="6.88799">
        <ele>688</ele>
        <time>2019-03-24T08:29:12Z</time>
      </trkpt>
      <trkpt lat="43.67548" lon="6.88807">
        <ele>686.8</ele>
        <time>2019-03-24T08:29:14Z</time>
      </trkpt>
      <trkpt lat="43.67546" lon="6.88817">
        <ele>685.8</ele>
        <time>2019-03-24T08:29:16Z</time>
      </trkpt>
      <trkpt lat="43.67547" lon="6.88829">
        <ele>684.8</ele>
        <time>2019-03-24T08:29:18Z</time>
      </trkpt>
      <trkpt lat="43.67548" lon="6.88835">
        <ele>684.2</ele>
        <time>2019-03-24T08:29:19Z</time>
      </trkpt>
      <trkpt lat="43.67548" lon="6.8884">
        <ele>683.6</ele>
        <time>2019-03-24T08:29:20Z</time>
      </trkpt>
      <trkpt lat="43.67548" lon="6.88851">
        <ele>682</ele>
        <time>2019-03-24T08:29:22Z</time>
      </trkpt>
      <trkpt lat="43.67549" lon="6.88857">
        <ele>681.2</ele>
        <time>2019-03-24T08:29:23Z</time>
      </trkpt>
      <trkpt lat="43.67549" lon="6.88861">
        <ele>680.4</ele>
        <time>2019-03-24T08:29:24Z</time>
      </trkpt>
      <trkpt lat="43.67552" lon="6.88867">
        <ele>678.8</ele>
        <time>2019-03-24T08:29:26Z</time>
      </trkpt>
      <trkpt lat="43.67555" lon="6.88874">
        <ele>677.4</ele>
        <time>2019-03-24T08:29:29Z</time>
      </trkpt>
      <trkpt lat="43.67557" lon="6.8888">
        <ele>675.8</ele>
        <time>2019-03-24T08:29:31Z</time>
      </trkpt>
      <trkpt lat="43.67557" lon="6.88883">
        <ele>674.8</ele>
        <time>2019-03-24T08:29:32Z</time>
      </trkpt>
      <trkpt lat="43.67559" lon="6.88886">
        <ele>674.2</ele>
        <time>2019-03-24T08:29:33Z</time>
      </trkpt>
      <trkpt lat="43.67562" lon="6.88892">
        <ele>672.4</ele>
        <time>2019-03-24T08:29:35Z</time>
      </trkpt>
      <trkpt lat="43.67566" lon="6.88897">
        <ele>671.2</ele>
        <time>2019-03-24T08:29:37Z</time>
      </trkpt>
      <trkpt lat="43.67571" lon="6.88906">
        <ele>670</ele>
        <time>2019-03-24T08:29:40Z</time>
      </trkpt>
      <trkpt lat="43.67571" lon="6.88909">
        <ele>670</ele>
        <time>2019-03-24T08:29:41Z</time>
      </trkpt>
      <trkpt lat="43.67572" lon="6.88919">
        <ele>669.2</ele>
        <time>2019-03-24T08:29:45Z</time>
      </trkpt>
      <trkpt lat="43.67572" lon="6.88925">
        <ele>669</ele>
        <time>2019-03-24T08:29:47Z</time>
      </trkpt>
      <trkpt lat="43.6757" lon="6.88931">
        <ele>668.6</ele>
        <time>2019-03-24T08:29:49Z</time>
      </trkpt>
      <trkpt lat="43.67568" lon="6.88933">
        <ele>668.4</ele>
        <time>2019-03-24T08:29:50Z</time>
      </trkpt>
      <trkpt lat="43.67566" lon="6.88942">
        <ele>668</ele>
        <time>2019-03-24T08:29:53Z</time>
      </trkpt>
      <trkpt lat="43.67566" lon="6.88946">
        <ele>667.8</ele>
        <time>2019-03-24T08:29:54Z</time>
      </trkpt>
      <trkpt lat="43.67567" lon="6.88957">
        <ele>666.8</ele>
        <time>2019-03-24T08:29:56Z</time>
      </trkpt>
      <trkpt lat="43.67569" lon="6.88963">
        <ele>666</ele>
        <time>2019-03-24T08:29:58Z</time>
      </trkpt>
      <trkpt lat="43.67572" lon="6.88966">
        <ele>665.6</ele>
        <time>2019-03-24T08:30:00Z</time>
      </trkpt>
      <trkpt lat="43.67573" lon="6.88974">
        <ele>664.6</ele>
        <time>2019-03-24T08:30:03Z</time>
      </trkpt>
      <trkpt lat="43.67575" lon="6.8898">
        <ele>663.8</ele>
        <time>2019-03-24T08:30:05Z</time>
      </trkpt>
      <trkpt lat="43.67576" lon="6.88983">
        <ele>663.4</ele>
        <time>2019-03-24T08:30:06Z</time>
      </trkpt>
      <trkpt lat="43.67576" lon="6.88986">
        <ele>663</ele>
        <time>2019-03-24T08:30:07Z</time>
      </trkpt>
      <trkpt lat="43.67575" lon="6.88989">
        <ele>662.6</ele>
        <time>2019-03-24T08:30:08Z</time>
      </trkpt>
      <trkpt lat="43.67574" lon="6.88991">
        <ele>662</ele>
        <time>2019-03-24T08:30:09Z</time>
      </trkpt>
      <trkpt lat="43.67573" lon="6.89">
        <ele>660.2</ele>
        <time>2019-03-24T08:30:12Z</time>
      </trkpt>
      <trkpt lat="43.67574" lon="6.89002">
        <ele>659.4</ele>
        <time>2019-03-24T08:30:13Z</time>
      </trkpt>
      <trkpt lat="43.67574" lon="6.89005">
        <ele>658.6</ele>
        <time>2019-03-24T08:30:14Z</time>
      </trkpt>
      <trkpt lat="43.67573" lon="6.8901">
        <ele>657.4</ele>
        <time>2019-03-24T08:30:16Z</time>
      </trkpt>
      <trkpt lat="43.67573" lon="6.89013">
        <ele>656.6</ele>
        <time>2019-03-24T08:30:17Z</time>
      </trkpt>
      <trkpt lat="43.67572" lon="6.89016">
        <ele>656.4</ele>
        <time>2019-03-24T08:30:18Z</time>
      </trkpt>
      <trkpt lat="43.67572" lon="6.89032">
        <ele>655.8</ele>
        <time>2019-03-24T08:30:22Z</time>
      </trkpt>
      <trkpt lat="43.67573" lon="6.89042">
        <ele>655</ele>
        <time>2019-03-24T08:30:24Z</time>
      </trkpt>
      <trkpt lat="43.67575" lon="6.89052">
        <ele>653.6</ele>
        <time>2019-03-24T08:30:26Z</time>
      </trkpt>
      <trkpt lat="43.67577" lon="6.89061">
        <ele>652.2</ele>
        <time>2019-03-24T08:30:28Z</time>
      </trkpt>
      <trkpt lat="43.67578" lon="6.89066">
        <ele>651.6</ele>
        <time>2019-03-24T08:30:29Z</time>
      </trkpt>
      <trkpt lat="43.6758" lon="6.89071">
        <ele>650.8</ele>
        <time>2019-03-24T08:30:30Z</time>
      </trkpt>
      <trkpt lat="43.67582" lon="6.89075">
        <ele>650.6</ele>
        <time>2019-03-24T08:30:31Z</time>
      </trkpt>
      <trkpt lat="43.67582" lon="6.89078">
        <ele>650.4</ele>
        <time>2019-03-24T08:30:32Z</time>
      </trkpt>
      <trkpt lat="43.67579" lon="6.89083">
        <ele>649.6</ele>
        <time>2019-03-24T08:30:34Z</time>
      </trkpt>
      <trkpt lat="43.67575" lon="6.89091">
        <ele>648.2</ele>
        <time>2019-03-24T08:30:37Z</time>
      </trkpt>
      <trkpt lat="43.67573" lon="6.89096">
        <ele>647</ele>
        <time>2019-03-24T08:30:39Z</time>
      </trkpt>
      <trkpt lat="43.67573" lon="6.89099">
        <ele>646</ele>
        <time>2019-03-24T08:30:40Z</time>
      </trkpt>
      <trkpt lat="43.67574" lon="6.89102">
        <ele>645.2</ele>
        <time>2019-03-24T08:30:41Z</time>
      </trkpt>
      <trkpt lat="43.67577" lon="6.89105">
        <ele>644.6</ele>
        <time>2019-03-24T08:30:42Z</time>
      </trkpt>
      <trkpt lat="43.6758" lon="6.89107">
        <ele>644</ele>
        <time>2019-03-24T08:30:43Z</time>
      </trkpt>
      <trkpt lat="43.67583" lon="6.89109">
        <ele>643.4</ele>
        <time>2019-03-24T08:30:44Z</time>
      </trkpt>
      <trkpt lat="43.67585" lon="6.8911">
        <ele>643</ele>
        <time>2019-03-24T08:30:45Z</time>
      </trkpt>
      <trkpt lat="43.67587" lon="6.89111">
        <ele>642.8</ele>
        <time>2019-03-24T08:30:46Z</time>
      </trkpt>
      <trkpt lat="43.67588" lon="6.89112">
        <ele>642.6</ele>
        <time>2019-03-24T08:30:47Z</time>
      </trkpt>
      <trkpt lat="43.67589" lon="6.89119">
        <ele>642.6</ele>
        <time>2019-03-24T08:30:49Z</time>
      </trkpt>
      <trkpt lat="43.67581" lon="6.89136">
        <ele>641.8</ele>
        <time>2019-03-24T08:30:53Z</time>
      </trkpt>
      <trkpt lat="43.67572" lon="6.89142">
        <ele>641</ele>
        <time>2019-03-24T08:30:57Z</time>
      </trkpt>
      <trkpt lat="43.67571" lon="6.89143">
        <ele>641</ele>
        <time>2019-03-24T08:30:58Z</time>
      </trkpt>
      <trkpt lat="43.67569" lon="6.89155">
        <ele>640.8</ele>
        <time>2019-03-24T08:31:01Z</time>
      </trkpt>
      <trkpt lat="43.67569" lon="6.8916">
        <ele>640.6</ele>
        <time>2019-03-24T08:31:02Z</time>
      </trkpt>
      <trkpt lat="43.67568" lon="6.89164">
        <ele>640.4</ele>
        <time>2019-03-24T08:31:03Z</time>
      </trkpt>
      <trkpt lat="43.67567" lon="6.89171">
        <ele>640.4</ele>
        <time>2019-03-24T08:31:05Z</time>
      </trkpt>
      <trkpt lat="43.67562" lon="6.89178">
        <ele>640.4</ele>
        <time>2019-03-24T08:31:08Z</time>
      </trkpt>
      <trkpt lat="43.67557" lon="6.89182">
        <ele>640</ele>
        <time>2019-03-24T08:31:10Z</time>
      </trkpt>
      <trkpt lat="43.67547" lon="6.89195">
        <ele>639.4</ele>
        <time>2019-03-24T08:31:14Z</time>
      </trkpt>
      <trkpt lat="43.67546" lon="6.89198">
        <ele>639.2</ele>
        <time>2019-03-24T08:31:15Z</time>
      </trkpt>
      <trkpt lat="43.6754" lon="6.89206">
        <ele>638.8</ele>
        <time>2019-03-24T08:31:27Z</time>
      </trkpt>
      <trkpt lat="43.67534" lon="6.89202">
        <ele>638.4</ele>
        <time>2019-03-24T08:31:30Z</time>
      </trkpt>
      <trkpt lat="43.67531" lon="6.89201">
        <ele>638.4</ele>
        <time>2019-03-24T08:31:31Z</time>
      </trkpt>
      <trkpt lat="43.67517" lon="6.89194">
        <ele>637.8</ele>
        <time>2019-03-24T08:31:35Z</time>
      </trkpt>
      <trkpt lat="43.6751" lon="6.89189">
        <ele>637.4</ele>
        <time>2019-03-24T08:31:37Z</time>
      </trkpt>
      <trkpt lat="43.67503" lon="6.89184">
        <ele>637.4</ele>
        <time>2019-03-24T08:31:39Z</time>
      </trkpt>
      <trkpt lat="43.67487" lon="6.89176">
        <ele>636.2</ele>
        <time>2019-03-24T08:31:43Z</time>
      </trkpt>
      <trkpt lat="43.67483" lon="6.89173">
        <ele>636.2</ele>
        <time>2019-03-24T08:31:44Z</time>
      </trkpt>
      <trkpt lat="43.67472" lon="6.89163">
        <ele>635.2</ele>
        <time>2019-03-24T08:31:47Z</time>
      </trkpt>
      <trkpt lat="43.67461" lon="6.89153">
        <ele>633.8</ele>
        <time>2019-03-24T08:31:50Z</time>
      </trkpt>
      <trkpt lat="43.67451" lon="6.89145">
        <ele>632.6</ele>
        <time>2019-03-24T08:31:52Z</time>
      </trkpt>
      <trkpt lat="43.67441" lon="6.89137">
        <ele>631.8</ele>
        <time>2019-03-24T08:31:54Z</time>
      </trkpt>
      <trkpt lat="43.67436" lon="6.89133">
        <ele>631.4</ele>
        <time>2019-03-24T08:31:55Z</time>
      </trkpt>
      <trkpt lat="43.67427" lon="6.89125">
        <ele>630.2</ele>
        <time>2019-03-24T08:31:57Z</time>
      </trkpt>
      <trkpt lat="43.67421" lon="6.89119">
        <ele>629.2</ele>
        <time>2019-03-24T08:31:59Z</time>
      </trkpt>
      <trkpt lat="43.67414" lon="6.89113">
        <ele>627.8</ele>
        <time>2019-03-24T08:32:01Z</time>
      </trkpt>
      <trkpt lat="43.67408" lon="6.89108">
        <ele>626.4</ele>
        <time>2019-03-24T08:32:03Z</time>
      </trkpt>
      <trkpt lat="43.67402" lon="6.89103">
        <ele>625.4</ele>
        <time>2019-03-24T08:32:05Z</time>
      </trkpt>
      <trkpt lat="43.67396" lon="6.89097">
        <ele>624.2</ele>
        <time>2019-03-24T08:32:07Z</time>
      </trkpt>
      <trkpt lat="43.6739" lon="6.89088">
        <ele>623</ele>
        <time>2019-03-24T08:32:09Z</time>
      </trkpt>
      <trkpt lat="43.67387" lon="6.89085">
        <ele>622.2</ele>
        <time>2019-03-24T08:32:10Z</time>
      </trkpt>
      <trkpt lat="43.67383" lon="6.89083">
        <ele>621.6</ele>
        <time>2019-03-24T08:32:11Z</time>
      </trkpt>
      <trkpt lat="43.67375" lon="6.89079">
        <ele>621.4</ele>
        <time>2019-03-24T08:32:14Z</time>
      </trkpt>
      <trkpt lat="43.67373" lon="6.89076">
        <ele>621.4</ele>
        <time>2019-03-24T08:32:15Z</time>
      </trkpt>
      <trkpt lat="43.67369" lon="6.8907">
        <ele>621.4</ele>
        <time>2019-03-24T08:32:17Z</time>
      </trkpt>
      <trkpt lat="43.6736" lon="6.89061">
        <ele>620.6</ele>
        <time>2019-03-24T08:32:21Z</time>
      </trkpt>
      <trkpt lat="43.67358" lon="6.89059">
        <ele>620.4</ele>
        <time>2019-03-24T08:32:22Z</time>
      </trkpt>
      <trkpt lat="43.67348" lon="6.89048">
        <ele>619.6</ele>
        <time>2019-03-24T08:32:26Z</time>
      </trkpt>
      <trkpt lat="43.67345" lon="6.89045">
        <ele>619.2</ele>
        <time>2019-03-24T08:32:27Z</time>
      </trkpt>
      <trkpt lat="43.67341" lon="6.89041">
        <ele>618.2</ele>
        <time>2019-03-24T08:32:30Z</time>
      </trkpt>
      <trkpt lat="43.6733" lon="6.89032">
        <ele>617.4</ele>
        <time>2019-03-24T08:32:34Z</time>
      </trkpt>
      <trkpt lat="43.67324" lon="6.89029">
        <ele>617</ele>
        <time>2019-03-24T08:32:36Z</time>
      </trkpt>
      <trkpt lat="43.67319" lon="6.89026">
        <ele>616.8</ele>
        <time>2019-03-24T08:32:38Z</time>
      </trkpt>
      <trkpt lat="43.67307" lon="6.89016">
        <ele>616.4</ele>
        <time>2019-03-24T08:32:43Z</time>
      </trkpt>
      <trkpt lat="43.6729" lon="6.89007">
        <ele>613.8</ele>
        <time>2019-03-24T08:33:08Z</time>
      </trkpt>
      <trkpt lat="43.67287" lon="6.89006">
        <ele>613.4</ele>
        <time>2019-03-24T08:33:10Z</time>
      </trkpt>
      <trkpt lat="43.67284" lon="6.89003">
        <ele>612.8</ele>
        <time>2019-03-24T08:33:12Z</time>
      </trkpt>
      <trkpt lat="43.67281" lon="6.89003">
        <ele>612.2</ele>
        <time>2019-03-24T08:33:14Z</time>
      </trkpt>
      <trkpt lat="43.6728" lon="6.89003">
        <ele>612.2</ele>
        <time>2019-03-24T08:33:15Z</time>
      </trkpt>
      <trkpt lat="43.67278" lon="6.89">
        <ele>612</ele>
        <time>2019-03-24T08:33:16Z</time>
      </trkpt>
      <trkpt lat="43.67276" lon="6.88997">
        <ele>611.6</ele>
        <time>2019-03-24T08:33:17Z</time>
      </trkpt>
      <trkpt lat="43.67274" lon="6.88994">
        <ele>611.6</ele>
        <time>2019-03-24T08:33:18Z</time>
      </trkpt>
      <trkpt lat="43.67273" lon="6.88985">
        <ele>610.8</ele>
        <time>2019-03-24T08:33:20Z</time>
      </trkpt>
      <trkpt lat="43.67273" lon="6.8898">
        <ele>610.8</ele>
        <time>2019-03-24T08:33:21Z</time>
      </trkpt>
      <trkpt lat="43.67271" lon="6.88976">
        <ele>610.2</ele>
        <time>2019-03-24T08:33:22Z</time>
      </trkpt>
      <trkpt lat="43.67266" lon="6.88964">
        <ele>609.6</ele>
        <time>2019-03-24T08:33:25Z</time>
      </trkpt>
      <trkpt lat="43.67262" lon="6.88957">
        <ele>608.2</ele>
        <time>2019-03-24T08:33:44Z</time>
      </trkpt>
      <trkpt lat="43.67261" lon="6.88953">
        <ele>607</ele>
        <time>2019-03-24T08:33:45Z</time>
      </trkpt>
      <trkpt lat="43.6726" lon="6.88948">
        <ele>605.4</ele>
        <time>2019-03-24T08:33:46Z</time>
      </trkpt>
      <trkpt lat="43.67258" lon="6.88944">
        <ele>604.2</ele>
        <time>2019-03-24T08:33:47Z</time>
      </trkpt>
      <trkpt lat="43.67257" lon="6.8894">
        <ele>602.8</ele>
        <time>2019-03-24T08:33:48Z</time>
      </trkpt>
      <trkpt lat="43.67256" lon="6.88936">
        <ele>601.6</ele>
        <time>2019-03-24T08:33:49Z</time>
      </trkpt>
      <trkpt lat="43.67254" lon="6.88932">
        <ele>600</ele>
        <time>2019-03-24T08:33:50Z</time>
      </trkpt>
      <trkpt lat="43.67254" lon="6.88928">
        <ele>598.6</ele>
        <time>2019-03-24T08:33:51Z</time>
      </trkpt>
      <trkpt lat="43.67253" lon="6.88926">
        <ele>597.4</ele>
        <time>2019-03-24T08:33:52Z</time>
      </trkpt>
      <trkpt lat="43.67253" lon="6.88924">
        <ele>597</ele>
        <time>2019-03-24T08:33:53Z</time>
      </trkpt>
      <trkpt lat="43.6725" lon="6.88915">
        <ele>596.4</ele>
        <time>2019-03-24T08:33:57Z</time>
      </trkpt>
      <trkpt lat="43.67249" lon="6.88914">
        <ele>596.2</ele>
        <time>2019-03-24T08:33:58Z</time>
      </trkpt>
      <trkpt lat="43.67245" lon="6.88909">
        <ele>596.2</ele>
        <time>2019-03-24T08:34:03Z</time>
      </trkpt>
      <trkpt lat="43.67244" lon="6.88906">
        <ele>596.2</ele>
        <time>2019-03-24T08:34:04Z</time>
      </trkpt>
      <trkpt lat="43.67243" lon="6.88904">
        <ele>596</ele>
        <time>2019-03-24T08:34:05Z</time>
      </trkpt>
      <trkpt lat="43.6724" lon="6.8889">
        <ele>595.6</ele>
        <time>2019-03-24T08:34:10Z</time>
      </trkpt>
      <trkpt lat="43.67237" lon="6.88884">
        <ele>595.2</ele>
        <time>2019-03-24T08:34:12Z</time>
      </trkpt>
      <trkpt lat="43.67236" lon="6.88877">
        <ele>594.6</ele>
        <time>2019-03-24T08:34:15Z</time>
      </trkpt>
      <trkpt lat="43.67234" lon="6.88873">
        <ele>594.4</ele>
        <time>2019-03-24T08:34:16Z</time>
      </trkpt>
      <trkpt lat="43.67232" lon="6.88869">
        <ele>594.4</ele>
        <time>2019-03-24T08:34:17Z</time>
      </trkpt>
      <trkpt lat="43.6723" lon="6.88864">
        <ele>594.4</ele>
        <time>2019-03-24T08:34:18Z</time>
      </trkpt>
      <trkpt lat="43.67229" lon="6.88859">
        <ele>594.6</ele>
        <time>2019-03-24T08:34:20Z</time>
      </trkpt>
      <trkpt lat="43.67222" lon="6.88838">
        <ele>593</ele>
        <time>2019-03-24T08:34:41Z</time>
      </trkpt>
      <trkpt lat="43.67217" lon="6.88832">
        <ele>592.8</ele>
        <time>2019-03-24T08:34:44Z</time>
      </trkpt>
      <trkpt lat="43.67215" lon="6.8883">
        <ele>592.8</ele>
        <time>2019-03-24T08:34:45Z</time>
      </trkpt>
      <trkpt lat="43.67203" lon="6.88821">
        <ele>593</ele>
        <time>2019-03-24T08:34:48Z</time>
      </trkpt>
      <trkpt lat="43.6718" lon="6.88806">
        <ele>592.8</ele>
        <time>2019-03-24T08:34:53Z</time>
      </trkpt>
      <trkpt lat="43.67175" lon="6.88803">
        <ele>592.6</ele>
        <time>2019-03-24T08:34:55Z</time>
      </trkpt>
      <trkpt lat="43.67173" lon="6.88803">
        <ele>592.6</ele>
        <time>2019-03-24T08:34:56Z</time>
      </trkpt>
      <trkpt lat="43.67168" lon="6.88802">
        <ele>592.4</ele>
        <time>2019-03-24T08:34:59Z</time>
      </trkpt>
      <trkpt lat="43.67164" lon="6.88801">
        <ele>592</ele>
        <time>2019-03-24T08:35:00Z</time>
      </trkpt>
      <trkpt lat="43.67152" lon="6.88797">
        <ele>590.4</ele>
        <time>2019-03-24T08:35:03Z</time>
      </trkpt>
      <trkpt lat="43.67146" lon="6.88795">
        <ele>590</ele>
        <time>2019-03-24T08:35:04Z</time>
      </trkpt>
      <trkpt lat="43.67129" lon="6.88787">
        <ele>589.6</ele>
        <time>2019-03-24T08:35:07Z</time>
      </trkpt>
      <trkpt lat="43.67119" lon="6.88782">
        <ele>589.4</ele>
        <time>2019-03-24T08:35:09Z</time>
      </trkpt>
      <trkpt lat="43.67106" lon="6.88776">
        <ele>588.6</ele>
        <time>2019-03-24T08:35:12Z</time>
      </trkpt>
      <trkpt lat="43.671" lon="6.88773">
        <ele>588.2</ele>
        <time>2019-03-24T08:35:13Z</time>
      </trkpt>
      <trkpt lat="43.67083" lon="6.88762">
        <ele>587.6</ele>
        <time>2019-03-24T08:35:16Z</time>
      </trkpt>
      <trkpt lat="43.67069" lon="6.88755">
        <ele>586.8</ele>
        <time>2019-03-24T08:35:19Z</time>
      </trkpt>
      <trkpt lat="43.67059" lon="6.88756">
        <ele>584.2</ele>
        <time>2019-03-24T08:35:48Z</time>
      </trkpt>
      <trkpt lat="43.67052" lon="6.88754">
        <ele>583.2</ele>
        <time>2019-03-24T08:35:50Z</time>
      </trkpt>
      <trkpt lat="43.67045" lon="6.88751">
        <ele>581.6</ele>
        <time>2019-03-24T08:35:52Z</time>
      </trkpt>
      <trkpt lat="43.67043" lon="6.8875">
        <ele>580.6</ele>
        <time>2019-03-24T08:35:54Z</time>
      </trkpt>
      <trkpt lat="43.67041" lon="6.88749">
        <ele>579.2</ele>
        <time>2019-03-24T08:35:57Z</time>
      </trkpt>
      <trkpt lat="43.67037" lon="6.88744">
        <ele>577.4</ele>
        <time>2019-03-24T08:35:59Z</time>
      </trkpt>
      <trkpt lat="43.67033" lon="6.88738">
        <ele>576.2</ele>
        <time>2019-03-24T08:36:01Z</time>
      </trkpt>
      <trkpt lat="43.67032" lon="6.88735">
        <ele>575.6</ele>
        <time>2019-03-24T08:36:02Z</time>
      </trkpt>
      <trkpt lat="43.6703" lon="6.88731">
        <ele>574</ele>
        <time>2019-03-24T08:36:23Z</time>
      </trkpt>
      <trkpt lat="43.67027" lon="6.8873">
        <ele>572.6</ele>
        <time>2019-03-24T08:36:24Z</time>
      </trkpt>
      <trkpt lat="43.67025" lon="6.88728">
        <ele>571.2</ele>
        <time>2019-03-24T08:36:25Z</time>
      </trkpt>
      <trkpt lat="43.67023" lon="6.88727">
        <ele>569.8</ele>
        <time>2019-03-24T08:36:26Z</time>
      </trkpt>
      <trkpt lat="43.67022" lon="6.88726">
        <ele>568.4</ele>
        <time>2019-03-24T08:36:27Z</time>
      </trkpt>
      <trkpt lat="43.67021" lon="6.88724">
        <ele>567</ele>
        <time>2019-03-24T08:36:28Z</time>
      </trkpt>
      <trkpt lat="43.67019" lon="6.88721">
        <ele>565.4</ele>
        <time>2019-03-24T08:36:29Z</time>
      </trkpt>
      <trkpt lat="43.67016" lon="6.88719">
        <ele>564</ele>
        <time>2019-03-24T08:36:30Z</time>
      </trkpt>
      <trkpt lat="43.67013" lon="6.88717">
        <ele>562.4</ele>
        <time>2019-03-24T08:36:31Z</time>
      </trkpt>
      <trkpt lat="43.67011" lon="6.88716">
        <ele>560.8</ele>
        <time>2019-03-24T08:36:32Z</time>
      </trkpt>
      <trkpt lat="43.6701" lon="6.88709">
        <ele>560.4</ele>
        <time>2019-03-24T08:36:34Z</time>
      </trkpt>
      <trkpt lat="43.67012" lon="6.88692">
        <ele>560.4</ele>
        <time>2019-03-24T08:36:39Z</time>
      </trkpt>
      <trkpt lat="43.67003" lon="6.88687">
        <ele>560.2</ele>
        <time>2019-03-24T08:36:42Z</time>
      </trkpt>
      <trkpt lat="43.66999" lon="6.88687">
        <ele>560</ele>
        <time>2019-03-24T08:36:43Z</time>
      </trkpt>
      <trkpt lat="43.66995" lon="6.88687">
        <ele>559.8</ele>
        <time>2019-03-24T08:36:44Z</time>
      </trkpt>
      <trkpt lat="43.66986" lon="6.88686">
        <ele>559.2</ele>
        <time>2019-03-24T08:36:47Z</time>
      </trkpt>
      <trkpt lat="43.66972" lon="6.88688">
        <ele>558.6</ele>
        <time>2019-03-24T08:36:52Z</time>
      </trkpt>
      <trkpt lat="43.66968" lon="6.88691">
        <ele>557.8</ele>
        <time>2019-03-24T08:37:01Z</time>
      </trkpt>
      <trkpt lat="43.66961" lon="6.88694">
        <ele>557</ele>
        <time>2019-03-24T08:37:04Z</time>
      </trkpt>
      <trkpt lat="43.66957" lon="6.88694">
        <ele>556.4</ele>
        <time>2019-03-24T08:37:06Z</time>
      </trkpt>
      <trkpt lat="43.66951" lon="6.88695">
        <ele>555.2</ele>
        <time>2019-03-24T08:37:09Z</time>
      </trkpt>
      <trkpt lat="43.66943" lon="6.88691">
        <ele>554.8</ele>
        <time>2019-03-24T08:37:11Z</time>
      </trkpt>
      <trkpt lat="43.66939" lon="6.88688">
        <ele>554.6</ele>
        <time>2019-03-24T08:37:12Z</time>
      </trkpt>
      <trkpt lat="43.66936" lon="6.88686">
        <ele>554.2</ele>
        <time>2019-03-24T08:37:13Z</time>
      </trkpt>
      <trkpt lat="43.66933" lon="6.88684">
        <ele>553.8</ele>
        <time>2019-03-24T08:37:14Z</time>
      </trkpt>
      <trkpt lat="43.66921" lon="6.8868">
        <ele>552.8</ele>
        <time>2019-03-24T08:37:19Z</time>
      </trkpt>
      <trkpt lat="43.66918" lon="6.88678">
        <ele>552.4</ele>
        <time>2019-03-24T08:37:20Z</time>
      </trkpt>
      <trkpt lat="43.66912" lon="6.88672">
        <ele>551.8</ele>
        <time>2019-03-24T08:37:23Z</time>
      </trkpt>
      <trkpt lat="43.66901" lon="6.8866">
        <ele>551</ele>
        <time>2019-03-24T08:37:27Z</time>
      </trkpt>
      <trkpt lat="43.66898" lon="6.88657">
        <ele>550.6</ele>
        <time>2019-03-24T08:37:28Z</time>
      </trkpt>
      <trkpt lat="43.6689" lon="6.88646">
        <ele>549.2</ele>
        <time>2019-03-24T08:37:32Z</time>
      </trkpt>
      <trkpt lat="43.66886" lon="6.8864">
        <ele>548.2</ele>
        <time>2019-03-24T08:37:34Z</time>
      </trkpt>
      <trkpt lat="43.66884" lon="6.88638">
        <ele>547.8</ele>
        <time>2019-03-24T08:37:35Z</time>
      </trkpt>
      <trkpt lat="43.66878" lon="6.88629">
        <ele>546.8</ele>
        <time>2019-03-24T08:37:38Z</time>
      </trkpt>
      <trkpt lat="43.66874" lon="6.88623">
        <ele>546.2</ele>
        <time>2019-03-24T08:37:40Z</time>
      </trkpt>
      <trkpt lat="43.66873" lon="6.8862">
        <ele>545.8</ele>
        <time>2019-03-24T08:37:41Z</time>
      </trkpt>
      <trkpt lat="43.66869" lon="6.88611">
        <ele>544.8</ele>
        <time>2019-03-24T08:37:44Z</time>
      </trkpt>
      <trkpt lat="43.66864" lon="6.88602">
        <ele>543.6</ele>
        <time>2019-03-24T08:37:47Z</time>
      </trkpt>
      <trkpt lat="43.66863" lon="6.88598">
        <ele>543.2</ele>
        <time>2019-03-24T08:37:48Z</time>
      </trkpt>
      <trkpt lat="43.6686" lon="6.88592">
        <ele>542.4</ele>
        <time>2019-03-24T08:37:50Z</time>
      </trkpt>
      <trkpt lat="43.66854" lon="6.88575">
        <ele>542.4</ele>
        <time>2019-03-24T08:37:55Z</time>
      </trkpt>
      <trkpt lat="43.66845" lon="6.88566">
        <ele>543.6</ele>
        <time>2019-03-24T08:37:59Z</time>
      </trkpt>
      <trkpt lat="43.66839" lon="6.88557">
        <ele>544.8</ele>
        <time>2019-03-24T08:38:02Z</time>
      </trkpt>
      <trkpt lat="43.66831" lon="6.88545">
        <ele>545.8</ele>
        <time>2019-03-24T08:38:06Z</time>
      </trkpt>
      <trkpt lat="43.66829" lon="6.88542">
        <ele>545.8</ele>
        <time>2019-03-24T08:38:07Z</time>
      </trkpt>
      <trkpt lat="43.66822" lon="6.88519">
        <ele>546</ele>
        <time>2019-03-24T08:38:13Z</time>
      </trkpt>
      <trkpt lat="43.66828" lon="6.88503">
        <ele>545.2</ele>
        <time>2019-03-24T08:38:17Z</time>
      </trkpt>
      <trkpt lat="43.66831" lon="6.88494">
        <ele>544.6</ele>
        <time>2019-03-24T08:38:19Z</time>
      </trkpt>
      <trkpt lat="43.66836" lon="6.8848">
        <ele>544.8</ele>
        <time>2019-03-24T08:38:23Z</time>
      </trkpt>
      <trkpt lat="43.66844" lon="6.88469">
        <ele>546</ele>
        <time>2019-03-24T08:38:27Z</time>
      </trkpt>
      <trkpt lat="43.66851" lon="6.88461">
        <ele>546.8</ele>
        <time>2019-03-24T08:38:30Z</time>
      </trkpt>
      <trkpt lat="43.66853" lon="6.88458">
        <ele>547.2</ele>
        <time>2019-03-24T08:38:31Z</time>
      </trkpt>
      <trkpt lat="43.66858" lon="6.88448">
        <ele>548</ele>
        <time>2019-03-24T08:38:35Z</time>
      </trkpt>
      <trkpt lat="43.6686" lon="6.8843">
        <ele>548</ele>
        <time>2019-03-24T08:38:41Z</time>
      </trkpt>
      <trkpt lat="43.66856" lon="6.88421">
        <ele>548</ele>
        <time>2019-03-24T08:38:43Z</time>
      </trkpt>
      <trkpt lat="43.66852" lon="6.88416">
        <ele>548.2</ele>
        <time>2019-03-24T08:38:44Z</time>
      </trkpt>
      <trkpt lat="43.66849" lon="6.88411">
        <ele>548.2</ele>
        <time>2019-03-24T08:38:45Z</time>
      </trkpt>
      <trkpt lat="43.66831" lon="6.88377">
        <ele>548.8</ele>
        <time>2019-03-24T08:38:52Z</time>
      </trkpt>
      <trkpt lat="43.66818" lon="6.88366">
        <ele>549</ele>
        <time>2019-03-24T08:38:56Z</time>
      </trkpt>
      <trkpt lat="43.66814" lon="6.88366">
        <ele>549</ele>
        <time>2019-03-24T08:38:57Z</time>
      </trkpt>
      <trkpt lat="43.66809" lon="6.88375">
        <ele>549</ele>
        <time>2019-03-24T08:39:00Z</time>
      </trkpt>
      <trkpt lat="43.66801" lon="6.88401">
        <ele>549.2</ele>
        <time>2019-03-24T08:39:06Z</time>
      </trkpt>
      <trkpt lat="43.668" lon="6.88405">
        <ele>549.2</ele>
        <time>2019-03-24T08:39:07Z</time>
      </trkpt>
      <trkpt lat="43.66794" lon="6.88413">
        <ele>550.8</ele>
        <time>2019-03-24T08:39:10Z</time>
      </trkpt>
      <trkpt lat="43.66793" lon="6.88416">
        <ele>551.2</ele>
        <time>2019-03-24T08:39:11Z</time>
      </trkpt>
      <trkpt lat="43.66789" lon="6.88421">
        <ele>552.4</ele>
        <time>2019-03-24T08:39:13Z</time>
      </trkpt>
      <trkpt lat="43.66777" lon="6.88437">
        <ele>553.6</ele>
        <time>2019-03-24T08:39:19Z</time>
      </trkpt>
      <trkpt lat="43.66775" lon="6.8844">
        <ele>553.8</ele>
        <time>2019-03-24T08:39:20Z</time>
      </trkpt>
      <trkpt lat="43.66763" lon="6.88454">
        <ele>555.2</ele>
        <time>2019-03-24T08:39:26Z</time>
      </trkpt>
      <trkpt lat="43.66757" lon="6.88462">
        <ele>556.4</ele>
        <time>2019-03-24T08:39:29Z</time>
      </trkpt>
      <trkpt lat="43.66752" lon="6.88469">
        <ele>558</ele>
        <time>2019-03-24T08:39:32Z</time>
      </trkpt>
      <trkpt lat="43.66749" lon="6.88474">
        <ele>559.2</ele>
        <time>2019-03-24T08:39:34Z</time>
      </trkpt>
      <trkpt lat="43.66746" lon="6.88479">
        <ele>560.4</ele>
        <time>2019-03-24T08:39:36Z</time>
      </trkpt>
      <trkpt lat="43.66744" lon="6.88481">
        <ele>561</ele>
        <time>2019-03-24T08:39:37Z</time>
      </trkpt>
      <trkpt lat="43.66742" lon="6.88483">
        <ele>561.4</ele>
        <time>2019-03-24T08:39:38Z</time>
      </trkpt>
      <trkpt lat="43.66739" lon="6.88488">
        <ele>562.6</ele>
        <time>2019-03-24T08:39:40Z</time>
      </trkpt>
      <trkpt lat="43.66735" lon="6.88492">
        <ele>563.6</ele>
        <time>2019-03-24T08:39:42Z</time>
      </trkpt>
      <trkpt lat="43.66734" lon="6.88494">
        <ele>564.2</ele>
        <time>2019-03-24T08:39:43Z</time>
      </trkpt>
      <trkpt lat="43.6673" lon="6.88496">
        <ele>564.8</ele>
        <time>2019-03-24T08:39:45Z</time>
      </trkpt>
      <trkpt lat="43.66723" lon="6.88498">
        <ele>566.2</ele>
        <time>2019-03-24T08:39:48Z</time>
      </trkpt>
      <trkpt lat="43.66711" lon="6.885">
        <ele>567.4</ele>
        <time>2019-03-24T08:39:52Z</time>
      </trkpt>
      <trkpt lat="43.667" lon="6.88501">
        <ele>568.6</ele>
        <time>2019-03-24T08:39:56Z</time>
      </trkpt>
      <trkpt lat="43.6669" lon="6.88501">
        <ele>570</ele>
        <time>2019-03-24T08:40:00Z</time>
      </trkpt>
      <trkpt lat="43.66685" lon="6.88501">
        <ele>570.4</ele>
        <time>2019-03-24T08:40:02Z</time>
      </trkpt>
      <trkpt lat="43.66672" lon="6.88501">
        <ele>571.2</ele>
        <time>2019-03-24T08:40:07Z</time>
      </trkpt>
      <trkpt lat="43.66664" lon="6.88501">
        <ele>571.8</ele>
        <time>2019-03-24T08:40:10Z</time>
      </trkpt>
      <trkpt lat="43.66656" lon="6.88502">
        <ele>572.2</ele>
        <time>2019-03-24T08:40:13Z</time>
      </trkpt>
      <trkpt lat="43.66649" lon="6.88503">
        <ele>572.6</ele>
        <time>2019-03-24T08:40:16Z</time>
      </trkpt>
      <trkpt lat="43.66644" lon="6.88504">
        <ele>573.4</ele>
        <time>2019-03-24T08:40:18Z</time>
      </trkpt>
      <trkpt lat="43.66634" lon="6.88505">
        <ele>574.6</ele>
        <time>2019-03-24T08:40:22Z</time>
      </trkpt>
      <trkpt lat="43.66631" lon="6.88504">
        <ele>574.8</ele>
        <time>2019-03-24T08:40:23Z</time>
      </trkpt>
      <trkpt lat="43.6661" lon="6.88498">
        <ele>575.8</ele>
        <time>2019-03-24T08:40:30Z</time>
      </trkpt>
      <trkpt lat="43.66587" lon="6.88487">
        <ele>576</ele>
        <time>2019-03-24T08:40:37Z</time>
      </trkpt>
      <trkpt lat="43.66568" lon="6.88474">
        <ele>576.8</ele>
        <time>2019-03-24T08:40:42Z</time>
      </trkpt>
      <trkpt lat="43.66563" lon="6.88471">
        <ele>577</ele>
        <time>2019-03-24T08:40:43Z</time>
      </trkpt>
      <trkpt lat="43.66536" lon="6.88449">
        <ele>578.2</ele>
        <time>2019-03-24T08:40:49Z</time>
      </trkpt>
      <trkpt lat="43.66527" lon="6.88442">
        <ele>578.2</ele>
        <time>2019-03-24T08:40:51Z</time>
      </trkpt>
      <trkpt lat="43.66512" lon="6.88433">
        <ele>578.4</ele>
        <time>2019-03-24T08:40:54Z</time>
      </trkpt>
      <trkpt lat="43.66501" lon="6.8843">
        <ele>578.6</ele>
        <time>2019-03-24T08:40:56Z</time>
      </trkpt>
      <trkpt lat="43.66464" lon="6.88427">
        <ele>578.4</ele>
        <time>2019-03-24T08:41:02Z</time>
      </trkpt>
      <trkpt lat="43.66415" lon="6.88423">
        <ele>577.2</ele>
        <time>2019-03-24T08:41:09Z</time>
      </trkpt>
      <trkpt lat="43.66402" lon="6.88421">
        <ele>576.6</ele>
        <time>2019-03-24T08:41:11Z</time>
      </trkpt>
      <trkpt lat="43.66395" lon="6.88418">
        <ele>575.8</ele>
        <time>2019-03-24T08:41:12Z</time>
      </trkpt>
      <trkpt lat="43.66377" lon="6.88406">
        <ele>574.6</ele>
        <time>2019-03-24T08:41:15Z</time>
      </trkpt>
      <trkpt lat="43.66365" lon="6.88395">
        <ele>573.4</ele>
        <time>2019-03-24T08:41:17Z</time>
      </trkpt>
      <trkpt lat="43.6636" lon="6.88388">
        <ele>572.6</ele>
        <time>2019-03-24T08:41:18Z</time>
      </trkpt>
      <trkpt lat="43.66355" lon="6.88382">
        <ele>571.6</ele>
        <time>2019-03-24T08:41:19Z</time>
      </trkpt>
      <trkpt lat="43.6635" lon="6.88375">
        <ele>570.8</ele>
        <time>2019-03-24T08:41:20Z</time>
      </trkpt>
      <trkpt lat="43.66345" lon="6.88369">
        <ele>570</ele>
        <time>2019-03-24T08:41:21Z</time>
      </trkpt>
      <trkpt lat="43.66336" lon="6.88356">
        <ele>568.2</ele>
        <time>2019-03-24T08:41:23Z</time>
      </trkpt>
      <trkpt lat="43.66326" lon="6.88343">
        <ele>566.8</ele>
        <time>2019-03-24T08:41:25Z</time>
      </trkpt>
      <trkpt lat="43.66309" lon="6.88323">
        <ele>565.8</ele>
        <time>2019-03-24T08:41:28Z</time>
      </trkpt>
      <trkpt lat="43.66303" lon="6.88319">
        <ele>565.6</ele>
        <time>2019-03-24T08:41:29Z</time>
      </trkpt>
      <trkpt lat="43.6629" lon="6.88313">
        <ele>564.2</ele>
        <time>2019-03-24T08:41:31Z</time>
      </trkpt>
      <trkpt lat="43.66275" lon="6.88309">
        <ele>562.6</ele>
        <time>2019-03-24T08:41:33Z</time>
      </trkpt>
      <trkpt lat="43.66261" lon="6.88303">
        <ele>561.2</ele>
        <time>2019-03-24T08:41:35Z</time>
      </trkpt>
      <trkpt lat="43.66254" lon="6.88299">
        <ele>560.8</ele>
        <time>2019-03-24T08:41:36Z</time>
      </trkpt>
      <trkpt lat="43.66241" lon="6.88288">
        <ele>560.2</ele>
        <time>2019-03-24T08:41:38Z</time>
      </trkpt>
      <trkpt lat="43.6623" lon="6.88274">
        <ele>559.4</ele>
        <time>2019-03-24T08:41:40Z</time>
      </trkpt>
      <trkpt lat="43.66226" lon="6.88265">
        <ele>559</ele>
        <time>2019-03-24T08:41:41Z</time>
      </trkpt>
      <trkpt lat="43.66217" lon="6.88236">
        <ele>557.8</ele>
        <time>2019-03-24T08:41:44Z</time>
      </trkpt>
      <trkpt lat="43.66215" lon="6.88225">
        <ele>557.4</ele>
        <time>2019-03-24T08:41:45Z</time>
      </trkpt>
      <trkpt lat="43.6621" lon="6.88181">
        <ele>556.8</ele>
        <time>2019-03-24T08:41:49Z</time>
      </trkpt>
      <trkpt lat="43.66198" lon="6.88154">
        <ele>556</ele>
        <time>2019-03-24T08:41:52Z</time>
      </trkpt>
      <trkpt lat="43.66192" lon="6.88148">
        <ele>555.6</ele>
        <time>2019-03-24T08:41:53Z</time>
      </trkpt>
      <trkpt lat="43.66179" lon="6.88139">
        <ele>555.2</ele>
        <time>2019-03-24T08:41:55Z</time>
      </trkpt>
      <trkpt lat="43.66166" lon="6.88132">
        <ele>554.6</ele>
        <time>2019-03-24T08:41:57Z</time>
      </trkpt>
      <trkpt lat="43.6614" lon="6.88122">
        <ele>554.2</ele>
        <time>2019-03-24T08:42:01Z</time>
      </trkpt>
      <trkpt lat="43.66101" lon="6.88113">
        <ele>554.4</ele>
        <time>2019-03-24T08:42:07Z</time>
      </trkpt>
      <trkpt lat="43.66053" lon="6.88105">
        <ele>554.2</ele>
        <time>2019-03-24T08:42:15Z</time>
      </trkpt>
      <trkpt lat="43.66047" lon="6.88102">
        <ele>554</ele>
        <time>2019-03-24T08:42:16Z</time>
      </trkpt>
      <trkpt lat="43.66037" lon="6.88093">
        <ele>553.4</ele>
        <time>2019-03-24T08:42:18Z</time>
      </trkpt>
      <trkpt lat="43.66027" lon="6.88082">
        <ele>553.2</ele>
        <time>2019-03-24T08:42:20Z</time>
      </trkpt>
      <trkpt lat="43.66024" lon="6.88075">
        <ele>553.2</ele>
        <time>2019-03-24T08:42:21Z</time>
      </trkpt>
      <trkpt lat="43.66022" lon="6.88067">
        <ele>553.4</ele>
        <time>2019-03-24T08:42:22Z</time>
      </trkpt>
      <trkpt lat="43.66023" lon="6.8804">
        <ele>553.4</ele>
        <time>2019-03-24T08:42:25Z</time>
      </trkpt>
      <trkpt lat="43.66024" lon="6.8803">
        <ele>553.4</ele>
        <time>2019-03-24T08:42:26Z</time>
      </trkpt>
      <trkpt lat="43.66036" lon="6.87974">
        <ele>554</ele>
        <time>2019-03-24T08:42:32Z</time>
      </trkpt>
      <trkpt lat="43.66036" lon="6.87965">
        <ele>554</ele>
        <time>2019-03-24T08:42:33Z</time>
      </trkpt>
      <trkpt lat="43.66032" lon="6.87915">
        <ele>553.4</ele>
        <time>2019-03-24T08:42:38Z</time>
      </trkpt>
      <trkpt lat="43.66025" lon="6.87852">
        <ele>552.8</ele>
        <time>2019-03-24T08:42:44Z</time>
      </trkpt>
      <trkpt lat="43.66024" lon="6.87841">
        <ele>552.6</ele>
        <time>2019-03-24T08:42:45Z</time>
      </trkpt>
      <trkpt lat="43.66025" lon="6.87819">
        <ele>552.2</ele>
        <time>2019-03-24T08:42:47Z</time>
      </trkpt>
      <trkpt lat="43.66026" lon="6.87786">
        <ele>551.8</ele>
        <time>2019-03-24T08:42:50Z</time>
      </trkpt>
      <trkpt lat="43.66029" lon="6.87716">
        <ele>551.6</ele>
        <time>2019-03-24T08:42:57Z</time>
      </trkpt>
      <trkpt lat="43.66028" lon="6.87706">
        <ele>551.4</ele>
        <time>2019-03-24T08:42:58Z</time>
      </trkpt>
      <trkpt lat="43.66021" lon="6.87689">
        <ele>551.4</ele>
        <time>2019-03-24T08:43:00Z</time>
      </trkpt>
      <trkpt lat="43.66011" lon="6.87675">
        <ele>551.2</ele>
        <time>2019-03-24T08:43:02Z</time>
      </trkpt>
      <trkpt lat="43.66005" lon="6.87671">
        <ele>551.2</ele>
        <time>2019-03-24T08:43:03Z</time>
      </trkpt>
      <trkpt lat="43.65984" lon="6.87669">
        <ele>550.8</ele>
        <time>2019-03-24T08:43:06Z</time>
      </trkpt>
      <trkpt lat="43.65977" lon="6.87669">
        <ele>550.8</ele>
        <time>2019-03-24T08:43:07Z</time>
      </trkpt>
      <trkpt lat="43.65952" lon="6.87675">
        <ele>550.6</ele>
        <time>2019-03-24T08:43:11Z</time>
      </trkpt>
      <trkpt lat="43.65938" lon="6.87682">
        <ele>550.2</ele>
        <time>2019-03-24T08:43:13Z</time>
      </trkpt>
      <trkpt lat="43.65926" lon="6.87694">
        <ele>549.8</ele>
        <time>2019-03-24T08:43:15Z</time>
      </trkpt>
      <trkpt lat="43.6592" lon="6.87702">
        <ele>549</ele>
        <time>2019-03-24T08:43:16Z</time>
      </trkpt>
      <trkpt lat="43.65914" lon="6.87711">
        <ele>548.4</ele>
        <time>2019-03-24T08:43:17Z</time>
      </trkpt>
      <trkpt lat="43.65908" lon="6.87719">
        <ele>547.8</ele>
        <time>2019-03-24T08:43:18Z</time>
      </trkpt>
      <trkpt lat="43.65896" lon="6.87735">
        <ele>546.6</ele>
        <time>2019-03-24T08:43:20Z</time>
      </trkpt>
      <trkpt lat="43.65889" lon="6.87741">
        <ele>546</ele>
        <time>2019-03-24T08:43:21Z</time>
      </trkpt>
      <trkpt lat="43.65882" lon="6.87746">
        <ele>545.2</ele>
        <time>2019-03-24T08:43:22Z</time>
      </trkpt>
      <trkpt lat="43.65874" lon="6.87751">
        <ele>544.6</ele>
        <time>2019-03-24T08:43:23Z</time>
      </trkpt>
      <trkpt lat="43.65867" lon="6.87754">
        <ele>544</ele>
        <time>2019-03-24T08:43:24Z</time>
      </trkpt>
      <trkpt lat="43.65853" lon="6.87761">
        <ele>543</ele>
        <time>2019-03-24T08:43:26Z</time>
      </trkpt>
      <trkpt lat="43.65832" lon="6.87769">
        <ele>541.8</ele>
        <time>2019-03-24T08:43:29Z</time>
      </trkpt>
      <trkpt lat="43.65811" lon="6.87776">
        <ele>540.6</ele>
        <time>2019-03-24T08:43:32Z</time>
      </trkpt>
      <trkpt lat="43.65796" lon="6.87778">
        <ele>540.2</ele>
        <time>2019-03-24T08:43:34Z</time>
      </trkpt>
      <trkpt lat="43.65789" lon="6.87778">
        <ele>540.2</ele>
        <time>2019-03-24T08:43:35Z</time>
      </trkpt>
      <trkpt lat="43.65782" lon="6.87777">
        <ele>540</ele>
        <time>2019-03-24T08:43:36Z</time>
      </trkpt>
      <trkpt lat="43.65762" lon="6.87768">
        <ele>539.8</ele>
        <time>2019-03-24T08:43:39Z</time>
      </trkpt>
      <trkpt lat="43.65744" lon="6.87754">
        <ele>539.6</ele>
        <time>2019-03-24T08:43:42Z</time>
      </trkpt>
      <trkpt lat="43.65739" lon="6.87748">
        <ele>539.2</ele>
        <time>2019-03-24T08:43:43Z</time>
      </trkpt>
      <trkpt lat="43.65733" lon="6.87742">
        <ele>539</ele>
        <time>2019-03-24T08:43:44Z</time>
      </trkpt>
      <trkpt lat="43.65722" lon="6.8773">
        <ele>538.4</ele>
        <time>2019-03-24T08:43:46Z</time>
      </trkpt>
      <trkpt lat="43.65684" lon="6.87687">
        <ele>538.2</ele>
        <time>2019-03-24T08:43:53Z</time>
      </trkpt>
      <trkpt lat="43.65666" lon="6.87661">
        <ele>538.2</ele>
        <time>2019-03-24T08:43:57Z</time>
      </trkpt>
      <trkpt lat="43.6566" lon="6.87647">
        <ele>538.6</ele>
        <time>2019-03-24T08:43:59Z</time>
      </trkpt>
      <trkpt lat="43.65654" lon="6.87626">
        <ele>539.6</ele>
        <time>2019-03-24T08:44:03Z</time>
      </trkpt>
      <trkpt lat="43.65656" lon="6.87621">
        <ele>539.8</ele>
        <time>2019-03-24T08:44:04Z</time>
      </trkpt>
      <trkpt lat="43.65666" lon="6.87597">
        <ele>540.2</ele>
        <time>2019-03-24T08:44:09Z</time>
      </trkpt>
      <trkpt lat="43.65671" lon="6.87577">
        <ele>540.8</ele>
        <time>2019-03-24T08:44:13Z</time>
      </trkpt>
      <trkpt lat="43.65675" lon="6.87563">
        <ele>541</ele>
        <time>2019-03-24T08:44:16Z</time>
      </trkpt>
      <trkpt lat="43.65677" lon="6.87534">
        <ele>541.4</ele>
        <time>2019-03-24T08:44:23Z</time>
      </trkpt>
      <trkpt lat="43.65677" lon="6.87529">
        <ele>542</ele>
        <time>2019-03-24T08:44:25Z</time>
      </trkpt>
      <trkpt lat="43.65678" lon="6.87521">
        <ele>542</ele>
        <time>2019-03-24T08:44:29Z</time>
      </trkpt>
      <trkpt lat="43.65679" lon="6.87513">
        <ele>544</ele>
        <time>2019-03-24T08:46:44Z</time>
      </trkpt>
      <trkpt lat="43.6568" lon="6.87511">
        <ele>544.4</ele>
        <time>2019-03-24T08:46:45Z</time>
      </trkpt>
      <trkpt lat="43.65681" lon="6.87509">
        <ele>545</ele>
        <time>2019-03-24T08:46:47Z</time>
      </trkpt>
      <trkpt lat="43.65683" lon="6.87505">
        <ele>540.2</ele>
        <time>2019-03-24T08:51:32Z</time>
      </trkpt>
      <trkpt lat="43.65685" lon="6.87507">
        <ele>541.4</ele>
        <time>2019-03-24T08:51:34Z</time>
      </trkpt>
      <trkpt lat="43.65686" lon="6.87501">
        <ele>542.4</ele>
        <time>2019-03-24T08:51:36Z</time>
      </trkpt>
      <trkpt lat="43.65686" lon="6.87494">
        <ele>543.2</ele>
        <time>2019-03-24T08:51:38Z</time>
      </trkpt>
      <trkpt lat="43.65685" lon="6.8749">
        <ele>543.4</ele>
        <time>2019-03-24T08:51:39Z</time>
      </trkpt>
      <trkpt lat="43.6568" lon="6.87477">
        <ele>543.6</ele>
        <time>2019-03-24T08:51:42Z</time>
      </trkpt>
      <trkpt lat="43.65671" lon="6.87466">
        <ele>544.4</ele>
        <time>2019-03-24T08:51:46Z</time>
      </trkpt>
      <trkpt lat="43.6567" lon="6.87463">
        <ele>544.4</ele>
        <time>2019-03-24T08:51:47Z</time>
      </trkpt>
      <trkpt lat="43.65671" lon="6.87456">
        <ele>544.6</ele>
        <time>2019-03-24T08:51:49Z</time>
      </trkpt>
      <trkpt lat="43.65677" lon="6.87445">
        <ele>545.2</ele>
        <time>2019-03-24T08:51:53Z</time>
      </trkpt>
      <trkpt lat="43.65678" lon="6.87441">
        <ele>545.4</ele>
        <time>2019-03-24T08:51:54Z</time>
      </trkpt>
      <trkpt lat="43.65676" lon="6.87423">
        <ele>545.6</ele>
        <time>2019-03-24T08:51:58Z</time>
      </trkpt>
      <trkpt lat="43.65675" lon="6.87396">
        <ele>545.6</ele>
        <time>2019-03-24T08:52:03Z</time>
      </trkpt>
      <trkpt lat="43.65677" lon="6.8736">
        <ele>545.8</ele>
        <time>2019-03-24T08:52:09Z</time>
      </trkpt>
      <trkpt lat="43.65677" lon="6.87354">
        <ele>545.8</ele>
        <time>2019-03-24T08:52:10Z</time>
      </trkpt>
      <trkpt lat="43.65678" lon="6.87319">
        <ele>545.4</ele>
        <time>2019-03-24T08:52:16Z</time>
      </trkpt>
      <trkpt lat="43.65679" lon="6.87313">
        <ele>545.4</ele>
        <time>2019-03-24T08:52:17Z</time>
      </trkpt>
      <trkpt lat="43.65684" lon="6.87279">
        <ele>545.4</ele>
        <time>2019-03-24T08:52:24Z</time>
      </trkpt>
      <trkpt lat="43.6569" lon="6.87251">
        <ele>544.4</ele>
        <time>2019-03-24T08:52:30Z</time>
      </trkpt>
      <trkpt lat="43.657" lon="6.87227">
        <ele>544.2</ele>
        <time>2019-03-24T08:52:35Z</time>
      </trkpt>
      <trkpt lat="43.65702" lon="6.87222">
        <ele>544.2</ele>
        <time>2019-03-24T08:52:36Z</time>
      </trkpt>
      <trkpt lat="43.65723" lon="6.87183">
        <ele>544.4</ele>
        <time>2019-03-24T08:52:44Z</time>
      </trkpt>
      <trkpt lat="43.65735" lon="6.87157">
        <ele>544</ele>
        <time>2019-03-24T08:52:48Z</time>
      </trkpt>
      <trkpt lat="43.65737" lon="6.8715">
        <ele>543.8</ele>
        <time>2019-03-24T08:52:49Z</time>
      </trkpt>
      <trkpt lat="43.65739" lon="6.87122">
        <ele>543.6</ele>
        <time>2019-03-24T08:52:53Z</time>
      </trkpt>
      <trkpt lat="43.65739" lon="6.87102">
        <ele>543.4</ele>
        <time>2019-03-24T08:52:56Z</time>
      </trkpt>
      <trkpt lat="43.65739" lon="6.87089">
        <ele>543.4</ele>
        <time>2019-03-24T08:52:58Z</time>
      </trkpt>
      <trkpt lat="43.6574" lon="6.87077">
        <ele>543.2</ele>
        <time>2019-03-24T08:53:00Z</time>
      </trkpt>
      <trkpt lat="43.65742" lon="6.87031">
        <ele>543</ele>
        <time>2019-03-24T08:53:07Z</time>
      </trkpt>
      <trkpt lat="43.65744" lon="6.86979">
        <ele>543.6</ele>
        <time>2019-03-24T08:53:14Z</time>
      </trkpt>
      <trkpt lat="43.65748" lon="6.86935">
        <ele>544.2</ele>
        <time>2019-03-24T08:53:20Z</time>
      </trkpt>
      <trkpt lat="43.65752" lon="6.86889">
        <ele>544</ele>
        <time>2019-03-24T08:53:27Z</time>
      </trkpt>
      <trkpt lat="43.65753" lon="6.86877">
        <ele>544.2</ele>
        <time>2019-03-24T08:53:29Z</time>
      </trkpt>
      <trkpt lat="43.65754" lon="6.86859">
        <ele>544.2</ele>
        <time>2019-03-24T08:53:32Z</time>
      </trkpt>
      <trkpt lat="43.65756" lon="6.86826">
        <ele>544.4</ele>
        <time>2019-03-24T08:53:38Z</time>
      </trkpt>
      <trkpt lat="43.65755" lon="6.86813">
        <ele>544.6</ele>
        <time>2019-03-24T08:53:41Z</time>
      </trkpt>
      <trkpt lat="43.65753" lon="6.86802">
        <ele>544.6</ele>
        <time>2019-03-24T08:53:43Z</time>
      </trkpt>
      <trkpt lat="43.65741" lon="6.86779">
        <ele>545</ele>
        <time>2019-03-24T08:53:48Z</time>
      </trkpt>
      <trkpt lat="43.65729" lon="6.86753">
        <ele>545</ele>
        <time>2019-03-24T08:53:52Z</time>
      </trkpt>
      <trkpt lat="43.6571" lon="6.86704">
        <ele>544.8</ele>
        <time>2019-03-24T08:53:57Z</time>
      </trkpt>
      <trkpt lat="43.65696" lon="6.86669">
        <ele>544.8</ele>
        <time>2019-03-24T08:54:00Z</time>
      </trkpt>
      <trkpt lat="43.65685" lon="6.86648">
        <ele>545</ele>
        <time>2019-03-24T08:54:02Z</time>
      </trkpt>
      <trkpt lat="43.65676" lon="6.86628">
        <ele>545</ele>
        <time>2019-03-24T08:54:04Z</time>
      </trkpt>
      <trkpt lat="43.65671" lon="6.86613">
        <ele>545.4</ele>
        <time>2019-03-24T08:54:06Z</time>
      </trkpt>
      <trkpt lat="43.65667" lon="6.86602">
        <ele>545.6</ele>
        <time>2019-03-24T08:54:08Z</time>
      </trkpt>
      <trkpt lat="43.65664" lon="6.86594">
        <ele>546.2</ele>
        <time>2019-03-24T08:54:10Z</time>
      </trkpt>
      <trkpt lat="43.65662" lon="6.86586">
        <ele>546.8</ele>
        <time>2019-03-24T08:54:12Z</time>
      </trkpt>
      <trkpt lat="43.65658" lon="6.86571">
        <ele>547</ele>
        <time>2019-03-24T08:54:17Z</time>
      </trkpt>
      <trkpt lat="43.65655" lon="6.86552">
        <ele>547.4</ele>
        <time>2019-03-24T08:54:23Z</time>
      </trkpt>
      <trkpt lat="43.65654" lon="6.86543">
        <ele>547.8</ele>
        <time>2019-03-24T08:54:27Z</time>
      </trkpt>
      <trkpt lat="43.65655" lon="6.86534">
        <ele>548</ele>
        <time>2019-03-24T08:54:31Z</time>
      </trkpt>
      <trkpt lat="43.65658" lon="6.86527">
        <ele>548.2</ele>
        <time>2019-03-24T08:54:34Z</time>
      </trkpt>
      <trkpt lat="43.65658" lon="6.86519">
        <ele>549.2</ele>
        <time>2019-03-24T08:54:37Z</time>
      </trkpt>
      <trkpt lat="43.65658" lon="6.86516">
        <ele>549.6</ele>
        <time>2019-03-24T08:54:38Z</time>
      </trkpt>
      <trkpt lat="43.65658" lon="6.86506">
        <ele>550.2</ele>
        <time>2019-03-24T08:54:42Z</time>
      </trkpt>
      <trkpt lat="43.65659" lon="6.86502">
        <ele>550.4</ele>
        <time>2019-03-24T08:54:44Z</time>
      </trkpt>
      <trkpt lat="43.6566" lon="6.86494">
        <ele>551.4</ele>
        <time>2019-03-24T08:54:47Z</time>
      </trkpt>
      <trkpt lat="43.65661" lon="6.86485">
        <ele>552.8</ele>
        <time>2019-03-24T08:54:51Z</time>
      </trkpt>
      <trkpt lat="43.65662" lon="6.86477">
        <ele>554</ele>
        <time>2019-03-24T08:54:54Z</time>
      </trkpt>
      <trkpt lat="43.65663" lon="6.86471">
        <ele>555.4</ele>
        <time>2019-03-24T08:54:57Z</time>
      </trkpt>
      <trkpt lat="43.65663" lon="6.86469">
        <ele>555.6</ele>
        <time>2019-03-24T08:54:58Z</time>
      </trkpt>
      <trkpt lat="43.65663" lon="6.86464">
        <ele>556.4</ele>
        <time>2019-03-24T08:55:00Z</time>
      </trkpt>
      <trkpt lat="43.65664" lon="6.86452">
        <ele>557.6</ele>
        <time>2019-03-24T08:55:04Z</time>
      </trkpt>
      <trkpt lat="43.65664" lon="6.86448">
        <ele>558.2</ele>
        <time>2019-03-24T08:55:06Z</time>
      </trkpt>
      <trkpt lat="43.65663" lon="6.86442">
        <ele>558.8</ele>
        <time>2019-03-24T08:55:08Z</time>
      </trkpt>
      <trkpt lat="43.65663" lon="6.86429">
        <ele>560</ele>
        <time>2019-03-24T08:55:13Z</time>
      </trkpt>
      <trkpt lat="43.65663" lon="6.86411">
        <ele>561.2</ele>
        <time>2019-03-24T08:55:19Z</time>
      </trkpt>
      <trkpt lat="43.65662" lon="6.86407">
        <ele>561.6</ele>
        <time>2019-03-24T08:55:21Z</time>
      </trkpt>
      <trkpt lat="43.65661" lon="6.86397">
        <ele>562.2</ele>
        <time>2019-03-24T08:55:25Z</time>
      </trkpt>
      <trkpt lat="43.65661" lon="6.86394">
        <ele>562.4</ele>
        <time>2019-03-24T08:55:26Z</time>
      </trkpt>
      <trkpt lat="43.65659" lon="6.86385">
        <ele>563.4</ele>
        <time>2019-03-24T08:55:30Z</time>
      </trkpt>
      <trkpt lat="43.65657" lon="6.86378">
        <ele>564</ele>
        <time>2019-03-24T08:55:33Z</time>
      </trkpt>
      <trkpt lat="43.65648" lon="6.86367">
        <ele>562.6</ele>
        <time>2019-03-24T08:55:40Z</time>
      </trkpt>
      <trkpt lat="43.65644" lon="6.86364">
        <ele>562</ele>
        <time>2019-03-24T08:55:41Z</time>
      </trkpt>
      <trkpt lat="43.65635" lon="6.86359">
        <ele>560.8</ele>
        <time>2019-03-24T08:55:43Z</time>
      </trkpt>
      <trkpt lat="43.65621" lon="6.86344">
        <ele>559.8</ele>
        <time>2019-03-24T08:55:47Z</time>
      </trkpt>
      <trkpt lat="43.65619" lon="6.86341">
        <ele>559.2</ele>
        <time>2019-03-24T08:55:48Z</time>
      </trkpt>
      <trkpt lat="43.65612" lon="6.86326">
        <ele>558.6</ele>
        <time>2019-03-24T08:55:52Z</time>
      </trkpt>
      <trkpt lat="43.65606" lon="6.86298">
        <ele>558.8</ele>
        <time>2019-03-24T08:55:59Z</time>
      </trkpt>
      <trkpt lat="43.65601" lon="6.86268">
        <ele>560.8</ele>
        <time>2019-03-24T08:56:05Z</time>
      </trkpt>
      <trkpt lat="43.65606" lon="6.86249">
        <ele>562.4</ele>
        <time>2019-03-24T08:56:09Z</time>
      </trkpt>
      <trkpt lat="43.65609" lon="6.8624">
        <ele>563.4</ele>
        <time>2019-03-24T08:56:11Z</time>
      </trkpt>
      <trkpt lat="43.65611" lon="6.86235">
        <ele>564</ele>
        <time>2019-03-24T08:56:12Z</time>
      </trkpt>
      <trkpt lat="43.65613" lon="6.86228">
        <ele>565.4</ele>
        <time>2019-03-24T08:56:14Z</time>
      </trkpt>
      <trkpt lat="43.65614" lon="6.86221">
        <ele>567</ele>
        <time>2019-03-24T08:56:16Z</time>
      </trkpt>
      <trkpt lat="43.65615" lon="6.86218">
        <ele>567.6</ele>
        <time>2019-03-24T08:56:17Z</time>
      </trkpt>
      <trkpt lat="43.65618" lon="6.86214">
        <ele>568.4</ele>
        <time>2019-03-24T08:56:19Z</time>
      </trkpt>
      <trkpt lat="43.65622" lon="6.86203">
        <ele>569.6</ele>
        <time>2019-03-24T08:56:23Z</time>
      </trkpt>
      <trkpt lat="43.65625" lon="6.86194">
        <ele>571</ele>
        <time>2019-03-24T08:56:27Z</time>
      </trkpt>
      <trkpt lat="43.65629" lon="6.86187">
        <ele>571.6</ele>
        <time>2019-03-24T08:56:30Z</time>
      </trkpt>
      <trkpt lat="43.6563" lon="6.8618">
        <ele>572.2</ele>
        <time>2019-03-24T08:56:33Z</time>
      </trkpt>
      <trkpt lat="43.6563" lon="6.86174">
        <ele>573</ele>
        <time>2019-03-24T08:56:36Z</time>
      </trkpt>
      <trkpt lat="43.6563" lon="6.86173">
        <ele>573.6</ele>
        <time>2019-03-24T08:56:37Z</time>
      </trkpt>
      <trkpt lat="43.65631" lon="6.86165">
        <ele>574.8</ele>
        <time>2019-03-24T08:56:41Z</time>
      </trkpt>
      <trkpt lat="43.65631" lon="6.86162">
        <ele>575</ele>
        <time>2019-03-24T08:56:42Z</time>
      </trkpt>
      <trkpt lat="43.65632" lon="6.86156">
        <ele>576</ele>
        <time>2019-03-24T08:56:45Z</time>
      </trkpt>
      <trkpt lat="43.65633" lon="6.8615">
        <ele>577.6</ele>
        <time>2019-03-24T08:56:48Z</time>
      </trkpt>
      <trkpt lat="43.65633" lon="6.86144">
        <ele>578.6</ele>
        <time>2019-03-24T08:56:51Z</time>
      </trkpt>
      <trkpt lat="43.65633" lon="6.86141">
        <ele>578.8</ele>
        <time>2019-03-24T08:56:52Z</time>
      </trkpt>
      <trkpt lat="43.65633" lon="6.86132">
        <ele>579.8</ele>
        <time>2019-03-24T08:56:55Z</time>
      </trkpt>
      <trkpt lat="43.65634" lon="6.86125">
        <ele>581</ele>
        <time>2019-03-24T08:56:58Z</time>
      </trkpt>
      <trkpt lat="43.65635" lon="6.86119">
        <ele>582</ele>
        <time>2019-03-24T08:57:00Z</time>
      </trkpt>
      <trkpt lat="43.65635" lon="6.86113">
        <ele>582.2</ele>
        <time>2019-03-24T08:57:02Z</time>
      </trkpt>
      <trkpt lat="43.65634" lon="6.86102">
        <ele>583.2</ele>
        <time>2019-03-24T08:57:06Z</time>
      </trkpt>
      <trkpt lat="43.65634" lon="6.86099">
        <ele>583.2</ele>
        <time>2019-03-24T08:57:07Z</time>
      </trkpt>
      <trkpt lat="43.65634" lon="6.86091">
        <ele>584.2</ele>
        <time>2019-03-24T08:57:10Z</time>
      </trkpt>
      <trkpt lat="43.65633" lon="6.86081">
        <ele>584.4</ele>
        <time>2019-03-24T08:57:14Z</time>
      </trkpt>
      <trkpt lat="43.65631" lon="6.8607">
        <ele>585</ele>
        <time>2019-03-24T08:57:19Z</time>
      </trkpt>
      <trkpt lat="43.6563" lon="6.86068">
        <ele>584.8</ele>
        <time>2019-03-24T08:57:20Z</time>
      </trkpt>
      <trkpt lat="43.6563" lon="6.86061">
        <ele>585.6</ele>
        <time>2019-03-24T08:57:23Z</time>
      </trkpt>
      <trkpt lat="43.65627" lon="6.86053">
        <ele>586.2</ele>
        <time>2019-03-24T08:57:26Z</time>
      </trkpt>
      <trkpt lat="43.65627" lon="6.8605">
        <ele>586.6</ele>
        <time>2019-03-24T08:57:27Z</time>
      </trkpt>
      <trkpt lat="43.65625" lon="6.8604">
        <ele>587.8</ele>
        <time>2019-03-24T08:57:31Z</time>
      </trkpt>
      <trkpt lat="43.65625" lon="6.86036">
        <ele>589.2</ele>
        <time>2019-03-24T08:57:33Z</time>
      </trkpt>
      <trkpt lat="43.65624" lon="6.86033">
        <ele>589.8</ele>
        <time>2019-03-24T08:57:34Z</time>
      </trkpt>
      <trkpt lat="43.65623" lon="6.86028">
        <ele>590.4</ele>
        <time>2019-03-24T08:57:36Z</time>
      </trkpt>
      <trkpt lat="43.65622" lon="6.86023">
        <ele>591.4</ele>
        <time>2019-03-24T08:57:38Z</time>
      </trkpt>
      <trkpt lat="43.65621" lon="6.86018">
        <ele>592.8</ele>
        <time>2019-03-24T08:57:41Z</time>
      </trkpt>
      <trkpt lat="43.65621" lon="6.86014">
        <ele>594</ele>
        <time>2019-03-24T08:57:43Z</time>
      </trkpt>
      <trkpt lat="43.6562" lon="6.86009">
        <ele>595.6</ele>
        <time>2019-03-24T08:57:45Z</time>
      </trkpt>
      <trkpt lat="43.6562" lon="6.86007">
        <ele>596</ele>
        <time>2019-03-24T08:57:46Z</time>
      </trkpt>
      <trkpt lat="43.65618" lon="6.86003">
        <ele>596.4</ele>
        <time>2019-03-24T08:57:48Z</time>
      </trkpt>
      <trkpt lat="43.65617" lon="6.86001">
        <ele>596.6</ele>
        <time>2019-03-24T08:57:49Z</time>
      </trkpt>
      <trkpt lat="43.65614" lon="6.85992">
        <ele>597</ele>
        <time>2019-03-24T08:57:53Z</time>
      </trkpt>
      <trkpt lat="43.65611" lon="6.85983">
        <ele>597.6</ele>
        <time>2019-03-24T08:57:58Z</time>
      </trkpt>
      <trkpt lat="43.6561" lon="6.8598">
        <ele>598.2</ele>
        <time>2019-03-24T08:58:00Z</time>
      </trkpt>
      <trkpt lat="43.65608" lon="6.85976">
        <ele>598.8</ele>
        <time>2019-03-24T08:58:02Z</time>
      </trkpt>
      <trkpt lat="43.65606" lon="6.85961">
        <ele>600</ele>
        <time>2019-03-24T08:58:07Z</time>
      </trkpt>
      <trkpt lat="43.65603" lon="6.85946">
        <ele>601</ele>
        <time>2019-03-24T08:58:12Z</time>
      </trkpt>
      <trkpt lat="43.65601" lon="6.85938">
        <ele>601.8</ele>
        <time>2019-03-24T08:58:15Z</time>
      </trkpt>
      <trkpt lat="43.656" lon="6.85935">
        <ele>602</ele>
        <time>2019-03-24T08:58:16Z</time>
      </trkpt>
      <trkpt lat="43.65593" lon="6.85922">
        <ele>602.4</ele>
        <time>2019-03-24T08:58:22Z</time>
      </trkpt>
      <trkpt lat="43.65587" lon="6.85908">
        <ele>603</ele>
        <time>2019-03-24T08:58:28Z</time>
      </trkpt>
      <trkpt lat="43.65586" lon="6.85906">
        <ele>603.2</ele>
        <time>2019-03-24T08:58:29Z</time>
      </trkpt>
      <trkpt lat="43.6558" lon="6.85892">
        <ele>603.8</ele>
        <time>2019-03-24T08:58:35Z</time>
      </trkpt>
      <trkpt lat="43.65578" lon="6.85885">
        <ele>604.2</ele>
        <time>2019-03-24T08:58:39Z</time>
      </trkpt>
      <trkpt lat="43.65578" lon="6.85882">
        <ele>604.4</ele>
        <time>2019-03-24T08:58:40Z</time>
      </trkpt>
      <trkpt lat="43.65573" lon="6.85873">
        <ele>605.2</ele>
        <time>2019-03-24T08:58:45Z</time>
      </trkpt>
      <trkpt lat="43.6557" lon="6.85868">
        <ele>606</ele>
        <time>2019-03-24T08:58:48Z</time>
      </trkpt>
      <trkpt lat="43.65568" lon="6.85863">
        <ele>606.2</ele>
        <time>2019-03-24T08:58:50Z</time>
      </trkpt>
      <trkpt lat="43.65567" lon="6.85862">
        <ele>606.4</ele>
        <time>2019-03-24T08:58:51Z</time>
      </trkpt>
      <trkpt lat="43.65564" lon="6.85857">
        <ele>606.4</ele>
        <time>2019-03-24T08:58:53Z</time>
      </trkpt>
      <trkpt lat="43.65559" lon="6.85846">
        <ele>606.8</ele>
        <time>2019-03-24T08:58:57Z</time>
      </trkpt>
      <trkpt lat="43.65556" lon="6.85839">
        <ele>607.4</ele>
        <time>2019-03-24T08:58:59Z</time>
      </trkpt>
      <trkpt lat="43.65546" lon="6.85815">
        <ele>608</ele>
        <time>2019-03-24T08:59:05Z</time>
      </trkpt>
      <trkpt lat="43.65541" lon="6.85798">
        <ele>608.4</ele>
        <time>2019-03-24T08:59:09Z</time>
      </trkpt>
      <trkpt lat="43.65538" lon="6.85789">
        <ele>608.4</ele>
        <time>2019-03-24T08:59:11Z</time>
      </trkpt>
      <trkpt lat="43.65524" lon="6.85752">
        <ele>608.8</ele>
        <time>2019-03-24T08:59:20Z</time>
      </trkpt>
      <trkpt lat="43.65514" lon="6.85736">
        <ele>609.4</ele>
        <time>2019-03-24T08:59:24Z</time>
      </trkpt>
      <trkpt lat="43.6551" lon="6.85731">
        <ele>609.6</ele>
        <time>2019-03-24T08:59:25Z</time>
      </trkpt>
      <trkpt lat="43.65487" lon="6.857">
        <ele>608.8</ele>
        <time>2019-03-24T08:59:31Z</time>
      </trkpt>
      <trkpt lat="43.65463" lon="6.85666">
        <ele>608.4</ele>
        <time>2019-03-24T08:59:37Z</time>
      </trkpt>
      <trkpt lat="43.65459" lon="6.85662">
        <ele>608.4</ele>
        <time>2019-03-24T08:59:38Z</time>
      </trkpt>
      <trkpt lat="43.65455" lon="6.85656">
        <ele>608.2</ele>
        <time>2019-03-24T08:59:39Z</time>
      </trkpt>
      <trkpt lat="43.65444" lon="6.85638">
        <ele>608.2</ele>
        <time>2019-03-24T08:59:42Z</time>
      </trkpt>
      <trkpt lat="43.6543" lon="6.85614">
        <ele>608.4</ele>
        <time>2019-03-24T08:59:46Z</time>
      </trkpt>
      <trkpt lat="43.65412" lon="6.85585">
        <ele>608</ele>
        <time>2019-03-24T08:59:51Z</time>
      </trkpt>
      <trkpt lat="43.65408" lon="6.85579">
        <ele>608</ele>
        <time>2019-03-24T08:59:52Z</time>
      </trkpt>
      <trkpt lat="43.65395" lon="6.85557">
        <ele>607.2</ele>
        <time>2019-03-24T08:59:56Z</time>
      </trkpt>
      <trkpt lat="43.65389" lon="6.85547">
        <ele>607</ele>
        <time>2019-03-24T08:59:58Z</time>
      </trkpt>
      <trkpt lat="43.6538" lon="6.85529">
        <ele>606.4</ele>
        <time>2019-03-24T09:00:01Z</time>
      </trkpt>
      <trkpt lat="43.65374" lon="6.85517">
        <ele>606.2</ele>
        <time>2019-03-24T09:00:03Z</time>
      </trkpt>
      <trkpt lat="43.65368" lon="6.85505">
        <ele>606.2</ele>
        <time>2019-03-24T09:00:05Z</time>
      </trkpt>
      <trkpt lat="43.6536" lon="6.85489">
        <ele>606.4</ele>
        <time>2019-03-24T09:00:08Z</time>
      </trkpt>
      <trkpt lat="43.65349" lon="6.85468">
        <ele>606.2</ele>
        <time>2019-03-24T09:00:12Z</time>
      </trkpt>
      <trkpt lat="43.65344" lon="6.85458">
        <ele>606</ele>
        <time>2019-03-24T09:00:14Z</time>
      </trkpt>
      <trkpt lat="43.65335" lon="6.85444">
        <ele>605.8</ele>
        <time>2019-03-24T09:00:17Z</time>
      </trkpt>
      <trkpt lat="43.65332" lon="6.85439">
        <ele>605.6</ele>
        <time>2019-03-24T09:00:18Z</time>
      </trkpt>
      <trkpt lat="43.65329" lon="6.85433">
        <ele>605.6</ele>
        <time>2019-03-24T09:00:19Z</time>
      </trkpt>
      <trkpt lat="43.65312" lon="6.85402">
        <ele>606.4</ele>
        <time>2019-03-24T09:00:24Z</time>
      </trkpt>
      <trkpt lat="43.6531" lon="6.85395">
        <ele>606.8</ele>
        <time>2019-03-24T09:00:25Z</time>
      </trkpt>
      <trkpt lat="43.65301" lon="6.85376">
        <ele>607.2</ele>
        <time>2019-03-24T09:00:28Z</time>
      </trkpt>
      <trkpt lat="43.65299" lon="6.8537">
        <ele>607.6</ele>
        <time>2019-03-24T09:00:29Z</time>
      </trkpt>
      <trkpt lat="43.65293" lon="6.85357">
        <ele>608.2</ele>
        <time>2019-03-24T09:00:31Z</time>
      </trkpt>
      <trkpt lat="43.65289" lon="6.85345">
        <ele>608.4</ele>
        <time>2019-03-24T09:00:33Z</time>
      </trkpt>
      <trkpt lat="43.65287" lon="6.85339">
        <ele>608.6</ele>
        <time>2019-03-24T09:00:34Z</time>
      </trkpt>
      <trkpt lat="43.6528" lon="6.8533">
        <ele>609.2</ele>
        <time>2019-03-24T09:00:36Z</time>
      </trkpt>
      <trkpt lat="43.65271" lon="6.8532">
        <ele>609.6</ele>
        <time>2019-03-24T09:00:38Z</time>
      </trkpt>
      <trkpt lat="43.65258" lon="6.85302">
        <ele>610</ele>
        <time>2019-03-24T09:00:41Z</time>
      </trkpt>
      <trkpt lat="43.65242" lon="6.85267">
        <ele>610</ele>
        <time>2019-03-24T09:00:46Z</time>
      </trkpt>
      <trkpt lat="43.65236" lon="6.85253">
        <ele>609.8</ele>
        <time>2019-03-24T09:00:48Z</time>
      </trkpt>
      <trkpt lat="43.65231" lon="6.85239">
        <ele>609.8</ele>
        <time>2019-03-24T09:00:50Z</time>
      </trkpt>
      <trkpt lat="43.65228" lon="6.85231">
        <ele>609.6</ele>
        <time>2019-03-24T09:00:51Z</time>
      </trkpt>
      <trkpt lat="43.65217" lon="6.85202">
        <ele>609.4</ele>
        <time>2019-03-24T09:00:55Z</time>
      </trkpt>
      <trkpt lat="43.65205" lon="6.85171">
        <ele>609.4</ele>
        <time>2019-03-24T09:00:59Z</time>
      </trkpt>
      <trkpt lat="43.65201" lon="6.85164">
        <ele>609.2</ele>
        <time>2019-03-24T09:01:00Z</time>
      </trkpt>
      <trkpt lat="43.65182" lon="6.85136">
        <ele>608.6</ele>
        <time>2019-03-24T09:01:04Z</time>
      </trkpt>
      <trkpt lat="43.65172" lon="6.85124">
        <ele>608</ele>
        <time>2019-03-24T09:01:06Z</time>
      </trkpt>
      <trkpt lat="43.65158" lon="6.85106">
        <ele>607.4</ele>
        <time>2019-03-24T09:01:09Z</time>
      </trkpt>
      <trkpt lat="43.65141" lon="6.85082">
        <ele>606.6</ele>
        <time>2019-03-24T09:01:13Z</time>
      </trkpt>
      <trkpt lat="43.6513" lon="6.85068">
        <ele>606.4</ele>
        <time>2019-03-24T09:01:16Z</time>
      </trkpt>
      <trkpt lat="43.65127" lon="6.85062">
        <ele>606.2</ele>
        <time>2019-03-24T09:01:17Z</time>
      </trkpt>
      <trkpt lat="43.65124" lon="6.85056">
        <ele>606</ele>
        <time>2019-03-24T09:01:18Z</time>
      </trkpt>
      <trkpt lat="43.65115" lon="6.85038">
        <ele>605.2</ele>
        <time>2019-03-24T09:01:21Z</time>
      </trkpt>
      <trkpt lat="43.65104" lon="6.85014">
        <ele>605</ele>
        <time>2019-03-24T09:01:25Z</time>
      </trkpt>
      <trkpt lat="43.65079" lon="6.84974">
        <ele>604.4</ele>
        <time>2019-03-24T09:01:32Z</time>
      </trkpt>
      <trkpt lat="43.65063" lon="6.84945">
        <ele>605.2</ele>
        <time>2019-03-24T09:01:37Z</time>
      </trkpt>
      <trkpt lat="43.6506" lon="6.84939">
        <ele>605.2</ele>
        <time>2019-03-24T09:01:38Z</time>
      </trkpt>
      <trkpt lat="43.65033" lon="6.84892">
        <ele>605.6</ele>
        <time>2019-03-24T09:01:46Z</time>
      </trkpt>
      <trkpt lat="43.65006" lon="6.84842">
        <ele>606.2</ele>
        <time>2019-03-24T09:01:54Z</time>
      </trkpt>
      <trkpt lat="43.65003" lon="6.84836">
        <ele>606.2</ele>
        <time>2019-03-24T09:01:55Z</time>
      </trkpt>
      <trkpt lat="43.64982" lon="6.84785">
        <ele>606.8</ele>
        <time>2019-03-24T09:02:03Z</time>
      </trkpt>
      <trkpt lat="43.64973" lon="6.8476">
        <ele>607.4</ele>
        <time>2019-03-24T09:02:07Z</time>
      </trkpt>
      <trkpt lat="43.64967" lon="6.84748">
        <ele>607.6</ele>
        <time>2019-03-24T09:02:09Z</time>
      </trkpt>
      <trkpt lat="43.64947" lon="6.84707">
        <ele>606.8</ele>
        <time>2019-03-24T09:02:15Z</time>
      </trkpt>
      <trkpt lat="43.64937" lon="6.84677">
        <ele>606.8</ele>
        <time>2019-03-24T09:02:19Z</time>
      </trkpt>
      <trkpt lat="43.64934" lon="6.8466">
        <ele>606.6</ele>
        <time>2019-03-24T09:02:21Z</time>
      </trkpt>
      <trkpt lat="43.64934" lon="6.84652">
        <ele>606.6</ele>
        <time>2019-03-24T09:02:22Z</time>
      </trkpt>
      <trkpt lat="43.64931" lon="6.84629">
        <ele>606.6</ele>
        <time>2019-03-24T09:02:25Z</time>
      </trkpt>
      <trkpt lat="43.64919" lon="6.84594">
        <ele>606.8</ele>
        <time>2019-03-24T09:02:30Z</time>
      </trkpt>
      <trkpt lat="43.64897" lon="6.84545">
        <ele>606.8</ele>
        <time>2019-03-24T09:02:36Z</time>
      </trkpt>
      <trkpt lat="43.64885" lon="6.84508">
        <ele>606.2</ele>
        <time>2019-03-24T09:02:40Z</time>
      </trkpt>
      <trkpt lat="43.64884" lon="6.84498">
        <ele>606</ele>
        <time>2019-03-24T09:02:41Z</time>
      </trkpt>
      <trkpt lat="43.6488" lon="6.84479">
        <ele>605.2</ele>
        <time>2019-03-24T09:02:43Z</time>
      </trkpt>
      <trkpt lat="43.64877" lon="6.84471">
        <ele>604.8</ele>
        <time>2019-03-24T09:02:44Z</time>
      </trkpt>
      <trkpt lat="43.64874" lon="6.84463">
        <ele>604.4</ele>
        <time>2019-03-24T09:02:45Z</time>
      </trkpt>
      <trkpt lat="43.64873" lon="6.84455">
        <ele>604.2</ele>
        <time>2019-03-24T09:02:46Z</time>
      </trkpt>
      <trkpt lat="43.64875" lon="6.84443">
        <ele>604</ele>
        <time>2019-03-24T09:02:48Z</time>
      </trkpt>
      <trkpt lat="43.64876" lon="6.84439">
        <ele>603.8</ele>
        <time>2019-03-24T09:02:49Z</time>
      </trkpt>
      <trkpt lat="43.64879" lon="6.84435">
        <ele>603.6</ele>
        <time>2019-03-24T09:02:50Z</time>
      </trkpt>
      <trkpt lat="43.64884" lon="6.84432">
        <ele>603.4</ele>
        <time>2019-03-24T09:02:51Z</time>
      </trkpt>
      <trkpt lat="43.64901" lon="6.84415">
        <ele>603</ele>
        <time>2019-03-24T09:02:54Z</time>
      </trkpt>
      <trkpt lat="43.64912" lon="6.844">
        <ele>602.8</ele>
        <time>2019-03-24T09:02:56Z</time>
      </trkpt>
      <trkpt lat="43.64919" lon="6.84395">
        <ele>602.6</ele>
        <time>2019-03-24T09:02:57Z</time>
      </trkpt>
      <trkpt lat="43.64926" lon="6.84389">
        <ele>602.6</ele>
        <time>2019-03-24T09:02:58Z</time>
      </trkpt>
      <trkpt lat="43.64954" lon="6.84361">
        <ele>601.8</ele>
        <time>2019-03-24T09:03:02Z</time>
      </trkpt>
      <trkpt lat="43.64992" lon="6.84328">
        <ele>600.6</ele>
        <time>2019-03-24T09:03:07Z</time>
      </trkpt>
      <trkpt lat="43.65001" lon="6.84321">
        <ele>600.2</ele>
        <time>2019-03-24T09:03:08Z</time>
      </trkpt>
      <trkpt lat="43.6502" lon="6.84305">
        <ele>599.4</ele>
        <time>2019-03-24T09:03:10Z</time>
      </trkpt>
      <trkpt lat="43.65048" lon="6.84278">
        <ele>598</ele>
        <time>2019-03-24T09:03:13Z</time>
      </trkpt>
      <trkpt lat="43.65066" lon="6.84259">
        <ele>597</ele>
        <time>2019-03-24T09:03:15Z</time>
      </trkpt>
      <trkpt lat="43.65083" lon="6.84242">
        <ele>595.8</ele>
        <time>2019-03-24T09:03:17Z</time>
      </trkpt>
      <trkpt lat="43.65102" lon="6.84223">
        <ele>594.2</ele>
        <time>2019-03-24T09:03:19Z</time>
      </trkpt>
      <trkpt lat="43.65118" lon="6.84203">
        <ele>592.8</ele>
        <time>2019-03-24T09:03:21Z</time>
      </trkpt>
      <trkpt lat="43.65124" lon="6.84191">
        <ele>592</ele>
        <time>2019-03-24T09:03:22Z</time>
      </trkpt>
      <trkpt lat="43.6513" lon="6.8418">
        <ele>591.2</ele>
        <time>2019-03-24T09:03:23Z</time>
      </trkpt>
      <trkpt lat="43.65141" lon="6.84159">
        <ele>589.6</ele>
        <time>2019-03-24T09:03:25Z</time>
      </trkpt>
      <trkpt lat="43.65146" lon="6.84148">
        <ele>589</ele>
        <time>2019-03-24T09:03:26Z</time>
      </trkpt>
      <trkpt lat="43.65147" lon="6.84137">
        <ele>588</ele>
        <time>2019-03-24T09:03:27Z</time>
      </trkpt>
      <trkpt lat="43.65155" lon="6.84076">
        <ele>587</ele>
        <time>2019-03-24T09:03:32Z</time>
      </trkpt>
      <trkpt lat="43.65165" lon="6.83998">
        <ele>586</ele>
        <time>2019-03-24T09:03:39Z</time>
      </trkpt>
      <trkpt lat="43.65166" lon="6.83987">
        <ele>585.8</ele>
        <time>2019-03-24T09:03:40Z</time>
      </trkpt>
      <trkpt lat="43.6517" lon="6.83937">
        <ele>584.8</ele>
        <time>2019-03-24T09:03:45Z</time>
      </trkpt>
      <trkpt lat="43.65168" lon="6.83906">
        <ele>583.6</ele>
        <time>2019-03-24T09:03:48Z</time>
      </trkpt>
      <trkpt lat="43.65165" lon="6.83897">
        <ele>583</ele>
        <time>2019-03-24T09:03:49Z</time>
      </trkpt>
      <trkpt lat="43.65162" lon="6.83887">
        <ele>582.4</ele>
        <time>2019-03-24T09:03:50Z</time>
      </trkpt>
      <trkpt lat="43.65153" lon="6.83861">
        <ele>581</ele>
        <time>2019-03-24T09:03:53Z</time>
      </trkpt>
      <trkpt lat="43.65146" lon="6.83845">
        <ele>579.8</ele>
        <time>2019-03-24T09:03:55Z</time>
      </trkpt>
      <trkpt lat="43.65135" lon="6.83818">
        <ele>579.2</ele>
        <time>2019-03-24T09:03:59Z</time>
      </trkpt>
      <trkpt lat="43.65133" lon="6.83812">
        <ele>579</ele>
        <time>2019-03-24T09:04:00Z</time>
      </trkpt>
      <trkpt lat="43.65132" lon="6.83805">
        <ele>578.8</ele>
        <time>2019-03-24T09:04:01Z</time>
      </trkpt>
      <trkpt lat="43.65136" lon="6.83796">
        <ele>578.6</ele>
        <time>2019-03-24T09:04:03Z</time>
      </trkpt>
      <trkpt lat="43.65149" lon="6.83782">
        <ele>579.2</ele>
        <time>2019-03-24T09:04:07Z</time>
      </trkpt>
      <trkpt lat="43.65157" lon="6.83774">
        <ele>580</ele>
        <time>2019-03-24T09:04:10Z</time>
      </trkpt>
      <trkpt lat="43.6516" lon="6.83773">
        <ele>580.2</ele>
        <time>2019-03-24T09:04:11Z</time>
      </trkpt>
      <trkpt lat="43.65175" lon="6.8376">
        <ele>580.4</ele>
        <time>2019-03-24T09:04:16Z</time>
      </trkpt>
      <trkpt lat="43.6519" lon="6.83752">
        <ele>580.4</ele>
        <time>2019-03-24T09:04:21Z</time>
      </trkpt>
      <trkpt lat="43.65204" lon="6.83751">
        <ele>579.8</ele>
        <time>2019-03-24T09:04:26Z</time>
      </trkpt>
      <trkpt lat="43.65211" lon="6.83748">
        <ele>580.6</ele>
        <time>2019-03-24T09:04:30Z</time>
      </trkpt>
      <trkpt lat="43.65215" lon="6.83745">
        <ele>581.2</ele>
        <time>2019-03-24T09:04:32Z</time>
      </trkpt>
      <trkpt lat="43.65221" lon="6.8374">
        <ele>582.2</ele>
        <time>2019-03-24T09:04:36Z</time>
      </trkpt>
      <trkpt lat="43.65228" lon="6.83735">
        <ele>583.4</ele>
        <time>2019-03-24T09:04:40Z</time>
      </trkpt>
      <trkpt lat="43.65233" lon="6.83731">
        <ele>584.2</ele>
        <time>2019-03-24T09:04:43Z</time>
      </trkpt>
      <trkpt lat="43.65234" lon="6.83729">
        <ele>584.6</ele>
        <time>2019-03-24T09:04:44Z</time>
      </trkpt>
      <trkpt lat="43.6524" lon="6.83719">
        <ele>585.4</ele>
        <time>2019-03-24T09:04:48Z</time>
      </trkpt>
      <trkpt lat="43.65241" lon="6.83717">
        <ele>585.8</ele>
        <time>2019-03-24T09:04:49Z</time>
      </trkpt>
      <trkpt lat="43.65245" lon="6.83709">
        <ele>586.8</ele>
        <time>2019-03-24T09:04:53Z</time>
      </trkpt>
      <trkpt lat="43.65246" lon="6.83704">
        <ele>587.2</ele>
        <time>2019-03-24T09:04:55Z</time>
      </trkpt>
      <trkpt lat="43.65253" lon="6.8369">
        <ele>587</ele>
        <time>2019-03-24T09:05:00Z</time>
      </trkpt>
      <trkpt lat="43.65263" lon="6.83672">
        <ele>587.4</ele>
        <time>2019-03-24T09:05:06Z</time>
      </trkpt>
      <trkpt lat="43.6527" lon="6.8366">
        <ele>586.8</ele>
        <time>2019-03-24T09:05:11Z</time>
      </trkpt>
      <trkpt lat="43.65278" lon="6.83658">
        <ele>585.4</ele>
        <time>2019-03-24T09:05:15Z</time>
      </trkpt>
      <trkpt lat="43.6528" lon="6.83658">
        <ele>585</ele>
        <time>2019-03-24T09:05:16Z</time>
      </trkpt>
      <trkpt lat="43.65282" lon="6.83658">
        <ele>584.6</ele>
        <time>2019-03-24T09:05:17Z</time>
      </trkpt>
      <trkpt lat="43.65284" lon="6.83659">
        <ele>584</ele>
        <time>2019-03-24T09:05:18Z</time>
      </trkpt>
      <trkpt lat="43.65292" lon="6.83661">
        <ele>584</ele>
        <time>2019-03-24T09:05:22Z</time>
      </trkpt>
      <trkpt lat="43.65301" lon="6.83652">
        <ele>584.2</ele>
        <time>2019-03-24T09:05:27Z</time>
      </trkpt>
      <trkpt lat="43.65309" lon="6.83641">
        <ele>584.2</ele>
        <time>2019-03-24T09:05:32Z</time>
      </trkpt>
      <trkpt lat="43.65312" lon="6.8364">
        <ele>584.2</ele>
        <time>2019-03-24T09:05:33Z</time>
      </trkpt>
      <trkpt lat="43.65325" lon="6.83635">
        <ele>584</ele>
        <time>2019-03-24T09:05:39Z</time>
      </trkpt>
      <trkpt lat="43.65342" lon="6.83628">
        <ele>584.4</ele>
        <time>2019-03-24T09:05:46Z</time>
      </trkpt>
      <trkpt lat="43.65351" lon="6.83614">
        <ele>584.4</ele>
        <time>2019-03-24T09:05:51Z</time>
      </trkpt>
      <trkpt lat="43.65357" lon="6.83604">
        <ele>583.8</ele>
        <time>2019-03-24T09:05:56Z</time>
      </trkpt>
      <trkpt lat="43.65359" lon="6.83602">
        <ele>583.6</ele>
        <time>2019-03-24T09:05:58Z</time>
      </trkpt>
      <trkpt lat="43.65364" lon="6.83603">
        <ele>583.2</ele>
        <time>2019-03-24T09:06:00Z</time>
      </trkpt>
      <trkpt lat="43.65369" lon="6.83605">
        <ele>583</ele>
        <time>2019-03-24T09:06:02Z</time>
      </trkpt>
      <trkpt lat="43.65378" lon="6.83604">
        <ele>583</ele>
        <time>2019-03-24T09:06:05Z</time>
      </trkpt>
      <trkpt lat="43.6539" lon="6.83593">
        <ele>583.2</ele>
        <time>2019-03-24T09:06:11Z</time>
      </trkpt>
      <trkpt lat="43.65404" lon="6.83579">
        <ele>583.6</ele>
        <time>2019-03-24T09:06:18Z</time>
      </trkpt>
      <trkpt lat="43.6541" lon="6.83574">
        <ele>584</ele>
        <time>2019-03-24T09:06:21Z</time>
      </trkpt>
      <trkpt lat="43.6542" lon="6.8357">
        <ele>584.4</ele>
        <time>2019-03-24T09:06:25Z</time>
      </trkpt>
      <trkpt lat="43.65433" lon="6.83559">
        <ele>585</ele>
        <time>2019-03-24T09:06:32Z</time>
      </trkpt>
      <trkpt lat="43.65437" lon="6.83535">
        <ele>585</ele>
        <time>2019-03-24T09:06:39Z</time>
      </trkpt>
      <trkpt lat="43.65442" lon="6.83512">
        <ele>586.2</ele>
        <time>2019-03-24T09:06:45Z</time>
      </trkpt>
      <trkpt lat="43.65442" lon="6.83508">
        <ele>586.2</ele>
        <time>2019-03-24T09:06:46Z</time>
      </trkpt>
      <trkpt lat="43.6545" lon="6.83479">
        <ele>587</ele>
        <time>2019-03-24T09:06:54Z</time>
      </trkpt>
      <trkpt lat="43.65451" lon="6.83476">
        <ele>587.2</ele>
        <time>2019-03-24T09:06:55Z</time>
      </trkpt>
      <trkpt lat="43.65459" lon="6.83462">
        <ele>586.8</ele>
        <time>2019-03-24T09:07:01Z</time>
      </trkpt>
      <trkpt lat="43.65468" lon="6.83444">
        <ele>587.4</ele>
        <time>2019-03-24T09:07:08Z</time>
      </trkpt>
      <trkpt lat="43.65476" lon="6.83431">
        <ele>587.8</ele>
        <time>2019-03-24T09:07:14Z</time>
      </trkpt>
      <trkpt lat="43.65479" lon="6.83428">
        <ele>588.2</ele>
        <time>2019-03-24T09:07:16Z</time>
      </trkpt>
      <trkpt lat="43.65485" lon="6.83424">
        <ele>589.2</ele>
        <time>2019-03-24T09:07:20Z</time>
      </trkpt>
      <trkpt lat="43.65496" lon="6.83421">
        <ele>590.6</ele>
        <time>2019-03-24T09:07:27Z</time>
      </trkpt>
      <trkpt lat="43.65501" lon="6.83419">
        <ele>591.6</ele>
        <time>2019-03-24T09:07:30Z</time>
      </trkpt>
      <trkpt lat="43.65508" lon="6.83416">
        <ele>592.4</ele>
        <time>2019-03-24T09:07:34Z</time>
      </trkpt>
      <trkpt lat="43.65514" lon="6.83414">
        <ele>592.8</ele>
        <time>2019-03-24T09:07:37Z</time>
      </trkpt>
      <trkpt lat="43.65517" lon="6.83412">
        <ele>593</ele>
        <time>2019-03-24T09:07:39Z</time>
      </trkpt>
      <trkpt lat="43.65525" lon="6.8341">
        <ele>593.6</ele>
        <time>2019-03-24T09:07:44Z</time>
      </trkpt>
      <trkpt lat="43.65527" lon="6.83409">
        <ele>593.6</ele>
        <time>2019-03-24T09:07:45Z</time>
      </trkpt>
      <trkpt lat="43.65528" lon="6.83406">
        <ele>593.8</ele>
        <time>2019-03-24T09:07:47Z</time>
      </trkpt>
      <trkpt lat="43.65529" lon="6.83404">
        <ele>593.8</ele>
        <time>2019-03-24T09:07:48Z</time>
      </trkpt>
      <trkpt lat="43.65531" lon="6.834">
        <ele>594.4</ele>
        <time>2019-03-24T09:07:50Z</time>
      </trkpt>
      <trkpt lat="43.65534" lon="6.83396">
        <ele>594.8</ele>
        <time>2019-03-24T09:07:52Z</time>
      </trkpt>
      <trkpt lat="43.65535" lon="6.83386">
        <ele>594.4</ele>
        <time>2019-03-24T09:07:56Z</time>
      </trkpt>
      <trkpt lat="43.65541" lon="6.83372">
        <ele>594.8</ele>
        <time>2019-03-24T09:08:02Z</time>
      </trkpt>
      <trkpt lat="43.6555" lon="6.83359">
        <ele>595</ele>
        <time>2019-03-24T09:08:08Z</time>
      </trkpt>
      <trkpt lat="43.65561" lon="6.8335">
        <ele>595.8</ele>
        <time>2019-03-24T09:08:13Z</time>
      </trkpt>
      <trkpt lat="43.6557" lon="6.83341">
        <ele>595.6</ele>
        <time>2019-03-24T09:08:19Z</time>
      </trkpt>
      <trkpt lat="43.65573" lon="6.83335">
        <ele>596</ele>
        <time>2019-03-24T09:08:22Z</time>
      </trkpt>
      <trkpt lat="43.65575" lon="6.83329">
        <ele>596.4</ele>
        <time>2019-03-24T09:08:25Z</time>
      </trkpt>
      <trkpt lat="43.65575" lon="6.83324">
        <ele>596.8</ele>
        <time>2019-03-24T09:08:27Z</time>
      </trkpt>
      <trkpt lat="43.65574" lon="6.83322">
        <ele>597.2</ele>
        <time>2019-03-24T09:08:28Z</time>
      </trkpt>
      <trkpt lat="43.65574" lon="6.83319">
        <ele>597.2</ele>
        <time>2019-03-24T09:08:30Z</time>
      </trkpt>
      <trkpt lat="43.65573" lon="6.8331">
        <ele>597.8</ele>
        <time>2019-03-24T09:08:38Z</time>
      </trkpt>
      <trkpt lat="43.65571" lon="6.83302">
        <ele>598</ele>
        <time>2019-03-24T09:08:43Z</time>
      </trkpt>
      <trkpt lat="43.6557" lon="6.833">
        <ele>598.2</ele>
        <time>2019-03-24T09:08:44Z</time>
      </trkpt>
      <trkpt lat="43.65569" lon="6.83295">
        <ele>598.6</ele>
        <time>2019-03-24T09:08:46Z</time>
      </trkpt>
      <trkpt lat="43.65567" lon="6.83288">
        <ele>599</ele>
        <time>2019-03-24T09:08:49Z</time>
      </trkpt>
      <trkpt lat="43.65566" lon="6.83284">
        <ele>599.2</ele>
        <time>2019-03-24T09:08:51Z</time>
      </trkpt>
      <trkpt lat="43.65563" lon="6.8328">
        <ele>599.6</ele>
        <time>2019-03-24T09:08:54Z</time>
      </trkpt>
      <trkpt lat="43.65562" lon="6.83276">
        <ele>599.8</ele>
        <time>2019-03-24T09:09:07Z</time>
      </trkpt>
      <trkpt lat="43.65563" lon="6.83273">
        <ele>599.8</ele>
        <time>2019-03-24T09:09:08Z</time>
      </trkpt>
      <trkpt lat="43.65565" lon="6.83261">
        <ele>598.2</ele>
        <time>2019-03-24T09:09:13Z</time>
      </trkpt>
      <trkpt lat="43.65576" lon="6.83245">
        <ele>597.2</ele>
        <time>2019-03-24T09:09:17Z</time>
      </trkpt>
      <trkpt lat="43.6558" lon="6.83242">
        <ele>596.8</ele>
        <time>2019-03-24T09:09:18Z</time>
      </trkpt>
      <trkpt lat="43.65586" lon="6.83236">
        <ele>595.6</ele>
        <time>2019-03-24T09:09:20Z</time>
      </trkpt>
      <trkpt lat="43.65594" lon="6.83227">
        <ele>594.2</ele>
        <time>2019-03-24T09:09:23Z</time>
      </trkpt>
      <trkpt lat="43.65597" lon="6.83222">
        <ele>593.6</ele>
        <time>2019-03-24T09:09:26Z</time>
      </trkpt>
      <trkpt lat="43.65596" lon="6.83219">
        <ele>593.4</ele>
        <time>2019-03-24T09:09:27Z</time>
      </trkpt>
      <trkpt lat="43.65596" lon="6.83217">
        <ele>593.2</ele>
        <time>2019-03-24T09:09:28Z</time>
      </trkpt>
      <trkpt lat="43.65595" lon="6.83211">
        <ele>591.4</ele>
        <time>2019-03-24T09:09:40Z</time>
      </trkpt>
      <trkpt lat="43.65594" lon="6.83209">
        <ele>591.2</ele>
        <time>2019-03-24T09:09:41Z</time>
      </trkpt>
      <trkpt lat="43.65588" lon="6.83204">
        <ele>590</ele>
        <time>2019-03-24T09:09:45Z</time>
      </trkpt>
      <trkpt lat="43.65585" lon="6.83199">
        <ele>589</ele>
        <time>2019-03-24T09:09:47Z</time>
      </trkpt>
      <trkpt lat="43.65583" lon="6.83191">
        <ele>587.4</ele>
        <time>2019-03-24T09:09:50Z</time>
      </trkpt>
      <trkpt lat="43.65583" lon="6.83187">
        <ele>587</ele>
        <time>2019-03-24T09:09:51Z</time>
      </trkpt>
      <trkpt lat="43.65586" lon="6.8318">
        <ele>586</ele>
        <time>2019-03-24T09:09:53Z</time>
      </trkpt>
      <trkpt lat="43.65588" lon="6.83176">
        <ele>585.4</ele>
        <time>2019-03-24T09:09:54Z</time>
      </trkpt>
      <trkpt lat="43.65591" lon="6.83174">
        <ele>585</ele>
        <time>2019-03-24T09:09:55Z</time>
      </trkpt>
      <trkpt lat="43.65595" lon="6.8317">
        <ele>584.4</ele>
        <time>2019-03-24T09:09:56Z</time>
      </trkpt>
      <trkpt lat="43.65596" lon="6.83168">
        <ele>584</ele>
        <time>2019-03-24T09:09:57Z</time>
      </trkpt>
      <trkpt lat="43.65597" lon="6.83167">
        <ele>583.6</ele>
        <time>2019-03-24T09:09:58Z</time>
      </trkpt>
      <trkpt lat="43.65603" lon="6.83162">
        <ele>583</ele>
        <time>2019-03-24T09:10:02Z</time>
      </trkpt>
      <trkpt lat="43.65607" lon="6.83155">
        <ele>581.4</ele>
        <time>2019-03-24T09:10:06Z</time>
      </trkpt>
      <trkpt lat="43.65605" lon="6.8315">
        <ele>580.4</ele>
        <time>2019-03-24T09:10:08Z</time>
      </trkpt>
      <trkpt lat="43.65603" lon="6.83146">
        <ele>579.6</ele>
        <time>2019-03-24T09:10:10Z</time>
      </trkpt>
      <trkpt lat="43.65601" lon="6.83147">
        <ele>578.8</ele>
        <time>2019-03-24T09:10:11Z</time>
      </trkpt>
      <trkpt lat="43.65596" lon="6.83141">
        <ele>577.6</ele>
        <time>2019-03-24T09:10:14Z</time>
      </trkpt>
      <trkpt lat="43.65595" lon="6.83139">
        <ele>577.2</ele>
        <time>2019-03-24T09:10:15Z</time>
      </trkpt>
      <trkpt lat="43.65594" lon="6.83136">
        <ele>576.6</ele>
        <time>2019-03-24T09:10:16Z</time>
      </trkpt>
      <trkpt lat="43.65591" lon="6.83134">
        <ele>575.8</ele>
        <time>2019-03-24T09:10:17Z</time>
      </trkpt>
      <trkpt lat="43.65589" lon="6.83133">
        <ele>575</ele>
        <time>2019-03-24T09:10:18Z</time>
      </trkpt>
      <trkpt lat="43.65589" lon="6.83133">
        <ele>574.4</ele>
        <time>2019-03-24T09:10:19Z</time>
      </trkpt>
      <trkpt lat="43.65585" lon="6.83129">
        <ele>573.2</ele>
        <time>2019-03-24T09:10:41Z</time>
      </trkpt>
      <trkpt lat="43.65582" lon="6.83127">
        <ele>572.8</ele>
        <time>2019-03-24T09:10:42Z</time>
      </trkpt>
      <trkpt lat="43.6558" lon="6.83124">
        <ele>572</ele>
        <time>2019-03-24T09:10:43Z</time>
      </trkpt>
      <trkpt lat="43.65576" lon="6.83122">
        <ele>571.4</ele>
        <time>2019-03-24T09:10:44Z</time>
      </trkpt>
      <trkpt lat="43.65573" lon="6.83123">
        <ele>570.8</ele>
        <time>2019-03-24T09:10:45Z</time>
      </trkpt>
      <trkpt lat="43.65567" lon="6.83119">
        <ele>569.2</ele>
        <time>2019-03-24T09:10:47Z</time>
      </trkpt>
      <trkpt lat="43.65563" lon="6.83117">
        <ele>567.8</ele>
        <time>2019-03-24T09:10:48Z</time>
      </trkpt>
      <trkpt lat="43.65559" lon="6.83117">
        <ele>566.2</ele>
        <time>2019-03-24T09:10:49Z</time>
      </trkpt>
      <trkpt lat="43.65556" lon="6.83116">
        <ele>564.8</ele>
        <time>2019-03-24T09:10:50Z</time>
      </trkpt>
      <trkpt lat="43.65552" lon="6.83115">
        <ele>563.4</ele>
        <time>2019-03-24T09:10:51Z</time>
      </trkpt>
      <trkpt lat="43.65549" lon="6.83115">
        <ele>561.6</ele>
        <time>2019-03-24T09:10:52Z</time>
      </trkpt>
      <trkpt lat="43.65545" lon="6.83116">
        <ele>560.2</ele>
        <time>2019-03-24T09:10:53Z</time>
      </trkpt>
      <trkpt lat="43.65542" lon="6.83117">
        <ele>559</ele>
        <time>2019-03-24T09:10:54Z</time>
      </trkpt>
      <trkpt lat="43.65538" lon="6.83116">
        <ele>557.8</ele>
        <time>2019-03-24T09:10:55Z</time>
      </trkpt>
      <trkpt lat="43.65536" lon="6.83112">
        <ele>556.8</ele>
        <time>2019-03-24T09:10:56Z</time>
      </trkpt>
      <trkpt lat="43.65532" lon="6.8311">
        <ele>555.4</ele>
        <time>2019-03-24T09:10:57Z</time>
      </trkpt>
      <trkpt lat="43.65529" lon="6.83111">
        <ele>554.4</ele>
        <time>2019-03-24T09:10:58Z</time>
      </trkpt>
      <trkpt lat="43.65527" lon="6.83113">
        <ele>553.2</ele>
        <time>2019-03-24T09:10:59Z</time>
      </trkpt>
      <trkpt lat="43.65524" lon="6.83114">
        <ele>552.4</ele>
        <time>2019-03-24T09:11:00Z</time>
      </trkpt>
      <trkpt lat="43.65521" lon="6.83114">
        <ele>551.2</ele>
        <time>2019-03-24T09:11:01Z</time>
      </trkpt>
      <trkpt lat="43.65516" lon="6.8311">
        <ele>549.6</ele>
        <time>2019-03-24T09:11:03Z</time>
      </trkpt>
      <trkpt lat="43.65514" lon="6.83109">
        <ele>549</ele>
        <time>2019-03-24T09:11:04Z</time>
      </trkpt>
      <trkpt lat="43.65513" lon="6.83109">
        <ele>548.4</ele>
        <time>2019-03-24T09:11:05Z</time>
      </trkpt>
      <trkpt lat="43.65512" lon="6.83109">
        <ele>548</ele>
        <time>2019-03-24T09:11:12Z</time>
      </trkpt>
      <trkpt lat="43.65506" lon="6.83109">
        <ele>548</ele>
        <time>2019-03-24T09:11:16Z</time>
      </trkpt>
      <trkpt lat="43.65504" lon="6.83107">
        <ele>547.8</ele>
        <time>2019-03-24T09:11:39Z</time>
      </trkpt>
      <trkpt lat="43.65503" lon="6.83107">
        <ele>548.2</ele>
        <time>2019-03-24T09:11:40Z</time>
      </trkpt>
      <trkpt lat="43.65501" lon="6.83106">
        <ele>548.4</ele>
        <time>2019-03-24T09:11:43Z</time>
      </trkpt>
      <trkpt lat="43.65501" lon="6.83106">
        <ele>548.6</ele>
        <time>2019-03-24T09:11:44Z</time>
      </trkpt>
      <trkpt lat="43.65498" lon="6.83108">
        <ele>546.4</ele>
        <time>2019-03-24T09:11:51Z</time>
      </trkpt>
      <trkpt lat="43.65496" lon="6.83107">
        <ele>545.6</ele>
        <time>2019-03-24T09:11:53Z</time>
      </trkpt>
      <trkpt lat="43.65493" lon="6.83108">
        <ele>545.2</ele>
        <time>2019-03-24T09:11:54Z</time>
      </trkpt>
      <trkpt lat="43.65494" lon="6.83106">
        <ele>543.2</ele>
        <time>2019-03-24T09:12:17Z</time>
      </trkpt>
      <trkpt lat="43.6549" lon="6.83109">
        <ele>543.6</ele>
        <time>2019-03-24T09:12:23Z</time>
      </trkpt>
      <trkpt lat="43.65485" lon="6.83107">
        <ele>542.8</ele>
        <time>2019-03-24T09:12:25Z</time>
      </trkpt>
      <trkpt lat="43.65479" lon="6.83104">
        <ele>541.2</ele>
        <time>2019-03-24T09:12:27Z</time>
      </trkpt>
      <trkpt lat="43.65476" lon="6.83102">
        <ele>539.8</ele>
        <time>2019-03-24T09:12:28Z</time>
      </trkpt>
      <trkpt lat="43.65473" lon="6.83101">
        <ele>538.4</ele>
        <time>2019-03-24T09:12:29Z</time>
      </trkpt>
      <trkpt lat="43.6547" lon="6.831">
        <ele>537</ele>
        <time>2019-03-24T09:12:30Z</time>
      </trkpt>
      <trkpt lat="43.65468" lon="6.83097">
        <ele>536</ele>
        <time>2019-03-24T09:12:31Z</time>
      </trkpt>
      <trkpt lat="43.65465" lon="6.83095">
        <ele>534.6</ele>
        <time>2019-03-24T09:12:32Z</time>
      </trkpt>
      <trkpt lat="43.6546" lon="6.83094">
        <ele>533.4</ele>
        <time>2019-03-24T09:12:33Z</time>
      </trkpt>
      <trkpt lat="43.65454" lon="6.83095">
        <ele>532.4</ele>
        <time>2019-03-24T09:12:34Z</time>
      </trkpt>
      <trkpt lat="43.6545" lon="6.83096">
        <ele>531.4</ele>
        <time>2019-03-24T09:12:35Z</time>
      </trkpt>
      <trkpt lat="43.65447" lon="6.83097">
        <ele>530.4</ele>
        <time>2019-03-24T09:12:36Z</time>
      </trkpt>
      <trkpt lat="43.65443" lon="6.83102">
        <ele>528.8</ele>
        <time>2019-03-24T09:12:38Z</time>
      </trkpt>
      <trkpt lat="43.65437" lon="6.83111">
        <ele>527.4</ele>
        <time>2019-03-24T09:12:40Z</time>
      </trkpt>
      <trkpt lat="43.65431" lon="6.83119">
        <ele>526</ele>
        <time>2019-03-24T09:12:42Z</time>
      </trkpt>
      <trkpt lat="43.65423" lon="6.83133">
        <ele>525</ele>
        <time>2019-03-24T09:12:45Z</time>
      </trkpt>
      <trkpt lat="43.65417" lon="6.83148">
        <ele>525</ele>
        <time>2019-03-24T09:12:48Z</time>
      </trkpt>
      <trkpt lat="43.65409" lon="6.83161">
        <ele>525.6</ele>
        <time>2019-03-24T09:12:51Z</time>
      </trkpt>
      <trkpt lat="43.65401" lon="6.8317">
        <ele>525.8</ele>
        <time>2019-03-24T09:12:53Z</time>
      </trkpt>
      <trkpt lat="43.65396" lon="6.83172">
        <ele>526</ele>
        <time>2019-03-24T09:12:54Z</time>
      </trkpt>
      <trkpt lat="43.65384" lon="6.83177">
        <ele>525.4</ele>
        <time>2019-03-24T09:12:56Z</time>
      </trkpt>
      <trkpt lat="43.65379" lon="6.83183">
        <ele>525</ele>
        <time>2019-03-24T09:12:57Z</time>
      </trkpt>
      <trkpt lat="43.65374" lon="6.83188">
        <ele>524.6</ele>
        <time>2019-03-24T09:12:58Z</time>
      </trkpt>
      <trkpt lat="43.65372" lon="6.83193">
        <ele>524.2</ele>
        <time>2019-03-24T09:12:59Z</time>
      </trkpt>
      <trkpt lat="43.65369" lon="6.83198">
        <ele>523.8</ele>
        <time>2019-03-24T09:13:00Z</time>
      </trkpt>
      <trkpt lat="43.6536" lon="6.83207">
        <ele>522.8</ele>
        <time>2019-03-24T09:13:03Z</time>
      </trkpt>
      <trkpt lat="43.6536" lon="6.83211">
        <ele>522.6</ele>
        <time>2019-03-24T09:13:04Z</time>
      </trkpt>
      <trkpt lat="43.65354" lon="6.83222">
        <ele>521.2</ele>
        <time>2019-03-24T09:13:08Z</time>
      </trkpt>
      <trkpt lat="43.65351" lon="6.83229">
        <ele>520.6</ele>
        <time>2019-03-24T09:13:10Z</time>
      </trkpt>
      <trkpt lat="43.65347" lon="6.83231">
        <ele>519.6</ele>
        <time>2019-03-24T09:13:16Z</time>
      </trkpt>
      <trkpt lat="43.65338" lon="6.8323">
        <ele>519</ele>
        <time>2019-03-24T09:13:19Z</time>
      </trkpt>
      <trkpt lat="43.65336" lon="6.83234">
        <ele>518.8</ele>
        <time>2019-03-24T09:13:21Z</time>
      </trkpt>
      <trkpt lat="43.65334" lon="6.83237">
        <ele>518.6</ele>
        <time>2019-03-24T09:13:23Z</time>
      </trkpt>
      <trkpt lat="43.65331" lon="6.83243">
        <ele>518.4</ele>
        <time>2019-03-24T09:13:29Z</time>
      </trkpt>
      <trkpt lat="43.65327" lon="6.83246">
        <ele>518.4</ele>
        <time>2019-03-24T09:13:31Z</time>
      </trkpt>
      <trkpt lat="43.65312" lon="6.83253">
        <ele>518.8</ele>
        <time>2019-03-24T09:13:38Z</time>
      </trkpt>
      <trkpt lat="43.653" lon="6.83261">
        <ele>518.2</ele>
        <time>2019-03-24T09:13:43Z</time>
      </trkpt>
      <trkpt lat="43.65298" lon="6.83263">
        <ele>518</ele>
        <time>2019-03-24T09:13:44Z</time>
      </trkpt>
      <trkpt lat="43.65294" lon="6.83265">
        <ele>517.4</ele>
        <time>2019-03-24T09:13:47Z</time>
      </trkpt>
      <trkpt lat="43.65287" lon="6.83268">
        <ele>516.8</ele>
        <time>2019-03-24T09:13:49Z</time>
      </trkpt>
      <trkpt lat="43.65269" lon="6.83274">
        <ele>515.6</ele>
        <time>2019-03-24T09:13:55Z</time>
      </trkpt>
      <trkpt lat="43.65255" lon="6.83285">
        <ele>515.4</ele>
        <time>2019-03-24T09:14:01Z</time>
      </trkpt>
      <trkpt lat="43.65245" lon="6.83293">
        <ele>514.8</ele>
        <time>2019-03-24T09:14:05Z</time>
      </trkpt>
      <trkpt lat="43.6524" lon="6.83301">
        <ele>514.4</ele>
        <time>2019-03-24T09:14:07Z</time>
      </trkpt>
      <trkpt lat="43.65238" lon="6.83304">
        <ele>514.4</ele>
        <time>2019-03-24T09:14:09Z</time>
      </trkpt>
      <trkpt lat="43.6523" lon="6.8331">
        <ele>515.8</ele>
        <time>2019-03-24T09:14:12Z</time>
      </trkpt>
      <trkpt lat="43.65223" lon="6.83313">
        <ele>517</ele>
        <time>2019-03-24T09:14:14Z</time>
      </trkpt>
      <trkpt lat="43.6522" lon="6.83315">
        <ele>518</ele>
        <time>2019-03-24T09:14:15Z</time>
      </trkpt>
      <trkpt lat="43.65217" lon="6.83316">
        <ele>519</ele>
        <time>2019-03-24T09:14:16Z</time>
      </trkpt>
      <trkpt lat="43.65208" lon="6.83319">
        <ele>522.6</ele>
        <time>2019-03-24T09:14:20Z</time>
      </trkpt>
      <trkpt lat="43.65192" lon="6.83319">
        <ele>523.4</ele>
        <time>2019-03-24T09:14:25Z</time>
      </trkpt>
      <trkpt lat="43.65188" lon="6.83319">
        <ele>523.8</ele>
        <time>2019-03-24T09:14:26Z</time>
      </trkpt>
      <trkpt lat="43.65173" lon="6.83319">
        <ele>524.8</ele>
        <time>2019-03-24T09:14:30Z</time>
      </trkpt>
      <trkpt lat="43.65164" lon="6.83318">
        <ele>524</ele>
        <time>2019-03-24T09:14:34Z</time>
      </trkpt>
      <trkpt lat="43.65163" lon="6.83317">
        <ele>523.8</ele>
        <time>2019-03-24T09:14:35Z</time>
      </trkpt>
      <trkpt lat="43.65157" lon="6.83317">
        <ele>522.4</ele>
        <time>2019-03-24T09:14:37Z</time>
      </trkpt>
      <trkpt lat="43.65151" lon="6.83317">
        <ele>522</ele>
        <time>2019-03-24T09:14:38Z</time>
      </trkpt>
      <trkpt lat="43.65136" lon="6.83315">
        <ele>521</ele>
        <time>2019-03-24T09:14:41Z</time>
      </trkpt>
      <trkpt lat="43.65132" lon="6.83314">
        <ele>520.6</ele>
        <time>2019-03-24T09:14:42Z</time>
      </trkpt>
      <trkpt lat="43.65127" lon="6.83313">
        <ele>520.2</ele>
        <time>2019-03-24T09:14:43Z</time>
      </trkpt>
      <trkpt lat="43.65122" lon="6.83311">
        <ele>519.6</ele>
        <time>2019-03-24T09:14:44Z</time>
      </trkpt>
      <trkpt lat="43.65106" lon="6.83306">
        <ele>518.4</ele>
        <time>2019-03-24T09:14:47Z</time>
      </trkpt>
      <trkpt lat="43.65102" lon="6.83303">
        <ele>517.8</ele>
        <time>2019-03-24T09:14:48Z</time>
      </trkpt>
      <trkpt lat="43.651" lon="6.83299">
        <ele>517.2</ele>
        <time>2019-03-24T09:14:49Z</time>
      </trkpt>
      <trkpt lat="43.65099" lon="6.83292">
        <ele>515.8</ele>
        <time>2019-03-24T09:14:51Z</time>
      </trkpt>
      <trkpt lat="43.65098" lon="6.83284">
        <ele>514.4</ele>
        <time>2019-03-24T09:14:53Z</time>
      </trkpt>
      <trkpt lat="43.65094" lon="6.83274">
        <ele>513.2</ele>
        <time>2019-03-24T09:14:55Z</time>
      </trkpt>
      <trkpt lat="43.65087" lon="6.83263">
        <ele>511.8</ele>
        <time>2019-03-24T09:14:57Z</time>
      </trkpt>
      <trkpt lat="43.65083" lon="6.83258">
        <ele>511.2</ele>
        <time>2019-03-24T09:14:58Z</time>
      </trkpt>
      <trkpt lat="43.6508" lon="6.83253">
        <ele>510.6</ele>
        <time>2019-03-24T09:14:59Z</time>
      </trkpt>
      <trkpt lat="43.65071" lon="6.83239">
        <ele>509.2</ele>
        <time>2019-03-24T09:15:02Z</time>
      </trkpt>
      <trkpt lat="43.6507" lon="6.83234">
        <ele>508.6</ele>
        <time>2019-03-24T09:15:03Z</time>
      </trkpt>
      <trkpt lat="43.65069" lon="6.83229">
        <ele>507.8</ele>
        <time>2019-03-24T09:15:04Z</time>
      </trkpt>
      <trkpt lat="43.65069" lon="6.83224">
        <ele>506.8</ele>
        <time>2019-03-24T09:15:05Z</time>
      </trkpt>
      <trkpt lat="43.6507" lon="6.83216">
        <ele>505.8</ele>
        <time>2019-03-24T09:15:07Z</time>
      </trkpt>
      <trkpt lat="43.65071" lon="6.83211">
        <ele>505.4</ele>
        <time>2019-03-24T09:15:08Z</time>
      </trkpt>
      <trkpt lat="43.65074" lon="6.83193">
        <ele>504</ele>
        <time>2019-03-24T09:15:12Z</time>
      </trkpt>
      <trkpt lat="43.65075" lon="6.83181">
        <ele>503</ele>
        <time>2019-03-24T09:15:17Z</time>
      </trkpt>
      <trkpt lat="43.65075" lon="6.83171">
        <ele>501.8</ele>
        <time>2019-03-24T09:15:20Z</time>
      </trkpt>
      <trkpt lat="43.65074" lon="6.83162">
        <ele>500.4</ele>
        <time>2019-03-24T09:15:22Z</time>
      </trkpt>
      <trkpt lat="43.65073" lon="6.83155">
        <ele>499.8</ele>
        <time>2019-03-24T09:15:23Z</time>
      </trkpt>
      <trkpt lat="43.6507" lon="6.83143">
        <ele>499</ele>
        <time>2019-03-24T09:15:25Z</time>
      </trkpt>
      <trkpt lat="43.6507" lon="6.83138">
        <ele>498.4</ele>
        <time>2019-03-24T09:15:26Z</time>
      </trkpt>
      <trkpt lat="43.6507" lon="6.83128">
        <ele>498</ele>
        <time>2019-03-24T09:15:28Z</time>
      </trkpt>
      <trkpt lat="43.65069" lon="6.83112">
        <ele>496.4</ele>
        <time>2019-03-24T09:15:31Z</time>
      </trkpt>
      <trkpt lat="43.6507" lon="6.83102">
        <ele>495.4</ele>
        <time>2019-03-24T09:15:33Z</time>
      </trkpt>
      <trkpt lat="43.65072" lon="6.83098">
        <ele>494.8</ele>
        <time>2019-03-24T09:15:34Z</time>
      </trkpt>
      <trkpt lat="43.65075" lon="6.8309">
        <ele>493.8</ele>
        <time>2019-03-24T09:15:36Z</time>
      </trkpt>
      <trkpt lat="43.65076" lon="6.83087">
        <ele>493.8</ele>
        <time>2019-03-24T09:15:37Z</time>
      </trkpt>
      <trkpt lat="43.6508" lon="6.83085">
        <ele>493.6</ele>
        <time>2019-03-24T09:15:39Z</time>
      </trkpt>
      <trkpt lat="43.65091" lon="6.83081">
        <ele>492.8</ele>
        <time>2019-03-24T09:15:45Z</time>
      </trkpt>
      <trkpt lat="43.65092" lon="6.83076">
        <ele>492</ele>
        <time>2019-03-24T09:15:48Z</time>
      </trkpt>
      <trkpt lat="43.65093" lon="6.83068">
        <ele>492.4</ele>
        <time>2019-03-24T09:15:50Z</time>
      </trkpt>
      <trkpt lat="43.65099" lon="6.83053">
        <ele>492.8</ele>
        <time>2019-03-24T09:15:55Z</time>
      </trkpt>
      <trkpt lat="43.65103" lon="6.83031">
        <ele>492.4</ele>
        <time>2019-03-24T09:16:00Z</time>
      </trkpt>
      <trkpt lat="43.651" lon="6.83008">
        <ele>491</ele>
        <time>2019-03-24T09:16:03Z</time>
      </trkpt>
      <trkpt lat="43.65097" lon="6.82994">
        <ele>490</ele>
        <time>2019-03-24T09:16:05Z</time>
      </trkpt>
      <trkpt lat="43.65096" lon="6.82988">
        <ele>489.6</ele>
        <time>2019-03-24T09:16:06Z</time>
      </trkpt>
      <trkpt lat="43.65092" lon="6.82974">
        <ele>488.8</ele>
        <time>2019-03-24T09:16:09Z</time>
      </trkpt>
      <trkpt lat="43.6509" lon="6.8297">
        <ele>488.6</ele>
        <time>2019-03-24T09:16:10Z</time>
      </trkpt>
      <trkpt lat="43.65081" lon="6.82966">
        <ele>487.6</ele>
        <time>2019-03-24T09:16:13Z</time>
      </trkpt>
      <trkpt lat="43.65077" lon="6.82964">
        <ele>487.4</ele>
        <time>2019-03-24T09:16:14Z</time>
      </trkpt>
      <trkpt lat="43.65069" lon="6.82957">
        <ele>487.8</ele>
        <time>2019-03-24T09:16:17Z</time>
      </trkpt>
      <trkpt lat="43.65065" lon="6.82957">
        <ele>487.4</ele>
        <time>2019-03-24T09:16:18Z</time>
      </trkpt>
      <trkpt lat="43.65053" lon="6.82949">
        <ele>487.4</ele>
        <time>2019-03-24T09:16:22Z</time>
      </trkpt>
      <trkpt lat="43.65051" lon="6.82945">
        <ele>487.2</ele>
        <time>2019-03-24T09:16:23Z</time>
      </trkpt>
      <trkpt lat="43.65046" lon="6.82931">
        <ele>486</ele>
        <time>2019-03-24T09:16:26Z</time>
      </trkpt>
      <trkpt lat="43.65042" lon="6.82922">
        <ele>484.8</ele>
        <time>2019-03-24T09:16:28Z</time>
      </trkpt>
      <trkpt lat="43.65041" lon="6.82911">
        <ele>483.2</ele>
        <time>2019-03-24T09:16:30Z</time>
      </trkpt>
      <trkpt lat="43.65044" lon="6.82902">
        <ele>481.2</ele>
        <time>2019-03-24T09:16:32Z</time>
      </trkpt>
      <trkpt lat="43.65048" lon="6.82893">
        <ele>480</ele>
        <time>2019-03-24T09:16:34Z</time>
      </trkpt>
      <trkpt lat="43.65051" lon="6.82886">
        <ele>479</ele>
        <time>2019-03-24T09:16:36Z</time>
      </trkpt>
      <trkpt lat="43.65052" lon="6.82882">
        <ele>478.6</ele>
        <time>2019-03-24T09:16:37Z</time>
      </trkpt>
      <trkpt lat="43.65055" lon="6.82874">
        <ele>477.4</ele>
        <time>2019-03-24T09:16:39Z</time>
      </trkpt>
      <trkpt lat="43.65057" lon="6.82864">
        <ele>475.8</ele>
        <time>2019-03-24T09:16:41Z</time>
      </trkpt>
      <trkpt lat="43.65056" lon="6.82856">
        <ele>474.4</ele>
        <time>2019-03-24T09:16:43Z</time>
      </trkpt>
      <trkpt lat="43.65054" lon="6.82852">
        <ele>473.8</ele>
        <time>2019-03-24T09:16:44Z</time>
      </trkpt>
      <trkpt lat="43.65052" lon="6.8285">
        <ele>473.2</ele>
        <time>2019-03-24T09:16:45Z</time>
      </trkpt>
      <trkpt lat="43.65043" lon="6.82844">
        <ele>469</ele>
        <time>2019-03-24T09:16:53Z</time>
      </trkpt>
      <trkpt lat="43.65038" lon="6.82844">
        <ele>468</ele>
        <time>2019-03-24T09:16:55Z</time>
      </trkpt>
      <trkpt lat="43.6503" lon="6.82843">
        <ele>468.2</ele>
        <time>2019-03-24T09:16:56Z</time>
      </trkpt>
      <trkpt lat="43.65025" lon="6.8284">
        <ele>468.4</ele>
        <time>2019-03-24T09:16:57Z</time>
      </trkpt>
      <trkpt lat="43.65014" lon="6.82828">
        <ele>466.6</ele>
        <time>2019-03-24T09:17:00Z</time>
      </trkpt>
      <trkpt lat="43.65004" lon="6.8282">
        <ele>465.2</ele>
        <time>2019-03-24T09:17:02Z</time>
      </trkpt>
      <trkpt lat="43.64994" lon="6.82809">
        <ele>464</ele>
        <time>2019-03-24T09:17:04Z</time>
      </trkpt>
      <trkpt lat="43.64983" lon="6.82802">
        <ele>463</ele>
        <time>2019-03-24T09:17:06Z</time>
      </trkpt>
      <trkpt lat="43.64978" lon="6.82799">
        <ele>462.8</ele>
        <time>2019-03-24T09:17:07Z</time>
      </trkpt>
      <trkpt lat="43.64968" lon="6.82793">
        <ele>461.8</ele>
        <time>2019-03-24T09:17:10Z</time>
      </trkpt>
      <trkpt lat="43.64966" lon="6.8279">
        <ele>461.4</ele>
        <time>2019-03-24T09:17:11Z</time>
      </trkpt>
      <trkpt lat="43.64963" lon="6.82785">
        <ele>460.4</ele>
        <time>2019-03-24T09:17:13Z</time>
      </trkpt>
      <trkpt lat="43.64958" lon="6.82782">
        <ele>459</ele>
        <time>2019-03-24T09:17:15Z</time>
      </trkpt>
      <trkpt lat="43.64957" lon="6.8278">
        <ele>458.6</ele>
        <time>2019-03-24T09:17:16Z</time>
      </trkpt>
      <trkpt lat="43.64956" lon="6.82778">
        <ele>457</ele>
        <time>2019-03-24T09:17:21Z</time>
      </trkpt>
      <trkpt lat="43.64957" lon="6.82776">
        <ele>456.6</ele>
        <time>2019-03-24T09:17:22Z</time>
      </trkpt>
      <trkpt lat="43.64959" lon="6.82771">
        <ele>455.4</ele>
        <time>2019-03-24T09:17:24Z</time>
      </trkpt>
      <trkpt lat="43.64959" lon="6.82768">
        <ele>454.6</ele>
        <time>2019-03-24T09:17:25Z</time>
      </trkpt>
      <trkpt lat="43.64958" lon="6.82765">
        <ele>453.8</ele>
        <time>2019-03-24T09:17:26Z</time>
      </trkpt>
      <trkpt lat="43.64959" lon="6.82763">
        <ele>453</ele>
        <time>2019-03-24T09:17:27Z</time>
      </trkpt>
      <trkpt lat="43.6496" lon="6.8276">
        <ele>452.6</ele>
        <time>2019-03-24T09:17:28Z</time>
      </trkpt>
      <trkpt lat="43.64967" lon="6.82753">
        <ele>452</ele>
        <time>2019-03-24T09:17:31Z</time>
      </trkpt>
      <trkpt lat="43.64973" lon="6.82744">
        <ele>451.2</ele>
        <time>2019-03-24T09:17:33Z</time>
      </trkpt>
      <trkpt lat="43.64976" lon="6.82739">
        <ele>450.8</ele>
        <time>2019-03-24T09:17:34Z</time>
      </trkpt>
      <trkpt lat="43.64982" lon="6.82734">
        <ele>450.4</ele>
        <time>2019-03-24T09:17:37Z</time>
      </trkpt>
      <trkpt lat="43.64984" lon="6.82735">
        <ele>450</ele>
        <time>2019-03-24T09:17:38Z</time>
      </trkpt>
      <trkpt lat="43.64987" lon="6.82735">
        <ele>450.2</ele>
        <time>2019-03-24T09:17:40Z</time>
      </trkpt>
      <trkpt lat="43.6499" lon="6.82734">
        <ele>450.4</ele>
        <time>2019-03-24T09:17:41Z</time>
      </trkpt>
      <trkpt lat="43.64995" lon="6.8272">
        <ele>449.6</ele>
        <time>2019-03-24T09:17:45Z</time>
      </trkpt>
      <trkpt lat="43.64992" lon="6.8271">
        <ele>448.8</ele>
        <time>2019-03-24T09:17:47Z</time>
      </trkpt>
      <trkpt lat="43.64987" lon="6.82704">
        <ele>447.8</ele>
        <time>2019-03-24T09:17:49Z</time>
      </trkpt>
      <trkpt lat="43.64984" lon="6.82701">
        <ele>447.4</ele>
        <time>2019-03-24T09:17:50Z</time>
      </trkpt>
      <trkpt lat="43.64976" lon="6.82694">
        <ele>446.2</ele>
        <time>2019-03-24T09:17:52Z</time>
      </trkpt>
      <trkpt lat="43.6497" lon="6.82689">
        <ele>446</ele>
        <time>2019-03-24T09:17:53Z</time>
      </trkpt>
      <trkpt lat="43.64958" lon="6.82682">
        <ele>445.4</ele>
        <time>2019-03-24T09:17:55Z</time>
      </trkpt>
      <trkpt lat="43.64953" lon="6.82682">
        <ele>445.2</ele>
        <time>2019-03-24T09:17:56Z</time>
      </trkpt>
      <trkpt lat="43.64944" lon="6.82671">
        <ele>445.6</ele>
        <time>2019-03-24T09:17:59Z</time>
      </trkpt>
      <trkpt lat="43.64938" lon="6.82653">
        <ele>444.8</ele>
        <time>2019-03-24T09:18:02Z</time>
      </trkpt>
      <trkpt lat="43.64936" lon="6.82647">
        <ele>444.4</ele>
        <time>2019-03-24T09:18:03Z</time>
      </trkpt>
      <trkpt lat="43.64934" lon="6.82641">
        <ele>444.2</ele>
        <time>2019-03-24T09:18:04Z</time>
      </trkpt>
      <trkpt lat="43.64933" lon="6.82636">
        <ele>444</ele>
        <time>2019-03-24T09:18:05Z</time>
      </trkpt>
      <trkpt lat="43.64932" lon="6.82632">
        <ele>443.8</ele>
        <time>2019-03-24T09:18:06Z</time>
      </trkpt>
      <trkpt lat="43.64929" lon="6.82613">
        <ele>443.2</ele>
        <time>2019-03-24T09:18:09Z</time>
      </trkpt>
      <trkpt lat="43.6493" lon="6.82605">
        <ele>442.8</ele>
        <time>2019-03-24T09:18:10Z</time>
      </trkpt>
      <trkpt lat="43.64929" lon="6.82596">
        <ele>442</ele>
        <time>2019-03-24T09:18:12Z</time>
      </trkpt>
      <trkpt lat="43.64928" lon="6.82594">
        <ele>441.8</ele>
        <time>2019-03-24T09:18:13Z</time>
      </trkpt>
      <trkpt lat="43.64926" lon="6.82591">
        <ele>441.4</ele>
        <time>2019-03-24T09:18:14Z</time>
      </trkpt>
      <trkpt lat="43.64921" lon="6.82581">
        <ele>440.4</ele>
        <time>2019-03-24T09:18:18Z</time>
      </trkpt>
      <trkpt lat="43.64919" lon="6.8258">
        <ele>440.4</ele>
        <time>2019-03-24T09:18:19Z</time>
      </trkpt>
      <trkpt lat="43.64915" lon="6.82577">
        <ele>440.4</ele>
        <time>2019-03-24T09:18:21Z</time>
      </trkpt>
      <trkpt lat="43.64909" lon="6.82574">
        <ele>440</ele>
        <time>2019-03-24T09:18:24Z</time>
      </trkpt>
      <trkpt lat="43.64898" lon="6.82565">
        <ele>439.6</ele>
        <time>2019-03-24T09:18:30Z</time>
      </trkpt>
      <trkpt lat="43.64895" lon="6.82561">
        <ele>439.4</ele>
        <time>2019-03-24T09:18:31Z</time>
      </trkpt>
      <trkpt lat="43.64893" lon="6.82557">
        <ele>439</ele>
        <time>2019-03-24T09:18:32Z</time>
      </trkpt>
      <trkpt lat="43.64892" lon="6.82551">
        <ele>438.6</ele>
        <time>2019-03-24T09:18:33Z</time>
      </trkpt>
      <trkpt lat="43.64892" lon="6.82538">
        <ele>438.6</ele>
        <time>2019-03-24T09:18:35Z</time>
      </trkpt>
      <trkpt lat="43.64895" lon="6.82526">
        <ele>438.8</ele>
        <time>2019-03-24T09:18:37Z</time>
      </trkpt>
      <trkpt lat="43.64901" lon="6.82513">
        <ele>439</ele>
        <time>2019-03-24T09:18:41Z</time>
      </trkpt>
      <trkpt lat="43.64901" lon="6.82509">
        <ele>439</ele>
        <time>2019-03-24T09:18:42Z</time>
      </trkpt>
      <trkpt lat="43.649" lon="6.82492">
        <ele>439.8</ele>
        <time>2019-03-24T09:18:45Z</time>
      </trkpt>
      <trkpt lat="43.64895" lon="6.82477">
        <ele>440.4</ele>
        <time>2019-03-24T09:18:48Z</time>
      </trkpt>
      <trkpt lat="43.6489" lon="6.82473">
        <ele>440.2</ele>
        <time>2019-03-24T09:18:49Z</time>
      </trkpt>
      <trkpt lat="43.64881" lon="6.82456">
        <ele>440.2</ele>
        <time>2019-03-24T09:18:52Z</time>
      </trkpt>
      <trkpt lat="43.6488" lon="6.82447">
        <ele>440.2</ele>
        <time>2019-03-24T09:18:53Z</time>
      </trkpt>
      <trkpt lat="43.64877" lon="6.82431">
        <ele>440.2</ele>
        <time>2019-03-24T09:18:55Z</time>
      </trkpt>
      <trkpt lat="43.64872" lon="6.82415">
        <ele>440</ele>
        <time>2019-03-24T09:18:57Z</time>
      </trkpt>
      <trkpt lat="43.64868" lon="6.82407">
        <ele>439.8</ele>
        <time>2019-03-24T09:18:58Z</time>
      </trkpt>
      <trkpt lat="43.64846" lon="6.82367">
        <ele>440.4</ele>
        <time>2019-03-24T09:19:03Z</time>
      </trkpt>
      <trkpt lat="43.64843" lon="6.82359">
        <ele>440.4</ele>
        <time>2019-03-24T09:19:04Z</time>
      </trkpt>
      <trkpt lat="43.64833" lon="6.82345">
        <ele>440.6</ele>
        <time>2019-03-24T09:19:06Z</time>
      </trkpt>
      <trkpt lat="43.64828" lon="6.82339">
        <ele>440.8</ele>
        <time>2019-03-24T09:19:07Z</time>
      </trkpt>
      <trkpt lat="43.64823" lon="6.82335">
        <ele>441</ele>
        <time>2019-03-24T09:19:08Z</time>
      </trkpt>
      <trkpt lat="43.64814" lon="6.82336">
        <ele>441</ele>
        <time>2019-03-24T09:19:10Z</time>
      </trkpt>
      <trkpt lat="43.64807" lon="6.82348">
        <ele>440.8</ele>
        <time>2019-03-24T09:19:12Z</time>
      </trkpt>
      <trkpt lat="43.648" lon="6.82362">
        <ele>440.8</ele>
        <time>2019-03-24T09:19:14Z</time>
      </trkpt>
      <trkpt lat="43.64788" lon="6.82379">
        <ele>440.8</ele>
        <time>2019-03-24T09:19:17Z</time>
      </trkpt>
      <trkpt lat="43.64784" lon="6.82382">
        <ele>440.8</ele>
        <time>2019-03-24T09:19:18Z</time>
      </trkpt>
      <trkpt lat="43.64767" lon="6.82398">
        <ele>440.8</ele>
        <time>2019-03-24T09:19:22Z</time>
      </trkpt>
      <trkpt lat="43.64763" lon="6.82401">
        <ele>440.6</ele>
        <time>2019-03-24T09:19:23Z</time>
      </trkpt>
      <trkpt lat="43.64747" lon="6.82408">
        <ele>439.8</ele>
        <time>2019-03-24T09:19:26Z</time>
      </trkpt>
      <trkpt lat="43.64741" lon="6.82411">
        <ele>439.6</ele>
        <time>2019-03-24T09:19:27Z</time>
      </trkpt>
      <trkpt lat="43.64719" lon="6.8242">
        <ele>439.6</ele>
        <time>2019-03-24T09:19:31Z</time>
      </trkpt>
      <trkpt lat="43.64702" lon="6.8243">
        <ele>439.8</ele>
        <time>2019-03-24T09:19:36Z</time>
      </trkpt>
      <trkpt lat="43.64681" lon="6.82443">
        <ele>439.4</ele>
        <time>2019-03-24T09:19:41Z</time>
      </trkpt>
      <trkpt lat="43.64675" lon="6.82445">
        <ele>439.4</ele>
        <time>2019-03-24T09:19:42Z</time>
      </trkpt>
      <trkpt lat="43.6466" lon="6.82456">
        <ele>439.2</ele>
        <time>2019-03-24T09:19:45Z</time>
      </trkpt>
      <trkpt lat="43.64653" lon="6.82469">
        <ele>439.2</ele>
        <time>2019-03-24T09:19:47Z</time>
      </trkpt>
      <trkpt lat="43.6465" lon="6.82476">
        <ele>439.2</ele>
        <time>2019-03-24T09:19:48Z</time>
      </trkpt>
      <trkpt lat="43.64646" lon="6.82482">
        <ele>439</ele>
        <time>2019-03-24T09:19:49Z</time>
      </trkpt>
      <trkpt lat="43.64634" lon="6.82496">
        <ele>439.4</ele>
        <time>2019-03-24T09:19:52Z</time>
      </trkpt>
      <trkpt lat="43.64624" lon="6.82502">
        <ele>439.6</ele>
        <time>2019-03-24T09:19:54Z</time>
      </trkpt>
      <trkpt lat="43.64604" lon="6.82512">
        <ele>440</ele>
        <time>2019-03-24T09:19:59Z</time>
      </trkpt>
      <trkpt lat="43.6459" lon="6.82521">
        <ele>440.4</ele>
        <time>2019-03-24T09:20:04Z</time>
      </trkpt>
      <trkpt lat="43.64574" lon="6.8254">
        <ele>439.8</ele>
        <time>2019-03-24T09:20:09Z</time>
      </trkpt>
      <trkpt lat="43.64565" lon="6.82545">
        <ele>439.4</ele>
        <time>2019-03-24T09:20:11Z</time>
      </trkpt>
      <trkpt lat="43.6456" lon="6.82547">
        <ele>438.8</ele>
        <time>2019-03-24T09:20:12Z</time>
      </trkpt>
      <trkpt lat="43.64555" lon="6.82552">
        <ele>438</ele>
        <time>2019-03-24T09:20:14Z</time>
      </trkpt>
      <trkpt lat="43.64551" lon="6.82555">
        <ele>437.6</ele>
        <time>2019-03-24T09:20:15Z</time>
      </trkpt>
      <trkpt lat="43.64544" lon="6.82562">
        <ele>436.6</ele>
        <time>2019-03-24T09:20:17Z</time>
      </trkpt>
      <trkpt lat="43.6454" lon="6.82566">
        <ele>436.4</ele>
        <time>2019-03-24T09:20:18Z</time>
      </trkpt>
      <trkpt lat="43.64532" lon="6.82581">
        <ele>436.2</ele>
        <time>2019-03-24T09:20:20Z</time>
      </trkpt>
      <trkpt lat="43.64528" lon="6.82591">
        <ele>436.4</ele>
        <time>2019-03-24T09:20:21Z</time>
      </trkpt>
      <trkpt lat="43.64516" lon="6.82617">
        <ele>436.6</ele>
        <time>2019-03-24T09:20:24Z</time>
      </trkpt>
      <trkpt lat="43.64511" lon="6.82623">
        <ele>436.8</ele>
        <time>2019-03-24T09:20:25Z</time>
      </trkpt>
      <trkpt lat="43.64501" lon="6.82639">
        <ele>437.6</ele>
        <time>2019-03-24T09:20:28Z</time>
      </trkpt>
      <trkpt lat="43.64498" lon="6.82645">
        <ele>437.8</ele>
        <time>2019-03-24T09:20:29Z</time>
      </trkpt>
      <trkpt lat="43.64487" lon="6.8266">
        <ele>438</ele>
        <time>2019-03-24T09:20:32Z</time>
      </trkpt>
      <trkpt lat="43.64474" lon="6.82674">
        <ele>437.8</ele>
        <time>2019-03-24T09:20:36Z</time>
      </trkpt>
      <trkpt lat="43.64464" lon="6.82696">
        <ele>438.2</ele>
        <time>2019-03-24T09:20:41Z</time>
      </trkpt>
      <trkpt lat="43.6446" lon="6.82701">
        <ele>438.6</ele>
        <time>2019-03-24T09:20:43Z</time>
      </trkpt>
      <trkpt lat="43.64456" lon="6.82706">
        <ele>439</ele>
        <time>2019-03-24T09:20:45Z</time>
      </trkpt>
      <trkpt lat="43.64455" lon="6.8271">
        <ele>439</ele>
        <time>2019-03-24T09:20:46Z</time>
      </trkpt>
      <trkpt lat="43.64447" lon="6.82722">
        <ele>439.8</ele>
        <time>2019-03-24T09:20:49Z</time>
      </trkpt>
      <trkpt lat="43.64444" lon="6.82726">
        <ele>440.2</ele>
        <time>2019-03-24T09:20:50Z</time>
      </trkpt>
      <trkpt lat="43.64431" lon="6.8274">
        <ele>441</ele>
        <time>2019-03-24T09:20:54Z</time>
      </trkpt>
      <trkpt lat="43.64428" lon="6.82742">
        <ele>441.2</ele>
        <time>2019-03-24T09:20:55Z</time>
      </trkpt>
      <trkpt lat="43.64419" lon="6.82755">
        <ele>442</ele>
        <time>2019-03-24T09:20:59Z</time>
      </trkpt>
      <trkpt lat="43.64418" lon="6.82758">
        <ele>442.4</ele>
        <time>2019-03-24T09:21:00Z</time>
      </trkpt>
      <trkpt lat="43.64412" lon="6.82769">
        <ele>443.2</ele>
        <time>2019-03-24T09:21:03Z</time>
      </trkpt>
      <trkpt lat="43.64408" lon="6.82781">
        <ele>444</ele>
        <time>2019-03-24T09:21:06Z</time>
      </trkpt>
      <trkpt lat="43.64404" lon="6.82789">
        <ele>444.4</ele>
        <time>2019-03-24T09:21:08Z</time>
      </trkpt>
      <trkpt lat="43.64396" lon="6.82802">
        <ele>445.6</ele>
        <time>2019-03-24T09:21:12Z</time>
      </trkpt>
      <trkpt lat="43.64387" lon="6.82807">
        <ele>447</ele>
        <time>2019-03-24T09:21:16Z</time>
      </trkpt>
      <trkpt lat="43.64385" lon="6.82808">
        <ele>447</ele>
        <time>2019-03-24T09:21:17Z</time>
      </trkpt>
      <trkpt lat="43.64367" lon="6.82813">
        <ele>447</ele>
        <time>2019-03-24T09:21:22Z</time>
      </trkpt>
      <trkpt lat="43.64341" lon="6.82833">
        <ele>446.2</ele>
        <time>2019-03-24T09:21:28Z</time>
      </trkpt>
      <trkpt lat="43.6432" lon="6.82849">
        <ele>445.8</ele>
        <time>2019-03-24T09:21:33Z</time>
      </trkpt>
      <trkpt lat="43.6431" lon="6.82851">
        <ele>444.8</ele>
        <time>2019-03-24T09:21:35Z</time>
      </trkpt>
      <trkpt lat="43.64298" lon="6.82854">
        <ele>443.8</ele>
        <time>2019-03-24T09:21:37Z</time>
      </trkpt>
      <trkpt lat="43.64293" lon="6.82854">
        <ele>443.6</ele>
        <time>2019-03-24T09:21:38Z</time>
      </trkpt>
      <trkpt lat="43.64286" lon="6.82854">
        <ele>443.6</ele>
        <time>2019-03-24T09:21:39Z</time>
      </trkpt>
      <trkpt lat="43.64263" lon="6.82854">
        <ele>442</ele>
        <time>2019-03-24T09:21:44Z</time>
      </trkpt>
      <trkpt lat="43.64256" lon="6.82847">
        <ele>441</ele>
        <time>2019-03-24T09:21:47Z</time>
      </trkpt>
      <trkpt lat="43.64251" lon="6.82845">
        <ele>441</ele>
        <time>2019-03-24T09:21:49Z</time>
      </trkpt>
      <trkpt lat="43.6423" lon="6.82854">
        <ele>440.8</ele>
        <time>2019-03-24T09:21:53Z</time>
      </trkpt>
      <trkpt lat="43.64214" lon="6.82868">
        <ele>440</ele>
        <time>2019-03-24T09:21:56Z</time>
      </trkpt>
      <trkpt lat="43.64199" lon="6.82882">
        <ele>438.6</ele>
        <time>2019-03-24T09:21:59Z</time>
      </trkpt>
      <trkpt lat="43.64182" lon="6.82896">
        <ele>437.6</ele>
        <time>2019-03-24T09:22:02Z</time>
      </trkpt>
      <trkpt lat="43.64159" lon="6.82912">
        <ele>436.4</ele>
        <time>2019-03-24T09:22:06Z</time>
      </trkpt>
      <trkpt lat="43.64153" lon="6.82914">
        <ele>436.2</ele>
        <time>2019-03-24T09:22:07Z</time>
      </trkpt>
      <trkpt lat="43.64134" lon="6.82915">
        <ele>435.8</ele>
        <time>2019-03-24T09:22:10Z</time>
      </trkpt>
      <trkpt lat="43.64128" lon="6.82914">
        <ele>435.6</ele>
        <time>2019-03-24T09:22:11Z</time>
      </trkpt>
      <trkpt lat="43.64116" lon="6.82913">
        <ele>435.4</ele>
        <time>2019-03-24T09:22:13Z</time>
      </trkpt>
      <trkpt lat="43.64093" lon="6.8291">
        <ele>434.6</ele>
        <time>2019-03-24T09:22:17Z</time>
      </trkpt>
      <trkpt lat="43.64075" lon="6.82899">
        <ele>434.4</ele>
        <time>2019-03-24T09:22:21Z</time>
      </trkpt>
      <trkpt lat="43.64065" lon="6.82888">
        <ele>434</ele>
        <time>2019-03-24T09:22:23Z</time>
      </trkpt>
      <trkpt lat="43.64053" lon="6.82876">
        <ele>433.4</ele>
        <time>2019-03-24T09:22:25Z</time>
      </trkpt>
      <trkpt lat="43.64046" lon="6.82868">
        <ele>432.8</ele>
        <time>2019-03-24T09:22:26Z</time>
      </trkpt>
      <trkpt lat="43.64034" lon="6.82852">
        <ele>431.8</ele>
        <time>2019-03-24T09:22:28Z</time>
      </trkpt>
      <trkpt lat="43.64028" lon="6.82845">
        <ele>431.4</ele>
        <time>2019-03-24T09:22:29Z</time>
      </trkpt>
      <trkpt lat="43.64021" lon="6.82838">
        <ele>430.8</ele>
        <time>2019-03-24T09:22:30Z</time>
      </trkpt>
      <trkpt lat="43.64004" lon="6.82819">
        <ele>429.4</ele>
        <time>2019-03-24T09:22:33Z</time>
      </trkpt>
      <trkpt lat="43.63999" lon="6.82813">
        <ele>429</ele>
        <time>2019-03-24T09:22:34Z</time>
      </trkpt>
      <trkpt lat="43.63985" lon="6.82798">
        <ele>428.2</ele>
        <time>2019-03-24T09:22:37Z</time>
      </trkpt>
      <trkpt lat="43.63978" lon="6.8279">
        <ele>427.6</ele>
        <time>2019-03-24T09:22:39Z</time>
      </trkpt>
      <trkpt lat="43.63966" lon="6.8278">
        <ele>426.8</ele>
        <time>2019-03-24T09:22:42Z</time>
      </trkpt>
      <trkpt lat="43.63955" lon="6.82774">
        <ele>426</ele>
        <time>2019-03-24T09:22:44Z</time>
      </trkpt>
      <trkpt lat="43.63946" lon="6.82769">
        <ele>425.6</ele>
        <time>2019-03-24T09:22:46Z</time>
      </trkpt>
      <trkpt lat="43.63927" lon="6.82762">
        <ele>424.8</ele>
        <time>2019-03-24T09:22:50Z</time>
      </trkpt>
      <trkpt lat="43.63922" lon="6.8276">
        <ele>424.4</ele>
        <time>2019-03-24T09:22:51Z</time>
      </trkpt>
      <trkpt lat="43.63912" lon="6.8276">
        <ele>424</ele>
        <time>2019-03-24T09:22:54Z</time>
      </trkpt>
      <trkpt lat="43.6391" lon="6.82759">
        <ele>423.8</ele>
        <time>2019-03-24T09:22:55Z</time>
      </trkpt>
      <trkpt lat="43.63904" lon="6.82753">
        <ele>423.4</ele>
        <time>2019-03-24T09:22:57Z</time>
      </trkpt>
      <trkpt lat="43.63896" lon="6.82748">
        <ele>423.2</ele>
        <time>2019-03-24T09:22:59Z</time>
      </trkpt>
      <trkpt lat="43.63883" lon="6.8274">
        <ele>422.8</ele>
        <time>2019-03-24T09:23:02Z</time>
      </trkpt>
      <trkpt lat="43.63874" lon="6.82735">
        <ele>422.2</ele>
        <time>2019-03-24T09:23:04Z</time>
      </trkpt>
      <trkpt lat="43.63853" lon="6.82729">
        <ele>421.2</ele>
        <time>2019-03-24T09:23:08Z</time>
      </trkpt>
      <trkpt lat="43.6383" lon="6.82722">
        <ele>420</ele>
        <time>2019-03-24T09:23:11Z</time>
      </trkpt>
      <trkpt lat="43.63821" lon="6.8272">
        <ele>419.4</ele>
        <time>2019-03-24T09:23:12Z</time>
      </trkpt>
      <trkpt lat="43.63812" lon="6.82718">
        <ele>419</ele>
        <time>2019-03-24T09:23:13Z</time>
      </trkpt>
      <trkpt lat="43.63784" lon="6.8271">
        <ele>417.6</ele>
        <time>2019-03-24T09:23:16Z</time>
      </trkpt>
      <trkpt lat="43.63766" lon="6.82701">
        <ele>416</ele>
        <time>2019-03-24T09:23:18Z</time>
      </trkpt>
      <trkpt lat="43.63747" lon="6.82689">
        <ele>414.4</ele>
        <time>2019-03-24T09:23:20Z</time>
      </trkpt>
      <trkpt lat="43.63738" lon="6.82684">
        <ele>413.8</ele>
        <time>2019-03-24T09:23:21Z</time>
      </trkpt>
      <trkpt lat="43.63728" lon="6.82682">
        <ele>413.2</ele>
        <time>2019-03-24T09:23:22Z</time>
      </trkpt>
      <trkpt lat="43.63709" lon="6.82679">
        <ele>412</ele>
        <time>2019-03-24T09:23:24Z</time>
      </trkpt>
      <trkpt lat="43.63689" lon="6.82681">
        <ele>410.2</ele>
        <time>2019-03-24T09:23:26Z</time>
      </trkpt>
      <trkpt lat="43.63668" lon="6.82686">
        <ele>408.4</ele>
        <time>2019-03-24T09:23:28Z</time>
      </trkpt>
      <trkpt lat="43.63638" lon="6.82695">
        <ele>406.8</ele>
        <time>2019-03-24T09:23:31Z</time>
      </trkpt>
      <trkpt lat="43.63618" lon="6.827">
        <ele>405.6</ele>
        <time>2019-03-24T09:23:33Z</time>
      </trkpt>
      <trkpt lat="43.63608" lon="6.82703">
        <ele>404.4</ele>
        <time>2019-03-24T09:23:34Z</time>
      </trkpt>
      <trkpt lat="43.63588" lon="6.8271">
        <ele>402.8</ele>
        <time>2019-03-24T09:23:36Z</time>
      </trkpt>
      <trkpt lat="43.63578" lon="6.82715">
        <ele>402</ele>
        <time>2019-03-24T09:23:37Z</time>
      </trkpt>
      <trkpt lat="43.63569" lon="6.82722">
        <ele>401.2</ele>
        <time>2019-03-24T09:23:38Z</time>
      </trkpt>
      <trkpt lat="43.63554" lon="6.82743">
        <ele>400</ele>
        <time>2019-03-24T09:23:40Z</time>
      </trkpt>
      <trkpt lat="43.63547" lon="6.82756">
        <ele>399.4</ele>
        <time>2019-03-24T09:23:41Z</time>
      </trkpt>
      <trkpt lat="43.63539" lon="6.82769">
        <ele>398.8</ele>
        <time>2019-03-24T09:23:42Z</time>
      </trkpt>
      <trkpt lat="43.63522" lon="6.8279">
        <ele>397.6</ele>
        <time>2019-03-24T09:23:44Z</time>
      </trkpt>
      <trkpt lat="43.63505" lon="6.82807">
        <ele>396.4</ele>
        <time>2019-03-24T09:23:46Z</time>
      </trkpt>
      <trkpt lat="43.6349" lon="6.8282">
        <ele>394.8</ele>
        <time>2019-03-24T09:23:48Z</time>
      </trkpt>
      <trkpt lat="43.63477" lon="6.82821">
        <ele>393</ele>
        <time>2019-03-24T09:23:50Z</time>
      </trkpt>
      <trkpt lat="43.63465" lon="6.82817">
        <ele>391.2</ele>
        <time>2019-03-24T09:23:52Z</time>
      </trkpt>
      <trkpt lat="43.63455" lon="6.82807">
        <ele>389.2</ele>
        <time>2019-03-24T09:23:54Z</time>
      </trkpt>
      <trkpt lat="43.6345" lon="6.8279">
        <ele>387.8</ele>
        <time>2019-03-24T09:23:56Z</time>
      </trkpt>
      <trkpt lat="43.6345" lon="6.82778">
        <ele>387</ele>
        <time>2019-03-24T09:23:57Z</time>
      </trkpt>
      <trkpt lat="43.6345" lon="6.8277">
        <ele>385.8</ele>
        <time>2019-03-24T09:23:58Z</time>
      </trkpt>
      <trkpt lat="43.63451" lon="6.82762">
        <ele>384.8</ele>
        <time>2019-03-24T09:23:59Z</time>
      </trkpt>
      <trkpt lat="43.63448" lon="6.82746">
        <ele>382.8</ele>
        <time>2019-03-24T09:24:01Z</time>
      </trkpt>
      <trkpt lat="43.63445" lon="6.82737">
        <ele>381.4</ele>
        <time>2019-03-24T09:24:02Z</time>
      </trkpt>
      <trkpt lat="43.63443" lon="6.82729">
        <ele>380.2</ele>
        <time>2019-03-24T09:24:03Z</time>
      </trkpt>
      <trkpt lat="43.6344" lon="6.82722">
        <ele>378.8</ele>
        <time>2019-03-24T09:24:04Z</time>
      </trkpt>
      <trkpt lat="43.63437" lon="6.82716">
        <ele>377.4</ele>
        <time>2019-03-24T09:24:05Z</time>
      </trkpt>
      <trkpt lat="43.63435" lon="6.82709">
        <ele>376.2</ele>
        <time>2019-03-24T09:24:06Z</time>
      </trkpt>
      <trkpt lat="43.63433" lon="6.82702">
        <ele>374.8</ele>
        <time>2019-03-24T09:24:07Z</time>
      </trkpt>
      <trkpt lat="43.63431" lon="6.82696">
        <ele>373.4</ele>
        <time>2019-03-24T09:24:08Z</time>
      </trkpt>
      <trkpt lat="43.63427" lon="6.8269">
        <ele>372.2</ele>
        <time>2019-03-24T09:24:09Z</time>
      </trkpt>
      <trkpt lat="43.63424" lon="6.82684">
        <ele>371.2</ele>
        <time>2019-03-24T09:24:10Z</time>
      </trkpt>
      <trkpt lat="43.63421" lon="6.8268">
        <ele>370</ele>
        <time>2019-03-24T09:24:11Z</time>
      </trkpt>
      <trkpt lat="43.6342" lon="6.82674">
        <ele>369</ele>
        <time>2019-03-24T09:24:12Z</time>
      </trkpt>
      <trkpt lat="43.6342" lon="6.82668">
        <ele>368</ele>
        <time>2019-03-24T09:24:13Z</time>
      </trkpt>
      <trkpt lat="43.6342" lon="6.82663">
        <ele>366.8</ele>
        <time>2019-03-24T09:24:14Z</time>
      </trkpt>
      <trkpt lat="43.63421" lon="6.82659">
        <ele>365.6</ele>
        <time>2019-03-24T09:24:15Z</time>
      </trkpt>
      <trkpt lat="43.63422" lon="6.82655">
        <ele>364.4</ele>
        <time>2019-03-24T09:24:16Z</time>
      </trkpt>
      <trkpt lat="43.63424" lon="6.82651">
        <ele>363.2</ele>
        <time>2019-03-24T09:24:17Z</time>
      </trkpt>
      <trkpt lat="43.63425" lon="6.82646">
        <ele>362</ele>
        <time>2019-03-24T09:24:18Z</time>
      </trkpt>
      <trkpt lat="43.63427" lon="6.82641">
        <ele>360.8</ele>
        <time>2019-03-24T09:24:19Z</time>
      </trkpt>
      <trkpt lat="43.63428" lon="6.82635">
        <ele>359.6</ele>
        <time>2019-03-24T09:24:20Z</time>
      </trkpt>
      <trkpt lat="43.63428" lon="6.8263">
        <ele>358.6</ele>
        <time>2019-03-24T09:24:21Z</time>
      </trkpt>
      <trkpt lat="43.63429" lon="6.82623">
        <ele>357.4</ele>
        <time>2019-03-24T09:24:22Z</time>
      </trkpt>
      <trkpt lat="43.6343" lon="6.82617">
        <ele>356</ele>
        <time>2019-03-24T09:24:23Z</time>
      </trkpt>
      <trkpt lat="43.63431" lon="6.8261">
        <ele>355</ele>
        <time>2019-03-24T09:24:24Z</time>
      </trkpt>
      <trkpt lat="43.63431" lon="6.82603">
        <ele>353.8</ele>
        <time>2019-03-24T09:24:25Z</time>
      </trkpt>
      <trkpt lat="43.63431" lon="6.82595">
        <ele>352.8</ele>
        <time>2019-03-24T09:24:26Z</time>
      </trkpt>
      <trkpt lat="43.63432" lon="6.82588">
        <ele>351.8</ele>
        <time>2019-03-24T09:24:27Z</time>
      </trkpt>
      <trkpt lat="43.63432" lon="6.82581">
        <ele>350.8</ele>
        <time>2019-03-24T09:24:28Z</time>
      </trkpt>
      <trkpt lat="43.63433" lon="6.82574">
        <ele>349.8</ele>
        <time>2019-03-24T09:24:29Z</time>
      </trkpt>
      <trkpt lat="43.63433" lon="6.82566">
        <ele>348.6</ele>
        <time>2019-03-24T09:24:30Z</time>
      </trkpt>
      <trkpt lat="43.63434" lon="6.82558">
        <ele>347.4</ele>
        <time>2019-03-24T09:24:31Z</time>
      </trkpt>
      <trkpt lat="43.63435" lon="6.8255">
        <ele>346.4</ele>
        <time>2019-03-24T09:24:32Z</time>
      </trkpt>
      <trkpt lat="43.63436" lon="6.82542">
        <ele>345.2</ele>
        <time>2019-03-24T09:24:33Z</time>
      </trkpt>
      <trkpt lat="43.63437" lon="6.82535">
        <ele>344</ele>
        <time>2019-03-24T09:24:34Z</time>
      </trkpt>
      <trkpt lat="43.63439" lon="6.82528">
        <ele>342.8</ele>
        <time>2019-03-24T09:24:35Z</time>
      </trkpt>
      <trkpt lat="43.63441" lon="6.82521">
        <ele>341.8</ele>
        <time>2019-03-24T09:24:36Z</time>
      </trkpt>
      <trkpt lat="43.63442" lon="6.82515">
        <ele>340.6</ele>
        <time>2019-03-24T09:24:37Z</time>
      </trkpt>
      <trkpt lat="43.63443" lon="6.82509">
        <ele>339.4</ele>
        <time>2019-03-24T09:24:38Z</time>
      </trkpt>
      <trkpt lat="43.63445" lon="6.82503">
        <ele>338</ele>
        <time>2019-03-24T09:24:39Z</time>
      </trkpt>
      <trkpt lat="43.63446" lon="6.82496">
        <ele>337</ele>
        <time>2019-03-24T09:24:40Z</time>
      </trkpt>
      <trkpt lat="43.63447" lon="6.8249">
        <ele>335.6</ele>
        <time>2019-03-24T09:24:41Z</time>
      </trkpt>
      <trkpt lat="43.63448" lon="6.82483">
        <ele>334.4</ele>
        <time>2019-03-24T09:24:42Z</time>
      </trkpt>
      <trkpt lat="43.63449" lon="6.82477">
        <ele>333.2</ele>
        <time>2019-03-24T09:24:43Z</time>
      </trkpt>
      <trkpt lat="43.6345" lon="6.8247">
        <ele>332</ele>
        <time>2019-03-24T09:24:44Z</time>
      </trkpt>
      <trkpt lat="43.63452" lon="6.82464">
        <ele>331</ele>
        <time>2019-03-24T09:24:45Z</time>
      </trkpt>
      <trkpt lat="43.63457" lon="6.82448">
        <ele>329</ele>
        <time>2019-03-24T09:24:47Z</time>
      </trkpt>
      <trkpt lat="43.63461" lon="6.82434">
        <ele>327</ele>
        <time>2019-03-24T09:24:49Z</time>
      </trkpt>
      <trkpt lat="43.63463" lon="6.82427">
        <ele>325.8</ele>
        <time>2019-03-24T09:24:50Z</time>
      </trkpt>
      <trkpt lat="43.63463" lon="6.82412">
        <ele>325.8</ele>
        <time>2019-03-24T09:24:52Z</time>
      </trkpt>
      <trkpt lat="43.63461" lon="6.82395">
        <ele>326</ele>
        <time>2019-03-24T09:24:54Z</time>
      </trkpt>
      <trkpt lat="43.63457" lon="6.8238">
        <ele>326</ele>
        <time>2019-03-24T09:24:56Z</time>
      </trkpt>
      <trkpt lat="43.63453" lon="6.82358">
        <ele>326.2</ele>
        <time>2019-03-24T09:24:59Z</time>
      </trkpt>
      <trkpt lat="43.63453" lon="6.8234">
        <ele>326.4</ele>
        <time>2019-03-24T09:25:01Z</time>
      </trkpt>
      <trkpt lat="43.63452" lon="6.82331">
        <ele>326.4</ele>
        <time>2019-03-24T09:25:02Z</time>
      </trkpt>
      <trkpt lat="43.6345" lon="6.82304">
        <ele>326.2</ele>
        <time>2019-03-24T09:25:05Z</time>
      </trkpt>
      <trkpt lat="43.63449" lon="6.82296">
        <ele>326.4</ele>
        <time>2019-03-24T09:25:06Z</time>
      </trkpt>
      <trkpt lat="43.63449" lon="6.82288">
        <ele>326.4</ele>
        <time>2019-03-24T09:25:07Z</time>
      </trkpt>
      <trkpt lat="43.63439" lon="6.82262">
        <ele>326.2</ele>
        <time>2019-03-24T09:25:10Z</time>
      </trkpt>
      <trkpt lat="43.63435" lon="6.82255">
        <ele>326.2</ele>
        <time>2019-03-24T09:25:11Z</time>
      </trkpt>
      <trkpt lat="43.63425" lon="6.82239">
        <ele>325.8</ele>
        <time>2019-03-24T09:25:14Z</time>
      </trkpt>
      <trkpt lat="43.6341" lon="6.82215">
        <ele>325.4</ele>
        <time>2019-03-24T09:25:20Z</time>
      </trkpt>
      <trkpt lat="43.63395" lon="6.8218">
        <ele>325.2</ele>
        <time>2019-03-24T09:25:26Z</time>
      </trkpt>
      <trkpt lat="43.63383" lon="6.82157">
        <ele>324.8</ele>
        <time>2019-03-24T09:25:30Z</time>
      </trkpt>
      <trkpt lat="43.63379" lon="6.82146">
        <ele>324.6</ele>
        <time>2019-03-24T09:25:34Z</time>
      </trkpt>
      <trkpt lat="43.63379" lon="6.82143">
        <ele>324.4</ele>
        <time>2019-03-24T09:25:35Z</time>
      </trkpt>
      <trkpt lat="43.63376" lon="6.8213">
        <ele>324.2</ele>
        <time>2019-03-24T09:25:39Z</time>
      </trkpt>
      <trkpt lat="43.63375" lon="6.82127">
        <ele>324.2</ele>
        <time>2019-03-24T09:25:40Z</time>
      </trkpt>
      <trkpt lat="43.63369" lon="6.82115">
        <ele>324</ele>
        <time>2019-03-24T09:25:43Z</time>
      </trkpt>
      <trkpt lat="43.63366" lon="6.8211">
        <ele>323.8</ele>
        <time>2019-03-24T09:25:44Z</time>
      </trkpt>
      <trkpt lat="43.6336" lon="6.82094">
        <ele>323</ele>
        <time>2019-03-24T09:25:47Z</time>
      </trkpt>
      <trkpt lat="43.63343" lon="6.8207">
        <ele>322.8</ele>
        <time>2019-03-24T09:25:51Z</time>
      </trkpt>
      <trkpt lat="43.63338" lon="6.82064">
        <ele>322.6</ele>
        <time>2019-03-24T09:25:52Z</time>
      </trkpt>
      <trkpt lat="43.63327" lon="6.82051">
        <ele>322.6</ele>
        <time>2019-03-24T09:25:54Z</time>
      </trkpt>
      <trkpt lat="43.63317" lon="6.82038">
        <ele>322.2</ele>
        <time>2019-03-24T09:25:56Z</time>
      </trkpt>
      <trkpt lat="43.63304" lon="6.82025">
        <ele>321.8</ele>
        <time>2019-03-24T09:25:58Z</time>
      </trkpt>
      <trkpt lat="43.63298" lon="6.82018">
        <ele>321.6</ele>
        <time>2019-03-24T09:25:59Z</time>
      </trkpt>
      <trkpt lat="43.63291" lon="6.82013">
        <ele>321.6</ele>
        <time>2019-03-24T09:26:00Z</time>
      </trkpt>
      <trkpt lat="43.63271" lon="6.81995">
        <ele>321.2</ele>
        <time>2019-03-24T09:26:03Z</time>
      </trkpt>
      <trkpt lat="43.63264" lon="6.81989">
        <ele>321</ele>
        <time>2019-03-24T09:26:04Z</time>
      </trkpt>
      <trkpt lat="43.63253" lon="6.8198">
        <ele>320.6</ele>
        <time>2019-03-24T09:26:06Z</time>
      </trkpt>
      <trkpt lat="43.63251" lon="6.81977">
        <ele>320.4</ele>
        <time>2019-03-24T09:26:07Z</time>
      </trkpt>
      <trkpt lat="43.6325" lon="6.81971">
        <ele>320.2</ele>
        <time>2019-03-24T09:26:09Z</time>
      </trkpt>
      <trkpt lat="43.63249" lon="6.81966">
        <ele>320</ele>
        <time>2019-03-24T09:26:11Z</time>
      </trkpt>
      <trkpt lat="43.63246" lon="6.81958">
        <ele>319.6</ele>
        <time>2019-03-24T09:26:16Z</time>
      </trkpt>
      <trkpt lat="43.63246" lon="6.81955">
        <ele>319.6</ele>
        <time>2019-03-24T09:26:17Z</time>
      </trkpt>
      <trkpt lat="43.63253" lon="6.81949">
        <ele>318.6</ele>
        <time>2019-03-24T09:26:21Z</time>
      </trkpt>
      <trkpt lat="43.63252" lon="6.81948">
        <ele>318.2</ele>
        <time>2019-03-24T09:26:22Z</time>
      </trkpt>
      <trkpt lat="43.6325" lon="6.81945">
        <ele>318</ele>
        <time>2019-03-24T09:26:23Z</time>
      </trkpt>
      <trkpt lat="43.63247" lon="6.81942">
        <ele>317.4</ele>
        <time>2019-03-24T09:26:24Z</time>
      </trkpt>
      <trkpt lat="43.63242" lon="6.81936">
        <ele>316.4</ele>
        <time>2019-03-24T09:26:26Z</time>
      </trkpt>
      <trkpt lat="43.63243" lon="6.81935">
        <ele>315.6</ele>
        <time>2019-03-24T09:26:27Z</time>
      </trkpt>
      <trkpt lat="43.63244" lon="6.81936">
        <ele>314.8</ele>
        <time>2019-03-24T09:26:28Z</time>
      </trkpt>
      <trkpt lat="43.63245" lon="6.81936">
        <ele>314</ele>
        <time>2019-03-24T09:26:29Z</time>
      </trkpt>
      <trkpt lat="43.63244" lon="6.81935">
        <ele>313.6</ele>
        <time>2019-03-24T09:26:32Z</time>
      </trkpt>
      <trkpt lat="43.63235" lon="6.81927">
        <ele>312.4</ele>
        <time>2019-03-24T09:26:35Z</time>
      </trkpt>
      <trkpt lat="43.63242" lon="6.8192">
        <ele>311.2</ele>
        <time>2019-03-24T09:26:38Z</time>
      </trkpt>
      <trkpt lat="43.63248" lon="6.81918">
        <ele>310.4</ele>
        <time>2019-03-24T09:26:40Z</time>
      </trkpt>
      <trkpt lat="43.63249" lon="6.81917">
        <ele>310</ele>
        <time>2019-03-24T09:26:41Z</time>
      </trkpt>
      <trkpt lat="43.63249" lon="6.81916">
        <ele>309.6</ele>
        <time>2019-03-24T09:26:44Z</time>
      </trkpt>
      <trkpt lat="43.63241" lon="6.81908">
        <ele>309.2</ele>
        <time>2019-03-24T09:26:46Z</time>
      </trkpt>
      <trkpt lat="43.63237" lon="6.81904">
        <ele>309</ele>
        <time>2019-03-24T09:26:47Z</time>
      </trkpt>
      <trkpt lat="43.63234" lon="6.81898">
        <ele>308.2</ele>
        <time>2019-03-24T09:26:49Z</time>
      </trkpt>
      <trkpt lat="43.63234" lon="6.81896">
        <ele>307.8</ele>
        <time>2019-03-24T09:26:50Z</time>
      </trkpt>
      <trkpt lat="43.63231" lon="6.81893">
        <ele>307.2</ele>
        <time>2019-03-24T09:26:51Z</time>
      </trkpt>
      <trkpt lat="43.63229" lon="6.81893">
        <ele>306.6</ele>
        <time>2019-03-24T09:26:52Z</time>
      </trkpt>
      <trkpt lat="43.63225" lon="6.81892">
        <ele>305.8</ele>
        <time>2019-03-24T09:26:53Z</time>
      </trkpt>
      <trkpt lat="43.63221" lon="6.81894">
        <ele>305</ele>
        <time>2019-03-24T09:26:54Z</time>
      </trkpt>
      <trkpt lat="43.63214" lon="6.81899">
        <ele>304.4</ele>
        <time>2019-03-24T09:26:56Z</time>
      </trkpt>
      <trkpt lat="43.6321" lon="6.81901">
        <ele>304.2</ele>
        <time>2019-03-24T09:26:57Z</time>
      </trkpt>
      <trkpt lat="43.63206" lon="6.81903">
        <ele>303.8</ele>
        <time>2019-03-24T09:26:58Z</time>
      </trkpt>
      <trkpt lat="43.63195" lon="6.81913">
        <ele>303.2</ele>
        <time>2019-03-24T09:27:01Z</time>
      </trkpt>
      <trkpt lat="43.63191" lon="6.81917">
        <ele>303.2</ele>
        <time>2019-03-24T09:27:02Z</time>
      </trkpt>
      <trkpt lat="43.63187" lon="6.8192">
        <ele>302.8</ele>
        <time>2019-03-24T09:27:03Z</time>
      </trkpt>
      <trkpt lat="43.63182" lon="6.81923">
        <ele>302.6</ele>
        <time>2019-03-24T09:27:04Z</time>
      </trkpt>
      <trkpt lat="43.63174" lon="6.81928">
        <ele>302.2</ele>
        <time>2019-03-24T09:27:06Z</time>
      </trkpt>
      <trkpt lat="43.63164" lon="6.81933">
        <ele>301.6</ele>
        <time>2019-03-24T09:27:08Z</time>
      </trkpt>
      <trkpt lat="43.63151" lon="6.81939">
        <ele>301</ele>
        <time>2019-03-24T09:27:10Z</time>
      </trkpt>
      <trkpt lat="43.63134" lon="6.81948">
        <ele>300.4</ele>
        <time>2019-03-24T09:27:13Z</time>
      </trkpt>
      <trkpt lat="43.63126" lon="6.81955">
        <ele>300</ele>
        <time>2019-03-24T09:27:15Z</time>
      </trkpt>
      <trkpt lat="43.63124" lon="6.81956">
        <ele>299.4</ele>
        <time>2019-03-24T09:27:16Z</time>
      </trkpt>
      <trkpt lat="43.63123" lon="6.81956">
        <ele>299.2</ele>
        <time>2019-03-24T09:27:17Z</time>
      </trkpt>
      <trkpt lat="43.63119" lon="6.8196">
        <ele>297.8</ele>
        <time>2019-03-24T09:27:22Z</time>
      </trkpt>
      <trkpt lat="43.63118" lon="6.81966">
        <ele>296.6</ele>
        <time>2019-03-24T09:27:23Z</time>
      </trkpt>
      <trkpt lat="43.63113" lon="6.81975">
        <ele>295</ele>
        <time>2019-03-24T09:27:25Z</time>
      </trkpt>
      <trkpt lat="43.63111" lon="6.81979">
        <ele>294.6</ele>
        <time>2019-03-24T09:27:26Z</time>
      </trkpt>
      <trkpt lat="43.63109" lon="6.81985">
        <ele>293.6</ele>
        <time>2019-03-24T09:27:27Z</time>
      </trkpt>
      <trkpt lat="43.63106" lon="6.81993">
        <ele>292</ele>
        <time>2019-03-24T09:27:29Z</time>
      </trkpt>
      <trkpt lat="43.63102" lon="6.82">
        <ele>291</ele>
        <time>2019-03-24T09:27:31Z</time>
      </trkpt>
      <trkpt lat="43.63093" lon="6.8201">
        <ele>289.6</ele>
        <time>2019-03-24T09:27:34Z</time>
      </trkpt>
      <trkpt lat="43.6309" lon="6.82013">
        <ele>289</ele>
        <time>2019-03-24T09:27:35Z</time>
      </trkpt>
      <trkpt lat="43.63086" lon="6.82016">
        <ele>288.6</ele>
        <time>2019-03-24T09:27:36Z</time>
      </trkpt>
      <trkpt lat="43.63074" lon="6.82031">
        <ele>287.4</ele>
        <time>2019-03-24T09:27:40Z</time>
      </trkpt>
      <trkpt lat="43.63071" lon="6.82034">
        <ele>287</ele>
        <time>2019-03-24T09:27:41Z</time>
      </trkpt>
      <trkpt lat="43.63063" lon="6.82044">
        <ele>286.4</ele>
        <time>2019-03-24T09:27:44Z</time>
      </trkpt>
      <trkpt lat="43.63059" lon="6.8205">
        <ele>285.6</ele>
        <time>2019-03-24T09:27:46Z</time>
      </trkpt>
      <trkpt lat="43.63058" lon="6.82055">
        <ele>284.8</ele>
        <time>2019-03-24T09:27:47Z</time>
      </trkpt>
      <trkpt lat="43.63051" lon="6.82065">
        <ele>283.2</ele>
        <time>2019-03-24T09:27:50Z</time>
      </trkpt>
      <trkpt lat="43.63045" lon="6.8207">
        <ele>282.2</ele>
        <time>2019-03-24T09:27:52Z</time>
      </trkpt>
      <trkpt lat="43.63039" lon="6.82074">
        <ele>281.2</ele>
        <time>2019-03-24T09:27:54Z</time>
      </trkpt>
      <trkpt lat="43.63033" lon="6.82079">
        <ele>280.2</ele>
        <time>2019-03-24T09:27:56Z</time>
      </trkpt>
      <trkpt lat="43.6303" lon="6.82081">
        <ele>279.6</ele>
        <time>2019-03-24T09:27:57Z</time>
      </trkpt>
      <trkpt lat="43.63025" lon="6.82087">
        <ele>278.4</ele>
        <time>2019-03-24T09:27:59Z</time>
      </trkpt>
      <trkpt lat="43.63021" lon="6.82095">
        <ele>277</ele>
        <time>2019-03-24T09:28:01Z</time>
      </trkpt>
      <trkpt lat="43.63017" lon="6.82106">
        <ele>275.2</ele>
        <time>2019-03-24T09:28:03Z</time>
      </trkpt>
      <trkpt lat="43.63014" lon="6.82117">
        <ele>273.6</ele>
        <time>2019-03-24T09:28:05Z</time>
      </trkpt>
      <trkpt lat="43.63011" lon="6.82127">
        <ele>272.2</ele>
        <time>2019-03-24T09:28:07Z</time>
      </trkpt>
      <trkpt lat="43.63008" lon="6.82138">
        <ele>270.6</ele>
        <time>2019-03-24T09:28:09Z</time>
      </trkpt>
      <trkpt lat="43.63004" lon="6.82149">
        <ele>269.2</ele>
        <time>2019-03-24T09:28:11Z</time>
      </trkpt>
      <trkpt lat="43.63002" lon="6.82161">
        <ele>268</ele>
        <time>2019-03-24T09:28:13Z</time>
      </trkpt>
      <trkpt lat="43.62999" lon="6.82172">
        <ele>267</ele>
        <time>2019-03-24T09:28:15Z</time>
      </trkpt>
      <trkpt lat="43.62995" lon="6.82184">
        <ele>265.8</ele>
        <time>2019-03-24T09:28:17Z</time>
      </trkpt>
      <trkpt lat="43.62993" lon="6.82189">
        <ele>265.2</ele>
        <time>2019-03-24T09:28:18Z</time>
      </trkpt>
      <trkpt lat="43.62992" lon="6.82195">
        <ele>264.8</ele>
        <time>2019-03-24T09:28:19Z</time>
      </trkpt>
      <trkpt lat="43.6299" lon="6.82206">
        <ele>263.6</ele>
        <time>2019-03-24T09:28:21Z</time>
      </trkpt>
      <trkpt lat="43.6299" lon="6.82217">
        <ele>262.4</ele>
        <time>2019-03-24T09:28:23Z</time>
      </trkpt>
      <trkpt lat="43.62989" lon="6.82229">
        <ele>261.4</ele>
        <time>2019-03-24T09:28:25Z</time>
      </trkpt>
      <trkpt lat="43.62988" lon="6.82241">
        <ele>260.2</ele>
        <time>2019-03-24T09:28:27Z</time>
      </trkpt>
      <trkpt lat="43.62988" lon="6.82248">
        <ele>258.4</ele>
        <time>2019-03-24T09:28:28Z</time>
      </trkpt>
      <trkpt lat="43.62988" lon="6.82255">
        <ele>257</ele>
        <time>2019-03-24T09:28:29Z</time>
      </trkpt>
      <trkpt lat="43.62987" lon="6.8226">
        <ele>256</ele>
        <time>2019-03-24T09:28:30Z</time>
      </trkpt>
      <trkpt lat="43.62987" lon="6.82265">
        <ele>254.4</ele>
        <time>2019-03-24T09:28:31Z</time>
      </trkpt>
      <trkpt lat="43.62985" lon="6.82275">
        <ele>253</ele>
        <time>2019-03-24T09:28:33Z</time>
      </trkpt>
      <trkpt lat="43.62981" lon="6.8229">
        <ele>252</ele>
        <time>2019-03-24T09:28:36Z</time>
      </trkpt>
      <trkpt lat="43.62975" lon="6.8231">
        <ele>250.8</ele>
        <time>2019-03-24T09:28:40Z</time>
      </trkpt>
      <trkpt lat="43.62971" lon="6.8232">
        <ele>250.4</ele>
        <time>2019-03-24T09:28:42Z</time>
      </trkpt>
      <trkpt lat="43.62952" lon="6.82349">
        <ele>250.2</ele>
        <time>2019-03-24T09:28:49Z</time>
      </trkpt>
      <trkpt lat="43.62939" lon="6.82376">
        <ele>250</ele>
        <time>2019-03-24T09:28:55Z</time>
      </trkpt>
      <trkpt lat="43.62937" lon="6.82378">
        <ele>250.2</ele>
        <time>2019-03-24T09:28:56Z</time>
      </trkpt>
      <trkpt lat="43.62933" lon="6.82375">
        <ele>250</ele>
        <time>2019-03-24T09:28:57Z</time>
      </trkpt>
      <trkpt lat="43.62928" lon="6.8237">
        <ele>249.4</ele>
        <time>2019-03-24T09:28:58Z</time>
      </trkpt>
      <trkpt lat="43.62917" lon="6.82358">
        <ele>248.4</ele>
        <time>2019-03-24T09:29:00Z</time>
      </trkpt>
      <trkpt lat="43.62912" lon="6.82351">
        <ele>247.6</ele>
        <time>2019-03-24T09:29:01Z</time>
      </trkpt>
      <trkpt lat="43.62906" lon="6.82344">
        <ele>247</ele>
        <time>2019-03-24T09:29:02Z</time>
      </trkpt>
      <trkpt lat="43.62895" lon="6.82327">
        <ele>245.6</ele>
        <time>2019-03-24T09:29:04Z</time>
      </trkpt>
      <trkpt lat="43.62887" lon="6.82306">
        <ele>244.4</ele>
        <time>2019-03-24T09:29:06Z</time>
      </trkpt>
      <trkpt lat="43.62886" lon="6.82294">
        <ele>243.6</ele>
        <time>2019-03-24T09:29:07Z</time>
      </trkpt>
      <trkpt lat="43.62886" lon="6.82283">
        <ele>243</ele>
        <time>2019-03-24T09:29:08Z</time>
      </trkpt>
      <trkpt lat="43.62882" lon="6.82266">
        <ele>242.4</ele>
        <time>2019-03-24T09:29:10Z</time>
      </trkpt>
      <trkpt lat="43.62878" lon="6.82258">
        <ele>241.8</ele>
        <time>2019-03-24T09:29:11Z</time>
      </trkpt>
      <trkpt lat="43.62866" lon="6.82248">
        <ele>240</ele>
        <time>2019-03-24T09:29:13Z</time>
      </trkpt>
      <trkpt lat="43.6286" lon="6.82245">
        <ele>239</ele>
        <time>2019-03-24T09:29:14Z</time>
      </trkpt>
      <trkpt lat="43.62853" lon="6.82244">
        <ele>238</ele>
        <time>2019-03-24T09:29:15Z</time>
      </trkpt>
      <trkpt lat="43.62847" lon="6.82244">
        <ele>236.8</ele>
        <time>2019-03-24T09:29:16Z</time>
      </trkpt>
      <trkpt lat="43.62836" lon="6.82247">
        <ele>234.8</ele>
        <time>2019-03-24T09:29:18Z</time>
      </trkpt>
      <trkpt lat="43.6283" lon="6.82252">
        <ele>233.6</ele>
        <time>2019-03-24T09:29:19Z</time>
      </trkpt>
      <trkpt lat="43.62825" lon="6.82259">
        <ele>232.4</ele>
        <time>2019-03-24T09:29:20Z</time>
      </trkpt>
      <trkpt lat="43.62818" lon="6.82265">
        <ele>231.4</ele>
        <time>2019-03-24T09:29:21Z</time>
      </trkpt>
      <trkpt lat="43.62811" lon="6.82271">
        <ele>230</ele>
        <time>2019-03-24T09:29:22Z</time>
      </trkpt>
      <trkpt lat="43.62803" lon="6.8228">
        <ele>228.8</ele>
        <time>2019-03-24T09:29:23Z</time>
      </trkpt>
      <trkpt lat="43.62798" lon="6.82291">
        <ele>227.6</ele>
        <time>2019-03-24T09:29:24Z</time>
      </trkpt>
      <trkpt lat="43.62794" lon="6.82302">
        <ele>226.4</ele>
        <time>2019-03-24T09:29:25Z</time>
      </trkpt>
      <trkpt lat="43.62791" lon="6.82312">
        <ele>225.4</ele>
        <time>2019-03-24T09:29:26Z</time>
      </trkpt>
      <trkpt lat="43.62789" lon="6.82322">
        <ele>224.2</ele>
        <time>2019-03-24T09:29:27Z</time>
      </trkpt>
      <trkpt lat="43.62786" lon="6.82332">
        <ele>223.2</ele>
        <time>2019-03-24T09:29:28Z</time>
      </trkpt>
      <trkpt lat="43.62785" lon="6.82342">
        <ele>222.2</ele>
        <time>2019-03-24T09:29:29Z</time>
      </trkpt>
      <trkpt lat="43.62786" lon="6.82355">
        <ele>220.8</ele>
        <time>2019-03-24T09:29:30Z</time>
      </trkpt>
      <trkpt lat="43.62788" lon="6.82366">
        <ele>219.6</ele>
        <time>2019-03-24T09:29:31Z</time>
      </trkpt>
      <trkpt lat="43.6279" lon="6.82377">
        <ele>218.4</ele>
        <time>2019-03-24T09:29:32Z</time>
      </trkpt>
      <trkpt lat="43.6279" lon="6.82389">
        <ele>217.2</ele>
        <time>2019-03-24T09:29:33Z</time>
      </trkpt>
      <trkpt lat="43.6279" lon="6.82401">
        <ele>215.6</ele>
        <time>2019-03-24T09:29:34Z</time>
      </trkpt>
      <trkpt lat="43.62788" lon="6.82412">
        <ele>214.2</ele>
        <time>2019-03-24T09:29:35Z</time>
      </trkpt>
      <trkpt lat="43.62785" lon="6.82423">
        <ele>213.2</ele>
        <time>2019-03-24T09:29:36Z</time>
      </trkpt>
      <trkpt lat="43.62782" lon="6.82433">
        <ele>212</ele>
        <time>2019-03-24T09:29:37Z</time>
      </trkpt>
      <trkpt lat="43.62779" lon="6.82454">
        <ele>210.2</ele>
        <time>2019-03-24T09:29:39Z</time>
      </trkpt>
      <trkpt lat="43.62779" lon="6.82463">
        <ele>209.6</ele>
        <time>2019-03-24T09:29:40Z</time>
      </trkpt>
      <trkpt lat="43.62778" lon="6.82472">
        <ele>209.2</ele>
        <time>2019-03-24T09:29:41Z</time>
      </trkpt>
      <trkpt lat="43.62778" lon="6.82479">
        <ele>208.8</ele>
        <time>2019-03-24T09:29:42Z</time>
      </trkpt>
      <trkpt lat="43.62775" lon="6.82487">
        <ele>208.2</ele>
        <time>2019-03-24T09:29:44Z</time>
      </trkpt>
      <trkpt lat="43.62772" lon="6.82494">
        <ele>207.8</ele>
        <time>2019-03-24T09:29:46Z</time>
      </trkpt>
      <trkpt lat="43.62764" lon="6.82503">
        <ele>207.2</ele>
        <time>2019-03-24T09:29:49Z</time>
      </trkpt>
      <trkpt lat="43.6276" lon="6.82504">
        <ele>207</ele>
        <time>2019-03-24T09:29:50Z</time>
      </trkpt>
      <trkpt lat="43.6275" lon="6.8251">
        <ele>206.8</ele>
        <time>2019-03-24T09:29:52Z</time>
      </trkpt>
      <trkpt lat="43.62744" lon="6.82514">
        <ele>206.6</ele>
        <time>2019-03-24T09:29:53Z</time>
      </trkpt>
      <trkpt lat="43.62725" lon="6.82533">
        <ele>205.4</ele>
        <time>2019-03-24T09:29:57Z</time>
      </trkpt>
      <trkpt lat="43.62717" lon="6.82543">
        <ele>205</ele>
        <time>2019-03-24T09:29:59Z</time>
      </trkpt>
      <trkpt lat="43.62714" lon="6.8255">
        <ele>204.2</ele>
        <time>2019-03-24T09:30:00Z</time>
      </trkpt>
      <trkpt lat="43.62711" lon="6.82564">
        <ele>203.6</ele>
        <time>2019-03-24T09:30:02Z</time>
      </trkpt>
      <trkpt lat="43.62706" lon="6.82593">
        <ele>203.4</ele>
        <time>2019-03-24T09:30:06Z</time>
      </trkpt>
      <trkpt lat="43.62705" lon="6.82601">
        <ele>203.4</ele>
        <time>2019-03-24T09:30:07Z</time>
      </trkpt>
      <trkpt lat="43.62705" lon="6.82623">
        <ele>203.4</ele>
        <time>2019-03-24T09:30:10Z</time>
      </trkpt>
      <trkpt lat="43.62706" lon="6.82631">
        <ele>203.2</ele>
        <time>2019-03-24T09:30:11Z</time>
      </trkpt>
      <trkpt lat="43.62709" lon="6.82647">
        <ele>203</ele>
        <time>2019-03-24T09:30:13Z</time>
      </trkpt>
      <trkpt lat="43.62708" lon="6.82671">
        <ele>203.2</ele>
        <time>2019-03-24T09:30:16Z</time>
      </trkpt>
      <trkpt lat="43.62695" lon="6.82696">
        <ele>203.2</ele>
        <time>2019-03-24T09:30:20Z</time>
      </trkpt>
      <trkpt lat="43.62691" lon="6.82703">
        <ele>203</ele>
        <time>2019-03-24T09:30:21Z</time>
      </trkpt>
      <trkpt lat="43.62686" lon="6.82718">
        <ele>203</ele>
        <time>2019-03-24T09:30:23Z</time>
      </trkpt>
      <trkpt lat="43.62683" lon="6.82737">
        <ele>203</ele>
        <time>2019-03-24T09:30:25Z</time>
      </trkpt>
      <trkpt lat="43.6268" lon="6.82747">
        <ele>202.6</ele>
        <time>2019-03-24T09:30:26Z</time>
      </trkpt>
      <trkpt lat="43.62671" lon="6.82768">
        <ele>202</ele>
        <time>2019-03-24T09:30:28Z</time>
      </trkpt>
      <trkpt lat="43.62668" lon="6.82779">
        <ele>201.4</ele>
        <time>2019-03-24T09:30:29Z</time>
      </trkpt>
      <trkpt lat="43.62665" lon="6.82791">
        <ele>201</ele>
        <time>2019-03-24T09:30:30Z</time>
      </trkpt>
      <trkpt lat="43.62662" lon="6.82802">
        <ele>200.8</ele>
        <time>2019-03-24T09:30:31Z</time>
      </trkpt>
      <trkpt lat="43.62657" lon="6.8282">
        <ele>200.4</ele>
        <time>2019-03-24T09:30:33Z</time>
      </trkpt>
      <trkpt lat="43.62657" lon="6.8284">
        <ele>200.8</ele>
        <time>2019-03-24T09:30:36Z</time>
      </trkpt>
      <trkpt lat="43.62657" lon="6.82852">
        <ele>201</ele>
        <time>2019-03-24T09:30:40Z</time>
      </trkpt>
      <trkpt lat="43.6266" lon="6.82869">
        <ele>202</ele>
        <time>2019-03-24T09:30:46Z</time>
      </trkpt>
      <trkpt lat="43.62661" lon="6.82872">
        <ele>202.2</ele>
        <time>2019-03-24T09:30:47Z</time>
      </trkpt>
      <trkpt lat="43.62662" lon="6.82883">
        <ele>203.2</ele>
        <time>2019-03-24T09:30:51Z</time>
      </trkpt>
      <trkpt lat="43.62664" lon="6.82892">
        <ele>203.6</ele>
        <time>2019-03-24T09:30:54Z</time>
      </trkpt>
      <trkpt lat="43.62665" lon="6.82906">
        <ele>204.2</ele>
        <time>2019-03-24T09:30:59Z</time>
      </trkpt>
      <trkpt lat="43.62664" lon="6.82911">
        <ele>204.4</ele>
        <time>2019-03-24T09:31:01Z</time>
      </trkpt>
      <trkpt lat="43.62663" lon="6.82922">
        <ele>205.2</ele>
        <time>2019-03-24T09:31:07Z</time>
      </trkpt>
      <trkpt lat="43.62664" lon="6.82924">
        <ele>205.6</ele>
        <time>2019-03-24T09:31:08Z</time>
      </trkpt>
      <trkpt lat="43.62666" lon="6.82923">
        <ele>206.2</ele>
        <time>2019-03-24T09:31:10Z</time>
      </trkpt>
      <trkpt lat="43.62666" lon="6.82922">
        <ele>206.4</ele>
        <time>2019-03-24T09:31:11Z</time>
      </trkpt>
      <trkpt lat="43.62668" lon="6.82924">
        <ele>206.6</ele>
        <time>2019-03-24T09:31:29Z</time>
      </trkpt>
      <trkpt lat="43.6267" lon="6.82932">
        <ele>207.2</ele>
        <time>2019-03-24T09:31:33Z</time>
      </trkpt>
      <trkpt lat="43.62673" lon="6.82939">
        <ele>205.6</ele>
        <time>2019-03-24T09:31:37Z</time>
      </trkpt>
      <trkpt lat="43.62673" lon="6.82941">
        <ele>204.8</ele>
        <time>2019-03-24T09:31:38Z</time>
      </trkpt>
      <trkpt lat="43.62674" lon="6.82943">
        <ele>203.8</ele>
        <time>2019-03-24T09:31:39Z</time>
      </trkpt>
      <trkpt lat="43.62676" lon="6.82946">
        <ele>201.6</ele>
        <time>2019-03-24T09:31:41Z</time>
      </trkpt>
      <trkpt lat="43.62677" lon="6.82948">
        <ele>200.4</ele>
        <time>2019-03-24T09:31:42Z</time>
      </trkpt>
      <trkpt lat="43.62678" lon="6.82949">
        <ele>199</ele>
        <time>2019-03-24T09:31:43Z</time>
      </trkpt>
      <trkpt lat="43.62679" lon="6.8295">
        <ele>197.8</ele>
        <time>2019-03-24T09:31:44Z</time>
      </trkpt>
      <trkpt lat="43.62679" lon="6.82951">
        <ele>196.6</ele>
        <time>2019-03-24T09:31:45Z</time>
      </trkpt>
      <trkpt lat="43.6268" lon="6.82952">
        <ele>195.2</ele>
        <time>2019-03-24T09:31:46Z</time>
      </trkpt>
      <trkpt lat="43.62681" lon="6.82954">
        <ele>193.8</ele>
        <time>2019-03-24T09:31:47Z</time>
      </trkpt>
      <trkpt lat="43.62682" lon="6.82955">
        <ele>192.6</ele>
        <time>2019-03-24T09:31:48Z</time>
      </trkpt>
      <trkpt lat="43.62683" lon="6.82957">
        <ele>191.2</ele>
        <time>2019-03-24T09:31:49Z</time>
      </trkpt>
      <trkpt lat="43.62684" lon="6.82959">
        <ele>190.2</ele>
        <time>2019-03-24T09:31:50Z</time>
      </trkpt>
      <trkpt lat="43.62686" lon="6.82961">
        <ele>189.2</ele>
        <time>2019-03-24T09:31:51Z</time>
      </trkpt>
      <trkpt lat="43.62687" lon="6.82963">
        <ele>188.2</ele>
        <time>2019-03-24T09:31:52Z</time>
      </trkpt>
      <trkpt lat="43.62689" lon="6.82967">
        <ele>186.6</ele>
        <time>2019-03-24T09:31:54Z</time>
      </trkpt>
      <trkpt lat="43.6269" lon="6.8297">
        <ele>186</ele>
        <time>2019-03-24T09:31:55Z</time>
      </trkpt>
      <trkpt lat="43.6269" lon="6.82971">
        <ele>185.6</ele>
        <time>2019-03-24T09:31:56Z</time>
      </trkpt>
      <trkpt lat="43.62691" lon="6.82978">
        <ele>185.8</ele>
        <time>2019-03-24T09:31:59Z</time>
      </trkpt>
      <trkpt lat="43.62692" lon="6.8298">
        <ele>185.8</ele>
        <time>2019-03-24T09:32:01Z</time>
      </trkpt>
      <trkpt lat="43.62696" lon="6.82992">
        <ele>186.4</ele>
        <time>2019-03-24T09:32:08Z</time>
      </trkpt>
      <trkpt lat="43.62696" lon="6.82995">
        <ele>187</ele>
        <time>2019-03-24T09:32:09Z</time>
      </trkpt>
      <trkpt lat="43.62697" lon="6.82998">
        <ele>188.4</ele>
        <time>2019-03-24T09:32:11Z</time>
      </trkpt>
      <trkpt lat="43.62696" lon="6.83">
        <ele>189.6</ele>
        <time>2019-03-24T09:32:12Z</time>
      </trkpt>
      <trkpt lat="43.62696" lon="6.83002">
        <ele>190.8</ele>
        <time>2019-03-24T09:32:13Z</time>
      </trkpt>
      <trkpt lat="43.62697" lon="6.83006">
        <ele>192.2</ele>
        <time>2019-03-24T09:32:15Z</time>
      </trkpt>
      <trkpt lat="43.62698" lon="6.83008">
        <ele>193.6</ele>
        <time>2019-03-24T09:32:16Z</time>
      </trkpt>
      <trkpt lat="43.62698" lon="6.8301">
        <ele>194.8</ele>
        <time>2019-03-24T09:32:17Z</time>
      </trkpt>
      <trkpt lat="43.62699" lon="6.83011">
        <ele>195.8</ele>
        <time>2019-03-24T09:32:18Z</time>
      </trkpt>
      <trkpt lat="43.62699" lon="6.83012">
        <ele>196.8</ele>
        <time>2019-03-24T09:32:19Z</time>
      </trkpt>
      <trkpt lat="43.62698" lon="6.83014">
        <ele>198</ele>
        <time>2019-03-24T09:32:20Z</time>
      </trkpt>
      <trkpt lat="43.62698" lon="6.83015">
        <ele>198.8</ele>
        <time>2019-03-24T09:32:21Z</time>
      </trkpt>
      <trkpt lat="43.62698" lon="6.83017">
        <ele>199.2</ele>
        <time>2019-03-24T09:32:22Z</time>
      </trkpt>
      <trkpt lat="43.62698" lon="6.8302">
        <ele>200.6</ele>
        <time>2019-03-24T09:32:24Z</time>
      </trkpt>
      <trkpt lat="43.627" lon="6.83023">
        <ele>201.8</ele>
        <time>2019-03-24T09:32:26Z</time>
      </trkpt>
      <trkpt lat="43.627" lon="6.83027">
        <ele>202.8</ele>
        <time>2019-03-24T09:32:28Z</time>
      </trkpt>
      <trkpt lat="43.62702" lon="6.83032">
        <ele>204.4</ele>
        <time>2019-03-24T09:32:31Z</time>
      </trkpt>
      <trkpt lat="43.62704" lon="6.83036">
        <ele>205.6</ele>
        <time>2019-03-24T09:32:33Z</time>
      </trkpt>
      <trkpt lat="43.62705" lon="6.83039">
        <ele>207</ele>
        <time>2019-03-24T09:32:35Z</time>
      </trkpt>
      <trkpt lat="43.62707" lon="6.83043">
        <ele>209</ele>
        <time>2019-03-24T09:32:37Z</time>
      </trkpt>
      <trkpt lat="43.62709" lon="6.83046">
        <ele>210.6</ele>
        <time>2019-03-24T09:32:39Z</time>
      </trkpt>
      <trkpt lat="43.62711" lon="6.83049">
        <ele>212</ele>
        <time>2019-03-24T09:32:41Z</time>
      </trkpt>
      <trkpt lat="43.62712" lon="6.8305">
        <ele>213</ele>
        <time>2019-03-24T09:32:42Z</time>
      </trkpt>
      <trkpt lat="43.62713" lon="6.83051">
        <ele>213.6</ele>
        <time>2019-03-24T09:32:43Z</time>
      </trkpt>
      <trkpt lat="43.62714" lon="6.83053">
        <ele>214.8</ele>
        <time>2019-03-24T09:32:45Z</time>
      </trkpt>
      <trkpt lat="43.62716" lon="6.83056">
        <ele>216</ele>
        <time>2019-03-24T09:32:47Z</time>
      </trkpt>
      <trkpt lat="43.62718" lon="6.83059">
        <ele>217</ele>
        <time>2019-03-24T09:32:49Z</time>
      </trkpt>
      <trkpt lat="43.62719" lon="6.83061">
        <ele>217.6</ele>
        <time>2019-03-24T09:32:50Z</time>
      </trkpt>
      <trkpt lat="43.62721" lon="6.83064">
        <ele>218.6</ele>
        <time>2019-03-24T09:32:52Z</time>
      </trkpt>
      <trkpt lat="43.62722" lon="6.83067">
        <ele>219.8</ele>
        <time>2019-03-24T09:32:54Z</time>
      </trkpt>
      <trkpt lat="43.62723" lon="6.83068">
        <ele>220.4</ele>
        <time>2019-03-24T09:32:55Z</time>
      </trkpt>
      <trkpt lat="43.62724" lon="6.83071">
        <ele>220.8</ele>
        <time>2019-03-24T09:32:56Z</time>
      </trkpt>
      <trkpt lat="43.62725" lon="6.83072">
        <ele>221.2</ele>
        <time>2019-03-24T09:32:57Z</time>
      </trkpt>
      <trkpt lat="43.62727" lon="6.83074">
        <ele>221.8</ele>
        <time>2019-03-24T09:32:58Z</time>
      </trkpt>
      <trkpt lat="43.62729" lon="6.83077">
        <ele>222.8</ele>
        <time>2019-03-24T09:33:00Z</time>
      </trkpt>
      <trkpt lat="43.6273" lon="6.83079">
        <ele>223.2</ele>
        <time>2019-03-24T09:33:01Z</time>
      </trkpt>
      <trkpt lat="43.62732" lon="6.83085">
        <ele>224.2</ele>
        <time>2019-03-24T09:33:04Z</time>
      </trkpt>
      <trkpt lat="43.62733" lon="6.83089">
        <ele>225.2</ele>
        <time>2019-03-24T09:33:06Z</time>
      </trkpt>
      <trkpt lat="43.62733" lon="6.8309">
        <ele>225.6</ele>
        <time>2019-03-24T09:33:07Z</time>
      </trkpt>
      <trkpt lat="43.62735" lon="6.83095">
        <ele>227</ele>
        <time>2019-03-24T09:33:10Z</time>
      </trkpt>
      <trkpt lat="43.62737" lon="6.83098">
        <ele>228.2</ele>
        <time>2019-03-24T09:33:13Z</time>
      </trkpt>
      <trkpt lat="43.62738" lon="6.83099">
        <ele>228.6</ele>
        <time>2019-03-24T09:33:14Z</time>
      </trkpt>
      <trkpt lat="43.62741" lon="6.83103">
        <ele>229.4</ele>
        <time>2019-03-24T09:33:17Z</time>
      </trkpt>
      <trkpt lat="43.62759" lon="6.83142">
        <ele>236.4</ele>
        <time>2019-03-24T09:33:43Z</time>
      </trkpt>
      <trkpt lat="43.62765" lon="6.83149">
        <ele>237.2</ele>
        <time>2019-03-24T09:33:50Z</time>
      </trkpt>
      <trkpt lat="43.62766" lon="6.83151">
        <ele>237.6</ele>
        <time>2019-03-24T09:33:51Z</time>
      </trkpt>
      <trkpt lat="43.6277" lon="6.83162">
        <ele>238.6</ele>
        <time>2019-03-24T09:33:57Z</time>
      </trkpt>
      <trkpt lat="43.6277" lon="6.83164">
        <ele>238.8</ele>
        <time>2019-03-24T09:33:58Z</time>
      </trkpt>
      <trkpt lat="43.62768" lon="6.83173">
        <ele>239.8</ele>
        <time>2019-03-24T09:34:02Z</time>
      </trkpt>
      <trkpt lat="43.62766" lon="6.83176">
        <ele>240.2</ele>
        <time>2019-03-24T09:34:03Z</time>
      </trkpt>
      <trkpt lat="43.62761" lon="6.83181">
        <ele>240.4</ele>
        <time>2019-03-24T09:34:05Z</time>
      </trkpt>
      <trkpt lat="43.62754" lon="6.83182">
        <ele>240.8</ele>
        <time>2019-03-24T09:34:07Z</time>
      </trkpt>
      <trkpt lat="43.62752" lon="6.83182">
        <ele>241</ele>
        <time>2019-03-24T09:34:08Z</time>
      </trkpt>
      <trkpt lat="43.62749" lon="6.83182">
        <ele>241</ele>
        <time>2019-03-24T09:34:10Z</time>
      </trkpt>
      <trkpt lat="43.62748" lon="6.83182">
        <ele>241.2</ele>
        <time>2019-03-24T09:34:11Z</time>
      </trkpt>
      <trkpt lat="43.62747" lon="6.83182">
        <ele>241.6</ele>
        <time>2019-03-24T09:34:12Z</time>
      </trkpt>
      <trkpt lat="43.62745" lon="6.83184">
        <ele>242</ele>
        <time>2019-03-24T09:34:13Z</time>
      </trkpt>
      <trkpt lat="43.62745" lon="6.8319">
        <ele>243</ele>
        <time>2019-03-24T09:34:15Z</time>
      </trkpt>
      <trkpt lat="43.62745" lon="6.83193">
        <ele>243.2</ele>
        <time>2019-03-24T09:34:16Z</time>
      </trkpt>
      <trkpt lat="43.62746" lon="6.83197">
        <ele>243.2</ele>
        <time>2019-03-24T09:34:17Z</time>
      </trkpt>
      <trkpt lat="43.62749" lon="6.83215">
        <ele>243</ele>
        <time>2019-03-24T09:34:22Z</time>
      </trkpt>
      <trkpt lat="43.62755" lon="6.83245">
        <ele>242.6</ele>
        <time>2019-03-24T09:34:28Z</time>
      </trkpt>
      <trkpt lat="43.6276" lon="6.83265">
        <ele>242.6</ele>
        <time>2019-03-24T09:34:33Z</time>
      </trkpt>
      <trkpt lat="43.62769" lon="6.83292">
        <ele>243</ele>
        <time>2019-03-24T09:34:39Z</time>
      </trkpt>
      <trkpt lat="43.62773" lon="6.83312">
        <ele>243</ele>
        <time>2019-03-24T09:34:44Z</time>
      </trkpt>
      <trkpt lat="43.62774" lon="6.83316">
        <ele>243</ele>
        <time>2019-03-24T09:34:45Z</time>
      </trkpt>
      <trkpt lat="43.62783" lon="6.83345">
        <ele>242.8</ele>
        <time>2019-03-24T09:34:51Z</time>
      </trkpt>
      <trkpt lat="43.62796" lon="6.83366">
        <ele>242.8</ele>
        <time>2019-03-24T09:34:56Z</time>
      </trkpt>
      <trkpt lat="43.62802" lon="6.83377">
        <ele>242.2</ele>
        <time>2019-03-24T09:35:00Z</time>
      </trkpt>
      <trkpt lat="43.62805" lon="6.83385">
        <ele>241</ele>
        <time>2019-03-24T09:35:02Z</time>
      </trkpt>
      <trkpt lat="43.62813" lon="6.83395">
        <ele>239.8</ele>
        <time>2019-03-24T09:35:05Z</time>
      </trkpt>
      <trkpt lat="43.62816" lon="6.83397">
        <ele>239.8</ele>
        <time>2019-03-24T09:35:06Z</time>
      </trkpt>
      <trkpt lat="43.62826" lon="6.83409">
        <ele>240.4</ele>
        <time>2019-03-24T09:35:11Z</time>
      </trkpt>
      <trkpt lat="43.62836" lon="6.83421">
        <ele>241</ele>
        <time>2019-03-24T09:35:15Z</time>
      </trkpt>
      <trkpt lat="43.62838" lon="6.83424">
        <ele>241</ele>
        <time>2019-03-24T09:35:16Z</time>
      </trkpt>
      <trkpt lat="43.62851" lon="6.83432">
        <ele>242</ele>
        <time>2019-03-24T09:35:21Z</time>
      </trkpt>
      <trkpt lat="43.62867" lon="6.83434">
        <ele>240.8</ele>
        <time>2019-03-24T09:35:26Z</time>
      </trkpt>
      <trkpt lat="43.62884" lon="6.83445">
        <ele>240.6</ele>
        <time>2019-03-24T09:35:31Z</time>
      </trkpt>
      <trkpt lat="43.62893" lon="6.83455">
        <ele>239.8</ele>
        <time>2019-03-24T09:35:35Z</time>
      </trkpt>
      <trkpt lat="43.62896" lon="6.83459">
        <ele>239.4</ele>
        <time>2019-03-24T09:35:36Z</time>
      </trkpt>
      <trkpt lat="43.62913" lon="6.83486">
        <ele>239</ele>
        <time>2019-03-24T09:35:44Z</time>
      </trkpt>
      <trkpt lat="43.62917" lon="6.83494">
        <ele>238.6</ele>
        <time>2019-03-24T09:35:46Z</time>
      </trkpt>
      <trkpt lat="43.62924" lon="6.83508">
        <ele>238.8</ele>
        <time>2019-03-24T09:35:50Z</time>
      </trkpt>
      <trkpt lat="43.62938" lon="6.83523">
        <ele>239.4</ele>
        <time>2019-03-24T09:35:55Z</time>
      </trkpt>
      <trkpt lat="43.62947" lon="6.83534">
        <ele>239.6</ele>
        <time>2019-03-24T09:35:59Z</time>
      </trkpt>
      <trkpt lat="43.62953" lon="6.83541">
        <ele>240.2</ele>
        <time>2019-03-24T09:36:01Z</time>
      </trkpt>
      <trkpt lat="43.62958" lon="6.83546">
        <ele>240.8</ele>
        <time>2019-03-24T09:36:03Z</time>
      </trkpt>
      <trkpt lat="43.62968" lon="6.83556">
        <ele>241.8</ele>
        <time>2019-03-24T09:36:07Z</time>
      </trkpt>
      <trkpt lat="43.62977" lon="6.83565">
        <ele>242</ele>
        <time>2019-03-24T09:36:10Z</time>
      </trkpt>
      <trkpt lat="43.6298" lon="6.83569">
        <ele>242.2</ele>
        <time>2019-03-24T09:36:11Z</time>
      </trkpt>
      <trkpt lat="43.62994" lon="6.83583">
        <ele>242.4</ele>
        <time>2019-03-24T09:36:17Z</time>
      </trkpt>
      <trkpt lat="43.63" lon="6.83589">
        <ele>241</ele>
        <time>2019-03-24T09:36:21Z</time>
      </trkpt>
      <trkpt lat="43.63004" lon="6.83595">
        <ele>240.6</ele>
        <time>2019-03-24T09:36:23Z</time>
      </trkpt>
      <trkpt lat="43.63009" lon="6.83606">
        <ele>241.2</ele>
        <time>2019-03-24T09:36:27Z</time>
      </trkpt>
      <trkpt lat="43.63012" lon="6.8361">
        <ele>241.2</ele>
        <time>2019-03-24T09:36:30Z</time>
      </trkpt>
      <trkpt lat="43.63015" lon="6.83613">
        <ele>241</ele>
        <time>2019-03-24T09:36:32Z</time>
      </trkpt>
      <trkpt lat="43.63021" lon="6.83619">
        <ele>240.4</ele>
        <time>2019-03-24T09:36:34Z</time>
      </trkpt>
      <trkpt lat="43.63028" lon="6.83626">
        <ele>239.8</ele>
        <time>2019-03-24T09:36:36Z</time>
      </trkpt>
      <trkpt lat="43.63037" lon="6.83632">
        <ele>238.8</ele>
        <time>2019-03-24T09:36:38Z</time>
      </trkpt>
      <trkpt lat="43.63043" lon="6.83633">
        <ele>238.6</ele>
        <time>2019-03-24T09:36:39Z</time>
      </trkpt>
      <trkpt lat="43.63054" lon="6.83639">
        <ele>237.6</ele>
        <time>2019-03-24T09:36:42Z</time>
      </trkpt>
      <trkpt lat="43.63057" lon="6.83644">
        <ele>237.2</ele>
        <time>2019-03-24T09:36:43Z</time>
      </trkpt>
      <trkpt lat="43.63059" lon="6.83648">
        <ele>236.8</ele>
        <time>2019-03-24T09:36:44Z</time>
      </trkpt>
      <trkpt lat="43.6307" lon="6.83665">
        <ele>236.2</ele>
        <time>2019-03-24T09:36:48Z</time>
      </trkpt>
      <trkpt lat="43.63073" lon="6.83669">
        <ele>236</ele>
        <time>2019-03-24T09:36:49Z</time>
      </trkpt>
      <trkpt lat="43.63092" lon="6.83697">
        <ele>235.4</ele>
        <time>2019-03-24T09:36:56Z</time>
      </trkpt>
      <trkpt lat="43.63117" lon="6.83716">
        <ele>235.4</ele>
        <time>2019-03-24T09:37:03Z</time>
      </trkpt>
      <trkpt lat="43.6312" lon="6.83719">
        <ele>235.4</ele>
        <time>2019-03-24T09:37:04Z</time>
      </trkpt>
      <trkpt lat="43.63136" lon="6.83739">
        <ele>235.4</ele>
        <time>2019-03-24T09:37:09Z</time>
      </trkpt>
      <trkpt lat="43.63138" lon="6.83744">
        <ele>235.4</ele>
        <time>2019-03-24T09:37:10Z</time>
      </trkpt>
      <trkpt lat="43.63145" lon="6.83759">
        <ele>235.4</ele>
        <time>2019-03-24T09:37:13Z</time>
      </trkpt>
      <trkpt lat="43.63144" lon="6.83765">
        <ele>235.4</ele>
        <time>2019-03-24T09:37:14Z</time>
      </trkpt>
      <trkpt lat="43.63143" lon="6.83774">
        <ele>235</ele>
        <time>2019-03-24T09:37:15Z</time>
      </trkpt>
      <trkpt lat="43.63143" lon="6.83784">
        <ele>234.4</ele>
        <time>2019-03-24T09:37:16Z</time>
      </trkpt>
      <trkpt lat="43.63144" lon="6.83793">
        <ele>234</ele>
        <time>2019-03-24T09:37:17Z</time>
      </trkpt>
      <trkpt lat="43.63146" lon="6.83802">
        <ele>233.6</ele>
        <time>2019-03-24T09:37:18Z</time>
      </trkpt>
      <trkpt lat="43.63152" lon="6.83815">
        <ele>233.2</ele>
        <time>2019-03-24T09:37:20Z</time>
      </trkpt>
      <trkpt lat="43.63155" lon="6.8382">
        <ele>233.2</ele>
        <time>2019-03-24T09:37:21Z</time>
      </trkpt>
      <trkpt lat="43.63166" lon="6.83832">
        <ele>232.8</ele>
        <time>2019-03-24T09:37:24Z</time>
      </trkpt>
      <trkpt lat="43.6317" lon="6.83833">
        <ele>232.8</ele>
        <time>2019-03-24T09:37:25Z</time>
      </trkpt>
      <trkpt lat="43.63173" lon="6.83827">
        <ele>233</ele>
        <time>2019-03-24T09:37:27Z</time>
      </trkpt>
      <trkpt lat="43.63168" lon="6.83821">
        <ele>233.4</ele>
        <time>2019-03-24T09:37:30Z</time>
      </trkpt>
      <trkpt lat="43.63166" lon="6.83819">
        <ele>233.8</ele>
        <time>2019-03-24T09:37:31Z</time>
      </trkpt>
      <trkpt lat="43.63161" lon="6.83811">
        <ele>234.8</ele>
        <time>2019-03-24T09:37:36Z</time>
      </trkpt>
      <trkpt lat="43.63167" lon="6.83815">
        <ele>234.8</ele>
        <time>2019-03-24T09:37:39Z</time>
      </trkpt>
      <trkpt lat="43.63173" lon="6.83817">
        <ele>235.4</ele>
        <time>2019-03-24T09:37:41Z</time>
      </trkpt>
      <trkpt lat="43.63182" lon="6.8382">
        <ele>235.8</ele>
        <time>2019-03-24T09:37:44Z</time>
      </trkpt>
      <trkpt lat="43.63212" lon="6.83832">
        <ele>236</ele>
        <time>2019-03-24T09:37:53Z</time>
      </trkpt>
      <trkpt lat="43.63227" lon="6.83848">
        <ele>235.8</ele>
        <time>2019-03-24T09:37:58Z</time>
      </trkpt>
      <trkpt lat="43.63246" lon="6.83887">
        <ele>236</ele>
        <time>2019-03-24T09:38:06Z</time>
      </trkpt>
      <trkpt lat="43.63262" lon="6.83913">
        <ele>236.4</ele>
        <time>2019-03-24T09:38:12Z</time>
      </trkpt>
      <trkpt lat="43.63267" lon="6.8393">
        <ele>236.6</ele>
        <time>2019-03-24T09:38:15Z</time>
      </trkpt>
      <trkpt lat="43.63272" lon="6.83941">
        <ele>236.8</ele>
        <time>2019-03-24T09:38:17Z</time>
      </trkpt>
      <trkpt lat="43.6329" lon="6.83978">
        <ele>237</ele>
        <time>2019-03-24T09:38:24Z</time>
      </trkpt>
      <trkpt lat="43.63292" lon="6.83983">
        <ele>237</ele>
        <time>2019-03-24T09:38:25Z</time>
      </trkpt>
      <trkpt lat="43.63294" lon="6.83998">
        <ele>237.2</ele>
        <time>2019-03-24T09:38:28Z</time>
      </trkpt>
      <trkpt lat="43.63287" lon="6.84017">
        <ele>236.8</ele>
        <time>2019-03-24T09:38:32Z</time>
      </trkpt>
      <trkpt lat="43.63276" lon="6.84036">
        <ele>237.4</ele>
        <time>2019-03-24T09:38:36Z</time>
      </trkpt>
      <trkpt lat="43.63273" lon="6.8404">
        <ele>237.4</ele>
        <time>2019-03-24T09:38:37Z</time>
      </trkpt>
      <trkpt lat="43.63265" lon="6.84059">
        <ele>237.8</ele>
        <time>2019-03-24T09:38:41Z</time>
      </trkpt>
      <trkpt lat="43.63261" lon="6.84068">
        <ele>238.2</ele>
        <time>2019-03-24T09:38:43Z</time>
      </trkpt>
      <trkpt lat="43.6326" lon="6.84077">
        <ele>238.4</ele>
        <time>2019-03-24T09:38:45Z</time>
      </trkpt>
      <trkpt lat="43.63262" lon="6.84087">
        <ele>238.4</ele>
        <time>2019-03-24T09:38:47Z</time>
      </trkpt>
      <trkpt lat="43.63268" lon="6.84101">
        <ele>238.6</ele>
        <time>2019-03-24T09:38:50Z</time>
      </trkpt>
      <trkpt lat="43.63276" lon="6.84112">
        <ele>238.2</ele>
        <time>2019-03-24T09:38:52Z</time>
      </trkpt>
      <trkpt lat="43.63302" lon="6.84143">
        <ele>237.8</ele>
        <time>2019-03-24T09:38:59Z</time>
      </trkpt>
      <trkpt lat="43.63316" lon="6.84158">
        <ele>237.2</ele>
        <time>2019-03-24T09:39:04Z</time>
      </trkpt>
      <trkpt lat="43.63314" lon="6.8416">
        <ele>236.6</ele>
        <time>2019-03-24T09:39:06Z</time>
      </trkpt>
      <trkpt lat="43.63312" lon="6.84159">
        <ele>236.4</ele>
        <time>2019-03-24T09:39:07Z</time>
      </trkpt>
      <trkpt lat="43.63302" lon="6.84156">
        <ele>235</ele>
        <time>2019-03-24T09:39:10Z</time>
      </trkpt>
      <trkpt lat="43.63297" lon="6.84156">
        <ele>234.6</ele>
        <time>2019-03-24T09:39:11Z</time>
      </trkpt>
      <trkpt lat="43.63293" lon="6.84157">
        <ele>234</ele>
        <time>2019-03-24T09:39:12Z</time>
      </trkpt>
      <trkpt lat="43.63288" lon="6.84168">
        <ele>233.6</ele>
        <time>2019-03-24T09:39:14Z</time>
      </trkpt>
      <trkpt lat="43.6328" lon="6.84172">
        <ele>233.2</ele>
        <time>2019-03-24T09:39:16Z</time>
      </trkpt>
      <trkpt lat="43.63276" lon="6.84171">
        <ele>233</ele>
        <time>2019-03-24T09:39:17Z</time>
      </trkpt>
      <trkpt lat="43.63272" lon="6.8417">
        <ele>232.8</ele>
        <time>2019-03-24T09:39:18Z</time>
      </trkpt>
      <trkpt lat="43.63266" lon="6.84169">
        <ele>232</ele>
        <time>2019-03-24T09:39:20Z</time>
      </trkpt>
      <trkpt lat="43.63263" lon="6.84168">
        <ele>231.8</ele>
        <time>2019-03-24T09:39:21Z</time>
      </trkpt>
      <trkpt lat="43.6325" lon="6.84166">
        <ele>231.2</ele>
        <time>2019-03-24T09:39:26Z</time>
      </trkpt>
      <trkpt lat="43.63229" lon="6.84166">
        <ele>232.4</ele>
        <time>2019-03-24T09:39:33Z</time>
      </trkpt>
      <trkpt lat="43.63225" lon="6.84167">
        <ele>232.8</ele>
        <time>2019-03-24T09:39:35Z</time>
      </trkpt>
      <trkpt lat="43.63219" lon="6.84169">
        <ele>234</ele>
        <time>2019-03-24T09:39:38Z</time>
      </trkpt>
      <trkpt lat="43.63216" lon="6.8417">
        <ele>234.4</ele>
        <time>2019-03-24T09:39:39Z</time>
      </trkpt>
      <trkpt lat="43.63212" lon="6.84172">
        <ele>235.6</ele>
        <time>2019-03-24T09:39:41Z</time>
      </trkpt>
      <trkpt lat="43.632" lon="6.84179">
        <ele>236.8</ele>
        <time>2019-03-24T09:39:45Z</time>
      </trkpt>
      <trkpt lat="43.63197" lon="6.84181">
        <ele>237.2</ele>
        <time>2019-03-24T09:39:46Z</time>
      </trkpt>
      <trkpt lat="43.6319" lon="6.84187">
        <ele>238.4</ele>
        <time>2019-03-24T09:39:49Z</time>
      </trkpt>
      <trkpt lat="43.63185" lon="6.84189">
        <ele>239.6</ele>
        <time>2019-03-24T09:39:51Z</time>
      </trkpt>
      <trkpt lat="43.63182" lon="6.8419">
        <ele>240.2</ele>
        <time>2019-03-24T09:39:52Z</time>
      </trkpt>
      <trkpt lat="43.63179" lon="6.8419">
        <ele>240.8</ele>
        <time>2019-03-24T09:39:53Z</time>
      </trkpt>
      <trkpt lat="43.63166" lon="6.84194">
        <ele>241.2</ele>
        <time>2019-03-24T09:39:56Z</time>
      </trkpt>
      <trkpt lat="43.63158" lon="6.84202">
        <ele>241.8</ele>
        <time>2019-03-24T09:39:58Z</time>
      </trkpt>
      <trkpt lat="43.63152" lon="6.84209">
        <ele>242.4</ele>
        <time>2019-03-24T09:40:00Z</time>
      </trkpt>
      <trkpt lat="43.63144" lon="6.84215">
        <ele>243</ele>
        <time>2019-03-24T09:40:02Z</time>
      </trkpt>
      <trkpt lat="43.63137" lon="6.84219">
        <ele>243.6</ele>
        <time>2019-03-24T09:40:04Z</time>
      </trkpt>
      <trkpt lat="43.63132" lon="6.84228">
        <ele>244.2</ele>
        <time>2019-03-24T09:40:07Z</time>
      </trkpt>
      <trkpt lat="43.63131" lon="6.84234">
        <ele>244.8</ele>
        <time>2019-03-24T09:40:09Z</time>
      </trkpt>
      <trkpt lat="43.63129" lon="6.84239">
        <ele>245.4</ele>
        <time>2019-03-24T09:40:11Z</time>
      </trkpt>
      <trkpt lat="43.63126" lon="6.84244">
        <ele>245.6</ele>
        <time>2019-03-24T09:40:13Z</time>
      </trkpt>
      <trkpt lat="43.63122" lon="6.84241">
        <ele>245</ele>
        <time>2019-03-24T09:40:15Z</time>
      </trkpt>
      <trkpt lat="43.63117" lon="6.84236">
        <ele>244.8</ele>
        <time>2019-03-24T09:40:17Z</time>
      </trkpt>
      <trkpt lat="43.63111" lon="6.84228">
        <ele>244.4</ele>
        <time>2019-03-24T09:40:19Z</time>
      </trkpt>
      <trkpt lat="43.63108" lon="6.84224">
        <ele>244.2</ele>
        <time>2019-03-24T09:40:20Z</time>
      </trkpt>
      <trkpt lat="43.63094" lon="6.84205">
        <ele>243.2</ele>
        <time>2019-03-24T09:40:24Z</time>
      </trkpt>
      <trkpt lat="43.6309" lon="6.84203">
        <ele>243</ele>
        <time>2019-03-24T09:40:25Z</time>
      </trkpt>
      <trkpt lat="43.63082" lon="6.84205">
        <ele>243</ele>
        <time>2019-03-24T09:40:28Z</time>
      </trkpt>
      <trkpt lat="43.63081" lon="6.84214">
        <ele>243.6</ele>
        <time>2019-03-24T09:40:33Z</time>
      </trkpt>
      <trkpt lat="43.63082" lon="6.84216">
        <ele>244.2</ele>
        <time>2019-03-24T09:40:35Z</time>
      </trkpt>
      <trkpt lat="43.63083" lon="6.84218">
        <ele>244.6</ele>
        <time>2019-03-24T09:40:36Z</time>
      </trkpt>
      <trkpt lat="43.63084" lon="6.84221">
        <ele>245.2</ele>
        <time>2019-03-24T09:40:38Z</time>
      </trkpt>
      <trkpt lat="43.63085" lon="6.84222">
        <ele>245.4</ele>
        <time>2019-03-24T09:40:39Z</time>
      </trkpt>
      <trkpt lat="43.63086" lon="6.84224">
        <ele>245.8</ele>
        <time>2019-03-24T09:40:40Z</time>
      </trkpt>
      <trkpt lat="43.63091" lon="6.84248">
        <ele>247.2</ele>
        <time>2019-03-24T09:41:48Z</time>
      </trkpt>
      <trkpt lat="43.63089" lon="6.84249">
        <ele>247.2</ele>
        <time>2019-03-24T09:41:49Z</time>
      </trkpt>
      <trkpt lat="43.63086" lon="6.84255">
        <ele>247.4</ele>
        <time>2019-03-24T09:41:53Z</time>
      </trkpt>
      <trkpt lat="43.6309" lon="6.84268">
        <ele>247.4</ele>
        <time>2019-03-24T09:41:58Z</time>
      </trkpt>
      <trkpt lat="43.6309" lon="6.84271">
        <ele>247.6</ele>
        <time>2019-03-24T09:41:59Z</time>
      </trkpt>
      <trkpt lat="43.63091" lon="6.84276">
        <ele>248.6</ele>
        <time>2019-03-24T09:42:01Z</time>
      </trkpt>
      <trkpt lat="43.6309" lon="6.84282">
        <ele>248.4</ele>
        <time>2019-03-24T09:42:04Z</time>
      </trkpt>
      <trkpt lat="43.63088" lon="6.84285">
        <ele>248.4</ele>
        <time>2019-03-24T09:42:06Z</time>
      </trkpt>
      <trkpt lat="43.63088" lon="6.84289">
        <ele>248.2</ele>
        <time>2019-03-24T09:42:09Z</time>
      </trkpt>
      <trkpt lat="43.62815" lon="6.85168">
        <ele>235.4</ele>
        <time>2019-03-24T09:56:09Z</time>
      </trkpt>
      <trkpt lat="43.62813" lon="6.85177">
        <ele>236</ele>
        <time>2019-03-24T09:56:12Z</time>
      </trkpt>
      <trkpt lat="43.62812" lon="6.8518">
        <ele>236</ele>
        <time>2019-03-24T09:56:13Z</time>
      </trkpt>
      <trkpt lat="43.62812" lon="6.85202">
        <ele>236.6</ele>
        <time>2019-03-24T09:56:21Z</time>
      </trkpt>
      <trkpt lat="43.62811" lon="6.85224">
        <ele>237.4</ele>
        <time>2019-03-24T09:56:28Z</time>
      </trkpt>
      <trkpt lat="43.6281" lon="6.85234">
        <ele>237.8</ele>
        <time>2019-03-24T09:56:32Z</time>
      </trkpt>
      <trkpt lat="43.62808" lon="6.85242">
        <ele>238.4</ele>
        <time>2019-03-24T09:56:36Z</time>
      </trkpt>
      <trkpt lat="43.62807" lon="6.85249">
        <ele>239.4</ele>
        <time>2019-03-24T09:56:39Z</time>
      </trkpt>
      <trkpt lat="43.62806" lon="6.85257">
        <ele>240.8</ele>
        <time>2019-03-24T09:56:43Z</time>
      </trkpt>
      <trkpt lat="43.62806" lon="6.85259">
        <ele>241.2</ele>
        <time>2019-03-24T09:56:44Z</time>
      </trkpt>
      <trkpt lat="43.62805" lon="6.85268">
        <ele>242</ele>
        <time>2019-03-24T09:56:48Z</time>
      </trkpt>
      <trkpt lat="43.62804" lon="6.85282">
        <ele>242.2</ele>
        <time>2019-03-24T09:56:54Z</time>
      </trkpt>
      <trkpt lat="43.62803" lon="6.853">
        <ele>242.8</ele>
        <time>2019-03-24T09:57:01Z</time>
      </trkpt>
      <trkpt lat="43.62802" lon="6.85305">
        <ele>243</ele>
        <time>2019-03-24T09:57:03Z</time>
      </trkpt>
      <trkpt lat="43.62798" lon="6.85319">
        <ele>244</ele>
        <time>2019-03-24T09:57:09Z</time>
      </trkpt>
      <trkpt lat="43.62796" lon="6.85325">
        <ele>244</ele>
        <time>2019-03-24T09:57:11Z</time>
      </trkpt>
      <trkpt lat="43.6278" lon="6.85336">
        <ele>243.4</ele>
        <time>2019-03-24T09:57:16Z</time>
      </trkpt>
      <trkpt lat="43.62768" lon="6.85343">
        <ele>242.8</ele>
        <time>2019-03-24T09:57:19Z</time>
      </trkpt>
      <trkpt lat="43.62759" lon="6.85351">
        <ele>242.6</ele>
        <time>2019-03-24T09:57:21Z</time>
      </trkpt>
      <trkpt lat="43.62755" lon="6.85356">
        <ele>242.4</ele>
        <time>2019-03-24T09:57:22Z</time>
      </trkpt>
      <trkpt lat="43.62746" lon="6.85367">
        <ele>241.8</ele>
        <time>2019-03-24T09:57:24Z</time>
      </trkpt>
      <trkpt lat="43.62735" lon="6.85381">
        <ele>241.8</ele>
        <time>2019-03-24T09:57:27Z</time>
      </trkpt>
      <trkpt lat="43.6272" lon="6.85396">
        <ele>242.8</ele>
        <time>2019-03-24T09:57:32Z</time>
      </trkpt>
      <trkpt lat="43.62708" lon="6.85408">
        <ele>244.2</ele>
        <time>2019-03-24T09:57:38Z</time>
      </trkpt>
      <trkpt lat="43.62702" lon="6.85415">
        <ele>245.2</ele>
        <time>2019-03-24T09:57:41Z</time>
      </trkpt>
      <trkpt lat="43.62687" lon="6.85429">
        <ele>245</ele>
        <time>2019-03-24T09:57:46Z</time>
      </trkpt>
      <trkpt lat="43.62679" lon="6.85437">
        <ele>244.6</ele>
        <time>2019-03-24T09:57:48Z</time>
      </trkpt>
      <trkpt lat="43.62668" lon="6.85452">
        <ele>244</ele>
        <time>2019-03-24T09:57:51Z</time>
      </trkpt>
      <trkpt lat="43.62647" lon="6.85478">
        <ele>242.8</ele>
        <time>2019-03-24T09:57:56Z</time>
      </trkpt>
      <trkpt lat="43.62642" lon="6.85481">
        <ele>242.4</ele>
        <time>2019-03-24T09:57:57Z</time>
      </trkpt>
      <trkpt lat="43.62639" lon="6.85485">
        <ele>242.4</ele>
        <time>2019-03-24T09:57:58Z</time>
      </trkpt>
      <trkpt lat="43.62634" lon="6.85495">
        <ele>242.4</ele>
        <time>2019-03-24T09:58:00Z</time>
      </trkpt>
      <trkpt lat="43.62626" lon="6.85511">
        <ele>242.8</ele>
        <time>2019-03-24T09:58:04Z</time>
      </trkpt>
      <trkpt lat="43.62622" lon="6.85526">
        <ele>242.2</ele>
        <time>2019-03-24T09:58:07Z</time>
      </trkpt>
      <trkpt lat="43.62616" lon="6.85541">
        <ele>242</ele>
        <time>2019-03-24T09:58:10Z</time>
      </trkpt>
      <trkpt lat="43.62614" lon="6.85548">
        <ele>241.6</ele>
        <time>2019-03-24T09:58:11Z</time>
      </trkpt>
      <trkpt lat="43.62613" lon="6.85555">
        <ele>241.2</ele>
        <time>2019-03-24T09:58:12Z</time>
      </trkpt>
      <trkpt lat="43.6261" lon="6.85574">
        <ele>240.2</ele>
        <time>2019-03-24T09:58:14Z</time>
      </trkpt>
      <trkpt lat="43.62609" lon="6.85582">
        <ele>239.8</ele>
        <time>2019-03-24T09:58:15Z</time>
      </trkpt>
      <trkpt lat="43.62607" lon="6.8559">
        <ele>239.4</ele>
        <time>2019-03-24T09:58:16Z</time>
      </trkpt>
      <trkpt lat="43.62604" lon="6.85598">
        <ele>239</ele>
        <time>2019-03-24T09:58:17Z</time>
      </trkpt>
      <trkpt lat="43.62598" lon="6.85622">
        <ele>237.8</ele>
        <time>2019-03-24T09:58:20Z</time>
      </trkpt>
      <trkpt lat="43.62597" lon="6.8564">
        <ele>236.8</ele>
        <time>2019-03-24T09:58:22Z</time>
      </trkpt>
      <trkpt lat="43.62597" lon="6.8565">
        <ele>236.2</ele>
        <time>2019-03-24T09:58:23Z</time>
      </trkpt>
      <trkpt lat="43.62593" lon="6.85671">
        <ele>234.8</ele>
        <time>2019-03-24T09:58:25Z</time>
      </trkpt>
      <trkpt lat="43.62589" lon="6.85694">
        <ele>233.2</ele>
        <time>2019-03-24T09:58:27Z</time>
      </trkpt>
      <trkpt lat="43.62589" lon="6.85706">
        <ele>232.4</ele>
        <time>2019-03-24T09:58:28Z</time>
      </trkpt>
      <trkpt lat="43.62592" lon="6.85718">
        <ele>231.6</ele>
        <time>2019-03-24T09:58:29Z</time>
      </trkpt>
      <trkpt lat="43.62595" lon="6.85728">
        <ele>230.8</ele>
        <time>2019-03-24T09:58:30Z</time>
      </trkpt>
      <trkpt lat="43.62594" lon="6.85738">
        <ele>230</ele>
        <time>2019-03-24T09:58:31Z</time>
      </trkpt>
      <trkpt lat="43.62591" lon="6.85749">
        <ele>229.2</ele>
        <time>2019-03-24T09:58:32Z</time>
      </trkpt>
      <trkpt lat="43.62587" lon="6.85761">
        <ele>228</ele>
        <time>2019-03-24T09:58:33Z</time>
      </trkpt>
      <trkpt lat="43.62583" lon="6.85775">
        <ele>227</ele>
        <time>2019-03-24T09:58:34Z</time>
      </trkpt>
      <trkpt lat="43.62582" lon="6.8579">
        <ele>225.8</ele>
        <time>2019-03-24T09:58:35Z</time>
      </trkpt>
      <trkpt lat="43.62583" lon="6.85805">
        <ele>224.8</ele>
        <time>2019-03-24T09:58:36Z</time>
      </trkpt>
      <trkpt lat="43.62587" lon="6.85834">
        <ele>223</ele>
        <time>2019-03-24T09:58:38Z</time>
      </trkpt>
      <trkpt lat="43.62591" lon="6.85861">
        <ele>221.8</ele>
        <time>2019-03-24T09:58:40Z</time>
      </trkpt>
      <trkpt lat="43.62595" lon="6.85885">
        <ele>220.8</ele>
        <time>2019-03-24T09:58:42Z</time>
      </trkpt>
      <trkpt lat="43.62597" lon="6.85897">
        <ele>220.4</ele>
        <time>2019-03-24T09:58:43Z</time>
      </trkpt>
      <trkpt lat="43.62603" lon="6.85921">
        <ele>219.4</ele>
        <time>2019-03-24T09:58:45Z</time>
      </trkpt>
      <trkpt lat="43.62607" lon="6.85932">
        <ele>219</ele>
        <time>2019-03-24T09:58:46Z</time>
      </trkpt>
      <trkpt lat="43.62612" lon="6.85942">
        <ele>218.4</ele>
        <time>2019-03-24T09:58:47Z</time>
      </trkpt>
      <trkpt lat="43.62624" lon="6.85957">
        <ele>217.4</ele>
        <time>2019-03-24T09:58:50Z</time>
      </trkpt>
      <trkpt lat="43.62627" lon="6.85957">
        <ele>217.4</ele>
        <time>2019-03-24T09:58:51Z</time>
      </trkpt>
      <trkpt lat="43.62628" lon="6.85958">
        <ele>217.4</ele>
        <time>2019-03-24T09:58:52Z</time>
      </trkpt>
      <trkpt lat="43.62632" lon="6.85969">
        <ele>217.2</ele>
        <time>2019-03-24T09:58:55Z</time>
      </trkpt>
      <trkpt lat="43.62637" lon="6.85978">
        <ele>217.6</ele>
        <time>2019-03-24T09:58:57Z</time>
      </trkpt>
      <trkpt lat="43.62649" lon="6.85998">
        <ele>218</ele>
        <time>2019-03-24T09:59:01Z</time>
      </trkpt>
      <trkpt lat="43.62672" lon="6.86036">
        <ele>218.4</ele>
        <time>2019-03-24T09:59:08Z</time>
      </trkpt>
      <trkpt lat="43.62675" lon="6.86041">
        <ele>218.6</ele>
        <time>2019-03-24T09:59:09Z</time>
      </trkpt>
      <trkpt lat="43.62689" lon="6.86067">
        <ele>218.4</ele>
        <time>2019-03-24T09:59:14Z</time>
      </trkpt>
      <trkpt lat="43.62685" lon="6.86079">
        <ele>218.2</ele>
        <time>2019-03-24T09:59:16Z</time>
      </trkpt>
      <trkpt lat="43.6267" lon="6.86099">
        <ele>217</ele>
        <time>2019-03-24T09:59:19Z</time>
      </trkpt>
      <trkpt lat="43.62656" lon="6.86131">
        <ele>216.2</ele>
        <time>2019-03-24T09:59:23Z</time>
      </trkpt>
      <trkpt lat="43.62653" lon="6.86141">
        <ele>216.6</ele>
        <time>2019-03-24T09:59:26Z</time>
      </trkpt>
      <trkpt lat="43.62649" lon="6.86145">
        <ele>217.4</ele>
        <time>2019-03-24T09:59:29Z</time>
      </trkpt>
      <trkpt lat="43.62647" lon="6.86146">
        <ele>217.6</ele>
        <time>2019-03-24T09:59:30Z</time>
      </trkpt>
      <trkpt lat="43.62642" lon="6.86145">
        <ele>218.4</ele>
        <time>2019-03-24T09:59:32Z</time>
      </trkpt>
      <trkpt lat="43.62633" lon="6.86144">
        <ele>219.4</ele>
        <time>2019-03-24T09:59:35Z</time>
      </trkpt>
      <trkpt lat="43.62624" lon="6.86145">
        <ele>220.4</ele>
        <time>2019-03-24T09:59:38Z</time>
      </trkpt>
      <trkpt lat="43.62617" lon="6.86147">
        <ele>221.6</ele>
        <time>2019-03-24T09:59:41Z</time>
      </trkpt>
      <trkpt lat="43.62608" lon="6.86148">
        <ele>222.8</ele>
        <time>2019-03-24T09:59:44Z</time>
      </trkpt>
      <trkpt lat="43.62594" lon="6.8615">
        <ele>224</ele>
        <time>2019-03-24T09:59:48Z</time>
      </trkpt>
      <trkpt lat="43.62588" lon="6.86152">
        <ele>224.8</ele>
        <time>2019-03-24T09:59:50Z</time>
      </trkpt>
      <trkpt lat="43.62584" lon="6.86153">
        <ele>225.2</ele>
        <time>2019-03-24T09:59:51Z</time>
      </trkpt>
      <trkpt lat="43.62572" lon="6.86159">
        <ele>226.6</ele>
        <time>2019-03-24T09:59:55Z</time>
      </trkpt>
      <trkpt lat="43.6257" lon="6.86161">
        <ele>227</ele>
        <time>2019-03-24T09:59:56Z</time>
      </trkpt>
      <trkpt lat="43.62564" lon="6.86165">
        <ele>228</ele>
        <time>2019-03-24T09:59:58Z</time>
      </trkpt>
      <trkpt lat="43.62559" lon="6.86169">
        <ele>229.4</ele>
        <time>2019-03-24T10:00:00Z</time>
      </trkpt>
      <trkpt lat="43.62553" lon="6.86172">
        <ele>230.4</ele>
        <time>2019-03-24T10:00:02Z</time>
      </trkpt>
      <trkpt lat="43.62545" lon="6.86176">
        <ele>231.4</ele>
        <time>2019-03-24T10:00:05Z</time>
      </trkpt>
      <trkpt lat="43.6253" lon="6.86184">
        <ele>232</ele>
        <time>2019-03-24T10:00:09Z</time>
      </trkpt>
      <trkpt lat="43.62521" lon="6.8619">
        <ele>232.2</ele>
        <time>2019-03-24T10:00:11Z</time>
      </trkpt>
      <trkpt lat="43.62508" lon="6.86205">
        <ele>231</ele>
        <time>2019-03-24T10:00:14Z</time>
      </trkpt>
      <trkpt lat="43.62503" lon="6.86211">
        <ele>230.4</ele>
        <time>2019-03-24T10:00:15Z</time>
      </trkpt>
      <trkpt lat="43.62493" lon="6.86225">
        <ele>229</ele>
        <time>2019-03-24T10:00:17Z</time>
      </trkpt>
      <trkpt lat="43.62489" lon="6.86233">
        <ele>228.6</ele>
        <time>2019-03-24T10:00:18Z</time>
      </trkpt>
      <trkpt lat="43.62485" lon="6.86244">
        <ele>227.8</ele>
        <time>2019-03-24T10:00:19Z</time>
      </trkpt>
      <trkpt lat="43.62479" lon="6.86268">
        <ele>226</ele>
        <time>2019-03-24T10:00:21Z</time>
      </trkpt>
      <trkpt lat="43.62472" lon="6.86288">
        <ele>224.8</ele>
        <time>2019-03-24T10:00:23Z</time>
      </trkpt>
      <trkpt lat="43.62469" lon="6.86294">
        <ele>224</ele>
        <time>2019-03-24T10:00:24Z</time>
      </trkpt>
      <trkpt lat="43.62467" lon="6.86294">
        <ele>223.6</ele>
        <time>2019-03-24T10:00:25Z</time>
      </trkpt>
      <trkpt lat="43.62466" lon="6.86291">
        <ele>222.6</ele>
        <time>2019-03-24T10:00:26Z</time>
      </trkpt>
      <trkpt lat="43.62464" lon="6.86288">
        <ele>221.8</ele>
        <time>2019-03-24T10:00:27Z</time>
      </trkpt>
      <trkpt lat="43.62461" lon="6.86284">
        <ele>221</ele>
        <time>2019-03-24T10:00:28Z</time>
      </trkpt>
      <trkpt lat="43.62456" lon="6.8628">
        <ele>220.2</ele>
        <time>2019-03-24T10:00:29Z</time>
      </trkpt>
      <trkpt lat="43.6245" lon="6.86275">
        <ele>219.4</ele>
        <time>2019-03-24T10:00:30Z</time>
      </trkpt>
      <trkpt lat="43.62445" lon="6.8627">
        <ele>218.6</ele>
        <time>2019-03-24T10:00:31Z</time>
      </trkpt>
      <trkpt lat="43.62434" lon="6.86261">
        <ele>217.2</ele>
        <time>2019-03-24T10:00:33Z</time>
      </trkpt>
      <trkpt lat="43.62422" lon="6.86251">
        <ele>215.4</ele>
        <time>2019-03-24T10:00:35Z</time>
      </trkpt>
      <trkpt lat="43.62415" lon="6.86245">
        <ele>214.4</ele>
        <time>2019-03-24T10:00:36Z</time>
      </trkpt>
      <trkpt lat="43.62407" lon="6.8624">
        <ele>213.6</ele>
        <time>2019-03-24T10:00:37Z</time>
      </trkpt>
      <trkpt lat="43.6239" lon="6.8623">
        <ele>212.2</ele>
        <time>2019-03-24T10:00:39Z</time>
      </trkpt>
      <trkpt lat="43.62375" lon="6.86219">
        <ele>211.2</ele>
        <time>2019-03-24T10:00:41Z</time>
      </trkpt>
      <trkpt lat="43.62367" lon="6.86201">
        <ele>210.2</ele>
        <time>2019-03-24T10:00:43Z</time>
      </trkpt>
      <trkpt lat="43.62365" lon="6.86192">
        <ele>209.6</ele>
        <time>2019-03-24T10:00:44Z</time>
      </trkpt>
      <trkpt lat="43.62363" lon="6.86184">
        <ele>209</ele>
        <time>2019-03-24T10:00:45Z</time>
      </trkpt>
      <trkpt lat="43.62361" lon="6.86168">
        <ele>208</ele>
        <time>2019-03-24T10:00:47Z</time>
      </trkpt>
      <trkpt lat="43.62359" lon="6.86162">
        <ele>207.6</ele>
        <time>2019-03-24T10:00:48Z</time>
      </trkpt>
      <trkpt lat="43.62358" lon="6.86155">
        <ele>207</ele>
        <time>2019-03-24T10:00:49Z</time>
      </trkpt>
      <trkpt lat="43.62356" lon="6.86149">
        <ele>206.6</ele>
        <time>2019-03-24T10:00:50Z</time>
      </trkpt>
      <trkpt lat="43.6235" lon="6.86131">
        <ele>205.4</ele>
        <time>2019-03-24T10:00:53Z</time>
      </trkpt>
      <trkpt lat="43.62347" lon="6.86125">
        <ele>205.2</ele>
        <time>2019-03-24T10:00:54Z</time>
      </trkpt>
      <trkpt lat="43.62339" lon="6.86112">
        <ele>205</ele>
        <time>2019-03-24T10:00:56Z</time>
      </trkpt>
      <trkpt lat="43.62324" lon="6.86091">
        <ele>205.6</ele>
        <time>2019-03-24T10:01:00Z</time>
      </trkpt>
      <trkpt lat="43.6232" lon="6.86087">
        <ele>205.6</ele>
        <time>2019-03-24T10:01:01Z</time>
      </trkpt>
      <trkpt lat="43.62306" lon="6.86078">
        <ele>206.2</ele>
        <time>2019-03-24T10:01:04Z</time>
      </trkpt>
      <trkpt lat="43.62299" lon="6.86073">
        <ele>206.6</ele>
        <time>2019-03-24T10:01:06Z</time>
      </trkpt>
      <trkpt lat="43.62292" lon="6.86069">
        <ele>207</ele>
        <time>2019-03-24T10:01:08Z</time>
      </trkpt>
      <trkpt lat="43.62286" lon="6.86066">
        <ele>207.8</ele>
        <time>2019-03-24T10:01:10Z</time>
      </trkpt>
      <trkpt lat="43.62273" lon="6.86061">
        <ele>209</ele>
        <time>2019-03-24T10:01:14Z</time>
      </trkpt>
      <trkpt lat="43.62268" lon="6.8606">
        <ele>209.6</ele>
        <time>2019-03-24T10:01:16Z</time>
      </trkpt>
      <trkpt lat="43.62263" lon="6.86059">
        <ele>210</ele>
        <time>2019-03-24T10:01:18Z</time>
      </trkpt>
      <trkpt lat="43.62256" lon="6.86061">
        <ele>211.2</ele>
        <time>2019-03-24T10:01:21Z</time>
      </trkpt>
      <trkpt lat="43.6225" lon="6.86063">
        <ele>212.4</ele>
        <time>2019-03-24T10:01:24Z</time>
      </trkpt>
      <trkpt lat="43.62244" lon="6.86063">
        <ele>213.4</ele>
        <time>2019-03-24T10:01:27Z</time>
      </trkpt>
      <trkpt lat="43.62238" lon="6.86064">
        <ele>214</ele>
        <time>2019-03-24T10:01:30Z</time>
      </trkpt>
      <trkpt lat="43.62232" lon="6.86065">
        <ele>214.8</ele>
        <time>2019-03-24T10:01:33Z</time>
      </trkpt>
      <trkpt lat="43.62224" lon="6.86066">
        <ele>216</ele>
        <time>2019-03-24T10:01:37Z</time>
      </trkpt>
      <trkpt lat="43.62222" lon="6.86066">
        <ele>216.4</ele>
        <time>2019-03-24T10:01:38Z</time>
      </trkpt>
      <trkpt lat="43.62219" lon="6.86067">
        <ele>216.8</ele>
        <time>2019-03-24T10:01:40Z</time>
      </trkpt>
      <trkpt lat="43.62212" lon="6.86069">
        <ele>217.2</ele>
        <time>2019-03-24T10:01:43Z</time>
      </trkpt>
      <trkpt lat="43.62201" lon="6.86073">
        <ele>218.2</ele>
        <time>2019-03-24T10:01:49Z</time>
      </trkpt>
      <trkpt lat="43.62195" lon="6.86076">
        <ele>219</ele>
        <time>2019-03-24T10:01:52Z</time>
      </trkpt>
      <trkpt lat="43.62192" lon="6.86078">
        <ele>219.6</ele>
        <time>2019-03-24T10:01:54Z</time>
      </trkpt>
      <trkpt lat="43.62185" lon="6.86084">
        <ele>220.8</ele>
        <time>2019-03-24T10:01:58Z</time>
      </trkpt>
      <trkpt lat="43.6218" lon="6.86088">
        <ele>221.4</ele>
        <time>2019-03-24T10:02:01Z</time>
      </trkpt>
      <trkpt lat="43.62177" lon="6.86091">
        <ele>222</ele>
        <time>2019-03-24T10:02:03Z</time>
      </trkpt>
      <trkpt lat="43.62172" lon="6.86096">
        <ele>223.2</ele>
        <time>2019-03-24T10:02:06Z</time>
      </trkpt>
      <trkpt lat="43.62171" lon="6.86098">
        <ele>223.4</ele>
        <time>2019-03-24T10:02:07Z</time>
      </trkpt>
      <trkpt lat="43.62168" lon="6.86104">
        <ele>224.4</ele>
        <time>2019-03-24T10:02:10Z</time>
      </trkpt>
      <trkpt lat="43.62163" lon="6.86112">
        <ele>225.4</ele>
        <time>2019-03-24T10:02:14Z</time>
      </trkpt>
      <trkpt lat="43.6216" lon="6.86115">
        <ele>226.6</ele>
        <time>2019-03-24T10:02:16Z</time>
      </trkpt>
      <trkpt lat="43.62157" lon="6.86118">
        <ele>227.8</ele>
        <time>2019-03-24T10:02:18Z</time>
      </trkpt>
      <trkpt lat="43.62153" lon="6.86123">
        <ele>229</ele>
        <time>2019-03-24T10:02:21Z</time>
      </trkpt>
      <trkpt lat="43.62152" lon="6.86124">
        <ele>229.4</ele>
        <time>2019-03-24T10:02:22Z</time>
      </trkpt>
      <trkpt lat="43.62148" lon="6.86126">
        <ele>230.2</ele>
        <time>2019-03-24T10:02:25Z</time>
      </trkpt>
      <trkpt lat="43.62143" lon="6.86128">
        <ele>231.2</ele>
        <time>2019-03-24T10:02:28Z</time>
      </trkpt>
      <trkpt lat="43.62139" lon="6.86128">
        <ele>231.4</ele>
        <time>2019-03-24T10:02:30Z</time>
      </trkpt>
      <trkpt lat="43.62125" lon="6.86124">
        <ele>231</ele>
        <time>2019-03-24T10:02:36Z</time>
      </trkpt>
      <trkpt lat="43.62109" lon="6.8612">
        <ele>231.2</ele>
        <time>2019-03-24T10:02:41Z</time>
      </trkpt>
      <trkpt lat="43.6209" lon="6.86122">
        <ele>230.2</ele>
        <time>2019-03-24T10:02:47Z</time>
      </trkpt>
      <trkpt lat="43.62087" lon="6.86122">
        <ele>230</ele>
        <time>2019-03-24T10:02:48Z</time>
      </trkpt>
      <trkpt lat="43.62077" lon="6.86124">
        <ele>229.6</ele>
        <time>2019-03-24T10:02:53Z</time>
      </trkpt>
      <trkpt lat="43.62068" lon="6.86125">
        <ele>229.2</ele>
        <time>2019-03-24T10:02:55Z</time>
      </trkpt>
      <trkpt lat="43.62056" lon="6.86123">
        <ele>228.8</ele>
        <time>2019-03-24T10:02:58Z</time>
      </trkpt>
      <trkpt lat="43.62041" lon="6.86111">
        <ele>228.6</ele>
        <time>2019-03-24T10:03:02Z</time>
      </trkpt>
      <trkpt lat="43.62032" lon="6.86098">
        <ele>228</ele>
        <time>2019-03-24T10:03:05Z</time>
      </trkpt>
      <trkpt lat="43.62029" lon="6.86093">
        <ele>228</ele>
        <time>2019-03-24T10:03:06Z</time>
      </trkpt>
      <trkpt lat="43.62026" lon="6.86089">
        <ele>228</ele>
        <time>2019-03-24T10:03:07Z</time>
      </trkpt>
      <trkpt lat="43.62014" lon="6.86084">
        <ele>228.4</ele>
        <time>2019-03-24T10:03:11Z</time>
      </trkpt>
      <trkpt lat="43.62009" lon="6.86087">
        <ele>228.6</ele>
        <time>2019-03-24T10:03:13Z</time>
      </trkpt>
      <trkpt lat="43.62006" lon="6.86092">
        <ele>228.6</ele>
        <time>2019-03-24T10:03:15Z</time>
      </trkpt>
      <trkpt lat="43.62001" lon="6.86103">
        <ele>229.2</ele>
        <time>2019-03-24T10:03:19Z</time>
      </trkpt>
      <trkpt lat="43.62" lon="6.86109">
        <ele>229.6</ele>
        <time>2019-03-24T10:03:21Z</time>
      </trkpt>
      <trkpt lat="43.61998" lon="6.86116">
        <ele>230.2</ele>
        <time>2019-03-24T10:03:23Z</time>
      </trkpt>
      <trkpt lat="43.61996" lon="6.86132">
        <ele>231.6</ele>
        <time>2019-03-24T10:03:28Z</time>
      </trkpt>
      <trkpt lat="43.61991" lon="6.86139">
        <ele>232.8</ele>
        <time>2019-03-24T10:03:32Z</time>
      </trkpt>
      <trkpt lat="43.61987" lon="6.86141">
        <ele>233.2</ele>
        <time>2019-03-24T10:03:34Z</time>
      </trkpt>
      <trkpt lat="43.61981" lon="6.86151">
        <ele>233.8</ele>
        <time>2019-03-24T10:03:39Z</time>
      </trkpt>
      <trkpt lat="43.61981" lon="6.86154">
        <ele>233.8</ele>
        <time>2019-03-24T10:03:40Z</time>
      </trkpt>
      <trkpt lat="43.61978" lon="6.86169">
        <ele>234.8</ele>
        <time>2019-03-24T10:03:46Z</time>
      </trkpt>
      <trkpt lat="43.61977" lon="6.86172">
        <ele>235</ele>
        <time>2019-03-24T10:03:47Z</time>
      </trkpt>
      <trkpt lat="43.61966" lon="6.86194">
        <ele>235.8</ele>
        <time>2019-03-24T10:03:56Z</time>
      </trkpt>
      <trkpt lat="43.61959" lon="6.8621">
        <ele>236.4</ele>
        <time>2019-03-24T10:04:02Z</time>
      </trkpt>
      <trkpt lat="43.61955" lon="6.86218">
        <ele>237</ele>
        <time>2019-03-24T10:04:05Z</time>
      </trkpt>
      <trkpt lat="43.61951" lon="6.86231">
        <ele>238</ele>
        <time>2019-03-24T10:04:10Z</time>
      </trkpt>
      <trkpt lat="43.61951" lon="6.86234">
        <ele>238.2</ele>
        <time>2019-03-24T10:04:11Z</time>
      </trkpt>
      <trkpt lat="43.61951" lon="6.86247">
        <ele>238.8</ele>
        <time>2019-03-24T10:04:15Z</time>
      </trkpt>
      <trkpt lat="43.61954" lon="6.86257">
        <ele>239.2</ele>
        <time>2019-03-24T10:04:19Z</time>
      </trkpt>
      <trkpt lat="43.61956" lon="6.86266">
        <ele>238.8</ele>
        <time>2019-03-24T10:04:22Z</time>
      </trkpt>
      <trkpt lat="43.61958" lon="6.86287">
        <ele>238.4</ele>
        <time>2019-03-24T10:04:28Z</time>
      </trkpt>
      <trkpt lat="43.6195" lon="6.86311">
        <ele>238.4</ele>
        <time>2019-03-24T10:04:34Z</time>
      </trkpt>
      <trkpt lat="43.61942" lon="6.86337">
        <ele>239.2</ele>
        <time>2019-03-24T10:04:41Z</time>
      </trkpt>
      <trkpt lat="43.61936" lon="6.86355">
        <ele>239.6</ele>
        <time>2019-03-24T10:04:47Z</time>
      </trkpt>
      <trkpt lat="43.61932" lon="6.86361">
        <ele>240.4</ele>
        <time>2019-03-24T10:04:50Z</time>
      </trkpt>
      <trkpt lat="43.61923" lon="6.86376">
        <ele>241.4</ele>
        <time>2019-03-24T10:04:56Z</time>
      </trkpt>
      <trkpt lat="43.61921" lon="6.86381">
        <ele>242</ele>
        <time>2019-03-24T10:04:58Z</time>
      </trkpt>
      <trkpt lat="43.61917" lon="6.86391">
        <ele>242.8</ele>
        <time>2019-03-24T10:05:02Z</time>
      </trkpt>
      <trkpt lat="43.61916" lon="6.86395">
        <ele>242.8</ele>
        <time>2019-03-24T10:05:04Z</time>
      </trkpt>
      <trkpt lat="43.61913" lon="6.86409">
        <ele>243.8</ele>
        <time>2019-03-24T10:05:11Z</time>
      </trkpt>
      <trkpt lat="43.61913" lon="6.86412">
        <ele>244</ele>
        <time>2019-03-24T10:05:12Z</time>
      </trkpt>
      <trkpt lat="43.61911" lon="6.86431">
        <ele>244.8</ele>
        <time>2019-03-24T10:05:20Z</time>
      </trkpt>
      <trkpt lat="43.61911" lon="6.86433">
        <ele>244.8</ele>
        <time>2019-03-24T10:05:21Z</time>
      </trkpt>
      <trkpt lat="43.61909" lon="6.86446">
        <ele>245</ele>
        <time>2019-03-24T10:05:26Z</time>
      </trkpt>
      <trkpt lat="43.61904" lon="6.86466">
        <ele>245.8</ele>
        <time>2019-03-24T10:05:34Z</time>
      </trkpt>
      <trkpt lat="43.61902" lon="6.86487">
        <ele>246.8</ele>
        <time>2019-03-24T10:05:42Z</time>
      </trkpt>
      <trkpt lat="43.61905" lon="6.86504">
        <ele>246.8</ele>
        <time>2019-03-24T10:05:50Z</time>
      </trkpt>
      <trkpt lat="43.61906" lon="6.86506">
        <ele>246.8</ele>
        <time>2019-03-24T10:05:51Z</time>
      </trkpt>
      <trkpt lat="43.6191" lon="6.86518">
        <ele>247.6</ele>
        <time>2019-03-24T10:05:57Z</time>
      </trkpt>
      <trkpt lat="43.61916" lon="6.86537">
        <ele>247.8</ele>
        <time>2019-03-24T10:06:05Z</time>
      </trkpt>
      <trkpt lat="43.6192" lon="6.86557">
        <ele>246.8</ele>
        <time>2019-03-24T10:06:10Z</time>
      </trkpt>
      <trkpt lat="43.61925" lon="6.86577">
        <ele>245.6</ele>
        <time>2019-03-24T10:06:14Z</time>
      </trkpt>
      <trkpt lat="43.61931" lon="6.86575">
        <ele>245.2</ele>
        <time>2019-03-24T10:06:17Z</time>
      </trkpt>
      <trkpt lat="43.61943" lon="6.86571">
        <ele>245</ele>
        <time>2019-03-24T10:06:21Z</time>
      </trkpt>
      <trkpt lat="43.61949" lon="6.86569">
        <ele>244.6</ele>
        <time>2019-03-24T10:06:23Z</time>
      </trkpt>
      <trkpt lat="43.61963" lon="6.86565">
        <ele>244</ele>
        <time>2019-03-24T10:06:27Z</time>
      </trkpt>
      <trkpt lat="43.61978" lon="6.86567">
        <ele>244</ele>
        <time>2019-03-24T10:06:32Z</time>
      </trkpt>
      <trkpt lat="43.61995" lon="6.86578">
        <ele>243.8</ele>
        <time>2019-03-24T10:06:38Z</time>
      </trkpt>
      <trkpt lat="43.6201" lon="6.86592">
        <ele>244.2</ele>
        <time>2019-03-24T10:06:44Z</time>
      </trkpt>
      <trkpt lat="43.62012" lon="6.8661">
        <ele>243.8</ele>
        <time>2019-03-24T10:06:48Z</time>
      </trkpt>
      <trkpt lat="43.62007" lon="6.86635">
        <ele>243.8</ele>
        <time>2019-03-24T10:06:53Z</time>
      </trkpt>
      <trkpt lat="43.62" lon="6.86648">
        <ele>243.4</ele>
        <time>2019-03-24T10:06:56Z</time>
      </trkpt>
      <trkpt lat="43.61992" lon="6.86661">
        <ele>243.4</ele>
        <time>2019-03-24T10:06:59Z</time>
      </trkpt>
      <trkpt lat="43.61978" lon="6.86695">
        <ele>244</ele>
        <time>2019-03-24T10:07:06Z</time>
      </trkpt>
      <trkpt lat="43.61971" lon="6.86714">
        <ele>244.4</ele>
        <time>2019-03-24T10:07:10Z</time>
      </trkpt>
      <trkpt lat="43.61965" lon="6.86732">
        <ele>245.2</ele>
        <time>2019-03-24T10:07:14Z</time>
      </trkpt>
      <trkpt lat="43.61962" lon="6.8674">
        <ele>245.6</ele>
        <time>2019-03-24T10:07:16Z</time>
      </trkpt>
      <trkpt lat="43.6195" lon="6.86767">
        <ele>246.6</ele>
        <time>2019-03-24T10:07:23Z</time>
      </trkpt>
      <trkpt lat="43.6194" lon="6.86789">
        <ele>247.6</ele>
        <time>2019-03-24T10:07:29Z</time>
      </trkpt>
      <trkpt lat="43.61939" lon="6.86793">
        <ele>247.6</ele>
        <time>2019-03-24T10:07:30Z</time>
      </trkpt>
      <trkpt lat="43.61933" lon="6.86808">
        <ele>248.4</ele>
        <time>2019-03-24T10:07:35Z</time>
      </trkpt>
      <trkpt lat="43.6193" lon="6.86813">
        <ele>248.8</ele>
        <time>2019-03-24T10:07:37Z</time>
      </trkpt>
      <trkpt lat="43.61925" lon="6.86825">
        <ele>249</ele>
        <time>2019-03-24T10:07:42Z</time>
      </trkpt>
      <trkpt lat="43.61921" lon="6.86838">
        <ele>249.8</ele>
        <time>2019-03-24T10:07:48Z</time>
      </trkpt>
      <trkpt lat="43.6192" lon="6.86839">
        <ele>249.8</ele>
        <time>2019-03-24T10:07:49Z</time>
      </trkpt>
      <trkpt lat="43.61917" lon="6.86853">
        <ele>250</ele>
        <time>2019-03-24T10:07:55Z</time>
      </trkpt>
      <trkpt lat="43.61913" lon="6.8687">
        <ele>250.4</ele>
        <time>2019-03-24T10:08:03Z</time>
      </trkpt>
      <trkpt lat="43.61908" lon="6.86882">
        <ele>250.8</ele>
        <time>2019-03-24T10:08:09Z</time>
      </trkpt>
      <trkpt lat="43.61907" lon="6.86886">
        <ele>250.8</ele>
        <time>2019-03-24T10:08:11Z</time>
      </trkpt>
      <trkpt lat="43.61903" lon="6.86898">
        <ele>251.4</ele>
        <time>2019-03-24T10:08:17Z</time>
      </trkpt>
      <trkpt lat="43.619" lon="6.86904">
        <ele>251.8</ele>
        <time>2019-03-24T10:08:20Z</time>
      </trkpt>
      <trkpt lat="43.61897" lon="6.86911">
        <ele>252.4</ele>
        <time>2019-03-24T10:08:24Z</time>
      </trkpt>
      <trkpt lat="43.61894" lon="6.86919">
        <ele>253</ele>
        <time>2019-03-24T10:08:28Z</time>
      </trkpt>
      <trkpt lat="43.61892" lon="6.86925">
        <ele>253.4</ele>
        <time>2019-03-24T10:08:31Z</time>
      </trkpt>
      <trkpt lat="43.61888" lon="6.86937">
        <ele>253.8</ele>
        <time>2019-03-24T10:08:37Z</time>
      </trkpt>
      <trkpt lat="43.61888" lon="6.86938">
        <ele>254.2</ele>
        <time>2019-03-24T10:08:38Z</time>
      </trkpt>
      <trkpt lat="43.61885" lon="6.86945">
        <ele>255.2</ele>
        <time>2019-03-24T10:08:41Z</time>
      </trkpt>
      <trkpt lat="43.61885" lon="6.86947">
        <ele>255.4</ele>
        <time>2019-03-24T10:08:42Z</time>
      </trkpt>
      <trkpt lat="43.61884" lon="6.86964">
        <ele>256</ele>
        <time>2019-03-24T10:08:49Z</time>
      </trkpt>
      <trkpt lat="43.61882" lon="6.86974">
        <ele>256.2</ele>
        <time>2019-03-24T10:08:53Z</time>
      </trkpt>
      <trkpt lat="43.61882" lon="6.86976">
        <ele>256.2</ele>
        <time>2019-03-24T10:08:54Z</time>
      </trkpt>
      <trkpt lat="43.61883" lon="6.86978">
        <ele>256.2</ele>
        <time>2019-03-24T10:08:55Z</time>
      </trkpt>
      <trkpt lat="43.61884" lon="6.86987">
        <ele>257</ele>
        <time>2019-03-24T10:09:00Z</time>
      </trkpt>
      <trkpt lat="43.61885" lon="6.8699">
        <ele>257.4</ele>
        <time>2019-03-24T10:09:02Z</time>
      </trkpt>
      <trkpt lat="43.61886" lon="6.86994">
        <ele>258</ele>
        <time>2019-03-24T10:09:04Z</time>
      </trkpt>
      <trkpt lat="43.61887" lon="6.86998">
        <ele>258.2</ele>
        <time>2019-03-24T10:09:06Z</time>
      </trkpt>
      <trkpt lat="43.61889" lon="6.87001">
        <ele>258.6</ele>
        <time>2019-03-24T10:09:08Z</time>
      </trkpt>
      <trkpt lat="43.6189" lon="6.87007">
        <ele>259.2</ele>
        <time>2019-03-24T10:09:11Z</time>
      </trkpt>
      <trkpt lat="43.61892" lon="6.87012">
        <ele>260</ele>
        <time>2019-03-24T10:09:13Z</time>
      </trkpt>
      <trkpt lat="43.61895" lon="6.8702">
        <ele>261.2</ele>
        <time>2019-03-24T10:09:17Z</time>
      </trkpt>
      <trkpt lat="43.61895" lon="6.87022">
        <ele>261.4</ele>
        <time>2019-03-24T10:09:18Z</time>
      </trkpt>
      <trkpt lat="43.61896" lon="6.8703">
        <ele>262.2</ele>
        <time>2019-03-24T10:09:22Z</time>
      </trkpt>
      <trkpt lat="43.61898" lon="6.87034">
        <ele>262.8</ele>
        <time>2019-03-24T10:09:24Z</time>
      </trkpt>
      <trkpt lat="43.619" lon="6.87041">
        <ele>263.2</ele>
        <time>2019-03-24T10:09:28Z</time>
      </trkpt>
      <trkpt lat="43.619" lon="6.87045">
        <ele>263.6</ele>
        <time>2019-03-24T10:09:30Z</time>
      </trkpt>
      <trkpt lat="43.619" lon="6.87051">
        <ele>264.4</ele>
        <time>2019-03-24T10:09:33Z</time>
      </trkpt>
      <trkpt lat="43.619" lon="6.87059">
        <ele>265</ele>
        <time>2019-03-24T10:09:37Z</time>
      </trkpt>
      <trkpt lat="43.61899" lon="6.87073">
        <ele>264.6</ele>
        <time>2019-03-24T10:09:42Z</time>
      </trkpt>
      <trkpt lat="43.619" lon="6.87076">
        <ele>264.4</ele>
        <time>2019-03-24T10:09:43Z</time>
      </trkpt>
      <trkpt lat="43.61905" lon="6.8708">
        <ele>264.4</ele>
        <time>2019-03-24T10:09:46Z</time>
      </trkpt>
      <trkpt lat="43.61906" lon="6.87081">
        <ele>264.4</ele>
        <time>2019-03-24T10:09:47Z</time>
      </trkpt>
      <trkpt lat="43.61917" lon="6.8709">
        <ele>264.4</ele>
        <time>2019-03-24T10:09:53Z</time>
      </trkpt>
      <trkpt lat="43.61932" lon="6.87099">
        <ele>264.6</ele>
        <time>2019-03-24T10:10:00Z</time>
      </trkpt>
      <trkpt lat="43.61947" lon="6.87099">
        <ele>264.6</ele>
        <time>2019-03-24T10:10:06Z</time>
      </trkpt>
      <trkpt lat="43.61965" lon="6.87093">
        <ele>264.6</ele>
        <time>2019-03-24T10:10:12Z</time>
      </trkpt>
      <trkpt lat="43.61982" lon="6.87082">
        <ele>265.4</ele>
        <time>2019-03-24T10:10:18Z</time>
      </trkpt>
      <trkpt lat="43.61985" lon="6.8708">
        <ele>265.4</ele>
        <time>2019-03-24T10:10:19Z</time>
      </trkpt>
      <trkpt lat="43.62002" lon="6.87073">
        <ele>266.4</ele>
        <time>2019-03-24T10:10:25Z</time>
      </trkpt>
      <trkpt lat="43.62008" lon="6.87075">
        <ele>266</ele>
        <time>2019-03-24T10:10:27Z</time>
      </trkpt>
      <trkpt lat="43.62011" lon="6.87079">
        <ele>265.8</ele>
        <time>2019-03-24T10:10:28Z</time>
      </trkpt>
      <trkpt lat="43.62026" lon="6.87092">
        <ele>264.4</ele>
        <time>2019-03-24T10:10:32Z</time>
      </trkpt>
      <trkpt lat="43.62032" lon="6.87097">
        <ele>263</ele>
        <time>2019-03-24T10:10:35Z</time>
      </trkpt>
      <trkpt lat="43.62036" lon="6.87102">
        <ele>261.6</ele>
        <time>2019-03-24T10:10:37Z</time>
      </trkpt>
      <trkpt lat="43.62037" lon="6.87109">
        <ele>260.4</ele>
        <time>2019-03-24T10:10:39Z</time>
      </trkpt>
      <trkpt lat="43.62037" lon="6.87112">
        <ele>259.8</ele>
        <time>2019-03-24T10:10:40Z</time>
      </trkpt>
      <trkpt lat="43.62038" lon="6.87115">
        <ele>259.4</ele>
        <time>2019-03-24T10:10:41Z</time>
      </trkpt>
      <trkpt lat="43.6204" lon="6.87117">
        <ele>258.8</ele>
        <time>2019-03-24T10:10:42Z</time>
      </trkpt>
      <trkpt lat="43.62048" lon="6.87119">
        <ele>257.4</ele>
        <time>2019-03-24T10:10:44Z</time>
      </trkpt>
      <trkpt lat="43.62052" lon="6.87122">
        <ele>256.6</ele>
        <time>2019-03-24T10:10:45Z</time>
      </trkpt>
      <trkpt lat="43.62057" lon="6.87127">
        <ele>255.6</ele>
        <time>2019-03-24T10:10:46Z</time>
      </trkpt>
      <trkpt lat="43.62061" lon="6.87132">
        <ele>255</ele>
        <time>2019-03-24T10:10:47Z</time>
      </trkpt>
      <trkpt lat="43.62066" lon="6.87138">
        <ele>254.4</ele>
        <time>2019-03-24T10:10:48Z</time>
      </trkpt>
      <trkpt lat="43.62076" lon="6.87149">
        <ele>253</ele>
        <time>2019-03-24T10:10:50Z</time>
      </trkpt>
      <trkpt lat="43.62081" lon="6.87155">
        <ele>252.6</ele>
        <time>2019-03-24T10:10:51Z</time>
      </trkpt>
      <trkpt lat="43.62085" lon="6.87161">
        <ele>252.6</ele>
        <time>2019-03-24T10:10:52Z</time>
      </trkpt>
      <trkpt lat="43.62087" lon="6.87177">
        <ele>252.6</ele>
        <time>2019-03-24T10:10:55Z</time>
      </trkpt>
      <trkpt lat="43.62078" lon="6.87185">
        <ele>252</ele>
        <time>2019-03-24T10:10:57Z</time>
      </trkpt>
      <trkpt lat="43.62074" lon="6.87192">
        <ele>251.6</ele>
        <time>2019-03-24T10:10:58Z</time>
      </trkpt>
      <trkpt lat="43.62072" lon="6.87216">
        <ele>251.2</ele>
        <time>2019-03-24T10:11:01Z</time>
      </trkpt>
      <trkpt lat="43.62071" lon="6.87229">
        <ele>251</ele>
        <time>2019-03-24T10:11:03Z</time>
      </trkpt>
      <trkpt lat="43.62071" lon="6.87242">
        <ele>250.6</ele>
        <time>2019-03-24T10:11:05Z</time>
      </trkpt>
      <trkpt lat="43.62071" lon="6.87248">
        <ele>250.4</ele>
        <time>2019-03-24T10:11:06Z</time>
      </trkpt>
      <trkpt lat="43.62072" lon="6.87267">
        <ele>249.8</ele>
        <time>2019-03-24T10:11:09Z</time>
      </trkpt>
      <trkpt lat="43.62071" lon="6.87273">
        <ele>249.6</ele>
        <time>2019-03-24T10:11:10Z</time>
      </trkpt>
      <trkpt lat="43.62071" lon="6.87293">
        <ele>248.8</ele>
        <time>2019-03-24T10:11:14Z</time>
      </trkpt>
      <trkpt lat="43.62072" lon="6.87297">
        <ele>248.4</ele>
        <time>2019-03-24T10:11:15Z</time>
      </trkpt>
      <trkpt lat="43.62073" lon="6.87304">
        <ele>247.6</ele>
        <time>2019-03-24T10:11:17Z</time>
      </trkpt>
      <trkpt lat="43.62074" lon="6.87313">
        <ele>246.6</ele>
        <time>2019-03-24T10:11:20Z</time>
      </trkpt>
      <trkpt lat="43.62074" lon="6.87317">
        <ele>246.2</ele>
        <time>2019-03-24T10:11:21Z</time>
      </trkpt>
      <trkpt lat="43.62079" lon="6.87334">
        <ele>245.2</ele>
        <time>2019-03-24T10:11:25Z</time>
      </trkpt>
      <trkpt lat="43.62088" lon="6.87351">
        <ele>244.2</ele>
        <time>2019-03-24T10:11:29Z</time>
      </trkpt>
      <trkpt lat="43.62093" lon="6.87359">
        <ele>244.2</ele>
        <time>2019-03-24T10:11:31Z</time>
      </trkpt>
      <trkpt lat="43.62099" lon="6.87368">
        <ele>245.6</ele>
        <time>2019-03-24T10:11:34Z</time>
      </trkpt>
      <trkpt lat="43.62104" lon="6.87379">
        <ele>246.8</ele>
        <time>2019-03-24T10:11:37Z</time>
      </trkpt>
      <trkpt lat="43.62107" lon="6.87382">
        <ele>247.4</ele>
        <time>2019-03-24T10:11:38Z</time>
      </trkpt>
      <trkpt lat="43.62119" lon="6.87402">
        <ele>247.8</ele>
        <time>2019-03-24T10:11:44Z</time>
      </trkpt>
      <trkpt lat="43.62122" lon="6.87405">
        <ele>248</ele>
        <time>2019-03-24T10:11:46Z</time>
      </trkpt>
      <trkpt lat="43.62127" lon="6.87412">
        <ele>248.8</ele>
        <time>2019-03-24T10:11:49Z</time>
      </trkpt>
      <trkpt lat="43.6214" lon="6.87429">
        <ele>248.6</ele>
        <time>2019-03-24T10:11:55Z</time>
      </trkpt>
      <trkpt lat="43.62147" lon="6.87437">
        <ele>249</ele>
        <time>2019-03-24T10:12:00Z</time>
      </trkpt>
      <trkpt lat="43.62161" lon="6.87451">
        <ele>248.6</ele>
        <time>2019-03-24T10:12:06Z</time>
      </trkpt>
      <trkpt lat="43.62173" lon="6.87462">
        <ele>249.2</ele>
        <time>2019-03-24T10:12:12Z</time>
      </trkpt>
      <trkpt lat="43.62174" lon="6.87464">
        <ele>249</ele>
        <time>2019-03-24T10:12:13Z</time>
      </trkpt>
      <trkpt lat="43.62183" lon="6.87472">
        <ele>250</ele>
        <time>2019-03-24T10:12:19Z</time>
      </trkpt>
      <trkpt lat="43.62184" lon="6.87473">
        <ele>250.2</ele>
        <time>2019-03-24T10:12:20Z</time>
      </trkpt>
      <trkpt lat="43.62189" lon="6.87476">
        <ele>250.2</ele>
        <time>2019-03-24T10:12:55Z</time>
      </trkpt>
      <trkpt lat="43.62195" lon="6.8748">
        <ele>249.4</ele>
        <time>2019-03-24T10:12:58Z</time>
      </trkpt>
      <trkpt lat="43.62197" lon="6.87481">
        <ele>249.2</ele>
        <time>2019-03-24T10:12:59Z</time>
      </trkpt>
      <trkpt lat="43.6221" lon="6.8749">
        <ele>248</ele>
        <time>2019-03-24T10:13:04Z</time>
      </trkpt>
      <trkpt lat="43.62213" lon="6.87491">
        <ele>247.8</ele>
        <time>2019-03-24T10:13:05Z</time>
      </trkpt>
      <trkpt lat="43.62218" lon="6.87494">
        <ele>246.8</ele>
        <time>2019-03-24T10:13:08Z</time>
      </trkpt>
      <trkpt lat="43.62221" lon="6.87495">
        <ele>247.2</ele>
        <time>2019-03-24T10:14:03Z</time>
      </trkpt>
      <trkpt lat="43.62228" lon="6.87498">
        <ele>248</ele>
        <time>2019-03-24T10:14:06Z</time>
      </trkpt>
      <trkpt lat="43.62235" lon="6.87498">
        <ele>248.6</ele>
        <time>2019-03-24T10:14:08Z</time>
      </trkpt>
      <trkpt lat="43.62245" lon="6.87497">
        <ele>249</ele>
        <time>2019-03-24T10:14:11Z</time>
      </trkpt>
      <trkpt lat="43.62249" lon="6.87496">
        <ele>249.4</ele>
        <time>2019-03-24T10:14:12Z</time>
      </trkpt>
      <trkpt lat="43.62252" lon="6.87496">
        <ele>249.6</ele>
        <time>2019-03-24T10:14:13Z</time>
      </trkpt>
      <trkpt lat="43.62263" lon="6.87496">
        <ele>250.4</ele>
        <time>2019-03-24T10:14:16Z</time>
      </trkpt>
      <trkpt lat="43.6227" lon="6.87497">
        <ele>251.2</ele>
        <time>2019-03-24T10:14:18Z</time>
      </trkpt>
      <trkpt lat="43.62273" lon="6.87498">
        <ele>251.4</ele>
        <time>2019-03-24T10:14:19Z</time>
      </trkpt>
      <trkpt lat="43.62283" lon="6.87499">
        <ele>252.4</ele>
        <time>2019-03-24T10:14:22Z</time>
      </trkpt>
      <trkpt lat="43.6229" lon="6.87501">
        <ele>252.6</ele>
        <time>2019-03-24T10:14:24Z</time>
      </trkpt>
      <trkpt lat="43.62306" lon="6.87503">
        <ele>253.8</ele>
        <time>2019-03-24T10:14:29Z</time>
      </trkpt>
      <trkpt lat="43.62312" lon="6.87502">
        <ele>254.2</ele>
        <time>2019-03-24T10:14:31Z</time>
      </trkpt>
      <trkpt lat="43.62329" lon="6.875">
        <ele>255</ele>
        <time>2019-03-24T10:14:37Z</time>
      </trkpt>
      <trkpt lat="43.62344" lon="6.87508">
        <ele>256</ele>
        <time>2019-03-24T10:14:42Z</time>
      </trkpt>
      <trkpt lat="43.62347" lon="6.87509">
        <ele>256</ele>
        <time>2019-03-24T10:14:43Z</time>
      </trkpt>
      <trkpt lat="43.62364" lon="6.87523">
        <ele>256.8</ele>
        <time>2019-03-24T10:14:49Z</time>
      </trkpt>
      <trkpt lat="43.62369" lon="6.87528">
        <ele>257.2</ele>
        <time>2019-03-24T10:14:51Z</time>
      </trkpt>
      <trkpt lat="43.62382" lon="6.87534">
        <ele>258.4</ele>
        <time>2019-03-24T10:14:55Z</time>
      </trkpt>
      <trkpt lat="43.62397" lon="6.87541">
        <ele>259.6</ele>
        <time>2019-03-24T10:15:00Z</time>
      </trkpt>
      <trkpt lat="43.62404" lon="6.87544">
        <ele>259.8</ele>
        <time>2019-03-24T10:15:02Z</time>
      </trkpt>
      <trkpt lat="43.62427" lon="6.87548">
        <ele>260.4</ele>
        <time>2019-03-24T10:15:09Z</time>
      </trkpt>
      <trkpt lat="43.62436" lon="6.87548">
        <ele>260.8</ele>
        <time>2019-03-24T10:15:12Z</time>
      </trkpt>
      <trkpt lat="43.62443" lon="6.87553">
        <ele>261</ele>
        <time>2019-03-24T10:15:15Z</time>
      </trkpt>
      <trkpt lat="43.62447" lon="6.87569">
        <ele>261.8</ele>
        <time>2019-03-24T10:15:20Z</time>
      </trkpt>
      <trkpt lat="43.62448" lon="6.87572">
        <ele>262</ele>
        <time>2019-03-24T10:15:21Z</time>
      </trkpt>
      <trkpt lat="43.62456" lon="6.87576">
        <ele>262.6</ele>
        <time>2019-03-24T10:15:24Z</time>
      </trkpt>
      <trkpt lat="43.62459" lon="6.87577">
        <ele>262.8</ele>
        <time>2019-03-24T10:15:25Z</time>
      </trkpt>
      <trkpt lat="43.62477" lon="6.87586">
        <ele>262.8</ele>
        <time>2019-03-24T10:15:31Z</time>
      </trkpt>
      <trkpt lat="43.6248" lon="6.87588">
        <ele>263.2</ele>
        <time>2019-03-24T10:15:32Z</time>
      </trkpt>
      <trkpt lat="43.62496" lon="6.87599">
        <ele>264</ele>
        <time>2019-03-24T10:15:38Z</time>
      </trkpt>
      <trkpt lat="43.62502" lon="6.87603">
        <ele>264.4</ele>
        <time>2019-03-24T10:15:40Z</time>
      </trkpt>
      <trkpt lat="43.62515" lon="6.87618">
        <ele>265</ele>
        <time>2019-03-24T10:15:45Z</time>
      </trkpt>
      <trkpt lat="43.62523" lon="6.87629">
        <ele>265.6</ele>
        <time>2019-03-24T10:15:48Z</time>
      </trkpt>
      <trkpt lat="43.62538" lon="6.87647">
        <ele>266</ele>
        <time>2019-03-24T10:15:53Z</time>
      </trkpt>
      <trkpt lat="43.62555" lon="6.87666">
        <ele>266.8</ele>
        <time>2019-03-24T10:15:58Z</time>
      </trkpt>
      <trkpt lat="43.62562" lon="6.87672">
        <ele>267.2</ele>
        <time>2019-03-24T10:16:00Z</time>
      </trkpt>
      <trkpt lat="43.62566" lon="6.87675">
        <ele>267.2</ele>
        <time>2019-03-24T10:16:01Z</time>
      </trkpt>
      <trkpt lat="43.62575" lon="6.87691">
        <ele>266.6</ele>
        <time>2019-03-24T10:16:05Z</time>
      </trkpt>
      <trkpt lat="43.62569" lon="6.87704">
        <ele>267</ele>
        <time>2019-03-24T10:16:08Z</time>
      </trkpt>
      <trkpt lat="43.62542" lon="6.8775">
        <ele>268</ele>
        <time>2019-03-24T10:16:18Z</time>
      </trkpt>
      <trkpt lat="43.62528" lon="6.87784">
        <ele>269</ele>
        <time>2019-03-24T10:16:25Z</time>
      </trkpt>
      <trkpt lat="43.62517" lon="6.87815">
        <ele>269.4</ele>
        <time>2019-03-24T10:16:31Z</time>
      </trkpt>
      <trkpt lat="43.62511" lon="6.87831">
        <ele>270</ele>
        <time>2019-03-24T10:16:34Z</time>
      </trkpt>
      <trkpt lat="43.62505" lon="6.87852">
        <ele>270.4</ele>
        <time>2019-03-24T10:16:38Z</time>
      </trkpt>
      <trkpt lat="43.62498" lon="6.87877">
        <ele>271.4</ele>
        <time>2019-03-24T10:16:43Z</time>
      </trkpt>
      <trkpt lat="43.62492" lon="6.87911">
        <ele>272.8</ele>
        <time>2019-03-24T10:16:50Z</time>
      </trkpt>
      <trkpt lat="43.62491" lon="6.87916">
        <ele>273.2</ele>
        <time>2019-03-24T10:16:51Z</time>
      </trkpt>
      <trkpt lat="43.62489" lon="6.87957">
        <ele>274</ele>
        <time>2019-03-24T10:16:59Z</time>
      </trkpt>
      <trkpt lat="43.62489" lon="6.87962">
        <ele>274</ele>
        <time>2019-03-24T10:17:00Z</time>
      </trkpt>
      <trkpt lat="43.62488" lon="6.87982">
        <ele>275.2</ele>
        <time>2019-03-24T10:17:04Z</time>
      </trkpt>
      <trkpt lat="43.62487" lon="6.88001">
        <ele>276</ele>
        <time>2019-03-24T10:17:08Z</time>
      </trkpt>
      <trkpt lat="43.62487" lon="6.88006">
        <ele>276.2</ele>
        <time>2019-03-24T10:17:09Z</time>
      </trkpt>
      <trkpt lat="43.62485" lon="6.88041">
        <ele>277.6</ele>
        <time>2019-03-24T10:17:16Z</time>
      </trkpt>
      <trkpt lat="43.62484" lon="6.88052">
        <ele>277.6</ele>
        <time>2019-03-24T10:17:18Z</time>
      </trkpt>
      <trkpt lat="43.6248" lon="6.88095">
        <ele>277.8</ele>
        <time>2019-03-24T10:17:26Z</time>
      </trkpt>
      <trkpt lat="43.62475" lon="6.8814">
        <ele>277.6</ele>
        <time>2019-03-24T10:17:34Z</time>
      </trkpt>
      <trkpt lat="43.62465" lon="6.88181">
        <ele>277.8</ele>
        <time>2019-03-24T10:17:41Z</time>
      </trkpt>
      <trkpt lat="43.62457" lon="6.88204">
        <ele>277.4</ele>
        <time>2019-03-24T10:17:45Z</time>
      </trkpt>
      <trkpt lat="43.62455" lon="6.88224">
        <ele>277.4</ele>
        <time>2019-03-24T10:17:48Z</time>
      </trkpt>
      <trkpt lat="43.62457" lon="6.88247">
        <ele>276.8</ele>
        <time>2019-03-24T10:17:51Z</time>
      </trkpt>
      <trkpt lat="43.62459" lon="6.88263">
        <ele>276.4</ele>
        <time>2019-03-24T10:17:53Z</time>
      </trkpt>
      <trkpt lat="43.62463" lon="6.88299">
        <ele>275.4</ele>
        <time>2019-03-24T10:17:57Z</time>
      </trkpt>
      <trkpt lat="43.62467" lon="6.88329">
        <ele>275.4</ele>
        <time>2019-03-24T10:18:00Z</time>
      </trkpt>
      <trkpt lat="43.62476" lon="6.88369">
        <ele>274.2</ele>
        <time>2019-03-24T10:18:04Z</time>
      </trkpt>
      <trkpt lat="43.62479" lon="6.8838">
        <ele>274</ele>
        <time>2019-03-24T10:18:05Z</time>
      </trkpt>
      <trkpt lat="43.62487" lon="6.88412">
        <ele>273</ele>
        <time>2019-03-24T10:18:08Z</time>
      </trkpt>
      <trkpt lat="43.62493" lon="6.88448">
        <ele>271.6</ele>
        <time>2019-03-24T10:18:11Z</time>
      </trkpt>
      <trkpt lat="43.62496" lon="6.88471">
        <ele>270.6</ele>
        <time>2019-03-24T10:18:13Z</time>
      </trkpt>
      <trkpt lat="43.62496" lon="6.88482">
        <ele>270.2</ele>
        <time>2019-03-24T10:18:14Z</time>
      </trkpt>
      <trkpt lat="43.62496" lon="6.88493">
        <ele>270</ele>
        <time>2019-03-24T10:18:15Z</time>
      </trkpt>
      <trkpt lat="43.62493" lon="6.88531">
        <ele>269.8</ele>
        <time>2019-03-24T10:18:19Z</time>
      </trkpt>
      <trkpt lat="43.62494" lon="6.88548">
        <ele>269.8</ele>
        <time>2019-03-24T10:18:21Z</time>
      </trkpt>
      <trkpt lat="43.62497" lon="6.88573">
        <ele>270.4</ele>
        <time>2019-03-24T10:18:24Z</time>
      </trkpt>
      <trkpt lat="43.62507" lon="6.88638">
        <ele>269.8</ele>
        <time>2019-03-24T10:18:32Z</time>
      </trkpt>
      <trkpt lat="43.62512" lon="6.88669">
        <ele>269.4</ele>
        <time>2019-03-24T10:18:36Z</time>
      </trkpt>
      <trkpt lat="43.62509" lon="6.88683">
        <ele>269.4</ele>
        <time>2019-03-24T10:18:38Z</time>
      </trkpt>
      <trkpt lat="43.625" lon="6.88692">
        <ele>270</ele>
        <time>2019-03-24T10:18:41Z</time>
      </trkpt>
      <trkpt lat="43.62496" lon="6.88693">
        <ele>270.2</ele>
        <time>2019-03-24T10:18:42Z</time>
      </trkpt>
      <trkpt lat="43.62493" lon="6.88695">
        <ele>270.6</ele>
        <time>2019-03-24T10:18:43Z</time>
      </trkpt>
      <trkpt lat="43.62479" lon="6.88707">
        <ele>271.6</ele>
        <time>2019-03-24T10:18:48Z</time>
      </trkpt>
      <trkpt lat="43.62475" lon="6.88719">
        <ele>272.6</ele>
        <time>2019-03-24T10:18:51Z</time>
      </trkpt>
      <trkpt lat="43.62476" lon="6.88723">
        <ele>272.8</ele>
        <time>2019-03-24T10:18:52Z</time>
      </trkpt>
      <trkpt lat="43.62475" lon="6.88753">
        <ele>273</ele>
        <time>2019-03-24T10:18:59Z</time>
      </trkpt>
      <trkpt lat="43.62473" lon="6.88754">
        <ele>273</ele>
        <time>2019-03-24T10:19:00Z</time>
      </trkpt>
      <trkpt lat="43.62467" lon="6.88755">
        <ele>273.4</ele>
        <time>2019-03-24T10:19:02Z</time>
      </trkpt>
      <trkpt lat="43.62464" lon="6.88754">
        <ele>273.6</ele>
        <time>2019-03-24T10:19:03Z</time>
      </trkpt>
      <trkpt lat="43.62457" lon="6.88752">
        <ele>274</ele>
        <time>2019-03-24T10:19:05Z</time>
      </trkpt>
      <trkpt lat="43.62448" lon="6.8875">
        <ele>274</ele>
        <time>2019-03-24T10:19:08Z</time>
      </trkpt>
      <trkpt lat="43.62441" lon="6.88755">
        <ele>274.2</ele>
        <time>2019-03-24T10:19:10Z</time>
      </trkpt>
      <trkpt lat="43.62439" lon="6.88759">
        <ele>274.2</ele>
        <time>2019-03-24T10:19:11Z</time>
      </trkpt>
      <trkpt lat="43.6244" lon="6.88774">
        <ele>274.2</ele>
        <time>2019-03-24T10:19:15Z</time>
      </trkpt>
      <trkpt lat="43.6244" lon="6.88804">
        <ele>273.8</ele>
        <time>2019-03-24T10:19:21Z</time>
      </trkpt>
      <trkpt lat="43.62436" lon="6.88839">
        <ele>274.2</ele>
        <time>2019-03-24T10:19:28Z</time>
      </trkpt>
      <trkpt lat="43.62424" lon="6.88866">
        <ele>273</ele>
        <time>2019-03-24T10:19:34Z</time>
      </trkpt>
      <trkpt lat="43.6241" lon="6.88892">
        <ele>272.6</ele>
        <time>2019-03-24T10:19:40Z</time>
      </trkpt>
      <trkpt lat="43.62408" lon="6.88897">
        <ele>272.4</ele>
        <time>2019-03-24T10:19:41Z</time>
      </trkpt>
      <trkpt lat="43.62405" lon="6.88902">
        <ele>272.2</ele>
        <time>2019-03-24T10:19:42Z</time>
      </trkpt>
      <trkpt lat="43.62399" lon="6.88917">
        <ele>271.8</ele>
        <time>2019-03-24T10:19:45Z</time>
      </trkpt>
      <trkpt lat="43.62393" lon="6.88925">
        <ele>271.2</ele>
        <time>2019-03-24T10:19:47Z</time>
      </trkpt>
      <trkpt lat="43.62389" lon="6.88928">
        <ele>271.4</ele>
        <time>2019-03-24T10:19:48Z</time>
      </trkpt>
      <trkpt lat="43.62372" lon="6.8894">
        <ele>271.4</ele>
        <time>2019-03-24T10:19:52Z</time>
      </trkpt>
      <trkpt lat="43.6236" lon="6.88965">
        <ele>271</ele>
        <time>2019-03-24T10:19:56Z</time>
      </trkpt>
      <trkpt lat="43.62356" lon="6.88979">
        <ele>270.6</ele>
        <time>2019-03-24T10:19:58Z</time>
      </trkpt>
      <trkpt lat="43.62351" lon="6.89007">
        <ele>270.2</ele>
        <time>2019-03-24T10:20:02Z</time>
      </trkpt>
      <trkpt lat="43.6235" lon="6.89013">
        <ele>270</ele>
        <time>2019-03-24T10:20:03Z</time>
      </trkpt>
      <trkpt lat="43.62345" lon="6.89021">
        <ele>269.8</ele>
        <time>2019-03-24T10:20:05Z</time>
      </trkpt>
      <trkpt lat="43.62343" lon="6.89023">
        <ele>269.6</ele>
        <time>2019-03-24T10:20:06Z</time>
      </trkpt>
      <trkpt lat="43.62336" lon="6.89026">
        <ele>269</ele>
        <time>2019-03-24T10:20:08Z</time>
      </trkpt>
      <trkpt lat="43.6233" lon="6.89029">
        <ele>269.2</ele>
        <time>2019-03-24T10:20:10Z</time>
      </trkpt>
      <trkpt lat="43.62322" lon="6.89042">
        <ele>269.2</ele>
        <time>2019-03-24T10:20:13Z</time>
      </trkpt>
      <trkpt lat="43.62319" lon="6.89048">
        <ele>269</ele>
        <time>2019-03-24T10:20:14Z</time>
      </trkpt>
      <trkpt lat="43.62318" lon="6.89054">
        <ele>268.8</ele>
        <time>2019-03-24T10:20:15Z</time>
      </trkpt>
      <trkpt lat="43.62321" lon="6.89059">
        <ele>268.6</ele>
        <time>2019-03-24T10:20:16Z</time>
      </trkpt>
      <trkpt lat="43.6233" lon="6.89067">
        <ele>267.6</ele>
        <time>2019-03-24T10:20:18Z</time>
      </trkpt>
      <trkpt lat="43.62335" lon="6.89072">
        <ele>267.2</ele>
        <time>2019-03-24T10:20:19Z</time>
      </trkpt>
      <trkpt lat="43.62338" lon="6.89079">
        <ele>266.6</ele>
        <time>2019-03-24T10:20:20Z</time>
      </trkpt>
      <trkpt lat="43.62343" lon="6.89095">
        <ele>265.2</ele>
        <time>2019-03-24T10:20:22Z</time>
      </trkpt>
      <trkpt lat="43.62347" lon="6.89101">
        <ele>264.4</ele>
        <time>2019-03-24T10:20:23Z</time>
      </trkpt>
      <trkpt lat="43.62352" lon="6.89106">
        <ele>263.6</ele>
        <time>2019-03-24T10:20:24Z</time>
      </trkpt>
      <trkpt lat="43.62354" lon="6.89114">
        <ele>262.8</ele>
        <time>2019-03-24T10:20:25Z</time>
      </trkpt>
      <trkpt lat="43.62355" lon="6.89122">
        <ele>262</ele>
        <time>2019-03-24T10:20:26Z</time>
      </trkpt>
      <trkpt lat="43.62352" lon="6.89135">
        <ele>260.6</ele>
        <time>2019-03-24T10:20:28Z</time>
      </trkpt>
      <trkpt lat="43.62342" lon="6.89149">
        <ele>259</ele>
        <time>2019-03-24T10:20:31Z</time>
      </trkpt>
      <trkpt lat="43.62338" lon="6.89163">
        <ele>258</ele>
        <time>2019-03-24T10:20:33Z</time>
      </trkpt>
      <trkpt lat="43.62338" lon="6.89167">
        <ele>257.4</ele>
        <time>2019-03-24T10:20:34Z</time>
      </trkpt>
      <trkpt lat="43.62338" lon="6.89173">
        <ele>255.8</ele>
        <time>2019-03-24T10:20:43Z</time>
      </trkpt>
      <trkpt lat="43.62338" lon="6.89187">
        <ele>254.4</ele>
        <time>2019-03-24T10:20:47Z</time>
      </trkpt>
      <trkpt lat="43.62338" lon="6.89194">
        <ele>252.8</ele>
        <time>2019-03-24T10:20:50Z</time>
      </trkpt>
      <trkpt lat="43.62338" lon="6.89196">
        <ele>252.2</ele>
        <time>2019-03-24T10:20:51Z</time>
      </trkpt>
      <trkpt lat="43.62337" lon="6.89199">
        <ele>251.6</ele>
        <time>2019-03-24T10:20:52Z</time>
      </trkpt>
      <trkpt lat="43.62331" lon="6.89207">
        <ele>250.2</ele>
        <time>2019-03-24T10:20:55Z</time>
      </trkpt>
      <trkpt lat="43.62315" lon="6.89216">
        <ele>249.2</ele>
        <time>2019-03-24T10:20:59Z</time>
      </trkpt>
      <trkpt lat="43.62286" lon="6.89232">
        <ele>248.6</ele>
        <time>2019-03-24T10:21:06Z</time>
      </trkpt>
      <trkpt lat="43.62273" lon="6.89239">
        <ele>248.6</ele>
        <time>2019-03-24T10:21:09Z</time>
      </trkpt>
      <trkpt lat="43.62259" lon="6.89245">
        <ele>248.6</ele>
        <time>2019-03-24T10:21:12Z</time>
      </trkpt>
      <trkpt lat="43.62242" lon="6.89259">
        <ele>248.8</ele>
        <time>2019-03-24T10:21:17Z</time>
      </trkpt>
      <trkpt lat="43.62229" lon="6.89267">
        <ele>249.2</ele>
        <time>2019-03-24T10:21:21Z</time>
      </trkpt>
      <trkpt lat="43.62224" lon="6.89268">
        <ele>249.4</ele>
        <time>2019-03-24T10:21:22Z</time>
      </trkpt>
      <trkpt lat="43.62198" lon="6.89279">
        <ele>249.6</ele>
        <time>2019-03-24T10:21:28Z</time>
      </trkpt>
      <trkpt lat="43.6218" lon="6.89286">
        <ele>250</ele>
        <time>2019-03-24T10:21:32Z</time>
      </trkpt>
      <trkpt lat="43.62174" lon="6.89292">
        <ele>250</ele>
        <time>2019-03-24T10:21:34Z</time>
      </trkpt>
      <trkpt lat="43.62164" lon="6.89304">
        <ele>250</ele>
        <time>2019-03-24T10:21:38Z</time>
      </trkpt>
      <trkpt lat="43.62159" lon="6.89315">
        <ele>249.4</ele>
        <time>2019-03-24T10:21:41Z</time>
      </trkpt>
      <trkpt lat="43.62151" lon="6.89319">
        <ele>249.6</ele>
        <time>2019-03-24T10:21:44Z</time>
      </trkpt>
      <trkpt lat="43.62142" lon="6.89328">
        <ele>249.4</ele>
        <time>2019-03-24T10:21:47Z</time>
      </trkpt>
      <trkpt lat="43.6213" lon="6.89329">
        <ele>249</ele>
        <time>2019-03-24T10:21:50Z</time>
      </trkpt>
      <trkpt lat="43.6212" lon="6.89335">
        <ele>248.2</ele>
        <time>2019-03-24T10:21:53Z</time>
      </trkpt>
      <trkpt lat="43.62117" lon="6.89338">
        <ele>247.8</ele>
        <time>2019-03-24T10:21:54Z</time>
      </trkpt>
      <trkpt lat="43.62111" lon="6.89341">
        <ele>247</ele>
        <time>2019-03-24T10:21:56Z</time>
      </trkpt>
      <trkpt lat="43.62107" lon="6.89341">
        <ele>246.8</ele>
        <time>2019-03-24T10:21:57Z</time>
      </trkpt>
      <trkpt lat="43.62103" lon="6.8934">
        <ele>246.6</ele>
        <time>2019-03-24T10:21:58Z</time>
      </trkpt>
      <trkpt lat="43.62089" lon="6.89334">
        <ele>246</ele>
        <time>2019-03-24T10:22:02Z</time>
      </trkpt>
      <trkpt lat="43.62086" lon="6.89333">
        <ele>245.4</ele>
        <time>2019-03-24T10:22:03Z</time>
      </trkpt>
      <trkpt lat="43.62084" lon="6.89331">
        <ele>245.2</ele>
        <time>2019-03-24T10:22:04Z</time>
      </trkpt>
      <trkpt lat="43.62074" lon="6.89324">
        <ele>245.4</ele>
        <time>2019-03-24T10:22:08Z</time>
      </trkpt>
      <trkpt lat="43.62071" lon="6.89324">
        <ele>245.4</ele>
        <time>2019-03-24T10:22:09Z</time>
      </trkpt>
      <trkpt lat="43.62065" lon="6.89327">
        <ele>245.4</ele>
        <time>2019-03-24T10:22:11Z</time>
      </trkpt>
      <trkpt lat="43.62057" lon="6.89343">
        <ele>244.6</ele>
        <time>2019-03-24T10:22:14Z</time>
      </trkpt>
      <trkpt lat="43.62056" lon="6.89349">
        <ele>244.2</ele>
        <time>2019-03-24T10:22:15Z</time>
      </trkpt>
      <trkpt lat="43.62051" lon="6.89355">
        <ele>243.2</ele>
        <time>2019-03-24T10:22:17Z</time>
      </trkpt>
      <trkpt lat="43.62048" lon="6.89357">
        <ele>243</ele>
        <time>2019-03-24T10:22:18Z</time>
      </trkpt>
      <trkpt lat="43.62045" lon="6.89358">
        <ele>242.8</ele>
        <time>2019-03-24T10:22:19Z</time>
      </trkpt>
      <trkpt lat="43.62033" lon="6.89365">
        <ele>241.6</ele>
        <time>2019-03-24T10:22:22Z</time>
      </trkpt>
      <trkpt lat="43.62029" lon="6.89367">
        <ele>240.6</ele>
        <time>2019-03-24T10:22:23Z</time>
      </trkpt>
      <trkpt lat="43.62024" lon="6.89368">
        <ele>239.4</ele>
        <time>2019-03-24T10:22:24Z</time>
      </trkpt>
      <trkpt lat="43.6202" lon="6.89368">
        <ele>238.2</ele>
        <time>2019-03-24T10:22:25Z</time>
      </trkpt>
      <trkpt lat="43.62015" lon="6.8937">
        <ele>236.4</ele>
        <time>2019-03-24T10:22:27Z</time>
      </trkpt>
      <trkpt lat="43.6201" lon="6.89374">
        <ele>234.6</ele>
        <time>2019-03-24T10:23:26Z</time>
      </trkpt>
      <trkpt lat="43.62008" lon="6.89384">
        <ele>234</ele>
        <time>2019-03-24T10:23:28Z</time>
      </trkpt>
      <trkpt lat="43.62006" lon="6.89386">
        <ele>233.4</ele>
        <time>2019-03-24T10:23:29Z</time>
      </trkpt>
      <trkpt lat="43.62003" lon="6.89386">
        <ele>232.8</ele>
        <time>2019-03-24T10:23:30Z</time>
      </trkpt>
      <trkpt lat="43.61997" lon="6.89387">
        <ele>231.8</ele>
        <time>2019-03-24T10:23:32Z</time>
      </trkpt>
      <trkpt lat="43.6199" lon="6.89392">
        <ele>230.6</ele>
        <time>2019-03-24T10:23:34Z</time>
      </trkpt>
      <trkpt lat="43.61989" lon="6.89392">
        <ele>230</ele>
        <time>2019-03-24T10:23:35Z</time>
      </trkpt>
      <trkpt lat="43.61985" lon="6.89392">
        <ele>228.6</ele>
        <time>2019-03-24T10:23:47Z</time>
      </trkpt>
      <trkpt lat="43.61983" lon="6.8939">
        <ele>228</ele>
        <time>2019-03-24T10:23:48Z</time>
      </trkpt>
      <trkpt lat="43.61979" lon="6.89388">
        <ele>226.8</ele>
        <time>2019-03-24T10:23:50Z</time>
      </trkpt>
      <trkpt lat="43.61975" lon="6.89392">
        <ele>226</ele>
        <time>2019-03-24T10:23:51Z</time>
      </trkpt>
      <trkpt lat="43.6197" lon="6.89397">
        <ele>225.2</ele>
        <time>2019-03-24T10:23:52Z</time>
      </trkpt>
      <trkpt lat="43.61964" lon="6.89405">
        <ele>223.4</ele>
        <time>2019-03-24T10:23:54Z</time>
      </trkpt>
      <trkpt lat="43.61961" lon="6.89408">
        <ele>222</ele>
        <time>2019-03-24T10:23:56Z</time>
      </trkpt>
      <trkpt lat="43.61958" lon="6.8941">
        <ele>221.4</ele>
        <time>2019-03-24T10:23:57Z</time>
      </trkpt>
      <trkpt lat="43.61955" lon="6.89413">
        <ele>220.8</ele>
        <time>2019-03-24T10:23:58Z</time>
      </trkpt>
      <trkpt lat="43.61949" lon="6.89416">
        <ele>220</ele>
        <time>2019-03-24T10:23:59Z</time>
      </trkpt>
      <trkpt lat="43.61945" lon="6.89418">
        <ele>219.4</ele>
        <time>2019-03-24T10:24:00Z</time>
      </trkpt>
      <trkpt lat="43.61941" lon="6.89423">
        <ele>219</ele>
        <time>2019-03-24T10:24:01Z</time>
      </trkpt>
      <trkpt lat="43.61935" lon="6.89433">
        <ele>218.2</ele>
        <time>2019-03-24T10:24:03Z</time>
      </trkpt>
      <trkpt lat="43.61927" lon="6.89436">
        <ele>216.8</ele>
        <time>2019-03-24T10:24:05Z</time>
      </trkpt>
      <trkpt lat="43.61924" lon="6.89434">
        <ele>216.4</ele>
        <time>2019-03-24T10:24:06Z</time>
      </trkpt>
      <trkpt lat="43.6192" lon="6.89432">
        <ele>215.8</ele>
        <time>2019-03-24T10:24:08Z</time>
      </trkpt>
      <trkpt lat="43.61916" lon="6.89436">
        <ele>215.2</ele>
        <time>2019-03-24T10:24:10Z</time>
      </trkpt>
      <trkpt lat="43.61915" lon="6.89437">
        <ele>214.8</ele>
        <time>2019-03-24T10:24:11Z</time>
      </trkpt>
      <trkpt lat="43.61912" lon="6.89441">
        <ele>214</ele>
        <time>2019-03-24T10:24:27Z</time>
      </trkpt>
      <trkpt lat="43.61907" lon="6.89446">
        <ele>213.6</ele>
        <time>2019-03-24T10:24:29Z</time>
      </trkpt>
      <trkpt lat="43.61903" lon="6.89446">
        <ele>213</ele>
        <time>2019-03-24T10:24:30Z</time>
      </trkpt>
      <trkpt lat="43.619" lon="6.89445">
        <ele>212.4</ele>
        <time>2019-03-24T10:24:31Z</time>
      </trkpt>
      <trkpt lat="43.61897" lon="6.89448">
        <ele>211.2</ele>
        <time>2019-03-24T10:24:33Z</time>
      </trkpt>
      <trkpt lat="43.61894" lon="6.89453">
        <ele>210</ele>
        <time>2019-03-24T10:24:35Z</time>
      </trkpt>
      <trkpt lat="43.6189" lon="6.89456">
        <ele>209.2</ele>
        <time>2019-03-24T10:24:36Z</time>
      </trkpt>
      <trkpt lat="43.61889" lon="6.8946">
        <ele>208.6</ele>
        <time>2019-03-24T10:24:37Z</time>
      </trkpt>
      <trkpt lat="43.61887" lon="6.89461">
        <ele>208</ele>
        <time>2019-03-24T10:24:38Z</time>
      </trkpt>
      <trkpt lat="43.61884" lon="6.89462">
        <ele>207.4</ele>
        <time>2019-03-24T10:24:39Z</time>
      </trkpt>
      <trkpt lat="43.61878" lon="6.89464">
        <ele>206</ele>
        <time>2019-03-24T10:24:41Z</time>
      </trkpt>
      <trkpt lat="43.6187" lon="6.89458">
        <ele>204.8</ele>
        <time>2019-03-24T10:24:44Z</time>
      </trkpt>
      <trkpt lat="43.61863" lon="6.89461">
        <ele>203.8</ele>
        <time>2019-03-24T10:24:46Z</time>
      </trkpt>
      <trkpt lat="43.61859" lon="6.89465">
        <ele>203.4</ele>
        <time>2019-03-24T10:24:47Z</time>
      </trkpt>
      <trkpt lat="43.61848" lon="6.89472">
        <ele>202.4</ele>
        <time>2019-03-24T10:24:49Z</time>
      </trkpt>
      <trkpt lat="43.61836" lon="6.8947">
        <ele>201.4</ele>
        <time>2019-03-24T10:24:51Z</time>
      </trkpt>
      <trkpt lat="43.61823" lon="6.89469">
        <ele>200</ele>
        <time>2019-03-24T10:24:54Z</time>
      </trkpt>
      <trkpt lat="43.61815" lon="6.89474">
        <ele>198.8</ele>
        <time>2019-03-24T10:24:56Z</time>
      </trkpt>
      <trkpt lat="43.61811" lon="6.89473">
        <ele>198.2</ele>
        <time>2019-03-24T10:24:57Z</time>
      </trkpt>
      <trkpt lat="43.61808" lon="6.89473">
        <ele>197.6</ele>
        <time>2019-03-24T10:24:58Z</time>
      </trkpt>
      <trkpt lat="43.61802" lon="6.89477">
        <ele>196.4</ele>
        <time>2019-03-24T10:25:00Z</time>
      </trkpt>
      <trkpt lat="43.61799" lon="6.89478">
        <ele>195.6</ele>
        <time>2019-03-24T10:25:01Z</time>
      </trkpt>
      <trkpt lat="43.61797" lon="6.89477">
        <ele>195</ele>
        <time>2019-03-24T10:25:02Z</time>
      </trkpt>
      <trkpt lat="43.61796" lon="6.89472">
        <ele>194</ele>
        <time>2019-03-24T10:25:04Z</time>
      </trkpt>
      <trkpt lat="43.61795" lon="6.89469">
        <ele>193.6</ele>
        <time>2019-03-24T10:25:05Z</time>
      </trkpt>
      <trkpt lat="43.61793" lon="6.89462">
        <ele>192.8</ele>
        <time>2019-03-24T10:25:07Z</time>
      </trkpt>
      <trkpt lat="43.61789" lon="6.89461">
        <ele>192.2</ele>
        <time>2019-03-24T10:25:08Z</time>
      </trkpt>
      <trkpt lat="43.61781" lon="6.89453">
        <ele>190.2</ele>
        <time>2019-03-24T10:25:10Z</time>
      </trkpt>
      <trkpt lat="43.61778" lon="6.89453">
        <ele>189.4</ele>
        <time>2019-03-24T10:25:11Z</time>
      </trkpt>
      <trkpt lat="43.61776" lon="6.89453">
        <ele>188.2</ele>
        <time>2019-03-24T10:25:12Z</time>
      </trkpt>
      <trkpt lat="43.61773" lon="6.8945">
        <ele>187.2</ele>
        <time>2019-03-24T10:25:13Z</time>
      </trkpt>
      <trkpt lat="43.61771" lon="6.89447">
        <ele>186</ele>
        <time>2019-03-24T10:25:14Z</time>
      </trkpt>
      <trkpt lat="43.61765" lon="6.89443">
        <ele>184.2</ele>
        <time>2019-03-24T10:25:16Z</time>
      </trkpt>
      <trkpt lat="43.61762" lon="6.89441">
        <ele>183.4</ele>
        <time>2019-03-24T10:25:17Z</time>
      </trkpt>
      <trkpt lat="43.61758" lon="6.89439">
        <ele>182.6</ele>
        <time>2019-03-24T10:25:18Z</time>
      </trkpt>
      <trkpt lat="43.61752" lon="6.89438">
        <ele>180.8</ele>
        <time>2019-03-24T10:25:20Z</time>
      </trkpt>
      <trkpt lat="43.61748" lon="6.89439">
        <ele>179.4</ele>
        <time>2019-03-24T10:25:22Z</time>
      </trkpt>
      <trkpt lat="43.61744" lon="6.89438">
        <ele>177.8</ele>
        <time>2019-03-24T10:25:24Z</time>
      </trkpt>
      <trkpt lat="43.61738" lon="6.89439">
        <ele>175.8</ele>
        <time>2019-03-24T10:25:26Z</time>
      </trkpt>
      <trkpt lat="43.61735" lon="6.89439">
        <ele>174.2</ele>
        <time>2019-03-24T10:25:28Z</time>
      </trkpt>
      <trkpt lat="43.61732" lon="6.89439">
        <ele>172.6</ele>
        <time>2019-03-24T10:25:30Z</time>
      </trkpt>
      <trkpt lat="43.61729" lon="6.89442">
        <ele>171.6</ele>
        <time>2019-03-24T10:25:31Z</time>
      </trkpt>
      <trkpt lat="43.61726" lon="6.89446">
        <ele>170.6</ele>
        <time>2019-03-24T10:25:32Z</time>
      </trkpt>
      <trkpt lat="43.61724" lon="6.8945">
        <ele>170</ele>
        <time>2019-03-24T10:25:33Z</time>
      </trkpt>
      <trkpt lat="43.61723" lon="6.89454">
        <ele>169</ele>
        <time>2019-03-24T10:25:34Z</time>
      </trkpt>
      <trkpt lat="43.61721" lon="6.89461">
        <ele>167</ele>
        <time>2019-03-24T10:25:36Z</time>
      </trkpt>
      <trkpt lat="43.61717" lon="6.89457">
        <ele>165.4</ele>
        <time>2019-03-24T10:25:38Z</time>
      </trkpt>
      <trkpt lat="43.61715" lon="6.89455">
        <ele>165</ele>
        <time>2019-03-24T10:25:39Z</time>
      </trkpt>
      <trkpt lat="43.61714" lon="6.89452">
        <ele>164.4</ele>
        <time>2019-03-24T10:25:40Z</time>
      </trkpt>
      <trkpt lat="43.6171" lon="6.89446">
        <ele>163.4</ele>
        <time>2019-03-24T10:25:42Z</time>
      </trkpt>
      <trkpt lat="43.6171" lon="6.89441">
        <ele>163</ele>
        <time>2019-03-24T10:25:43Z</time>
      </trkpt>
      <trkpt lat="43.6171" lon="6.89436">
        <ele>162.4</ele>
        <time>2019-03-24T10:25:44Z</time>
      </trkpt>
      <trkpt lat="43.61709" lon="6.89432">
        <ele>161</ele>
        <time>2019-03-24T10:25:46Z</time>
      </trkpt>
      <trkpt lat="43.61709" lon="6.89429">
        <ele>160.6</ele>
        <time>2019-03-24T10:25:47Z</time>
      </trkpt>
      <trkpt lat="43.61707" lon="6.89427">
        <ele>159.8</ele>
        <time>2019-03-24T10:25:49Z</time>
      </trkpt>
      <trkpt lat="43.61705" lon="6.89427">
        <ele>159</ele>
        <time>2019-03-24T10:25:50Z</time>
      </trkpt>
      <trkpt lat="43.61702" lon="6.89426">
        <ele>158.6</ele>
        <time>2019-03-24T10:25:51Z</time>
      </trkpt>
      <trkpt lat="43.61698" lon="6.89422">
        <ele>157.2</ele>
        <time>2019-03-24T10:25:54Z</time>
      </trkpt>
      <trkpt lat="43.61691" lon="6.8942">
        <ele>156</ele>
        <time>2019-03-24T10:25:57Z</time>
      </trkpt>
      <trkpt lat="43.61685" lon="6.89428">
        <ele>154.8</ele>
        <time>2019-03-24T10:26:01Z</time>
      </trkpt>
      <trkpt lat="43.61681" lon="6.89428">
        <ele>153.8</ele>
        <time>2019-03-24T10:26:05Z</time>
      </trkpt>
      <trkpt lat="43.61679" lon="6.89424">
        <ele>153.2</ele>
        <time>2019-03-24T10:26:06Z</time>
      </trkpt>
      <trkpt lat="43.61679" lon="6.89419">
        <ele>152.6</ele>
        <time>2019-03-24T10:26:07Z</time>
      </trkpt>
      <trkpt lat="43.6168" lon="6.89407">
        <ele>152</ele>
        <time>2019-03-24T10:26:09Z</time>
      </trkpt>
      <trkpt lat="43.61681" lon="6.89402">
        <ele>151.6</ele>
        <time>2019-03-24T10:26:10Z</time>
      </trkpt>
      <trkpt lat="43.61684" lon="6.89397">
        <ele>150.8</ele>
        <time>2019-03-24T10:26:12Z</time>
      </trkpt>
      <trkpt lat="43.61685" lon="6.89393">
        <ele>150</ele>
        <time>2019-03-24T10:26:13Z</time>
      </trkpt>
      <trkpt lat="43.61685" lon="6.89387">
        <ele>149.2</ele>
        <time>2019-03-24T10:26:14Z</time>
      </trkpt>
      <trkpt lat="43.61682" lon="6.89383">
        <ele>148.4</ele>
        <time>2019-03-24T10:26:15Z</time>
      </trkpt>
      <trkpt lat="43.61673" lon="6.89378">
        <ele>147.8</ele>
        <time>2019-03-24T10:26:18Z</time>
      </trkpt>
      <trkpt lat="43.61664" lon="6.89375">
        <ele>147.4</ele>
        <time>2019-03-24T10:26:20Z</time>
      </trkpt>
      <trkpt lat="43.61662" lon="6.89374">
        <ele>147.2</ele>
        <time>2019-03-24T10:26:21Z</time>
      </trkpt>
      <trkpt lat="43.61661" lon="6.89374">
        <ele>147</ele>
        <time>2019-03-24T10:26:22Z</time>
      </trkpt>
      <trkpt lat="43.6166" lon="6.89373">
        <ele>146.6</ele>
        <time>2019-03-24T10:26:30Z</time>
      </trkpt>
      <trkpt lat="43.61655" lon="6.8937">
        <ele>146.4</ele>
        <time>2019-03-24T10:26:32Z</time>
      </trkpt>
      <trkpt lat="43.61652" lon="6.89372">
        <ele>146.4</ele>
        <time>2019-03-24T10:26:33Z</time>
      </trkpt>
      <trkpt lat="43.61648" lon="6.89373">
        <ele>146.2</ele>
        <time>2019-03-24T10:26:34Z</time>
      </trkpt>
      <trkpt lat="43.61643" lon="6.89373">
        <ele>146</ele>
        <time>2019-03-24T10:26:35Z</time>
      </trkpt>
      <trkpt lat="43.61629" lon="6.89373">
        <ele>145.2</ele>
        <time>2019-03-24T10:26:38Z</time>
      </trkpt>
      <trkpt lat="43.61623" lon="6.89371">
        <ele>145</ele>
        <time>2019-03-24T10:26:39Z</time>
      </trkpt>
      <trkpt lat="43.61609" lon="6.89377">
        <ele>144.2</ele>
        <time>2019-03-24T10:26:42Z</time>
      </trkpt>
      <trkpt lat="43.61605" lon="6.89382">
        <ele>143.8</ele>
        <time>2019-03-24T10:26:43Z</time>
      </trkpt>
      <trkpt lat="43.61602" lon="6.89387">
        <ele>143.4</ele>
        <time>2019-03-24T10:26:44Z</time>
      </trkpt>
      <trkpt lat="43.61595" lon="6.89397">
        <ele>142.4</ele>
        <time>2019-03-24T10:26:46Z</time>
      </trkpt>
      <trkpt lat="43.61591" lon="6.89401">
        <ele>142</ele>
        <time>2019-03-24T10:26:47Z</time>
      </trkpt>
      <trkpt lat="43.6158" lon="6.89406">
        <ele>141</ele>
        <time>2019-03-24T10:26:49Z</time>
      </trkpt>
      <trkpt lat="43.61565" lon="6.89421">
        <ele>140.2</ele>
        <time>2019-03-24T10:26:52Z</time>
      </trkpt>
      <trkpt lat="43.6156" lon="6.89423">
        <ele>140</ele>
        <time>2019-03-24T10:26:53Z</time>
      </trkpt>
      <trkpt lat="43.61548" lon="6.89422">
        <ele>139.6</ele>
        <time>2019-03-24T10:26:55Z</time>
      </trkpt>
      <trkpt lat="43.61541" lon="6.89421">
        <ele>139.2</ele>
        <time>2019-03-24T10:26:56Z</time>
      </trkpt>
      <trkpt lat="43.61536" lon="6.8942">
        <ele>139</ele>
        <time>2019-03-24T10:26:57Z</time>
      </trkpt>
      <trkpt lat="43.61531" lon="6.89421">
        <ele>138.6</ele>
        <time>2019-03-24T10:26:58Z</time>
      </trkpt>
      <trkpt lat="43.61528" lon="6.89425">
        <ele>138.2</ele>
        <time>2019-03-24T10:26:59Z</time>
      </trkpt>
      <trkpt lat="43.61521" lon="6.89433">
        <ele>137.8</ele>
        <time>2019-03-24T10:27:01Z</time>
      </trkpt>
      <trkpt lat="43.61515" lon="6.89432">
        <ele>137.6</ele>
        <time>2019-03-24T10:27:03Z</time>
      </trkpt>
      <trkpt lat="43.61501" lon="6.8943">
        <ele>136.6</ele>
        <time>2019-03-24T10:27:07Z</time>
      </trkpt>
      <trkpt lat="43.61497" lon="6.89431">
        <ele>136.2</ele>
        <time>2019-03-24T10:27:08Z</time>
      </trkpt>
      <trkpt lat="43.6149" lon="6.89433">
        <ele>135.6</ele>
        <time>2019-03-24T10:27:10Z</time>
      </trkpt>
      <trkpt lat="43.61482" lon="6.89436">
        <ele>135</ele>
        <time>2019-03-24T10:27:12Z</time>
      </trkpt>
      <trkpt lat="43.61473" lon="6.89445">
        <ele>134.6</ele>
        <time>2019-03-24T10:27:15Z</time>
      </trkpt>
      <trkpt lat="43.61472" lon="6.89447">
        <ele>134.6</ele>
        <time>2019-03-24T10:27:16Z</time>
      </trkpt>
      <trkpt lat="43.61464" lon="6.89447">
        <ele>133.4</ele>
        <time>2019-03-24T10:27:19Z</time>
      </trkpt>
      <trkpt lat="43.61456" lon="6.89449">
        <ele>132.2</ele>
        <time>2019-03-24T10:27:22Z</time>
      </trkpt>
      <trkpt lat="43.61455" lon="6.89449">
        <ele>132</ele>
        <time>2019-03-24T10:27:23Z</time>
      </trkpt>
      <trkpt lat="43.61453" lon="6.89447">
        <ele>131.8</ele>
        <time>2019-03-24T10:27:24Z</time>
      </trkpt>
      <trkpt lat="43.61451" lon="6.89441">
        <ele>132</ele>
        <time>2019-03-24T10:27:26Z</time>
      </trkpt>
      <trkpt lat="43.61444" lon="6.89439">
        <ele>131.4</ele>
        <time>2019-03-24T10:27:29Z</time>
      </trkpt>
      <trkpt lat="43.61443" lon="6.89437">
        <ele>131</ele>
        <time>2019-03-24T10:27:30Z</time>
      </trkpt>
      <trkpt lat="43.61441" lon="6.89432">
        <ele>130.4</ele>
        <time>2019-03-24T10:27:32Z</time>
      </trkpt>
      <trkpt lat="43.61437" lon="6.89424">
        <ele>129.6</ele>
        <time>2019-03-24T10:27:34Z</time>
      </trkpt>
      <trkpt lat="43.61434" lon="6.89419">
        <ele>128.8</ele>
        <time>2019-03-24T10:27:36Z</time>
      </trkpt>
      <trkpt lat="43.61436" lon="6.89411">
        <ele>128.6</ele>
        <time>2019-03-24T10:27:39Z</time>
      </trkpt>
      <trkpt lat="43.61438" lon="6.8941">
        <ele>128.4</ele>
        <time>2019-03-24T10:27:40Z</time>
      </trkpt>
      <trkpt lat="43.61439" lon="6.89403">
        <ele>128</ele>
        <time>2019-03-24T10:27:44Z</time>
      </trkpt>
      <trkpt lat="43.61441" lon="6.89396">
        <ele>127.6</ele>
        <time>2019-03-24T10:27:47Z</time>
      </trkpt>
      <trkpt lat="43.61441" lon="6.89394">
        <ele>127.4</ele>
        <time>2019-03-24T10:27:48Z</time>
      </trkpt>
      <trkpt lat="43.61437" lon="6.89393">
        <ele>126.6</ele>
        <time>2019-03-24T10:27:51Z</time>
      </trkpt>
      <trkpt lat="43.61434" lon="6.8939">
        <ele>126</ele>
        <time>2019-03-24T10:27:52Z</time>
      </trkpt>
      <trkpt lat="43.61427" lon="6.89387">
        <ele>124.6</ele>
        <time>2019-03-24T10:27:54Z</time>
      </trkpt>
      <trkpt lat="43.61423" lon="6.89386">
        <ele>124</ele>
        <time>2019-03-24T10:27:55Z</time>
      </trkpt>
      <trkpt lat="43.61418" lon="6.89387">
        <ele>123.4</ele>
        <time>2019-03-24T10:27:56Z</time>
      </trkpt>
      <trkpt lat="43.61411" lon="6.89384">
        <ele>122</ele>
        <time>2019-03-24T10:27:58Z</time>
      </trkpt>
      <trkpt lat="43.61403" lon="6.89381">
        <ele>120.6</ele>
        <time>2019-03-24T10:28:00Z</time>
      </trkpt>
      <trkpt lat="43.61399" lon="6.89379">
        <ele>119.4</ele>
        <time>2019-03-24T10:28:01Z</time>
      </trkpt>
      <trkpt lat="43.61398" lon="6.89377">
        <ele>118.4</ele>
        <time>2019-03-24T10:28:02Z</time>
      </trkpt>
      <trkpt lat="43.61392" lon="6.89374">
        <ele>117</ele>
        <time>2019-03-24T10:28:04Z</time>
      </trkpt>
      <trkpt lat="43.61385" lon="6.89374">
        <ele>115.4</ele>
        <time>2019-03-24T10:28:06Z</time>
      </trkpt>
      <trkpt lat="43.61381" lon="6.89373">
        <ele>113.8</ele>
        <time>2019-03-24T10:28:08Z</time>
      </trkpt>
      <trkpt lat="43.61379" lon="6.89373">
        <ele>113</ele>
        <time>2019-03-24T10:28:09Z</time>
      </trkpt>
      <trkpt lat="43.61374" lon="6.89372">
        <ele>112</ele>
        <time>2019-03-24T10:28:11Z</time>
      </trkpt>
      <trkpt lat="43.61369" lon="6.89368">
        <ele>110.6</ele>
        <time>2019-03-24T10:28:13Z</time>
      </trkpt>
      <trkpt lat="43.61366" lon="6.89363">
        <ele>109</ele>
        <time>2019-03-24T10:28:15Z</time>
      </trkpt>
      <trkpt lat="43.61362" lon="6.89357">
        <ele>107.4</ele>
        <time>2019-03-24T10:28:17Z</time>
      </trkpt>
      <trkpt lat="43.61359" lon="6.89357">
        <ele>106.4</ele>
        <time>2019-03-24T10:28:18Z</time>
      </trkpt>
      <trkpt lat="43.61353" lon="6.89361">
        <ele>104.8</ele>
        <time>2019-03-24T10:28:20Z</time>
      </trkpt>
      <trkpt lat="43.61345" lon="6.89368">
        <ele>103.4</ele>
        <time>2019-03-24T10:28:23Z</time>
      </trkpt>
      <trkpt lat="43.61339" lon="6.89373">
        <ele>102.6</ele>
        <time>2019-03-24T10:28:25Z</time>
      </trkpt>
      <trkpt lat="43.61336" lon="6.89377">
        <ele>102.4</ele>
        <time>2019-03-24T10:28:26Z</time>
      </trkpt>
      <trkpt lat="43.61328" lon="6.89387">
        <ele>101.4</ele>
        <time>2019-03-24T10:28:29Z</time>
      </trkpt>
      <trkpt lat="43.61325" lon="6.89387">
        <ele>101.4</ele>
        <time>2019-03-24T10:28:30Z</time>
      </trkpt>
      <trkpt lat="43.61321" lon="6.89386">
        <ele>101.2</ele>
        <time>2019-03-24T10:28:31Z</time>
      </trkpt>
      <trkpt lat="43.61318" lon="6.89386">
        <ele>100.8</ele>
        <time>2019-03-24T10:28:32Z</time>
      </trkpt>
      <trkpt lat="43.61312" lon="6.89392">
        <ele>100</ele>
        <time>2019-03-24T10:28:35Z</time>
      </trkpt>
      <trkpt lat="43.61311" lon="6.89395">
        <ele>99.8</ele>
        <time>2019-03-24T10:28:36Z</time>
      </trkpt>
      <trkpt lat="43.61306" lon="6.89401">
        <ele>99.2</ele>
        <time>2019-03-24T10:28:38Z</time>
      </trkpt>
      <trkpt lat="43.61304" lon="6.894">
        <ele>98.8</ele>
        <time>2019-03-24T10:28:39Z</time>
      </trkpt>
      <trkpt lat="43.61297" lon="6.89401">
        <ele>97.4</ele>
        <time>2019-03-24T10:28:42Z</time>
      </trkpt>
      <trkpt lat="43.61292" lon="6.89401">
        <ele>96</ele>
        <time>2019-03-24T10:28:44Z</time>
      </trkpt>
      <trkpt lat="43.6129" lon="6.894">
        <ele>95.2</ele>
        <time>2019-03-24T10:28:45Z</time>
      </trkpt>
      <trkpt lat="43.61288" lon="6.894">
        <ele>94.4</ele>
        <time>2019-03-24T10:28:46Z</time>
      </trkpt>
      <trkpt lat="43.61285" lon="6.89403">
        <ele>93.2</ele>
        <time>2019-03-24T10:28:48Z</time>
      </trkpt>
      <trkpt lat="43.61283" lon="6.89405">
        <ele>93</ele>
        <time>2019-03-24T10:28:49Z</time>
      </trkpt>
      <trkpt lat="43.61279" lon="6.89407">
        <ele>92.8</ele>
        <time>2019-03-24T10:28:51Z</time>
      </trkpt>
      <trkpt lat="43.61277" lon="6.89403">
        <ele>92.4</ele>
        <time>2019-03-24T10:28:52Z</time>
      </trkpt>
      <trkpt lat="43.61276" lon="6.894">
        <ele>92</ele>
        <time>2019-03-24T10:28:53Z</time>
      </trkpt>
      <trkpt lat="43.6127" lon="6.89399">
        <ele>91</ele>
        <time>2019-03-24T10:28:55Z</time>
      </trkpt>
      <trkpt lat="43.61268" lon="6.89403">
        <ele>90.2</ele>
        <time>2019-03-24T10:28:56Z</time>
      </trkpt>
      <trkpt lat="43.61266" lon="6.89406">
        <ele>89.6</ele>
        <time>2019-03-24T10:28:57Z</time>
      </trkpt>
      <trkpt lat="43.61265" lon="6.89408">
        <ele>88.2</ele>
        <time>2019-03-24T10:28:59Z</time>
      </trkpt>
      <trkpt lat="43.61263" lon="6.89406">
        <ele>87.6</ele>
        <time>2019-03-24T10:29:00Z</time>
      </trkpt>
      <trkpt lat="43.61263" lon="6.89404">
        <ele>87</ele>
        <time>2019-03-24T10:29:01Z</time>
      </trkpt>
      <trkpt lat="43.61263" lon="6.89398">
        <ele>86</ele>
        <time>2019-03-24T10:29:03Z</time>
      </trkpt>
      <trkpt lat="43.61263" lon="6.89392">
        <ele>85.2</ele>
        <time>2019-03-24T10:29:04Z</time>
      </trkpt>
      <trkpt lat="43.61264" lon="6.89388">
        <ele>84.4</ele>
        <time>2019-03-24T10:29:05Z</time>
      </trkpt>
      <trkpt lat="43.61264" lon="6.89385">
        <ele>83.6</ele>
        <time>2019-03-24T10:29:06Z</time>
      </trkpt>
      <trkpt lat="43.61265" lon="6.89382">
        <ele>82.6</ele>
        <time>2019-03-24T10:29:07Z</time>
      </trkpt>
      <trkpt lat="43.61265" lon="6.89378">
        <ele>82</ele>
        <time>2019-03-24T10:29:08Z</time>
      </trkpt>
      <trkpt lat="43.61268" lon="6.89373">
        <ele>81.2</ele>
        <time>2019-03-24T10:29:09Z</time>
      </trkpt>
      <trkpt lat="43.61271" lon="6.89362">
        <ele>79.8</ele>
        <time>2019-03-24T10:29:11Z</time>
      </trkpt>
      <trkpt lat="43.61272" lon="6.89356">
        <ele>79.2</ele>
        <time>2019-03-24T10:29:12Z</time>
      </trkpt>
      <trkpt lat="43.61272" lon="6.89352">
        <ele>78.4</ele>
        <time>2019-03-24T10:29:13Z</time>
      </trkpt>
      <trkpt lat="43.61273" lon="6.89349">
        <ele>77.6</ele>
        <time>2019-03-24T10:29:14Z</time>
      </trkpt>
      <trkpt lat="43.61273" lon="6.89347">
        <ele>76.8</ele>
        <time>2019-03-24T10:29:15Z</time>
      </trkpt>
      <trkpt lat="43.61273" lon="6.89341">
        <ele>75.4</ele>
        <time>2019-03-24T10:29:17Z</time>
      </trkpt>
      <trkpt lat="43.61273" lon="6.89339">
        <ele>74.4</ele>
        <time>2019-03-24T10:29:18Z</time>
      </trkpt>
      <trkpt lat="43.61273" lon="6.89335">
        <ele>73.6</ele>
        <time>2019-03-24T10:29:19Z</time>
      </trkpt>
      <trkpt lat="43.61274" lon="6.89328">
        <ele>71.8</ele>
        <time>2019-03-24T10:29:21Z</time>
      </trkpt>
      <trkpt lat="43.61276" lon="6.89321">
        <ele>70.4</ele>
        <time>2019-03-24T10:29:23Z</time>
      </trkpt>
      <trkpt lat="43.61277" lon="6.89319">
        <ele>70</ele>
        <time>2019-03-24T10:29:24Z</time>
      </trkpt>
      <trkpt lat="43.61278" lon="6.89316">
        <ele>69.4</ele>
        <time>2019-03-24T10:29:25Z</time>
      </trkpt>
      <trkpt lat="43.6128" lon="6.89313">
        <ele>69.4</ele>
        <time>2019-03-24T10:29:26Z</time>
      </trkpt>
      <trkpt lat="43.61279" lon="6.89308">
        <ele>69</ele>
        <time>2019-03-24T10:29:28Z</time>
      </trkpt>
      <trkpt lat="43.61276" lon="6.89309">
        <ele>68.8</ele>
        <time>2019-03-24T10:29:31Z</time>
      </trkpt>
      <trkpt lat="43.61273" lon="6.89311">
        <ele>68.6</ele>
        <time>2019-03-24T10:29:32Z</time>
      </trkpt>
      <trkpt lat="43.61271" lon="6.89312">
        <ele>68.2</ele>
        <time>2019-03-24T10:29:33Z</time>
      </trkpt>
      <trkpt lat="43.61261" lon="6.89314">
        <ele>67</ele>
        <time>2019-03-24T10:29:36Z</time>
      </trkpt>
      <trkpt lat="43.6126" lon="6.89314">
        <ele>66.4</ele>
        <time>2019-03-24T10:29:37Z</time>
      </trkpt>
      <trkpt lat="43.61257" lon="6.89313">
        <ele>65.6</ele>
        <time>2019-03-24T10:29:38Z</time>
      </trkpt>
      <trkpt lat="43.61254" lon="6.89308">
        <ele>64</ele>
        <time>2019-03-24T10:29:40Z</time>
      </trkpt>
      <trkpt lat="43.61255" lon="6.89305">
        <ele>63.2</ele>
        <time>2019-03-24T10:29:41Z</time>
      </trkpt>
      <trkpt lat="43.61258" lon="6.89302">
        <ele>62.4</ele>
        <time>2019-03-24T10:29:42Z</time>
      </trkpt>
      <trkpt lat="43.61261" lon="6.89295">
        <ele>61</ele>
        <time>2019-03-24T10:29:44Z</time>
      </trkpt>
      <trkpt lat="43.61261" lon="6.89291">
        <ele>60.4</ele>
        <time>2019-03-24T10:29:45Z</time>
      </trkpt>
      <trkpt lat="43.61262" lon="6.89287">
        <ele>59.6</ele>
        <time>2019-03-24T10:29:46Z</time>
      </trkpt>
      <trkpt lat="43.61268" lon="6.89279">
        <ele>57.8</ele>
        <time>2019-03-24T10:29:48Z</time>
      </trkpt>
      <trkpt lat="43.6127" lon="6.89276">
        <ele>56.8</ele>
        <time>2019-03-24T10:29:49Z</time>
      </trkpt>
      <trkpt lat="43.61272" lon="6.89274">
        <ele>55.6</ele>
        <time>2019-03-24T10:29:50Z</time>
      </trkpt>
      <trkpt lat="43.61273" lon="6.89274">
        <ele>54.6</ele>
        <time>2019-03-24T10:29:51Z</time>
      </trkpt>
      <trkpt lat="43.61276" lon="6.89273">
        <ele>53.8</ele>
        <time>2019-03-24T10:29:52Z</time>
      </trkpt>
      <trkpt lat="43.61279" lon="6.89272">
        <ele>52.2</ele>
        <time>2019-03-24T10:29:54Z</time>
      </trkpt>
      <trkpt lat="43.6128" lon="6.89273">
        <ele>51.6</ele>
        <time>2019-03-24T10:29:55Z</time>
      </trkpt>
      <trkpt lat="43.61277" lon="6.89273">
        <ele>50.6</ele>
        <time>2019-03-24T10:29:56Z</time>
      </trkpt>
      <trkpt lat="43.61272" lon="6.89272">
        <ele>48.8</ele>
        <time>2019-03-24T10:29:58Z</time>
      </trkpt>
      <trkpt lat="43.61268" lon="6.89271">
        <ele>47.8</ele>
        <time>2019-03-24T10:29:59Z</time>
      </trkpt>
      <trkpt lat="43.61264" lon="6.8927">
        <ele>46.4</ele>
        <time>2019-03-24T10:30:00Z</time>
      </trkpt>
      <trkpt lat="43.61261" lon="6.89269">
        <ele>45.2</ele>
        <time>2019-03-24T10:30:01Z</time>
      </trkpt>
      <trkpt lat="43.61259" lon="6.89269">
        <ele>44</ele>
        <time>2019-03-24T10:30:02Z</time>
      </trkpt>
      <trkpt lat="43.61256" lon="6.89269">
        <ele>43</ele>
        <time>2019-03-24T10:30:03Z</time>
      </trkpt>
      <trkpt lat="43.61254" lon="6.89269">
        <ele>42</ele>
        <time>2019-03-24T10:30:04Z</time>
      </trkpt>
      <trkpt lat="43.61252" lon="6.89269">
        <ele>40.8</ele>
        <time>2019-03-24T10:30:05Z</time>
      </trkpt>
      <trkpt lat="43.61251" lon="6.89268">
        <ele>39.8</ele>
        <time>2019-03-24T10:30:06Z</time>
      </trkpt>
      <trkpt lat="43.61248" lon="6.89266">
        <ele>38.6</ele>
        <time>2019-03-24T10:30:07Z</time>
      </trkpt>
      <trkpt lat="43.61245" lon="6.89266">
        <ele>37.4</ele>
        <time>2019-03-24T10:30:08Z</time>
      </trkpt>
      <trkpt lat="43.61243" lon="6.89268">
        <ele>36.6</ele>
        <time>2019-03-24T10:30:09Z</time>
      </trkpt>
      <trkpt lat="43.61241" lon="6.89269">
        <ele>35.6</ele>
        <time>2019-03-24T10:30:10Z</time>
      </trkpt>
      <trkpt lat="43.61239" lon="6.89269">
        <ele>34.6</ele>
        <time>2019-03-24T10:30:11Z</time>
      </trkpt>
      <trkpt lat="43.61232" lon="6.89272">
        <ele>29.4</ele>
        <time>2019-03-24T10:30:24Z</time>
      </trkpt>
      <trkpt lat="43.61227" lon="6.89274">
        <ele>28</ele>
        <time>2019-03-24T10:30:26Z</time>
      </trkpt>
      <trkpt lat="43.61224" lon="6.89271">
        <ele>27.2</ele>
        <time>2019-03-24T10:30:28Z</time>
      </trkpt>
      <trkpt lat="43.61224" lon="6.89266">
        <ele>26.4</ele>
        <time>2019-03-24T10:30:29Z</time>
      </trkpt>
      <trkpt lat="43.6122" lon="6.89254">
        <ele>24.8</ele>
        <time>2019-03-24T10:30:31Z</time>
      </trkpt>
      <trkpt lat="43.61216" lon="6.89249">
        <ele>23.8</ele>
        <time>2019-03-24T10:30:32Z</time>
      </trkpt>
      <trkpt lat="43.61209" lon="6.89246">
        <ele>22.2</ele>
        <time>2019-03-24T10:30:34Z</time>
      </trkpt>
      <trkpt lat="43.61205" lon="6.8925">
        <ele>20.8</ele>
        <time>2019-03-24T10:30:36Z</time>
      </trkpt>
      <trkpt lat="43.61205" lon="6.89251">
        <ele>20.2</ele>
        <time>2019-03-24T10:30:37Z</time>
      </trkpt>
      <trkpt lat="43.61206" lon="6.89254">
        <ele>19.4</ele>
        <time>2019-03-24T10:30:38Z</time>
      </trkpt>
      <trkpt lat="43.61209" lon="6.89261">
        <ele>18.2</ele>
        <time>2019-03-24T10:30:40Z</time>
      </trkpt>
      <trkpt lat="43.61209" lon="6.89265">
        <ele>17.8</ele>
        <time>2019-03-24T10:30:41Z</time>
      </trkpt>
      <trkpt lat="43.61209" lon="6.89275">
        <ele>17</ele>
        <time>2019-03-24T10:30:43Z</time>
      </trkpt>
      <trkpt lat="43.6121" lon="6.89279">
        <ele>16.4</ele>
        <time>2019-03-24T10:30:44Z</time>
      </trkpt>
      <trkpt lat="43.6121" lon="6.89291">
        <ele>15.8</ele>
        <time>2019-03-24T10:30:46Z</time>
      </trkpt>
      <trkpt lat="43.6121" lon="6.89297">
        <ele>15.6</ele>
        <time>2019-03-24T10:30:47Z</time>
      </trkpt>
      <trkpt lat="43.6121" lon="6.89331">
        <ele>15.4</ele>
        <time>2019-03-24T10:30:53Z</time>
      </trkpt>
      <trkpt lat="43.61208" lon="6.8936">
        <ele>15.8</ele>
        <time>2019-03-24T10:30:58Z</time>
      </trkpt>
      <trkpt lat="43.61204" lon="6.89381">
        <ele>16.8</ele>
        <time>2019-03-24T10:31:02Z</time>
      </trkpt>
      <trkpt lat="43.61203" lon="6.89386">
        <ele>17.2</ele>
        <time>2019-03-24T10:31:03Z</time>
      </trkpt>
      <trkpt lat="43.612" lon="6.89397">
        <ele>18</ele>
        <time>2019-03-24T10:31:05Z</time>
      </trkpt>
      <trkpt lat="43.61193" lon="6.8942">
        <ele>19.2</ele>
        <time>2019-03-24T10:31:09Z</time>
      </trkpt>
      <trkpt lat="43.61189" lon="6.89432">
        <ele>20.8</ele>
        <time>2019-03-24T10:31:11Z</time>
      </trkpt>
      <trkpt lat="43.61183" lon="6.89442">
        <ele>22.2</ele>
        <time>2019-03-24T10:31:13Z</time>
      </trkpt>
      <trkpt lat="43.61179" lon="6.89447">
        <ele>22.8</ele>
        <time>2019-03-24T10:31:14Z</time>
      </trkpt>
      <trkpt lat="43.61171" lon="6.89455">
        <ele>23.2</ele>
        <time>2019-03-24T10:31:16Z</time>
      </trkpt>
      <trkpt lat="43.61156" lon="6.89466">
        <ele>23.6</ele>
        <time>2019-03-24T10:31:19Z</time>
      </trkpt>
      <trkpt lat="43.61142" lon="6.89475">
        <ele>24.4</ele>
        <time>2019-03-24T10:31:22Z</time>
      </trkpt>
      <trkpt lat="43.61128" lon="6.89484">
        <ele>25.4</ele>
        <time>2019-03-24T10:31:25Z</time>
      </trkpt>
      <trkpt lat="43.61123" lon="6.89488">
        <ele>25.6</ele>
        <time>2019-03-24T10:31:26Z</time>
      </trkpt>
      <trkpt lat="43.61096" lon="6.89505">
        <ele>26.2</ele>
        <time>2019-03-24T10:31:31Z</time>
      </trkpt>
      <trkpt lat="43.61085" lon="6.89512">
        <ele>26.6</ele>
        <time>2019-03-24T10:31:33Z</time>
      </trkpt>
      <trkpt lat="43.61054" lon="6.89536">
        <ele>27</ele>
        <time>2019-03-24T10:31:39Z</time>
      </trkpt>
      <trkpt lat="43.61013" lon="6.89565">
        <ele>27.4</ele>
        <time>2019-03-24T10:31:47Z</time>
      </trkpt>
      <trkpt lat="43.60978" lon="6.89593">
        <ele>27.6</ele>
        <time>2019-03-24T10:31:54Z</time>
      </trkpt>
      <trkpt lat="43.60954" lon="6.89624">
        <ele>27.8</ele>
        <time>2019-03-24T10:32:00Z</time>
      </trkpt>
      <trkpt lat="43.60951" lon="6.89629">
        <ele>27.8</ele>
        <time>2019-03-24T10:32:01Z</time>
      </trkpt>
      <trkpt lat="43.60941" lon="6.89647">
        <ele>27.6</ele>
        <time>2019-03-24T10:32:04Z</time>
      </trkpt>
      <trkpt lat="43.60939" lon="6.89653">
        <ele>27.4</ele>
        <time>2019-03-24T10:32:05Z</time>
      </trkpt>
      <trkpt lat="43.60921" lon="6.89696">
        <ele>26.4</ele>
        <time>2019-03-24T10:32:11Z</time>
      </trkpt>
      <trkpt lat="43.60912" lon="6.89718">
        <ele>25.8</ele>
        <time>2019-03-24T10:32:14Z</time>
      </trkpt>
      <trkpt lat="43.60903" lon="6.89739">
        <ele>25.4</ele>
        <time>2019-03-24T10:32:17Z</time>
      </trkpt>
      <trkpt lat="43.60883" lon="6.89778">
        <ele>24.4</ele>
        <time>2019-03-24T10:32:23Z</time>
      </trkpt>
      <trkpt lat="43.60875" lon="6.89788">
        <ele>24.2</ele>
        <time>2019-03-24T10:32:25Z</time>
      </trkpt>
      <trkpt lat="43.60849" lon="6.89816">
        <ele>24.8</ele>
        <time>2019-03-24T10:32:31Z</time>
      </trkpt>
      <trkpt lat="43.60845" lon="6.89819">
        <ele>24.8</ele>
        <time>2019-03-24T10:32:32Z</time>
      </trkpt>
      <trkpt lat="43.60826" lon="6.89833">
        <ele>24.6</ele>
        <time>2019-03-24T10:32:36Z</time>
      </trkpt>
      <trkpt lat="43.60817" lon="6.8984">
        <ele>24.8</ele>
        <time>2019-03-24T10:32:38Z</time>
      </trkpt>
      <trkpt lat="43.60805" lon="6.89855">
        <ele>24.8</ele>
        <time>2019-03-24T10:32:41Z</time>
      </trkpt>
      <trkpt lat="43.60801" lon="6.89861">
        <ele>24.6</ele>
        <time>2019-03-24T10:32:42Z</time>
      </trkpt>
      <trkpt lat="43.60794" lon="6.89874">
        <ele>24</ele>
        <time>2019-03-24T10:32:44Z</time>
      </trkpt>
      <trkpt lat="43.60792" lon="6.89881">
        <ele>23.6</ele>
        <time>2019-03-24T10:32:45Z</time>
      </trkpt>
      <trkpt lat="43.60787" lon="6.89895">
        <ele>23.2</ele>
        <time>2019-03-24T10:32:47Z</time>
      </trkpt>
      <trkpt lat="43.60775" lon="6.89928">
        <ele>22.4</ele>
        <time>2019-03-24T10:32:52Z</time>
      </trkpt>
      <trkpt lat="43.60772" lon="6.89934">
        <ele>22</ele>
        <time>2019-03-24T10:32:53Z</time>
      </trkpt>
      <trkpt lat="43.60747" lon="6.89982">
        <ele>22.6</ele>
        <time>2019-03-24T10:33:01Z</time>
      </trkpt>
      <trkpt lat="43.60741" lon="6.89993">
        <ele>23.2</ele>
        <time>2019-03-24T10:33:03Z</time>
      </trkpt>
      <trkpt lat="43.60726" lon="6.90022">
        <ele>23.6</ele>
        <time>2019-03-24T10:33:08Z</time>
      </trkpt>
      <trkpt lat="43.60715" lon="6.90045">
        <ele>24.4</ele>
        <time>2019-03-24T10:33:12Z</time>
      </trkpt>
      <trkpt lat="43.607" lon="6.90072">
        <ele>24.8</ele>
        <time>2019-03-24T10:33:17Z</time>
      </trkpt>
      <trkpt lat="43.60681" lon="6.90103">
        <ele>24.8</ele>
        <time>2019-03-24T10:33:23Z</time>
      </trkpt>
      <trkpt lat="43.60677" lon="6.90107">
        <ele>24.8</ele>
        <time>2019-03-24T10:33:24Z</time>
      </trkpt>
      <trkpt lat="43.60663" lon="6.90129">
        <ele>24.8</ele>
        <time>2019-03-24T10:33:28Z</time>
      </trkpt>
      <trkpt lat="43.60659" lon="6.90141">
        <ele>24.8</ele>
        <time>2019-03-24T10:33:30Z</time>
      </trkpt>
      <trkpt lat="43.60658" lon="6.90161">
        <ele>24.6</ele>
        <time>2019-03-24T10:33:33Z</time>
      </trkpt>
      <trkpt lat="43.60658" lon="6.90174">
        <ele>24.6</ele>
        <time>2019-03-24T10:33:35Z</time>
      </trkpt>
      <trkpt lat="43.60659" lon="6.90228">
        <ele>25.6</ele>
        <time>2019-03-24T10:33:43Z</time>
      </trkpt>
      <trkpt lat="43.6066" lon="6.90234">
        <ele>25.8</ele>
        <time>2019-03-24T10:33:44Z</time>
      </trkpt>
      <trkpt lat="43.60662" lon="6.90247">
        <ele>26.2</ele>
        <time>2019-03-24T10:33:46Z</time>
      </trkpt>
      <trkpt lat="43.60668" lon="6.9028">
        <ele>26.2</ele>
        <time>2019-03-24T10:33:51Z</time>
      </trkpt>
      <trkpt lat="43.60665" lon="6.90293">
        <ele>26.6</ele>
        <time>2019-03-24T10:33:53Z</time>
      </trkpt>
      <trkpt lat="43.60663" lon="6.90299">
        <ele>27</ele>
        <time>2019-03-24T10:33:54Z</time>
      </trkpt>
      <trkpt lat="43.60653" lon="6.90313">
        <ele>27.8</ele>
        <time>2019-03-24T10:33:57Z</time>
      </trkpt>
      <trkpt lat="43.60648" lon="6.90322">
        <ele>27.8</ele>
        <time>2019-03-24T10:33:59Z</time>
      </trkpt>
      <trkpt lat="43.60638" lon="6.90335">
        <ele>29</ele>
        <time>2019-03-24T10:34:04Z</time>
      </trkpt>
      <trkpt lat="43.60637" lon="6.90338">
        <ele>30.2</ele>
        <time>2019-03-24T10:34:07Z</time>
      </trkpt>
      <trkpt lat="43.60636" lon="6.90341">
        <ele>30.8</ele>
        <time>2019-03-24T10:34:09Z</time>
      </trkpt>
      <trkpt lat="43.60635" lon="6.90348">
        <ele>31.4</ele>
        <time>2019-03-24T10:34:12Z</time>
      </trkpt>
      <trkpt lat="43.60632" lon="6.90354">
        <ele>32</ele>
        <time>2019-03-24T10:34:15Z</time>
      </trkpt>
      <trkpt lat="43.60631" lon="6.90356">
        <ele>32.4</ele>
        <time>2019-03-24T10:34:16Z</time>
      </trkpt>
      <trkpt lat="43.60628" lon="6.9036">
        <ele>33</ele>
        <time>2019-03-24T10:34:19Z</time>
      </trkpt>
      <trkpt lat="43.60625" lon="6.90366">
        <ele>33.4</ele>
        <time>2019-03-24T10:34:22Z</time>
      </trkpt>
      <trkpt lat="43.6062" lon="6.90377">
        <ele>34.2</ele>
        <time>2019-03-24T10:34:28Z</time>
      </trkpt>
      <trkpt lat="43.60611" lon="6.90393">
        <ele>34.4</ele>
        <time>2019-03-24T10:34:36Z</time>
      </trkpt>
      <trkpt lat="43.60609" lon="6.90394">
        <ele>34.6</ele>
        <time>2019-03-24T10:34:37Z</time>
      </trkpt>
      <trkpt lat="43.60599" lon="6.90408">
        <ele>35.4</ele>
        <time>2019-03-24T10:34:45Z</time>
      </trkpt>
      <trkpt lat="43.60594" lon="6.90414">
        <ele>35.6</ele>
        <time>2019-03-24T10:34:48Z</time>
      </trkpt>
      <trkpt lat="43.6059" lon="6.90421">
        <ele>35.8</ele>
        <time>2019-03-24T10:34:51Z</time>
      </trkpt>
      <trkpt lat="43.60581" lon="6.90437">
        <ele>36.6</ele>
        <time>2019-03-24T10:34:58Z</time>
      </trkpt>
      <trkpt lat="43.60572" lon="6.90454">
        <ele>37</ele>
        <time>2019-03-24T10:35:06Z</time>
      </trkpt>
      <trkpt lat="43.60566" lon="6.90469">
        <ele>38</ele>
        <time>2019-03-24T10:35:12Z</time>
      </trkpt>
      <trkpt lat="43.60563" lon="6.90474">
        <ele>38.4</ele>
        <time>2019-03-24T10:35:14Z</time>
      </trkpt>
      <trkpt lat="43.60556" lon="6.90492">
        <ele>39.2</ele>
        <time>2019-03-24T10:35:21Z</time>
      </trkpt>
      <trkpt lat="43.60555" lon="6.90495">
        <ele>39.4</ele>
        <time>2019-03-24T10:35:22Z</time>
      </trkpt>
      <trkpt lat="43.60549" lon="6.90511">
        <ele>40.2</ele>
        <time>2019-03-24T10:35:28Z</time>
      </trkpt>
      <trkpt lat="43.60544" lon="6.90522">
        <ele>41</ele>
        <time>2019-03-24T10:35:32Z</time>
      </trkpt>
      <trkpt lat="43.60542" lon="6.90527">
        <ele>41.4</ele>
        <time>2019-03-24T10:35:34Z</time>
      </trkpt>
      <trkpt lat="43.60536" lon="6.90539">
        <ele>41.2</ele>
        <time>2019-03-24T10:35:40Z</time>
      </trkpt>
      <trkpt lat="43.60529" lon="6.90557">
        <ele>42</ele>
        <time>2019-03-24T10:35:47Z</time>
      </trkpt>
      <trkpt lat="43.60527" lon="6.90563">
        <ele>42.6</ele>
        <time>2019-03-24T10:35:49Z</time>
      </trkpt>
      <trkpt lat="43.60524" lon="6.90571">
        <ele>43.6</ele>
        <time>2019-03-24T10:35:52Z</time>
      </trkpt>
      <trkpt lat="43.60521" lon="6.90578">
        <ele>44.4</ele>
        <time>2019-03-24T10:35:55Z</time>
      </trkpt>
      <trkpt lat="43.6052" lon="6.90581">
        <ele>44.8</ele>
        <time>2019-03-24T10:35:56Z</time>
      </trkpt>
      <trkpt lat="43.60515" lon="6.9059">
        <ele>44.8</ele>
        <time>2019-03-24T10:36:01Z</time>
      </trkpt>
      <trkpt lat="43.60505" lon="6.90612">
        <ele>45.6</ele>
        <time>2019-03-24T10:36:10Z</time>
      </trkpt>
      <trkpt lat="43.60502" lon="6.90619">
        <ele>45.8</ele>
        <time>2019-03-24T10:36:13Z</time>
      </trkpt>
      <trkpt lat="43.60498" lon="6.90628">
        <ele>46.6</ele>
        <time>2019-03-24T10:36:17Z</time>
      </trkpt>
      <trkpt lat="43.60495" lon="6.90633">
        <ele>46.8</ele>
        <time>2019-03-24T10:36:19Z</time>
      </trkpt>
      <trkpt lat="43.60488" lon="6.9065">
        <ele>47.8</ele>
        <time>2019-03-24T10:36:26Z</time>
      </trkpt>
      <trkpt lat="43.60488" lon="6.90653">
        <ele>48</ele>
        <time>2019-03-24T10:36:27Z</time>
      </trkpt>
      <trkpt lat="43.6048" lon="6.9067">
        <ele>49</ele>
        <time>2019-03-24T10:36:34Z</time>
      </trkpt>
      <trkpt lat="43.60477" lon="6.9068">
        <ele>50.4</ele>
        <time>2019-03-24T10:36:38Z</time>
      </trkpt>
      <trkpt lat="43.60472" lon="6.9069">
        <ele>50.8</ele>
        <time>2019-03-24T10:36:42Z</time>
      </trkpt>
      <trkpt lat="43.60468" lon="6.907">
        <ele>51.4</ele>
        <time>2019-03-24T10:36:46Z</time>
      </trkpt>
      <trkpt lat="43.60464" lon="6.90711">
        <ele>52.2</ele>
        <time>2019-03-24T10:36:50Z</time>
      </trkpt>
      <trkpt lat="43.6046" lon="6.90719">
        <ele>52.4</ele>
        <time>2019-03-24T10:36:53Z</time>
      </trkpt>
      <trkpt lat="43.60455" lon="6.90734">
        <ele>53</ele>
        <time>2019-03-24T10:36:58Z</time>
      </trkpt>
      <trkpt lat="43.6045" lon="6.90743">
        <ele>53.6</ele>
        <time>2019-03-24T10:37:01Z</time>
      </trkpt>
      <trkpt lat="43.60445" lon="6.90756">
        <ele>54</ele>
        <time>2019-03-24T10:37:05Z</time>
      </trkpt>
      <trkpt lat="43.60439" lon="6.90773">
        <ele>54.6</ele>
        <time>2019-03-24T10:37:10Z</time>
      </trkpt>
      <trkpt lat="43.60436" lon="6.90784">
        <ele>54.8</ele>
        <time>2019-03-24T10:37:13Z</time>
      </trkpt>
      <trkpt lat="43.60425" lon="6.90818">
        <ele>55</ele>
        <time>2019-03-24T10:37:22Z</time>
      </trkpt>
      <trkpt lat="43.60416" lon="6.9086">
        <ele>55</ele>
        <time>2019-03-24T10:37:31Z</time>
      </trkpt>
      <trkpt lat="43.60409" lon="6.909">
        <ele>54.4</ele>
        <time>2019-03-24T10:37:38Z</time>
      </trkpt>
      <trkpt lat="43.60405" lon="6.90934">
        <ele>54.2</ele>
        <time>2019-03-24T10:37:43Z</time>
      </trkpt>
      <trkpt lat="43.60402" lon="6.90937">
        <ele>54.2</ele>
        <time>2019-03-24T10:37:44Z</time>
      </trkpt>
      <trkpt lat="43.60399" lon="6.90948">
        <ele>53.6</ele>
        <time>2019-03-24T10:37:47Z</time>
      </trkpt>
      <trkpt lat="43.604" lon="6.90954">
        <ele>53.4</ele>
        <time>2019-03-24T10:37:48Z</time>
      </trkpt>
      <trkpt lat="43.60403" lon="6.90983">
        <ele>52.4</ele>
        <time>2019-03-24T10:37:52Z</time>
      </trkpt>
      <trkpt lat="43.60404" lon="6.90991">
        <ele>52.2</ele>
        <time>2019-03-24T10:37:53Z</time>
      </trkpt>
      <trkpt lat="43.60405" lon="6.9102">
        <ele>51.2</ele>
        <time>2019-03-24T10:37:56Z</time>
      </trkpt>
      <trkpt lat="43.60406" lon="6.9103">
        <ele>50.6</ele>
        <time>2019-03-24T10:37:57Z</time>
      </trkpt>
      <trkpt lat="43.60407" lon="6.91041">
        <ele>50</ele>
        <time>2019-03-24T10:37:58Z</time>
      </trkpt>
      <trkpt lat="43.60408" lon="6.91064">
        <ele>48.8</ele>
        <time>2019-03-24T10:38:00Z</time>
      </trkpt>
      <trkpt lat="43.60409" lon="6.911">
        <ele>47.6</ele>
        <time>2019-03-24T10:38:03Z</time>
      </trkpt>
      <trkpt lat="43.60411" lon="6.91138">
        <ele>46.2</ele>
        <time>2019-03-24T10:38:06Z</time>
      </trkpt>
      <trkpt lat="43.60413" lon="6.91164">
        <ele>45</ele>
        <time>2019-03-24T10:38:08Z</time>
      </trkpt>
      <trkpt lat="43.60413" lon="6.91177">
        <ele>44.6</ele>
        <time>2019-03-24T10:38:09Z</time>
      </trkpt>
      <trkpt lat="43.60413" lon="6.9119">
        <ele>44</ele>
        <time>2019-03-24T10:38:10Z</time>
      </trkpt>
      <trkpt lat="43.60416" lon="6.91204">
        <ele>43.4</ele>
        <time>2019-03-24T10:38:11Z</time>
      </trkpt>
      <trkpt lat="43.60422" lon="6.91215">
        <ele>43</ele>
        <time>2019-03-24T10:38:12Z</time>
      </trkpt>
      <trkpt lat="43.6044" lon="6.91227">
        <ele>42</ele>
        <time>2019-03-24T10:38:14Z</time>
      </trkpt>
      <trkpt lat="43.60449" lon="6.91232">
        <ele>41.4</ele>
        <time>2019-03-24T10:38:15Z</time>
      </trkpt>
      <trkpt lat="43.60458" lon="6.91237">
        <ele>41</ele>
        <time>2019-03-24T10:38:16Z</time>
      </trkpt>
      <trkpt lat="43.60467" lon="6.91244">
        <ele>39.8</ele>
        <time>2019-03-24T10:38:17Z</time>
      </trkpt>
      <trkpt lat="43.60476" lon="6.91252">
        <ele>38.8</ele>
        <time>2019-03-24T10:38:18Z</time>
      </trkpt>
      <trkpt lat="43.60489" lon="6.91268">
        <ele>37.2</ele>
        <time>2019-03-24T10:38:20Z</time>
      </trkpt>
      <trkpt lat="43.60499" lon="6.9128">
        <ele>36</ele>
        <time>2019-03-24T10:38:22Z</time>
      </trkpt>
      <trkpt lat="43.60509" lon="6.91295">
        <ele>34.8</ele>
        <time>2019-03-24T10:38:25Z</time>
      </trkpt>
      <trkpt lat="43.60508" lon="6.91301">
        <ele>34.2</ele>
        <time>2019-03-24T10:38:26Z</time>
      </trkpt>
      <trkpt lat="43.60507" lon="6.91306">
        <ele>33.8</ele>
        <time>2019-03-24T10:38:27Z</time>
      </trkpt>
      <trkpt lat="43.60501" lon="6.91306">
        <ele>32.2</ele>
        <time>2019-03-24T10:38:29Z</time>
      </trkpt>
      <trkpt lat="43.60493" lon="6.91293">
        <ele>30.8</ele>
        <time>2019-03-24T10:38:32Z</time>
      </trkpt>
      <trkpt lat="43.6048" lon="6.91275">
        <ele>29.8</ele>
        <time>2019-03-24T10:38:36Z</time>
      </trkpt>
      <trkpt lat="43.60475" lon="6.91273">
        <ele>29.8</ele>
        <time>2019-03-24T10:38:37Z</time>
      </trkpt>
      <trkpt lat="43.60471" lon="6.91276">
        <ele>29.4</ele>
        <time>2019-03-24T10:38:38Z</time>
      </trkpt>
      <trkpt lat="43.60464" lon="6.91292">
        <ele>28.4</ele>
        <time>2019-03-24T10:38:40Z</time>
      </trkpt>
      <trkpt lat="43.60461" lon="6.9131">
        <ele>27.4</ele>
        <time>2019-03-24T10:38:42Z</time>
      </trkpt>
      <trkpt lat="43.6046" lon="6.9132">
        <ele>26.8</ele>
        <time>2019-03-24T10:38:43Z</time>
      </trkpt>
      <trkpt lat="43.60458" lon="6.91338">
        <ele>26</ele>
        <time>2019-03-24T10:38:45Z</time>
      </trkpt>
      <trkpt lat="43.60452" lon="6.91356">
        <ele>25.6</ele>
        <time>2019-03-24T10:38:47Z</time>
      </trkpt>
      <trkpt lat="43.60448" lon="6.91362">
        <ele>25.4</ele>
        <time>2019-03-24T10:38:48Z</time>
      </trkpt>
      <trkpt lat="43.60434" lon="6.91368">
        <ele>24.8</ele>
        <time>2019-03-24T10:38:50Z</time>
      </trkpt>
      <trkpt lat="43.60428" lon="6.91372">
        <ele>24.8</ele>
        <time>2019-03-24T10:38:51Z</time>
      </trkpt>
      <trkpt lat="43.60404" lon="6.91389">
        <ele>24.4</ele>
        <time>2019-03-24T10:38:55Z</time>
      </trkpt>
      <trkpt lat="43.60399" lon="6.91395">
        <ele>24.4</ele>
        <time>2019-03-24T10:38:56Z</time>
      </trkpt>
      <trkpt lat="43.60381" lon="6.91413">
        <ele>24.4</ele>
        <time>2019-03-24T10:39:00Z</time>
      </trkpt>
      <trkpt lat="43.60376" lon="6.91412">
        <ele>24.2</ele>
        <time>2019-03-24T10:39:01Z</time>
      </trkpt>
      <trkpt lat="43.60355" lon="6.91405">
        <ele>23.8</ele>
        <time>2019-03-24T10:39:05Z</time>
      </trkpt>
      <trkpt lat="43.6035" lon="6.91406">
        <ele>23.8</ele>
        <time>2019-03-24T10:39:06Z</time>
      </trkpt>
      <trkpt lat="43.60334" lon="6.91412">
        <ele>24.4</ele>
        <time>2019-03-24T10:39:09Z</time>
      </trkpt>
      <trkpt lat="43.60329" lon="6.91415">
        <ele>24.4</ele>
        <time>2019-03-24T10:39:10Z</time>
      </trkpt>
      <trkpt lat="43.60313" lon="6.91428">
        <ele>24.4</ele>
        <time>2019-03-24T10:39:14Z</time>
      </trkpt>
      <trkpt lat="43.60302" lon="6.91438">
        <ele>25</ele>
        <time>2019-03-24T10:39:17Z</time>
      </trkpt>
      <trkpt lat="43.60301" lon="6.91447">
        <ele>25.4</ele>
        <time>2019-03-24T10:39:19Z</time>
      </trkpt>
      <trkpt lat="43.6031" lon="6.9146">
        <ele>25.4</ele>
        <time>2019-03-24T10:39:22Z</time>
      </trkpt>
      <trkpt lat="43.6032" lon="6.91473">
        <ele>25.2</ele>
        <time>2019-03-24T10:39:25Z</time>
      </trkpt>
      <trkpt lat="43.6033" lon="6.91481">
        <ele>25.2</ele>
        <time>2019-03-24T10:39:27Z</time>
      </trkpt>
      <trkpt lat="43.6034" lon="6.91491">
        <ele>24.8</ele>
        <time>2019-03-24T10:39:29Z</time>
      </trkpt>
      <trkpt lat="43.60349" lon="6.91502">
        <ele>24.6</ele>
        <time>2019-03-24T10:39:31Z</time>
      </trkpt>
      <trkpt lat="43.60363" lon="6.91524">
        <ele>24.2</ele>
        <time>2019-03-24T10:39:35Z</time>
      </trkpt>
      <trkpt lat="43.60367" lon="6.91538">
        <ele>24.2</ele>
        <time>2019-03-24T10:39:37Z</time>
      </trkpt>
      <trkpt lat="43.6038" lon="6.91586">
        <ele>24.6</ele>
        <time>2019-03-24T10:39:44Z</time>
      </trkpt>
      <trkpt lat="43.60393" lon="6.91624">
        <ele>24.8</ele>
        <time>2019-03-24T10:39:51Z</time>
      </trkpt>
      <trkpt lat="43.60405" lon="6.91648">
        <ele>25.4</ele>
        <time>2019-03-24T10:39:57Z</time>
      </trkpt>
      <trkpt lat="43.60415" lon="6.91673">
        <ele>25.6</ele>
        <time>2019-03-24T10:40:04Z</time>
      </trkpt>
      <trkpt lat="43.6042" lon="6.91692">
        <ele>25.6</ele>
        <time>2019-03-24T10:40:10Z</time>
      </trkpt>
      <trkpt lat="43.60426" lon="6.9172">
        <ele>26</ele>
        <time>2019-03-24T10:40:18Z</time>
      </trkpt>
      <trkpt lat="43.60427" lon="6.91723">
        <ele>26.2</ele>
        <time>2019-03-24T10:40:19Z</time>
      </trkpt>
      <trkpt lat="43.60429" lon="6.91744">
        <ele>26.4</ele>
        <time>2019-03-24T10:40:25Z</time>
      </trkpt>
      <trkpt lat="43.60428" lon="6.91775">
        <ele>27</ele>
        <time>2019-03-24T10:40:33Z</time>
      </trkpt>
      <trkpt lat="43.60424" lon="6.91799">
        <ele>26.8</ele>
        <time>2019-03-24T10:40:41Z</time>
      </trkpt>
      <trkpt lat="43.60423" lon="6.91804">
        <ele>27.6</ele>
        <time>2019-03-24T10:40:44Z</time>
      </trkpt>
      <trkpt lat="43.60422" lon="6.9181">
        <ele>28.4</ele>
        <time>2019-03-24T10:40:46Z</time>
      </trkpt>
      <trkpt lat="43.60421" lon="6.91813">
        <ele>28.6</ele>
        <time>2019-03-24T10:40:47Z</time>
      </trkpt>
      <trkpt lat="43.60418" lon="6.91821">
        <ele>28.6</ele>
        <time>2019-03-24T10:40:49Z</time>
      </trkpt>
      <trkpt lat="43.60414" lon="6.91832">
        <ele>29.2</ele>
        <time>2019-03-24T10:40:52Z</time>
      </trkpt>
      <trkpt lat="43.60412" lon="6.91838">
        <ele>29.8</ele>
        <time>2019-03-24T10:40:54Z</time>
      </trkpt>
      <trkpt lat="43.60414" lon="6.91841">
        <ele>30.4</ele>
        <time>2019-03-24T10:40:55Z</time>
      </trkpt>
      <trkpt lat="43.60417" lon="6.91841">
        <ele>30.8</ele>
        <time>2019-03-24T10:40:56Z</time>
      </trkpt>
      <trkpt lat="43.60419" lon="6.91838">
        <ele>31.2</ele>
        <time>2019-03-24T10:40:57Z</time>
      </trkpt>
      <trkpt lat="43.60423" lon="6.9183">
        <ele>31</ele>
        <time>2019-03-24T10:40:59Z</time>
      </trkpt>
      <trkpt lat="43.6044" lon="6.91804">
        <ele>31.4</ele>
        <time>2019-03-24T10:41:05Z</time>
      </trkpt>
      <trkpt lat="43.60453" lon="6.91787">
        <ele>32.2</ele>
        <time>2019-03-24T10:41:09Z</time>
      </trkpt>
      <trkpt lat="43.60467" lon="6.91765">
        <ele>33</ele>
        <time>2019-03-24T10:41:14Z</time>
      </trkpt>
      <trkpt lat="43.6047" lon="6.91761">
        <ele>33.2</ele>
        <time>2019-03-24T10:41:15Z</time>
      </trkpt>
      <trkpt lat="43.60493" lon="6.91731">
        <ele>34.2</ele>
        <time>2019-03-24T10:41:22Z</time>
      </trkpt>
      <trkpt lat="43.60508" lon="6.91718">
        <ele>35.4</ele>
        <time>2019-03-24T10:41:26Z</time>
      </trkpt>
      <trkpt lat="43.6052" lon="6.9171">
        <ele>35.8</ele>
        <time>2019-03-24T10:41:29Z</time>
      </trkpt>
      <trkpt lat="43.60551" lon="6.91694">
        <ele>35.2</ele>
        <time>2019-03-24T10:41:36Z</time>
      </trkpt>
      <trkpt lat="43.60585" lon="6.9168">
        <ele>34.2</ele>
        <time>2019-03-24T10:41:42Z</time>
      </trkpt>
      <trkpt lat="43.6059" lon="6.91677">
        <ele>34</ele>
        <time>2019-03-24T10:41:43Z</time>
      </trkpt>
      <trkpt lat="43.60597" lon="6.91674">
        <ele>33.6</ele>
        <time>2019-03-24T10:41:44Z</time>
      </trkpt>
      <trkpt lat="43.6061" lon="6.9167">
        <ele>33</ele>
        <time>2019-03-24T10:41:46Z</time>
      </trkpt>
      <trkpt lat="43.60636" lon="6.91664">
        <ele>32.2</ele>
        <time>2019-03-24T10:41:50Z</time>
      </trkpt>
      <trkpt lat="43.6065" lon="6.91661">
        <ele>31.8</ele>
        <time>2019-03-24T10:41:52Z</time>
      </trkpt>
      <trkpt lat="43.60677" lon="6.91655">
        <ele>30.8</ele>
        <time>2019-03-24T10:41:56Z</time>
      </trkpt>
      <trkpt lat="43.60683" lon="6.91653">
        <ele>30.6</ele>
        <time>2019-03-24T10:41:57Z</time>
      </trkpt>
      <trkpt lat="43.60711" lon="6.91646">
        <ele>29.6</ele>
        <time>2019-03-24T10:42:02Z</time>
      </trkpt>
      <trkpt lat="43.60717" lon="6.91647">
        <ele>29.2</ele>
        <time>2019-03-24T10:42:03Z</time>
      </trkpt>
      <trkpt lat="43.60723" lon="6.91647">
        <ele>28.8</ele>
        <time>2019-03-24T10:42:04Z</time>
      </trkpt>
      <trkpt lat="43.60733" lon="6.91646">
        <ele>28.6</ele>
        <time>2019-03-24T10:42:06Z</time>
      </trkpt>
      <trkpt lat="43.60745" lon="6.91646">
        <ele>28.4</ele>
        <time>2019-03-24T10:42:09Z</time>
      </trkpt>
      <trkpt lat="43.6075" lon="6.91653">
        <ele>28.6</ele>
        <time>2019-03-24T10:42:12Z</time>
      </trkpt>
      <trkpt lat="43.60744" lon="6.91655">
        <ele>29.2</ele>
        <time>2019-03-24T10:42:15Z</time>
      </trkpt>
      <trkpt lat="43.60743" lon="6.91655">
        <ele>29.6</ele>
        <time>2019-03-24T10:42:16Z</time>
      </trkpt>
      <trkpt lat="43.60739" lon="6.91655">
        <ele>31</ele>
        <time>2019-03-24T10:42:19Z</time>
      </trkpt>
      <trkpt lat="43.60735" lon="6.91657">
        <ele>32.6</ele>
        <time>2019-03-24T10:42:22Z</time>
      </trkpt>
      <trkpt lat="43.6073" lon="6.9166">
        <ele>34.2</ele>
        <time>2019-03-24T10:42:25Z</time>
      </trkpt>
      <trkpt lat="43.60726" lon="6.91664">
        <ele>35.6</ele>
        <time>2019-03-24T10:42:29Z</time>
      </trkpt>
      <trkpt lat="43.60724" lon="6.91667">
        <ele>36.4</ele>
        <time>2019-03-24T10:42:31Z</time>
      </trkpt>
      <trkpt lat="43.60722" lon="6.91668">
        <ele>37</ele>
        <time>2019-03-24T10:42:32Z</time>
      </trkpt>
      <trkpt lat="43.60722" lon="6.9167">
        <ele>37.4</ele>
        <time>2019-03-24T10:42:33Z</time>
      </trkpt>
      <trkpt lat="43.60721" lon="6.91673">
        <ele>38.4</ele>
        <time>2019-03-24T10:42:35Z</time>
      </trkpt>
      <trkpt lat="43.6072" lon="6.91676">
        <ele>38.6</ele>
        <time>2019-03-24T10:42:36Z</time>
      </trkpt>
      <trkpt lat="43.60719" lon="6.9168">
        <ele>39.6</ele>
        <time>2019-03-24T10:42:39Z</time>
      </trkpt>
      <trkpt lat="43.60716" lon="6.91688">
        <ele>40.8</ele>
        <time>2019-03-24T10:42:43Z</time>
      </trkpt>
      <trkpt lat="43.60709" lon="6.91706">
        <ele>41.4</ele>
        <time>2019-03-24T10:42:52Z</time>
      </trkpt>
      <trkpt lat="43.60708" lon="6.91713">
        <ele>42</ele>
        <time>2019-03-24T10:42:55Z</time>
      </trkpt>
      <trkpt lat="43.60711" lon="6.9172">
        <ele>41.6</ele>
        <time>2019-03-24T10:42:59Z</time>
      </trkpt>
      <trkpt lat="43.60719" lon="6.91731">
        <ele>41.2</ele>
        <time>2019-03-24T10:43:06Z</time>
      </trkpt>
      <trkpt lat="43.60726" lon="6.9174">
        <ele>43.2</ele>
        <time>2019-03-24T10:43:12Z</time>
      </trkpt>
      <trkpt lat="43.60729" lon="6.91743">
        <ele>44.2</ele>
        <time>2019-03-24T10:43:14Z</time>
      </trkpt>
      <trkpt lat="43.6073" lon="6.91745">
        <ele>44.6</ele>
        <time>2019-03-24T10:43:15Z</time>
      </trkpt>
      <trkpt lat="43.60733" lon="6.91748">
        <ele>45.6</ele>
        <time>2019-03-24T10:43:17Z</time>
      </trkpt>
      <trkpt lat="43.60738" lon="6.91754">
        <ele>46.8</ele>
        <time>2019-03-24T10:43:22Z</time>
      </trkpt>
      <trkpt lat="43.60739" lon="6.91755">
        <ele>47.2</ele>
        <time>2019-03-24T10:43:23Z</time>
      </trkpt>
      <trkpt lat="43.60743" lon="6.91758">
        <ele>48</ele>
        <time>2019-03-24T10:43:26Z</time>
      </trkpt>
      <trkpt lat="43.60743" lon="6.91759">
        <ele>48.4</ele>
        <time>2019-03-24T10:43:27Z</time>
      </trkpt>
      <trkpt lat="43.60745" lon="6.9176">
        <ele>48.8</ele>
        <time>2019-03-24T10:43:30Z</time>
      </trkpt>
      <trkpt lat="43.60748" lon="6.91761">
        <ele>49.2</ele>
        <time>2019-03-24T10:43:33Z</time>
      </trkpt>
      <trkpt lat="43.60753" lon="6.91764">
        <ele>50.4</ele>
        <time>2019-03-24T10:43:37Z</time>
      </trkpt>
      <trkpt lat="43.60762" lon="6.9177">
        <ele>50.4</ele>
        <time>2019-03-24T10:43:43Z</time>
      </trkpt>
      <trkpt lat="43.60769" lon="6.91772">
        <ele>51.8</ele>
        <time>2019-03-24T10:43:48Z</time>
      </trkpt>
      <trkpt lat="43.60772" lon="6.91774">
        <ele>52</ele>
        <time>2019-03-24T10:43:50Z</time>
      </trkpt>
      <trkpt lat="43.60773" lon="6.91776">
        <ele>52</ele>
        <time>2019-03-24T10:43:51Z</time>
      </trkpt>
      <trkpt lat="43.60774" lon="6.91776">
        <ele>51.8</ele>
        <time>2019-03-24T10:43:53Z</time>
      </trkpt>
      <trkpt lat="43.60778" lon="6.91776">
        <ele>52</ele>
        <time>2019-03-24T10:43:55Z</time>
      </trkpt>
      <trkpt lat="43.60783" lon="6.91779">
        <ele>52.8</ele>
        <time>2019-03-24T10:43:58Z</time>
      </trkpt>
      <trkpt lat="43.6079" lon="6.91779">
        <ele>53</ele>
        <time>2019-03-24T10:44:03Z</time>
      </trkpt>
      <trkpt lat="43.60797" lon="6.91779">
        <ele>53.2</ele>
        <time>2019-03-24T10:44:13Z</time>
      </trkpt>
      <trkpt lat="43.608" lon="6.91781">
        <ele>53</ele>
        <time>2019-03-24T10:44:15Z</time>
      </trkpt>
      <trkpt lat="43.60811" lon="6.91787">
        <ele>52.4</ele>
        <time>2019-03-24T10:44:22Z</time>
      </trkpt>
      <trkpt lat="43.6082" lon="6.91797">
        <ele>51.8</ele>
        <time>2019-03-24T10:44:27Z</time>
      </trkpt>
      <trkpt lat="43.60826" lon="6.91804">
        <ele>51.2</ele>
        <time>2019-03-24T10:44:30Z</time>
      </trkpt>
      <trkpt lat="43.6084" lon="6.91817">
        <ele>50.8</ele>
        <time>2019-03-24T10:44:37Z</time>
      </trkpt>
      <trkpt lat="43.60846" lon="6.91818">
        <ele>50.6</ele>
        <time>2019-03-24T10:44:39Z</time>
      </trkpt>
      <trkpt lat="43.60859" lon="6.9182">
        <ele>50.4</ele>
        <time>2019-03-24T10:44:43Z</time>
      </trkpt>
      <trkpt lat="43.60865" lon="6.91823">
        <ele>49.4</ele>
        <time>2019-03-24T10:44:45Z</time>
      </trkpt>
      <trkpt lat="43.60872" lon="6.91824">
        <ele>48.6</ele>
        <time>2019-03-24T10:44:48Z</time>
      </trkpt>
      <trkpt lat="43.60887" lon="6.91817">
        <ele>48.6</ele>
        <time>2019-03-24T10:44:53Z</time>
      </trkpt>
      <trkpt lat="43.60902" lon="6.91811">
        <ele>49.2</ele>
        <time>2019-03-24T10:44:58Z</time>
      </trkpt>
      <trkpt lat="43.60922" lon="6.91813">
        <ele>48.6</ele>
        <time>2019-03-24T10:45:04Z</time>
      </trkpt>
      <trkpt lat="43.60927" lon="6.91823">
        <ele>48.2</ele>
        <time>2019-03-24T10:45:06Z</time>
      </trkpt>
      <trkpt lat="43.60935" lon="6.91845">
        <ele>47.2</ele>
        <time>2019-03-24T10:45:10Z</time>
      </trkpt>
      <trkpt lat="43.60943" lon="6.91862">
        <ele>47.6</ele>
        <time>2019-03-24T10:45:14Z</time>
      </trkpt>
      <trkpt lat="43.60956" lon="6.91863">
        <ele>48.4</ele>
        <time>2019-03-24T10:45:20Z</time>
      </trkpt>
      <trkpt lat="43.60961" lon="6.91864">
        <ele>49.4</ele>
        <time>2019-03-24T10:45:23Z</time>
      </trkpt>
      <trkpt lat="43.60968" lon="6.91863">
        <ele>50.2</ele>
        <time>2019-03-24T10:45:26Z</time>
      </trkpt>
      <trkpt lat="43.6097" lon="6.91863">
        <ele>50.4</ele>
        <time>2019-03-24T10:45:27Z</time>
      </trkpt>
      <trkpt lat="43.60977" lon="6.91864">
        <ele>51.6</ele>
        <time>2019-03-24T10:45:31Z</time>
      </trkpt>
      <trkpt lat="43.60983" lon="6.91863">
        <ele>53.2</ele>
        <time>2019-03-24T10:45:35Z</time>
      </trkpt>
      <trkpt lat="43.60987" lon="6.91863">
        <ele>54</ele>
        <time>2019-03-24T10:45:37Z</time>
      </trkpt>
      <trkpt lat="43.60991" lon="6.91862">
        <ele>54.4</ele>
        <time>2019-03-24T10:45:39Z</time>
      </trkpt>
      <trkpt lat="43.60997" lon="6.9186">
        <ele>55.6</ele>
        <time>2019-03-24T10:45:42Z</time>
      </trkpt>
      <trkpt lat="43.61" lon="6.91859">
        <ele>56.6</ele>
        <time>2019-03-24T10:45:44Z</time>
      </trkpt>
      <trkpt lat="43.61007" lon="6.91858">
        <ele>58</ele>
        <time>2019-03-24T10:45:47Z</time>
      </trkpt>
      <trkpt lat="43.6101" lon="6.91859">
        <ele>58.8</ele>
        <time>2019-03-24T10:45:49Z</time>
      </trkpt>
      <trkpt lat="43.61033" lon="6.91872">
        <ele>63</ele>
        <time>2019-03-24T10:46:37Z</time>
      </trkpt>
      <trkpt lat="43.61037" lon="6.91877">
        <ele>62.8</ele>
        <time>2019-03-24T10:46:40Z</time>
      </trkpt>
      <trkpt lat="43.6104" lon="6.91879">
        <ele>62.2</ele>
        <time>2019-03-24T10:46:42Z</time>
      </trkpt>
      <trkpt lat="43.61042" lon="6.91883">
        <ele>61.8</ele>
        <time>2019-03-24T10:46:44Z</time>
      </trkpt>
      <trkpt lat="43.61042" lon="6.91884">
        <ele>61.6</ele>
        <time>2019-03-24T10:46:45Z</time>
      </trkpt>
      <trkpt lat="43.61043" lon="6.91886">
        <ele>61.4</ele>
        <time>2019-03-24T10:46:46Z</time>
      </trkpt>
      <trkpt lat="43.61045" lon="6.9189">
        <ele>60.4</ele>
        <time>2019-03-24T10:46:48Z</time>
      </trkpt>
      <trkpt lat="43.61051" lon="6.91898">
        <ele>59.2</ele>
        <time>2019-03-24T10:46:51Z</time>
      </trkpt>
      <trkpt lat="43.61076" lon="6.91919">
        <ele>58.2</ele>
        <time>2019-03-24T10:46:56Z</time>
      </trkpt>
      <trkpt lat="43.61081" lon="6.91925">
        <ele>57.8</ele>
        <time>2019-03-24T10:46:57Z</time>
      </trkpt>
      <trkpt lat="43.61086" lon="6.91931">
        <ele>56.6</ele>
        <time>2019-03-24T10:46:58Z</time>
      </trkpt>
      <trkpt lat="43.61097" lon="6.9194">
        <ele>55.8</ele>
        <time>2019-03-24T10:47:00Z</time>
      </trkpt>
      <trkpt lat="43.61101" lon="6.91943">
        <ele>55.2</ele>
        <time>2019-03-24T10:47:01Z</time>
      </trkpt>
      <trkpt lat="43.61115" lon="6.9195">
        <ele>54</ele>
        <time>2019-03-24T10:47:04Z</time>
      </trkpt>
      <trkpt lat="43.6112" lon="6.91953">
        <ele>53.6</ele>
        <time>2019-03-24T10:47:05Z</time>
      </trkpt>
      <trkpt lat="43.61126" lon="6.91956">
        <ele>53.2</ele>
        <time>2019-03-24T10:47:06Z</time>
      </trkpt>
      <trkpt lat="43.61133" lon="6.91958">
        <ele>52.6</ele>
        <time>2019-03-24T10:47:07Z</time>
      </trkpt>
      <trkpt lat="43.61144" lon="6.91962">
        <ele>51.4</ele>
        <time>2019-03-24T10:47:09Z</time>
      </trkpt>
      <trkpt lat="43.61158" lon="6.9197">
        <ele>50.2</ele>
        <time>2019-03-24T10:47:12Z</time>
      </trkpt>
      <trkpt lat="43.61165" lon="6.91974">
        <ele>49.4</ele>
        <time>2019-03-24T10:47:14Z</time>
      </trkpt>
      <trkpt lat="43.61169" lon="6.91976">
        <ele>49</ele>
        <time>2019-03-24T10:47:15Z</time>
      </trkpt>
      <trkpt lat="43.61178" lon="6.91983">
        <ele>47.6</ele>
        <time>2019-03-24T10:47:19Z</time>
      </trkpt>
      <trkpt lat="43.61185" lon="6.91988">
        <ele>46.2</ele>
        <time>2019-03-24T10:47:23Z</time>
      </trkpt>
      <trkpt lat="43.61191" lon="6.91992">
        <ele>45</ele>
        <time>2019-03-24T10:47:26Z</time>
      </trkpt>
      <trkpt lat="43.61194" lon="6.91995">
        <ele>44.4</ele>
        <time>2019-03-24T10:47:28Z</time>
      </trkpt>
      <trkpt lat="43.61197" lon="6.91997">
        <ele>43.8</ele>
        <time>2019-03-24T10:47:30Z</time>
      </trkpt>
      <trkpt lat="43.61197" lon="6.91998">
        <ele>43.6</ele>
        <time>2019-03-24T10:47:31Z</time>
      </trkpt>
      <trkpt lat="43.612" lon="6.92">
        <ele>43</ele>
        <time>2019-03-24T10:47:33Z</time>
      </trkpt>
      <trkpt lat="43.61202" lon="6.92">
        <ele>42.6</ele>
        <time>2019-03-24T10:47:34Z</time>
      </trkpt>
      <trkpt lat="43.61205" lon="6.92001">
        <ele>41.6</ele>
        <time>2019-03-24T10:47:36Z</time>
      </trkpt>
      <trkpt lat="43.61206" lon="6.92002">
        <ele>41.2</ele>
        <time>2019-03-24T10:47:37Z</time>
      </trkpt>
      <trkpt lat="43.61213" lon="6.92006">
        <ele>40.6</ele>
        <time>2019-03-24T10:47:42Z</time>
      </trkpt>
      <trkpt lat="43.61218" lon="6.92009">
        <ele>40.8</ele>
        <time>2019-03-24T10:47:44Z</time>
      </trkpt>
      <trkpt lat="43.61225" lon="6.92014">
        <ele>41.4</ele>
        <time>2019-03-24T10:47:47Z</time>
      </trkpt>
      <trkpt lat="43.61232" lon="6.92019">
        <ele>42.8</ele>
        <time>2019-03-24T10:47:50Z</time>
      </trkpt>
      <trkpt lat="43.61235" lon="6.92023">
        <ele>44.2</ele>
        <time>2019-03-24T10:47:52Z</time>
      </trkpt>
      <trkpt lat="43.61332" lon="6.9211">
        <ele>96</ele>
        <time>2019-03-24T10:49:57Z</time>
      </trkpt>
      <trkpt lat="43.61333" lon="6.92112">
        <ele>96</ele>
        <time>2019-03-24T10:49:58Z</time>
      </trkpt>
      <trkpt lat="43.61339" lon="6.92123">
        <ele>96.4</ele>
        <time>2019-03-24T10:50:03Z</time>
      </trkpt>
      <trkpt lat="43.61356" lon="6.92138">
        <ele>96.2</ele>
        <time>2019-03-24T10:50:09Z</time>
      </trkpt>
      <trkpt lat="43.6138" lon="6.92146">
        <ele>94.4</ele>
        <time>2019-03-24T10:50:14Z</time>
      </trkpt>
      <trkpt lat="43.61386" lon="6.92147">
        <ele>93.2</ele>
        <time>2019-03-24T10:50:15Z</time>
      </trkpt>
      <trkpt lat="43.61395" lon="6.92152">
        <ele>92</ele>
        <time>2019-03-24T10:50:17Z</time>
      </trkpt>
      <trkpt lat="43.61399" lon="6.92156">
        <ele>91.4</ele>
        <time>2019-03-24T10:50:18Z</time>
      </trkpt>
      <trkpt lat="43.61412" lon="6.92164">
        <ele>91</ele>
        <time>2019-03-24T10:50:22Z</time>
      </trkpt>
      <trkpt lat="43.61414" lon="6.92166">
        <ele>90.8</ele>
        <time>2019-03-24T10:50:23Z</time>
      </trkpt>
      <trkpt lat="43.61424" lon="6.92177">
        <ele>89.6</ele>
        <time>2019-03-24T10:50:28Z</time>
      </trkpt>
      <trkpt lat="43.61435" lon="6.92189">
        <ele>89.6</ele>
        <time>2019-03-24T10:50:34Z</time>
      </trkpt>
      <trkpt lat="43.61438" lon="6.92192">
        <ele>89.4</ele>
        <time>2019-03-24T10:50:36Z</time>
      </trkpt>
      <trkpt lat="43.61447" lon="6.92198">
        <ele>90.8</ele>
        <time>2019-03-24T10:50:41Z</time>
      </trkpt>
      <trkpt lat="43.61448" lon="6.92198">
        <ele>91</ele>
        <time>2019-03-24T10:50:42Z</time>
      </trkpt>
      <trkpt lat="43.61451" lon="6.92199">
        <ele>91.8</ele>
        <time>2019-03-24T10:50:43Z</time>
      </trkpt>
      <trkpt lat="43.61455" lon="6.922">
        <ele>93</ele>
        <time>2019-03-24T10:50:45Z</time>
      </trkpt>
      <trkpt lat="43.61459" lon="6.92201">
        <ele>93.6</ele>
        <time>2019-03-24T10:50:47Z</time>
      </trkpt>
      <trkpt lat="43.61461" lon="6.922">
        <ele>94.2</ele>
        <time>2019-03-24T10:50:48Z</time>
      </trkpt>
      <trkpt lat="43.61466" lon="6.92196">
        <ele>95.2</ele>
        <time>2019-03-24T10:50:51Z</time>
      </trkpt>
      <trkpt lat="43.61467" lon="6.92194">
        <ele>95.6</ele>
        <time>2019-03-24T10:50:52Z</time>
      </trkpt>
      <trkpt lat="43.61471" lon="6.92188">
        <ele>96</ele>
        <time>2019-03-24T10:50:55Z</time>
      </trkpt>
      <trkpt lat="43.61475" lon="6.92188">
        <ele>93.6</ele>
        <time>2019-03-24T10:50:58Z</time>
      </trkpt>
      <trkpt lat="43.61476" lon="6.92189">
        <ele>92.4</ele>
        <time>2019-03-24T10:50:59Z</time>
      </trkpt>
      <trkpt lat="43.61477" lon="6.9219">
        <ele>91.8</ele>
        <time>2019-03-24T10:51:00Z</time>
      </trkpt>
      <trkpt lat="43.61484" lon="6.92187">
        <ele>92.2</ele>
        <time>2019-03-24T10:51:06Z</time>
      </trkpt>
      <trkpt lat="43.61492" lon="6.92183">
        <ele>91</ele>
        <time>2019-03-24T10:51:11Z</time>
      </trkpt>
      <trkpt lat="43.61496" lon="6.92182">
        <ele>90.8</ele>
        <time>2019-03-24T10:51:13Z</time>
      </trkpt>
      <trkpt lat="43.61511" lon="6.92189">
        <ele>90</ele>
        <time>2019-03-24T10:51:20Z</time>
      </trkpt>
      <trkpt lat="43.61525" lon="6.92191">
        <ele>89.8</ele>
        <time>2019-03-24T10:51:28Z</time>
      </trkpt>
      <trkpt lat="43.61538" lon="6.92192">
        <ele>88.8</ele>
        <time>2019-03-24T10:51:34Z</time>
      </trkpt>
      <trkpt lat="43.6154" lon="6.92192">
        <ele>88.4</ele>
        <time>2019-03-24T10:51:35Z</time>
      </trkpt>
      <trkpt lat="43.61552" lon="6.92192">
        <ele>87.6</ele>
        <time>2019-03-24T10:51:40Z</time>
      </trkpt>
      <trkpt lat="43.61556" lon="6.92192">
        <ele>87.2</ele>
        <time>2019-03-24T10:51:42Z</time>
      </trkpt>
      <trkpt lat="43.61573" lon="6.92193">
        <ele>87.2</ele>
        <time>2019-03-24T10:51:49Z</time>
      </trkpt>
      <trkpt lat="43.61582" lon="6.92193">
        <ele>86.6</ele>
        <time>2019-03-24T10:51:52Z</time>
      </trkpt>
      <trkpt lat="43.61593" lon="6.92194">
        <ele>86.4</ele>
        <time>2019-03-24T10:51:56Z</time>
      </trkpt>
      <trkpt lat="43.61608" lon="6.92201">
        <ele>87.2</ele>
        <time>2019-03-24T10:52:01Z</time>
      </trkpt>
      <trkpt lat="43.61623" lon="6.92216">
        <ele>86.6</ele>
        <time>2019-03-24T10:52:07Z</time>
      </trkpt>
      <trkpt lat="43.61637" lon="6.92229">
        <ele>87.4</ele>
        <time>2019-03-24T10:52:13Z</time>
      </trkpt>
      <trkpt lat="43.61653" lon="6.92239">
        <ele>87.2</ele>
        <time>2019-03-24T10:52:18Z</time>
      </trkpt>
      <trkpt lat="43.61662" lon="6.92242">
        <ele>87.6</ele>
        <time>2019-03-24T10:52:21Z</time>
      </trkpt>
      <trkpt lat="43.61671" lon="6.92244">
        <ele>87.6</ele>
        <time>2019-03-24T10:52:24Z</time>
      </trkpt>
      <trkpt lat="43.61681" lon="6.92256">
        <ele>87</ele>
        <time>2019-03-24T10:52:29Z</time>
      </trkpt>
      <trkpt lat="43.61694" lon="6.9227">
        <ele>87.8</ele>
        <time>2019-03-24T10:52:36Z</time>
      </trkpt>
      <trkpt lat="43.617" lon="6.92275">
        <ele>88.6</ele>
        <time>2019-03-24T10:52:39Z</time>
      </trkpt>
      <trkpt lat="43.61705" lon="6.9228">
        <ele>89</ele>
        <time>2019-03-24T10:52:42Z</time>
      </trkpt>
      <trkpt lat="43.61714" lon="6.92285">
        <ele>87.6</ele>
        <time>2019-03-24T10:52:47Z</time>
      </trkpt>
      <trkpt lat="43.61716" lon="6.92287">
        <ele>87.6</ele>
        <time>2019-03-24T10:52:48Z</time>
      </trkpt>
      <trkpt lat="43.61727" lon="6.92294">
        <ele>86.4</ele>
        <time>2019-03-24T10:52:54Z</time>
      </trkpt>
      <trkpt lat="43.61728" lon="6.92296">
        <ele>86.2</ele>
        <time>2019-03-24T10:52:55Z</time>
      </trkpt>
      <trkpt lat="43.61738" lon="6.92304">
        <ele>86.2</ele>
        <time>2019-03-24T10:53:01Z</time>
      </trkpt>
      <trkpt lat="43.61752" lon="6.92311">
        <ele>85.6</ele>
        <time>2019-03-24T10:53:09Z</time>
      </trkpt>
      <trkpt lat="43.61761" lon="6.92319">
        <ele>85.8</ele>
        <time>2019-03-24T10:53:15Z</time>
      </trkpt>
      <trkpt lat="43.61762" lon="6.92321">
        <ele>85.6</ele>
        <time>2019-03-24T10:53:16Z</time>
      </trkpt>
      <trkpt lat="43.61761" lon="6.92326">
        <ele>85.6</ele>
        <time>2019-03-24T10:53:19Z</time>
      </trkpt>
      <trkpt lat="43.61759" lon="6.92326">
        <ele>85.8</ele>
        <time>2019-03-24T10:53:21Z</time>
      </trkpt>
      <trkpt lat="43.61756" lon="6.92325">
        <ele>86.4</ele>
        <time>2019-03-24T10:53:24Z</time>
      </trkpt>
      <trkpt lat="43.61755" lon="6.92324">
        <ele>86.8</ele>
        <time>2019-03-24T10:53:25Z</time>
      </trkpt>
      <trkpt lat="43.61742" lon="6.92335">
        <ele>94.8</ele>
        <time>2019-03-24T10:54:10Z</time>
      </trkpt>
      <trkpt lat="43.61744" lon="6.92336">
        <ele>94.6</ele>
        <time>2019-03-24T10:54:11Z</time>
      </trkpt>
      <trkpt lat="43.61751" lon="6.92342">
        <ele>95.2</ele>
        <time>2019-03-24T10:54:18Z</time>
      </trkpt>
      <trkpt lat="43.61758" lon="6.92347">
        <ele>95</ele>
        <time>2019-03-24T10:54:25Z</time>
      </trkpt>
      <trkpt lat="43.61766" lon="6.92351">
        <ele>95.2</ele>
        <time>2019-03-24T10:54:33Z</time>
      </trkpt>
      <trkpt lat="43.6177" lon="6.92354">
        <ele>96</ele>
        <time>2019-03-24T10:54:37Z</time>
      </trkpt>
      <trkpt lat="43.61773" lon="6.92355">
        <ele>96.4</ele>
        <time>2019-03-24T10:54:40Z</time>
      </trkpt>
      <trkpt lat="43.61774" lon="6.92356">
        <ele>96.4</ele>
        <time>2019-03-24T10:54:41Z</time>
      </trkpt>
      <trkpt lat="43.61778" lon="6.92359">
        <ele>96.8</ele>
        <time>2019-03-24T10:54:46Z</time>
      </trkpt>
      <trkpt lat="43.61779" lon="6.9236">
        <ele>97</ele>
        <time>2019-03-24T10:54:47Z</time>
      </trkpt>
      <trkpt lat="43.61781" lon="6.9236">
        <ele>97.2</ele>
        <time>2019-03-24T10:54:48Z</time>
      </trkpt>
      <trkpt lat="43.6179" lon="6.92368">
        <ele>97.8</ele>
        <time>2019-03-24T10:54:58Z</time>
      </trkpt>
      <trkpt lat="43.61792" lon="6.9237">
        <ele>98.4</ele>
        <time>2019-03-24T10:55:00Z</time>
      </trkpt>
      <trkpt lat="43.61797" lon="6.92374">
        <ele>99</ele>
        <time>2019-03-24T10:55:05Z</time>
      </trkpt>
      <trkpt lat="43.61801" lon="6.92376">
        <ele>99.4</ele>
        <time>2019-03-24T10:55:09Z</time>
      </trkpt>
      <trkpt lat="43.61808" lon="6.92375">
        <ele>100.2</ele>
        <time>2019-03-24T10:55:14Z</time>
      </trkpt>
      <trkpt lat="43.61809" lon="6.92375">
        <ele>100.6</ele>
        <time>2019-03-24T10:55:15Z</time>
      </trkpt>
      <trkpt lat="43.61815" lon="6.92375">
        <ele>101.4</ele>
        <time>2019-03-24T10:55:20Z</time>
      </trkpt>
      <trkpt lat="43.61816" lon="6.92376">
        <ele>101.6</ele>
        <time>2019-03-24T10:55:21Z</time>
      </trkpt>
      <trkpt lat="43.61823" lon="6.92376">
        <ele>101.2</ele>
        <time>2019-03-24T10:55:27Z</time>
      </trkpt>
      <trkpt lat="43.61832" lon="6.92378">
        <ele>101.2</ele>
        <time>2019-03-24T10:55:35Z</time>
      </trkpt>
      <trkpt lat="43.61834" lon="6.92379">
        <ele>101.4</ele>
        <time>2019-03-24T10:55:37Z</time>
      </trkpt>
      <trkpt lat="43.61822" lon="6.92389">
        <ele>104</ele>
        <time>2019-03-24T10:55:59Z</time>
      </trkpt>
      <trkpt lat="43.61817" lon="6.92391">
        <ele>104.6</ele>
        <time>2019-03-24T10:56:03Z</time>
      </trkpt>
      <trkpt lat="43.61816" lon="6.92393">
        <ele>104.8</ele>
        <time>2019-03-24T10:56:05Z</time>
      </trkpt>
      <trkpt lat="43.61815" lon="6.92396">
        <ele>104.8</ele>
        <time>2019-03-24T10:56:07Z</time>
      </trkpt>
      <trkpt lat="43.61816" lon="6.92398">
        <ele>105.2</ele>
        <time>2019-03-24T10:56:08Z</time>
      </trkpt>
      <trkpt lat="43.61819" lon="6.92398">
        <ele>106.2</ele>
        <time>2019-03-24T10:56:10Z</time>
      </trkpt>
      <trkpt lat="43.6182" lon="6.92398">
        <ele>106.4</ele>
        <time>2019-03-24T10:56:11Z</time>
      </trkpt>
      <trkpt lat="43.61825" lon="6.92398">
        <ele>106.6</ele>
        <time>2019-03-24T10:56:15Z</time>
      </trkpt>
      <trkpt lat="43.61828" lon="6.92398">
        <ele>106.4</ele>
        <time>2019-03-24T10:56:17Z</time>
      </trkpt>
      <trkpt lat="43.61837" lon="6.92402">
        <ele>106.6</ele>
        <time>2019-03-24T10:56:25Z</time>
      </trkpt>
      <trkpt lat="43.61837" lon="6.92416">
        <ele>103.2</ele>
        <time>2019-03-24T10:57:14Z</time>
      </trkpt>
      <trkpt lat="43.61831" lon="6.92418">
        <ele>104</ele>
        <time>2019-03-24T10:57:20Z</time>
      </trkpt>
      <trkpt lat="43.6183" lon="6.92421">
        <ele>104.4</ele>
        <time>2019-03-24T10:57:22Z</time>
      </trkpt>
      <trkpt lat="43.61832" lon="6.92424">
        <ele>105.6</ele>
        <time>2019-03-24T10:57:25Z</time>
      </trkpt>
      <trkpt lat="43.61833" lon="6.92427">
        <ele>107</ele>
        <time>2019-03-24T10:57:27Z</time>
      </trkpt>
      <trkpt lat="43.61834" lon="6.9243">
        <ele>108.2</ele>
        <time>2019-03-24T10:57:29Z</time>
      </trkpt>
      <trkpt lat="43.61833" lon="6.92432">
        <ele>108.8</ele>
        <time>2019-03-24T10:57:31Z</time>
      </trkpt>
      <trkpt lat="43.61832" lon="6.92433">
        <ele>109</ele>
        <time>2019-03-24T10:57:32Z</time>
      </trkpt>
      <trkpt lat="43.61831" lon="6.92433">
        <ele>109.2</ele>
        <time>2019-03-24T10:57:33Z</time>
      </trkpt>
      <trkpt lat="43.61828" lon="6.92432">
        <ele>109.8</ele>
        <time>2019-03-24T10:57:36Z</time>
      </trkpt>
      <trkpt lat="43.61826" lon="6.92431">
        <ele>110.4</ele>
        <time>2019-03-24T10:57:38Z</time>
      </trkpt>
      <trkpt lat="43.6182" lon="6.92429">
        <ele>111.6</ele>
        <time>2019-03-24T10:57:43Z</time>
      </trkpt>
      <trkpt lat="43.61819" lon="6.92429">
        <ele>111.6</ele>
        <time>2019-03-24T10:57:44Z</time>
      </trkpt>
      <trkpt lat="43.61811" lon="6.92428">
        <ele>112.4</ele>
        <time>2019-03-24T10:57:50Z</time>
      </trkpt>
      <trkpt lat="43.61811" lon="6.92429">
        <ele>113</ele>
        <time>2019-03-24T10:57:51Z</time>
      </trkpt>
      <trkpt lat="43.61812" lon="6.92436">
        <ele>114</ele>
        <time>2019-03-24T10:57:56Z</time>
      </trkpt>
      <trkpt lat="43.61813" lon="6.92437">
        <ele>114.2</ele>
        <time>2019-03-24T10:57:57Z</time>
      </trkpt>
      <trkpt lat="43.61815" lon="6.92438">
        <ele>115.2</ele>
        <time>2019-03-24T10:57:59Z</time>
      </trkpt>
      <trkpt lat="43.61817" lon="6.92442">
        <ele>116.2</ele>
        <time>2019-03-24T10:58:02Z</time>
      </trkpt>
      <trkpt lat="43.6182" lon="6.92449">
        <ele>117.2</ele>
        <time>2019-03-24T10:58:08Z</time>
      </trkpt>
      <trkpt lat="43.6182" lon="6.9245">
        <ele>117.4</ele>
        <time>2019-03-24T10:58:09Z</time>
      </trkpt>
      <trkpt lat="43.61817" lon="6.92451">
        <ele>118.4</ele>
        <time>2019-03-24T10:58:12Z</time>
      </trkpt>
      <trkpt lat="43.61813" lon="6.9245">
        <ele>119.2</ele>
        <time>2019-03-24T10:58:16Z</time>
      </trkpt>
      <trkpt lat="43.61811" lon="6.9245">
        <ele>119.4</ele>
        <time>2019-03-24T10:58:19Z</time>
      </trkpt>
      <trkpt lat="43.61805" lon="6.9245">
        <ele>120</ele>
        <time>2019-03-24T10:58:24Z</time>
      </trkpt>
      <trkpt lat="43.61794" lon="6.9245">
        <ele>120</ele>
        <time>2019-03-24T10:58:33Z</time>
      </trkpt>
      <trkpt lat="43.61785" lon="6.92449">
        <ele>120.2</ele>
        <time>2019-03-24T10:58:40Z</time>
      </trkpt>
      <trkpt lat="43.61784" lon="6.92449">
        <ele>120.6</ele>
        <time>2019-03-24T10:58:42Z</time>
      </trkpt>
      <trkpt lat="43.6178" lon="6.92448">
        <ele>121.4</ele>
        <time>2019-03-24T10:58:45Z</time>
      </trkpt>
      <trkpt lat="43.61779" lon="6.92448">
        <ele>121.6</ele>
        <time>2019-03-24T10:58:46Z</time>
      </trkpt>
      <trkpt lat="43.61774" lon="6.9245">
        <ele>122.6</ele>
        <time>2019-03-24T10:58:50Z</time>
      </trkpt>
      <trkpt lat="43.61773" lon="6.92451">
        <ele>123</ele>
        <time>2019-03-24T10:58:51Z</time>
      </trkpt>
      <trkpt lat="43.61775" lon="6.92456">
        <ele>124</ele>
        <time>2019-03-24T10:58:55Z</time>
      </trkpt>
      <trkpt lat="43.61796" lon="6.92476">
        <ele>126.4</ele>
        <time>2019-03-24T10:59:23Z</time>
      </trkpt>
      <trkpt lat="43.61799" lon="6.92479">
        <ele>127.2</ele>
        <time>2019-03-24T10:59:26Z</time>
      </trkpt>
      <trkpt lat="43.61799" lon="6.92483">
        <ele>127.6</ele>
        <time>2019-03-24T10:59:29Z</time>
      </trkpt>
      <trkpt lat="43.61798" lon="6.92484">
        <ele>128.4</ele>
        <time>2019-03-24T10:59:31Z</time>
      </trkpt>
      <trkpt lat="43.61797" lon="6.92484">
        <ele>128.8</ele>
        <time>2019-03-24T10:59:32Z</time>
      </trkpt>
      <trkpt lat="43.61792" lon="6.92483">
        <ele>130</ele>
        <time>2019-03-24T10:59:37Z</time>
      </trkpt>
      <trkpt lat="43.61775" lon="6.92478">
        <ele>132</ele>
        <time>2019-03-24T10:59:53Z</time>
      </trkpt>
      <trkpt lat="43.61768" lon="6.92475">
        <ele>132</ele>
        <time>2019-03-24T10:59:58Z</time>
      </trkpt>
      <trkpt lat="43.61766" lon="6.92475">
        <ele>131.8</ele>
        <time>2019-03-24T10:59:59Z</time>
      </trkpt>
      <trkpt lat="43.61763" lon="6.9248">
        <ele>131.8</ele>
        <time>2019-03-24T11:00:04Z</time>
      </trkpt>
      <trkpt lat="43.61767" lon="6.92481">
        <ele>132.8</ele>
        <time>2019-03-24T11:00:08Z</time>
      </trkpt>
      <trkpt lat="43.61767" lon="6.92481">
        <ele>132.8</ele>
        <time>2019-03-24T11:00:09Z</time>
      </trkpt>
      <trkpt lat="43.61786" lon="6.92501">
        <ele>134</ele>
        <time>2019-03-24T11:00:28Z</time>
      </trkpt>
      <trkpt lat="43.61788" lon="6.92503">
        <ele>134.6</ele>
        <time>2019-03-24T11:00:30Z</time>
      </trkpt>
      <trkpt lat="43.61794" lon="6.92507">
        <ele>135</ele>
        <time>2019-03-24T11:00:35Z</time>
      </trkpt>
      <trkpt lat="43.61797" lon="6.92511">
        <ele>135.6</ele>
        <time>2019-03-24T11:00:38Z</time>
      </trkpt>
      <trkpt lat="43.61799" lon="6.92512">
        <ele>136.2</ele>
        <time>2019-03-24T11:00:40Z</time>
      </trkpt>
      <trkpt lat="43.61804" lon="6.92519">
        <ele>136.2</ele>
        <time>2019-03-24T11:00:45Z</time>
      </trkpt>
      <trkpt lat="43.61807" lon="6.92524">
        <ele>137.2</ele>
        <time>2019-03-24T11:00:49Z</time>
      </trkpt>
      <trkpt lat="43.61808" lon="6.92528">
        <ele>138.6</ele>
        <time>2019-03-24T11:00:52Z</time>
      </trkpt>
      <trkpt lat="43.61807" lon="6.92529">
        <ele>138.6</ele>
        <time>2019-03-24T11:00:53Z</time>
      </trkpt>
      <trkpt lat="43.61777" lon="6.92542">
        <ele>148.6</ele>
        <time>2019-03-24T11:01:56Z</time>
      </trkpt>
      <trkpt lat="43.61783" lon="6.92552">
        <ele>149</ele>
        <time>2019-03-24T11:02:03Z</time>
      </trkpt>
      <trkpt lat="43.61793" lon="6.92562">
        <ele>149.6</ele>
        <time>2019-03-24T11:02:11Z</time>
      </trkpt>
      <trkpt lat="43.61796" lon="6.92567">
        <ele>151</ele>
        <time>2019-03-24T11:02:16Z</time>
      </trkpt>
      <trkpt lat="43.61797" lon="6.92568">
        <ele>151</ele>
        <time>2019-03-24T11:02:17Z</time>
      </trkpt>
      <trkpt lat="43.61805" lon="6.92578">
        <ele>150.8</ele>
        <time>2019-03-24T11:02:25Z</time>
      </trkpt>
      <trkpt lat="43.61807" lon="6.92588">
        <ele>150.2</ele>
        <time>2019-03-24T11:02:32Z</time>
      </trkpt>
      <trkpt lat="43.61807" lon="6.926">
        <ele>149.8</ele>
        <time>2019-03-24T11:02:39Z</time>
      </trkpt>
      <trkpt lat="43.61809" lon="6.92606">
        <ele>150</ele>
        <time>2019-03-24T11:02:43Z</time>
      </trkpt>
      <trkpt lat="43.6181" lon="6.92613">
        <ele>150.2</ele>
        <time>2019-03-24T11:02:47Z</time>
      </trkpt>
      <trkpt lat="43.61813" lon="6.92625">
        <ele>149.2</ele>
        <time>2019-03-24T11:03:31Z</time>
      </trkpt>
      <trkpt lat="43.61817" lon="6.92637">
        <ele>149.4</ele>
        <time>2019-03-24T11:03:35Z</time>
      </trkpt>
      <trkpt lat="43.61822" lon="6.92655">
        <ele>150</ele>
        <time>2019-03-24T11:03:40Z</time>
      </trkpt>
      <trkpt lat="43.61823" lon="6.92658">
        <ele>149.6</ele>
        <time>2019-03-24T11:03:41Z</time>
      </trkpt>
      <trkpt lat="43.61824" lon="6.92663">
        <ele>148.8</ele>
        <time>2019-03-24T11:03:43Z</time>
      </trkpt>
      <trkpt lat="43.61825" lon="6.9267">
        <ele>147.8</ele>
        <time>2019-03-24T11:03:46Z</time>
      </trkpt>
      <trkpt lat="43.61825" lon="6.92672">
        <ele>147.6</ele>
        <time>2019-03-24T11:03:47Z</time>
      </trkpt>
      <trkpt lat="43.61826" lon="6.92683">
        <ele>147.6</ele>
        <time>2019-03-24T11:03:52Z</time>
      </trkpt>
      <trkpt lat="43.61828" lon="6.92698">
        <ele>147</ele>
        <time>2019-03-24T11:03:57Z</time>
      </trkpt>
      <trkpt lat="43.61827" lon="6.92711">
        <ele>147.2</ele>
        <time>2019-03-24T11:04:01Z</time>
      </trkpt>
      <trkpt lat="43.61826" lon="6.92717">
        <ele>147.2</ele>
        <time>2019-03-24T11:04:05Z</time>
      </trkpt>
      <trkpt lat="43.61826" lon="6.9272">
        <ele>147.4</ele>
        <time>2019-03-24T11:04:07Z</time>
      </trkpt>
      <trkpt lat="43.6182" lon="6.92733">
        <ele>148.6</ele>
        <time>2019-03-24T11:04:17Z</time>
      </trkpt>
      <trkpt lat="43.61819" lon="6.92735">
        <ele>148.8</ele>
        <time>2019-03-24T11:04:18Z</time>
      </trkpt>
      <trkpt lat="43.61815" lon="6.92743">
        <ele>149.8</ele>
        <time>2019-03-24T11:04:22Z</time>
      </trkpt>
      <trkpt lat="43.61811" lon="6.9275">
        <ele>150.6</ele>
        <time>2019-03-24T11:04:25Z</time>
      </trkpt>
      <trkpt lat="43.61808" lon="6.92758">
        <ele>150.8</ele>
        <time>2019-03-24T11:04:28Z</time>
      </trkpt>
      <trkpt lat="43.61806" lon="6.9276">
        <ele>151.2</ele>
        <time>2019-03-24T11:04:29Z</time>
      </trkpt>
      <trkpt lat="43.61805" lon="6.92761">
        <ele>151.6</ele>
        <time>2019-03-24T11:04:30Z</time>
      </trkpt>
      <trkpt lat="43.61803" lon="6.92763">
        <ele>152.2</ele>
        <time>2019-03-24T11:04:31Z</time>
      </trkpt>
      <trkpt lat="43.61799" lon="6.92773">
        <ele>153</ele>
        <time>2019-03-24T11:04:34Z</time>
      </trkpt>
      <trkpt lat="43.61797" lon="6.92775">
        <ele>153.2</ele>
        <time>2019-03-24T11:04:35Z</time>
      </trkpt>
      <trkpt lat="43.61788" lon="6.92784">
        <ele>154</ele>
        <time>2019-03-24T11:04:40Z</time>
      </trkpt>
      <trkpt lat="43.61787" lon="6.92787">
        <ele>154.4</ele>
        <time>2019-03-24T11:04:41Z</time>
      </trkpt>
      <trkpt lat="43.61777" lon="6.92796">
        <ele>154.6</ele>
        <time>2019-03-24T11:04:45Z</time>
      </trkpt>
      <trkpt lat="43.61774" lon="6.92801">
        <ele>155</ele>
        <time>2019-03-24T11:04:47Z</time>
      </trkpt>
      <trkpt lat="43.61772" lon="6.92806">
        <ele>155</ele>
        <time>2019-03-24T11:04:49Z</time>
      </trkpt>
      <trkpt lat="43.61771" lon="6.92806">
        <ele>155</ele>
        <time>2019-03-24T11:04:50Z</time>
      </trkpt>
      <trkpt lat="43.61769" lon="6.92813">
        <ele>155.6</ele>
        <time>2019-03-24T11:04:54Z</time>
      </trkpt>
      <trkpt lat="43.61765" lon="6.92823">
        <ele>155.6</ele>
        <time>2019-03-24T11:04:59Z</time>
      </trkpt>
      <trkpt lat="43.61758" lon="6.92832">
        <ele>156.8</ele>
        <time>2019-03-24T11:05:05Z</time>
      </trkpt>
      <trkpt lat="43.61757" lon="6.92834">
        <ele>157</ele>
        <time>2019-03-24T11:05:06Z</time>
      </trkpt>
      <trkpt lat="43.61755" lon="6.92837">
        <ele>157.8</ele>
        <time>2019-03-24T11:05:09Z</time>
      </trkpt>
      <trkpt lat="43.61716" lon="6.92899">
        <ele>169.4</ele>
        <time>2019-03-24T11:06:05Z</time>
      </trkpt>
      <trkpt lat="43.61712" lon="6.92903">
        <ele>170.6</ele>
        <time>2019-03-24T11:06:09Z</time>
      </trkpt>
      <trkpt lat="43.61709" lon="6.92906">
        <ele>170.6</ele>
        <time>2019-03-24T11:06:12Z</time>
      </trkpt>
      <trkpt lat="43.61704" lon="6.92913">
        <ele>171</ele>
        <time>2019-03-24T11:06:19Z</time>
      </trkpt>
      <trkpt lat="43.61702" lon="6.92915">
        <ele>171</ele>
        <time>2019-03-24T11:06:21Z</time>
      </trkpt>
      <trkpt lat="43.61703" lon="6.92918">
        <ele>171</ele>
        <time>2019-03-24T11:06:24Z</time>
      </trkpt>
      <trkpt lat="43.61706" lon="6.92922">
        <ele>172</ele>
        <time>2019-03-24T11:06:28Z</time>
      </trkpt>
      <trkpt lat="43.6171" lon="6.92929">
        <ele>172.2</ele>
        <time>2019-03-24T11:08:13Z</time>
      </trkpt>
      <trkpt lat="43.61719" lon="6.92942">
        <ele>171</ele>
        <time>2019-03-24T11:08:19Z</time>
      </trkpt>
      <trkpt lat="43.61721" lon="6.92944">
        <ele>170.6</ele>
        <time>2019-03-24T11:08:20Z</time>
      </trkpt>
      <trkpt lat="43.61727" lon="6.92949">
        <ele>169.2</ele>
        <time>2019-03-24T11:08:23Z</time>
      </trkpt>
      <trkpt lat="43.61731" lon="6.92953">
        <ele>168</ele>
        <time>2019-03-24T11:08:25Z</time>
      </trkpt>
      <trkpt lat="43.61735" lon="6.92957">
        <ele>167.4</ele>
        <time>2019-03-24T11:08:27Z</time>
      </trkpt>
      <trkpt lat="43.61737" lon="6.92959">
        <ele>167</ele>
        <time>2019-03-24T11:08:28Z</time>
      </trkpt>
      <trkpt lat="43.61745" lon="6.92966">
        <ele>165.6</ele>
        <time>2019-03-24T11:08:32Z</time>
      </trkpt>
      <trkpt lat="43.61751" lon="6.92969">
        <ele>165.2</ele>
        <time>2019-03-24T11:08:34Z</time>
      </trkpt>
      <trkpt lat="43.61766" lon="6.92975">
        <ele>164.6</ele>
        <time>2019-03-24T11:08:39Z</time>
      </trkpt>
      <trkpt lat="43.61769" lon="6.92975">
        <ele>164.6</ele>
        <time>2019-03-24T11:08:40Z</time>
      </trkpt>
      <trkpt lat="43.61792" lon="6.92972">
        <ele>165.4</ele>
        <time>2019-03-24T11:08:47Z</time>
      </trkpt>
      <trkpt lat="43.61798" lon="6.92972">
        <ele>165.8</ele>
        <time>2019-03-24T11:08:49Z</time>
      </trkpt>
      <trkpt lat="43.61808" lon="6.92972">
        <ele>166.8</ele>
        <time>2019-03-24T11:08:52Z</time>
      </trkpt>
      <trkpt lat="43.61811" lon="6.92973">
        <ele>167</ele>
        <time>2019-03-24T11:08:53Z</time>
      </trkpt>
      <trkpt lat="43.61821" lon="6.92975">
        <ele>168</ele>
        <time>2019-03-24T11:08:56Z</time>
      </trkpt>
      <trkpt lat="43.61832" lon="6.92979">
        <ele>169</ele>
        <time>2019-03-24T11:08:59Z</time>
      </trkpt>
      <trkpt lat="43.61835" lon="6.92981">
        <ele>169.2</ele>
        <time>2019-03-24T11:09:00Z</time>
      </trkpt>
      <trkpt lat="43.61841" lon="6.92986">
        <ele>170</ele>
        <time>2019-03-24T11:09:02Z</time>
      </trkpt>
      <trkpt lat="43.61851" lon="6.92992">
        <ele>171.4</ele>
        <time>2019-03-24T11:09:05Z</time>
      </trkpt>
      <trkpt lat="43.61859" lon="6.93002">
        <ele>172.6</ele>
        <time>2019-03-24T11:09:08Z</time>
      </trkpt>
      <trkpt lat="43.61868" lon="6.93014">
        <ele>173</ele>
        <time>2019-03-24T11:09:11Z</time>
      </trkpt>
      <trkpt lat="43.61875" lon="6.93021">
        <ele>173.6</ele>
        <time>2019-03-24T11:09:13Z</time>
      </trkpt>
      <trkpt lat="43.61896" lon="6.93042">
        <ele>173.6</ele>
        <time>2019-03-24T11:09:19Z</time>
      </trkpt>
      <trkpt lat="43.61924" lon="6.93071">
        <ele>172.8</ele>
        <time>2019-03-24T11:09:26Z</time>
      </trkpt>
      <trkpt lat="43.61933" lon="6.93083">
        <ele>172.4</ele>
        <time>2019-03-24T11:09:28Z</time>
      </trkpt>
      <trkpt lat="43.61944" lon="6.93106">
        <ele>171.6</ele>
        <time>2019-03-24T11:09:31Z</time>
      </trkpt>
      <trkpt lat="43.61947" lon="6.93114">
        <ele>171.4</ele>
        <time>2019-03-24T11:09:32Z</time>
      </trkpt>
      <trkpt lat="43.61977" lon="6.93178">
        <ele>170.6</ele>
        <time>2019-03-24T11:09:40Z</time>
      </trkpt>
      <trkpt lat="43.61981" lon="6.93185">
        <ele>170.2</ele>
        <time>2019-03-24T11:09:41Z</time>
      </trkpt>
      <trkpt lat="43.61993" lon="6.93212">
        <ele>169.4</ele>
        <time>2019-03-24T11:09:45Z</time>
      </trkpt>
      <trkpt lat="43.61996" lon="6.93218">
        <ele>169.2</ele>
        <time>2019-03-24T11:09:46Z</time>
      </trkpt>
      <trkpt lat="43.61999" lon="6.93225">
        <ele>169</ele>
        <time>2019-03-24T11:09:47Z</time>
      </trkpt>
      <trkpt lat="43.62005" lon="6.93238">
        <ele>168.6</ele>
        <time>2019-03-24T11:09:49Z</time>
      </trkpt>
      <trkpt lat="43.62011" lon="6.93251">
        <ele>168.2</ele>
        <time>2019-03-24T11:09:51Z</time>
      </trkpt>
      <trkpt lat="43.62013" lon="6.93258">
        <ele>168</ele>
        <time>2019-03-24T11:09:52Z</time>
      </trkpt>
      <trkpt lat="43.62018" lon="6.93278">
        <ele>167</ele>
        <time>2019-03-24T11:09:55Z</time>
      </trkpt>
      <trkpt lat="43.62018" lon="6.93285">
        <ele>166.4</ele>
        <time>2019-03-24T11:09:56Z</time>
      </trkpt>
      <trkpt lat="43.62018" lon="6.93293">
        <ele>165.8</ele>
        <time>2019-03-24T11:09:57Z</time>
      </trkpt>
      <trkpt lat="43.62017" lon="6.93307">
        <ele>165.2</ele>
        <time>2019-03-24T11:09:59Z</time>
      </trkpt>
      <trkpt lat="43.62013" lon="6.93319">
        <ele>164.8</ele>
        <time>2019-03-24T11:10:01Z</time>
      </trkpt>
      <trkpt lat="43.62003" lon="6.93333">
        <ele>164</ele>
        <time>2019-03-24T11:10:04Z</time>
      </trkpt>
      <trkpt lat="43.61999" lon="6.93336">
        <ele>163.8</ele>
        <time>2019-03-24T11:10:05Z</time>
      </trkpt>
      <trkpt lat="43.61996" lon="6.9334">
        <ele>163.6</ele>
        <time>2019-03-24T11:10:06Z</time>
      </trkpt>
      <trkpt lat="43.6199" lon="6.93353">
        <ele>163.2</ele>
        <time>2019-03-24T11:10:09Z</time>
      </trkpt>
      <trkpt lat="43.61991" lon="6.93359">
        <ele>163.2</ele>
        <time>2019-03-24T11:10:10Z</time>
      </trkpt>
      <trkpt lat="43.61995" lon="6.93369">
        <ele>163</ele>
        <time>2019-03-24T11:10:12Z</time>
      </trkpt>
      <trkpt lat="43.61999" lon="6.93372">
        <ele>162.8</ele>
        <time>2019-03-24T11:10:13Z</time>
      </trkpt>
      <trkpt lat="43.6201" lon="6.93381">
        <ele>162.6</ele>
        <time>2019-03-24T11:10:16Z</time>
      </trkpt>
      <trkpt lat="43.6202" lon="6.93389">
        <ele>162.2</ele>
        <time>2019-03-24T11:10:19Z</time>
      </trkpt>
      <trkpt lat="43.62036" lon="6.93405">
        <ele>162.2</ele>
        <time>2019-03-24T11:10:25Z</time>
      </trkpt>
      <trkpt lat="43.62038" lon="6.93412">
        <ele>162.2</ele>
        <time>2019-03-24T11:10:27Z</time>
      </trkpt>
      <trkpt lat="43.62036" lon="6.93417">
        <ele>161.8</ele>
        <time>2019-03-24T11:10:29Z</time>
      </trkpt>
      <trkpt lat="43.62032" lon="6.93436">
        <ele>160.6</ele>
        <time>2019-03-24T11:10:33Z</time>
      </trkpt>
      <trkpt lat="43.62026" lon="6.93455">
        <ele>160</ele>
        <time>2019-03-24T11:10:37Z</time>
      </trkpt>
      <trkpt lat="43.62023" lon="6.93459">
        <ele>159.8</ele>
        <time>2019-03-24T11:10:38Z</time>
      </trkpt>
      <trkpt lat="43.62018" lon="6.93463">
        <ele>160</ele>
        <time>2019-03-24T11:10:39Z</time>
      </trkpt>
      <trkpt lat="43.62013" lon="6.9347">
        <ele>159.6</ele>
        <time>2019-03-24T11:10:40Z</time>
      </trkpt>
      <trkpt lat="43.62008" lon="6.93479">
        <ele>159.2</ele>
        <time>2019-03-24T11:10:41Z</time>
      </trkpt>
      <trkpt lat="43.62003" lon="6.93488">
        <ele>158.6</ele>
        <time>2019-03-24T11:10:42Z</time>
      </trkpt>
      <trkpt lat="43.61999" lon="6.93498">
        <ele>158</ele>
        <time>2019-03-24T11:10:43Z</time>
      </trkpt>
      <trkpt lat="43.61995" lon="6.93507">
        <ele>157.4</ele>
        <time>2019-03-24T11:10:44Z</time>
      </trkpt>
      <trkpt lat="43.61991" lon="6.93517">
        <ele>156.8</ele>
        <time>2019-03-24T11:10:45Z</time>
      </trkpt>
      <trkpt lat="43.61987" lon="6.93527">
        <ele>156</ele>
        <time>2019-03-24T11:10:46Z</time>
      </trkpt>
      <trkpt lat="43.61977" lon="6.93548">
        <ele>154.2</ele>
        <time>2019-03-24T11:10:48Z</time>
      </trkpt>
      <trkpt lat="43.61972" lon="6.93559">
        <ele>153.4</ele>
        <time>2019-03-24T11:10:49Z</time>
      </trkpt>
      <trkpt lat="43.61967" lon="6.93568">
        <ele>152.6</ele>
        <time>2019-03-24T11:10:50Z</time>
      </trkpt>
      <trkpt lat="43.61966" lon="6.93577">
        <ele>151</ele>
        <time>2019-03-24T11:10:52Z</time>
      </trkpt>
      <trkpt lat="43.61968" lon="6.93583">
        <ele>150</ele>
        <time>2019-03-24T11:10:54Z</time>
      </trkpt>
      <trkpt lat="43.6197" lon="6.93586">
        <ele>149.6</ele>
        <time>2019-03-24T11:10:56Z</time>
      </trkpt>
      <trkpt lat="43.61969" lon="6.93596">
        <ele>149</ele>
        <time>2019-03-24T11:10:59Z</time>
      </trkpt>
      <trkpt lat="43.61969" lon="6.936">
        <ele>148.6</ele>
        <time>2019-03-24T11:11:00Z</time>
      </trkpt>
      <trkpt lat="43.6197" lon="6.93609">
        <ele>148.8</ele>
        <time>2019-03-24T11:11:04Z</time>
      </trkpt>
      <trkpt lat="43.61977" lon="6.93612">
        <ele>149.4</ele>
        <time>2019-03-24T11:11:09Z</time>
      </trkpt>
      <trkpt lat="43.6198" lon="6.93621">
        <ele>149.8</ele>
        <time>2019-03-24T11:11:13Z</time>
      </trkpt>
      <trkpt lat="43.61981" lon="6.93623">
        <ele>150.2</ele>
        <time>2019-03-24T11:11:14Z</time>
      </trkpt>
      <trkpt lat="43.61981" lon="6.93626">
        <ele>150.6</ele>
        <time>2019-03-24T11:11:16Z</time>
      </trkpt>
      <trkpt lat="43.61979" lon="6.93632">
        <ele>150.8</ele>
        <time>2019-03-24T11:11:18Z</time>
      </trkpt>
      <trkpt lat="43.61969" lon="6.93653">
        <ele>150.6</ele>
        <time>2019-03-24T11:11:22Z</time>
      </trkpt>
      <trkpt lat="43.61965" lon="6.93664">
        <ele>150.4</ele>
        <time>2019-03-24T11:11:24Z</time>
      </trkpt>
      <trkpt lat="43.61964" lon="6.9367">
        <ele>150.2</ele>
        <time>2019-03-24T11:11:25Z</time>
      </trkpt>
      <trkpt lat="43.61963" lon="6.9368">
        <ele>150</ele>
        <time>2019-03-24T11:11:27Z</time>
      </trkpt>
      <trkpt lat="43.61961" lon="6.93691">
        <ele>150</ele>
        <time>2019-03-24T11:11:31Z</time>
      </trkpt>
      <trkpt lat="43.61951" lon="6.93703">
        <ele>149.4</ele>
        <time>2019-03-24T11:11:37Z</time>
      </trkpt>
      <trkpt lat="43.61945" lon="6.93707">
        <ele>150</ele>
        <time>2019-03-24T11:11:43Z</time>
      </trkpt>
      <trkpt lat="43.61944" lon="6.93708">
        <ele>150.2</ele>
        <time>2019-03-24T11:11:44Z</time>
      </trkpt>
      <trkpt lat="43.61936" lon="6.93712">
        <ele>150.6</ele>
        <time>2019-03-24T11:11:49Z</time>
      </trkpt>
      <trkpt lat="43.61931" lon="6.93716">
        <ele>151.2</ele>
        <time>2019-03-24T11:11:52Z</time>
      </trkpt>
      <trkpt lat="43.61928" lon="6.93721">
        <ele>152</ele>
        <time>2019-03-24T11:11:55Z</time>
      </trkpt>
      <trkpt lat="43.6192" lon="6.9374">
        <ele>152.2</ele>
        <time>2019-03-24T11:12:02Z</time>
      </trkpt>
      <trkpt lat="43.61918" lon="6.93742">
        <ele>152.4</ele>
        <time>2019-03-24T11:12:03Z</time>
      </trkpt>
      <trkpt lat="43.6191" lon="6.93754">
        <ele>153.4</ele>
        <time>2019-03-24T11:12:08Z</time>
      </trkpt>
      <trkpt lat="43.61897" lon="6.93766">
        <ele>153</ele>
        <time>2019-03-24T11:12:14Z</time>
      </trkpt>
      <trkpt lat="43.61893" lon="6.93765">
        <ele>152.8</ele>
        <time>2019-03-24T11:12:16Z</time>
      </trkpt>
      <trkpt lat="43.61889" lon="6.93763">
        <ele>152.8</ele>
        <time>2019-03-24T11:12:18Z</time>
      </trkpt>
      <trkpt lat="43.61882" lon="6.93762">
        <ele>152.4</ele>
        <time>2019-03-24T11:12:24Z</time>
      </trkpt>
      <trkpt lat="43.6187" lon="6.93774">
        <ele>152.4</ele>
        <time>2019-03-24T11:12:29Z</time>
      </trkpt>
      <trkpt lat="43.61863" lon="6.93781">
        <ele>152.2</ele>
        <time>2019-03-24T11:12:31Z</time>
      </trkpt>
      <trkpt lat="43.61859" lon="6.93786">
        <ele>151.8</ele>
        <time>2019-03-24T11:12:32Z</time>
      </trkpt>
      <trkpt lat="43.61855" lon="6.9379">
        <ele>151.4</ele>
        <time>2019-03-24T11:12:33Z</time>
      </trkpt>
      <trkpt lat="43.61853" lon="6.93795">
        <ele>151</ele>
        <time>2019-03-24T11:12:34Z</time>
      </trkpt>
      <trkpt lat="43.61851" lon="6.93803">
        <ele>150.2</ele>
        <time>2019-03-24T11:12:35Z</time>
      </trkpt>
      <trkpt lat="43.61848" lon="6.93823">
        <ele>148.6</ele>
        <time>2019-03-24T11:12:37Z</time>
      </trkpt>
      <trkpt lat="43.61845" lon="6.93841">
        <ele>146.6</ele>
        <time>2019-03-24T11:12:39Z</time>
      </trkpt>
      <trkpt lat="43.61841" lon="6.93845">
        <ele>145.6</ele>
        <time>2019-03-24T11:12:40Z</time>
      </trkpt>
      <trkpt lat="43.61837" lon="6.93848">
        <ele>144.6</ele>
        <time>2019-03-24T11:12:41Z</time>
      </trkpt>
      <trkpt lat="43.61832" lon="6.93852">
        <ele>143.6</ele>
        <time>2019-03-24T11:12:42Z</time>
      </trkpt>
      <trkpt lat="43.61823" lon="6.93856">
        <ele>141.8</ele>
        <time>2019-03-24T11:12:44Z</time>
      </trkpt>
      <trkpt lat="43.61818" lon="6.93855">
        <ele>140.8</ele>
        <time>2019-03-24T11:12:45Z</time>
      </trkpt>
      <trkpt lat="43.61814" lon="6.93852">
        <ele>140</ele>
        <time>2019-03-24T11:12:46Z</time>
      </trkpt>
      <trkpt lat="43.6181" lon="6.93849">
        <ele>139</ele>
        <time>2019-03-24T11:12:47Z</time>
      </trkpt>
      <trkpt lat="43.61806" lon="6.93847">
        <ele>138</ele>
        <time>2019-03-24T11:12:48Z</time>
      </trkpt>
      <trkpt lat="43.61801" lon="6.93845">
        <ele>137</ele>
        <time>2019-03-24T11:12:49Z</time>
      </trkpt>
      <trkpt lat="43.61798" lon="6.93839">
        <ele>135.8</ele>
        <time>2019-03-24T11:12:50Z</time>
      </trkpt>
      <trkpt lat="43.61795" lon="6.93837">
        <ele>134.8</ele>
        <time>2019-03-24T11:12:51Z</time>
      </trkpt>
      <trkpt lat="43.61792" lon="6.9384">
        <ele>134</ele>
        <time>2019-03-24T11:12:52Z</time>
      </trkpt>
      <trkpt lat="43.6179" lon="6.93844">
        <ele>133.2</ele>
        <time>2019-03-24T11:12:53Z</time>
      </trkpt>
      <trkpt lat="43.61788" lon="6.93846">
        <ele>132.2</ele>
        <time>2019-03-24T11:12:54Z</time>
      </trkpt>
      <trkpt lat="43.61784" lon="6.93848">
        <ele>131.2</ele>
        <time>2019-03-24T11:12:55Z</time>
      </trkpt>
      <trkpt lat="43.61776" lon="6.93852">
        <ele>129.2</ele>
        <time>2019-03-24T11:12:57Z</time>
      </trkpt>
      <trkpt lat="43.61772" lon="6.93857">
        <ele>128.2</ele>
        <time>2019-03-24T11:12:58Z</time>
      </trkpt>
      <trkpt lat="43.6177" lon="6.93863">
        <ele>126.8</ele>
        <time>2019-03-24T11:12:59Z</time>
      </trkpt>
      <trkpt lat="43.61771" lon="6.93872">
        <ele>125.4</ele>
        <time>2019-03-24T11:13:00Z</time>
      </trkpt>
      <trkpt lat="43.61774" lon="6.93879">
        <ele>124</ele>
        <time>2019-03-24T11:13:01Z</time>
      </trkpt>
      <trkpt lat="43.61777" lon="6.93885">
        <ele>122.2</ele>
        <time>2019-03-24T11:13:02Z</time>
      </trkpt>
      <trkpt lat="43.61779" lon="6.93888">
        <ele>120.8</ele>
        <time>2019-03-24T11:13:03Z</time>
      </trkpt>
      <trkpt lat="43.61778" lon="6.9389">
        <ele>119.6</ele>
        <time>2019-03-24T11:13:04Z</time>
      </trkpt>
      <trkpt lat="43.61779" lon="6.93894">
        <ele>118.8</ele>
        <time>2019-03-24T11:13:05Z</time>
      </trkpt>
      <trkpt lat="43.61778" lon="6.93901">
        <ele>117.4</ele>
        <time>2019-03-24T11:13:06Z</time>
      </trkpt>
      <trkpt lat="43.61776" lon="6.93904">
        <ele>116.2</ele>
        <time>2019-03-24T11:13:07Z</time>
      </trkpt>
      <trkpt lat="43.61772" lon="6.93907">
        <ele>115.2</ele>
        <time>2019-03-24T11:13:08Z</time>
      </trkpt>
      <trkpt lat="43.61766" lon="6.93918">
        <ele>113.4</ele>
        <time>2019-03-24T11:13:10Z</time>
      </trkpt>
      <trkpt lat="43.61763" lon="6.93923">
        <ele>112.2</ele>
        <time>2019-03-24T11:13:11Z</time>
      </trkpt>
      <trkpt lat="43.61763" lon="6.93928">
        <ele>111</ele>
        <time>2019-03-24T11:13:12Z</time>
      </trkpt>
      <trkpt lat="43.61765" lon="6.9393">
        <ele>109.8</ele>
        <time>2019-03-24T11:13:13Z</time>
      </trkpt>
      <trkpt lat="43.61766" lon="6.93935">
        <ele>108.8</ele>
        <time>2019-03-24T11:13:14Z</time>
      </trkpt>
      <trkpt lat="43.61765" lon="6.93943">
        <ele>107</ele>
        <time>2019-03-24T11:13:16Z</time>
      </trkpt>
      <trkpt lat="43.6177" lon="6.93948">
        <ele>105.4</ele>
        <time>2019-03-24T11:13:18Z</time>
      </trkpt>
      <trkpt lat="43.61771" lon="6.93952">
        <ele>105</ele>
        <time>2019-03-24T11:13:19Z</time>
      </trkpt>
      <trkpt lat="43.61777" lon="6.93955">
        <ele>104</ele>
        <time>2019-03-24T11:13:21Z</time>
      </trkpt>
      <trkpt lat="43.6178" lon="6.93958">
        <ele>103.8</ele>
        <time>2019-03-24T11:13:22Z</time>
      </trkpt>
      <trkpt lat="43.61785" lon="6.93963">
        <ele>103</ele>
        <time>2019-03-24T11:13:24Z</time>
      </trkpt>
      <trkpt lat="43.6179" lon="6.93968">
        <ele>102.4</ele>
        <time>2019-03-24T11:13:26Z</time>
      </trkpt>
      <trkpt lat="43.61793" lon="6.93969">
        <ele>102</ele>
        <time>2019-03-24T11:13:27Z</time>
      </trkpt>
      <trkpt lat="43.61795" lon="6.9397">
        <ele>101.6</ele>
        <time>2019-03-24T11:13:28Z</time>
      </trkpt>
      <trkpt lat="43.61801" lon="6.93973">
        <ele>101</ele>
        <time>2019-03-24T11:13:31Z</time>
      </trkpt>
      <trkpt lat="43.61803" lon="6.93973">
        <ele>100.8</ele>
        <time>2019-03-24T11:13:32Z</time>
      </trkpt>
      <trkpt lat="43.61809" lon="6.93982">
        <ele>100.8</ele>
        <time>2019-03-24T11:13:35Z</time>
      </trkpt>
      <trkpt lat="43.61821" lon="6.93989">
        <ele>101.6</ele>
        <time>2019-03-24T11:13:39Z</time>
      </trkpt>
      <trkpt lat="43.61824" lon="6.9399">
        <ele>101.6</ele>
        <time>2019-03-24T11:13:40Z</time>
      </trkpt>
      <trkpt lat="43.61828" lon="6.93991">
        <ele>101.8</ele>
        <time>2019-03-24T11:13:42Z</time>
      </trkpt>
      <trkpt lat="43.6183" lon="6.93993">
        <ele>101.8</ele>
        <time>2019-03-24T11:13:43Z</time>
      </trkpt>
      <trkpt lat="43.61833" lon="6.93994">
        <ele>101.8</ele>
        <time>2019-03-24T11:13:44Z</time>
      </trkpt>
      <trkpt lat="43.61837" lon="6.93998">
        <ele>101.8</ele>
        <time>2019-03-24T11:13:46Z</time>
      </trkpt>
      <trkpt lat="43.61839" lon="6.94008">
        <ele>101.6</ele>
        <time>2019-03-24T11:13:48Z</time>
      </trkpt>
      <trkpt lat="43.61835" lon="6.94018">
        <ele>101.6</ele>
        <time>2019-03-24T11:13:50Z</time>
      </trkpt>
      <trkpt lat="43.61835" lon="6.94024">
        <ele>101.4</ele>
        <time>2019-03-24T11:13:51Z</time>
      </trkpt>
      <trkpt lat="43.61833" lon="6.94026">
        <ele>101.4</ele>
        <time>2019-03-24T11:13:52Z</time>
      </trkpt>
      <trkpt lat="43.61825" lon="6.94028">
        <ele>101</ele>
        <time>2019-03-24T11:13:54Z</time>
      </trkpt>
      <trkpt lat="43.61803" lon="6.94031">
        <ele>101.2</ele>
        <time>2019-03-24T11:14:00Z</time>
      </trkpt>
      <trkpt lat="43.61786" lon="6.9402">
        <ele>102</ele>
        <time>2019-03-24T11:14:05Z</time>
      </trkpt>
      <trkpt lat="43.61769" lon="6.94017">
        <ele>102.8</ele>
        <time>2019-03-24T11:14:10Z</time>
      </trkpt>
      <trkpt lat="43.61765" lon="6.94016">
        <ele>102.8</ele>
        <time>2019-03-24T11:14:11Z</time>
      </trkpt>
      <trkpt lat="43.61746" lon="6.94014">
        <ele>103.8</ele>
        <time>2019-03-24T11:14:16Z</time>
      </trkpt>
      <trkpt lat="43.61742" lon="6.94014">
        <ele>104</ele>
        <time>2019-03-24T11:14:17Z</time>
      </trkpt>
      <trkpt lat="43.61725" lon="6.94014">
        <ele>104.2</ele>
        <time>2019-03-24T11:14:21Z</time>
      </trkpt>
      <trkpt lat="43.61704" lon="6.94019">
        <ele>103.6</ele>
        <time>2019-03-24T11:14:26Z</time>
      </trkpt>
      <trkpt lat="43.61698" lon="6.94026">
        <ele>103.8</ele>
        <time>2019-03-24T11:14:29Z</time>
      </trkpt>
      <trkpt lat="43.61689" lon="6.94032">
        <ele>103.8</ele>
        <time>2019-03-24T11:14:33Z</time>
      </trkpt>
      <trkpt lat="43.61687" lon="6.94034">
        <ele>103.8</ele>
        <time>2019-03-24T11:14:34Z</time>
      </trkpt>
      <trkpt lat="43.61679" lon="6.94039">
        <ele>103</ele>
        <time>2019-03-24T11:14:38Z</time>
      </trkpt>
      <trkpt lat="43.61675" lon="6.94041">
        <ele>103</ele>
        <time>2019-03-24T11:14:40Z</time>
      </trkpt>
      <trkpt lat="43.61659" lon="6.94048">
        <ele>103.4</ele>
        <time>2019-03-24T11:14:47Z</time>
      </trkpt>
      <trkpt lat="43.61645" lon="6.94053">
        <ele>103.8</ele>
        <time>2019-03-24T11:14:53Z</time>
      </trkpt>
      <trkpt lat="43.61631" lon="6.94059">
        <ele>103.8</ele>
        <time>2019-03-24T11:14:57Z</time>
      </trkpt>
      <trkpt lat="43.61623" lon="6.94064">
        <ele>104</ele>
        <time>2019-03-24T11:15:00Z</time>
      </trkpt>
      <trkpt lat="43.61618" lon="6.94067">
        <ele>104.2</ele>
        <time>2019-03-24T11:15:02Z</time>
      </trkpt>
      <trkpt lat="43.61609" lon="6.94072">
        <ele>105.2</ele>
        <time>2019-03-24T11:15:06Z</time>
      </trkpt>
      <trkpt lat="43.616" lon="6.94078">
        <ele>105.6</ele>
        <time>2019-03-24T11:15:10Z</time>
      </trkpt>
      <trkpt lat="43.61596" lon="6.94084">
        <ele>106.4</ele>
        <time>2019-03-24T11:15:13Z</time>
      </trkpt>
      <trkpt lat="43.6159" lon="6.94092">
        <ele>106.8</ele>
        <time>2019-03-24T11:15:17Z</time>
      </trkpt>
      <trkpt lat="43.61579" lon="6.94106">
        <ele>107.2</ele>
        <time>2019-03-24T11:15:24Z</time>
      </trkpt>
      <trkpt lat="43.61578" lon="6.94109">
        <ele>107.4</ele>
        <time>2019-03-24T11:15:25Z</time>
      </trkpt>
      <trkpt lat="43.61571" lon="6.94115">
        <ele>107</ele>
        <time>2019-03-24T11:15:29Z</time>
      </trkpt>
      <trkpt lat="43.61569" lon="6.94116">
        <ele>106.8</ele>
        <time>2019-03-24T11:15:30Z</time>
      </trkpt>
      <trkpt lat="43.61558" lon="6.94124">
        <ele>106.4</ele>
        <time>2019-03-24T11:15:33Z</time>
      </trkpt>
      <trkpt lat="43.61556" lon="6.9413">
        <ele>106.2</ele>
        <time>2019-03-24T11:15:34Z</time>
      </trkpt>
      <trkpt lat="43.61557" lon="6.94151">
        <ele>105.4</ele>
        <time>2019-03-24T11:15:37Z</time>
      </trkpt>
      <trkpt lat="43.61559" lon="6.94161">
        <ele>105.2</ele>
        <time>2019-03-24T11:15:38Z</time>
      </trkpt>
      <trkpt lat="43.61564" lon="6.94182">
        <ele>104.4</ele>
        <time>2019-03-24T11:15:40Z</time>
      </trkpt>
      <trkpt lat="43.61567" lon="6.94194">
        <ele>104</ele>
        <time>2019-03-24T11:15:41Z</time>
      </trkpt>
      <trkpt lat="43.61573" lon="6.94217">
        <ele>102.8</ele>
        <time>2019-03-24T11:15:43Z</time>
      </trkpt>
      <trkpt lat="43.61578" lon="6.94226">
        <ele>102.2</ele>
        <time>2019-03-24T11:15:44Z</time>
      </trkpt>
      <trkpt lat="43.61584" lon="6.94236">
        <ele>101.6</ele>
        <time>2019-03-24T11:15:45Z</time>
      </trkpt>
      <trkpt lat="43.61597" lon="6.94257">
        <ele>100.2</ele>
        <time>2019-03-24T11:15:47Z</time>
      </trkpt>
      <trkpt lat="43.61604" lon="6.94267">
        <ele>99.6</ele>
        <time>2019-03-24T11:15:48Z</time>
      </trkpt>
      <trkpt lat="43.61611" lon="6.94278">
        <ele>98.8</ele>
        <time>2019-03-24T11:15:49Z</time>
      </trkpt>
      <trkpt lat="43.61625" lon="6.94302">
        <ele>97.2</ele>
        <time>2019-03-24T11:15:51Z</time>
      </trkpt>
      <trkpt lat="43.61631" lon="6.94316">
        <ele>96.4</ele>
        <time>2019-03-24T11:15:52Z</time>
      </trkpt>
      <trkpt lat="43.61636" lon="6.9433">
        <ele>95.4</ele>
        <time>2019-03-24T11:15:53Z</time>
      </trkpt>
      <trkpt lat="43.61647" lon="6.94358">
        <ele>93.8</ele>
        <time>2019-03-24T11:15:55Z</time>
      </trkpt>
      <trkpt lat="43.61656" lon="6.94385">
        <ele>92.6</ele>
        <time>2019-03-24T11:15:57Z</time>
      </trkpt>
      <trkpt lat="43.61659" lon="6.944">
        <ele>91.8</ele>
        <time>2019-03-24T11:15:58Z</time>
      </trkpt>
      <trkpt lat="43.61661" lon="6.94415">
        <ele>91.2</ele>
        <time>2019-03-24T11:15:59Z</time>
      </trkpt>
      <trkpt lat="43.61666" lon="6.94443">
        <ele>89.6</ele>
        <time>2019-03-24T11:16:01Z</time>
      </trkpt>
      <trkpt lat="43.61668" lon="6.94468">
        <ele>88.2</ele>
        <time>2019-03-24T11:16:03Z</time>
      </trkpt>
      <trkpt lat="43.61668" lon="6.94477">
        <ele>87.4</ele>
        <time>2019-03-24T11:16:04Z</time>
      </trkpt>
      <trkpt lat="43.61668" lon="6.94483">
        <ele>86.6</ele>
        <time>2019-03-24T11:16:05Z</time>
      </trkpt>
      <trkpt lat="43.61667" lon="6.94492">
        <ele>85.2</ele>
        <time>2019-03-24T11:16:07Z</time>
      </trkpt>
      <trkpt lat="43.61666" lon="6.94502">
        <ele>83.8</ele>
        <time>2019-03-24T11:16:09Z</time>
      </trkpt>
      <trkpt lat="43.61665" lon="6.94515">
        <ele>82</ele>
        <time>2019-03-24T11:16:11Z</time>
      </trkpt>
      <trkpt lat="43.61666" lon="6.94521">
        <ele>81</ele>
        <time>2019-03-24T11:16:12Z</time>
      </trkpt>
      <trkpt lat="43.61667" lon="6.94527">
        <ele>80.4</ele>
        <time>2019-03-24T11:16:13Z</time>
      </trkpt>
      <trkpt lat="43.61661" lon="6.94536">
        <ele>79</ele>
        <time>2019-03-24T11:16:15Z</time>
      </trkpt>
      <trkpt lat="43.6165" lon="6.94549">
        <ele>77.2</ele>
        <time>2019-03-24T11:16:17Z</time>
      </trkpt>
      <trkpt lat="43.61643" lon="6.94553">
        <ele>76.2</ele>
        <time>2019-03-24T11:16:18Z</time>
      </trkpt>
      <trkpt lat="43.61636" lon="6.94553">
        <ele>75</ele>
        <time>2019-03-24T11:16:19Z</time>
      </trkpt>
      <trkpt lat="43.61627" lon="6.94554">
        <ele>74</ele>
        <time>2019-03-24T11:16:20Z</time>
      </trkpt>
      <trkpt lat="43.61619" lon="6.94555">
        <ele>72.8</ele>
        <time>2019-03-24T11:16:21Z</time>
      </trkpt>
      <trkpt lat="43.61612" lon="6.94557">
        <ele>71.8</ele>
        <time>2019-03-24T11:16:22Z</time>
      </trkpt>
      <trkpt lat="43.61606" lon="6.94557">
        <ele>70.6</ele>
        <time>2019-03-24T11:16:23Z</time>
      </trkpt>
      <trkpt lat="43.61602" lon="6.94558">
        <ele>69.4</ele>
        <time>2019-03-24T11:16:24Z</time>
      </trkpt>
      <trkpt lat="43.61599" lon="6.94564">
        <ele>68.2</ele>
        <time>2019-03-24T11:16:25Z</time>
      </trkpt>
      <trkpt lat="43.616" lon="6.94571">
        <ele>67.2</ele>
        <time>2019-03-24T11:16:26Z</time>
      </trkpt>
      <trkpt lat="43.616" lon="6.94584">
        <ele>65.6</ele>
        <time>2019-03-24T11:16:28Z</time>
      </trkpt>
      <trkpt lat="43.61602" lon="6.94597">
        <ele>64.2</ele>
        <time>2019-03-24T11:16:30Z</time>
      </trkpt>
      <trkpt lat="43.61604" lon="6.94602">
        <ele>63.6</ele>
        <time>2019-03-24T11:16:31Z</time>
      </trkpt>
      <trkpt lat="43.61605" lon="6.94608">
        <ele>63.2</ele>
        <time>2019-03-24T11:16:32Z</time>
      </trkpt>
      <trkpt lat="43.61607" lon="6.94624">
        <ele>61.8</ele>
        <time>2019-03-24T11:16:35Z</time>
      </trkpt>
      <trkpt lat="43.61608" lon="6.94633">
        <ele>60.8</ele>
        <time>2019-03-24T11:16:37Z</time>
      </trkpt>
      <trkpt lat="43.61607" lon="6.94644">
        <ele>59.6</ele>
        <time>2019-03-24T11:16:39Z</time>
      </trkpt>
      <trkpt lat="43.61607" lon="6.94654">
        <ele>58.4</ele>
        <time>2019-03-24T11:16:41Z</time>
      </trkpt>
      <trkpt lat="43.61606" lon="6.94666">
        <ele>57.2</ele>
        <time>2019-03-24T11:16:44Z</time>
      </trkpt>
      <trkpt lat="43.61605" lon="6.94671">
        <ele>57</ele>
        <time>2019-03-24T11:16:45Z</time>
      </trkpt>
      <trkpt lat="43.61603" lon="6.94687">
        <ele>56.2</ele>
        <time>2019-03-24T11:16:49Z</time>
      </trkpt>
      <trkpt lat="43.61602" lon="6.94692">
        <ele>56</ele>
        <time>2019-03-24T11:16:50Z</time>
      </trkpt>
      <trkpt lat="43.616" lon="6.94717">
        <ele>56</ele>
        <time>2019-03-24T11:16:55Z</time>
      </trkpt>
      <trkpt lat="43.61601" lon="6.94735">
        <ele>56</ele>
        <time>2019-03-24T11:17:00Z</time>
      </trkpt>
      <trkpt lat="43.61606" lon="6.94753">
        <ele>56.2</ele>
        <time>2019-03-24T11:17:05Z</time>
      </trkpt>
      <trkpt lat="43.61613" lon="6.94776">
        <ele>55.2</ele>
        <time>2019-03-24T11:17:10Z</time>
      </trkpt>
      <trkpt lat="43.61616" lon="6.94785">
        <ele>54.8</ele>
        <time>2019-03-24T11:17:12Z</time>
      </trkpt>
      <trkpt lat="43.61619" lon="6.94793">
        <ele>54.6</ele>
        <time>2019-03-24T11:17:14Z</time>
      </trkpt>
      <trkpt lat="43.61628" lon="6.94811">
        <ele>55</ele>
        <time>2019-03-24T11:17:19Z</time>
      </trkpt>
      <trkpt lat="43.61634" lon="6.94819">
        <ele>55.4</ele>
        <time>2019-03-24T11:17:23Z</time>
      </trkpt>
      <trkpt lat="43.61647" lon="6.94836">
        <ele>55.2</ele>
        <time>2019-03-24T11:17:29Z</time>
      </trkpt>
      <trkpt lat="43.6166" lon="6.94851">
        <ele>53.8</ele>
        <time>2019-03-24T11:17:34Z</time>
      </trkpt>
      <trkpt lat="43.61662" lon="6.94854">
        <ele>53.4</ele>
        <time>2019-03-24T11:17:35Z</time>
      </trkpt>
      <trkpt lat="43.61668" lon="6.94862">
        <ele>52.2</ele>
        <time>2019-03-24T11:17:38Z</time>
      </trkpt>
      <trkpt lat="43.61671" lon="6.94864">
        <ele>51.8</ele>
        <time>2019-03-24T11:17:39Z</time>
      </trkpt>
      <trkpt lat="43.61674" lon="6.94868">
        <ele>51</ele>
        <time>2019-03-24T11:17:41Z</time>
      </trkpt>
      <trkpt lat="43.61676" lon="6.94874">
        <ele>50.2</ele>
        <time>2019-03-24T11:17:43Z</time>
      </trkpt>
      <trkpt lat="43.61677" lon="6.94876">
        <ele>49.6</ele>
        <time>2019-03-24T11:17:44Z</time>
      </trkpt>
      <trkpt lat="43.6168" lon="6.94883">
        <ele>48.2</ele>
        <time>2019-03-24T11:17:47Z</time>
      </trkpt>
      <trkpt lat="43.61682" lon="6.94886">
        <ele>47.2</ele>
        <time>2019-03-24T11:17:49Z</time>
      </trkpt>
      <trkpt lat="43.61683" lon="6.94888">
        <ele>46.8</ele>
        <time>2019-03-24T11:17:50Z</time>
      </trkpt>
      <trkpt lat="43.61686" lon="6.94891">
        <ele>45.8</ele>
        <time>2019-03-24T11:17:52Z</time>
      </trkpt>
      <trkpt lat="43.61686" lon="6.94896">
        <ele>45</ele>
        <time>2019-03-24T11:17:54Z</time>
      </trkpt>
      <trkpt lat="43.61687" lon="6.94899">
        <ele>44.6</ele>
        <time>2019-03-24T11:17:55Z</time>
      </trkpt>
      <trkpt lat="43.61691" lon="6.9491">
        <ele>43.4</ele>
        <time>2019-03-24T11:17:59Z</time>
      </trkpt>
      <trkpt lat="43.61694" lon="6.9492">
        <ele>44.2</ele>
        <time>2019-03-24T11:18:03Z</time>
      </trkpt>
      <trkpt lat="43.61696" lon="6.94924">
        <ele>45</ele>
        <time>2019-03-24T11:18:04Z</time>
      </trkpt>
      <trkpt lat="43.61699" lon="6.94934">
        <ele>46.4</ele>
        <time>2019-03-24T11:18:07Z</time>
      </trkpt>
      <trkpt lat="43.61701" lon="6.94941">
        <ele>47.2</ele>
        <time>2019-03-24T11:18:09Z</time>
      </trkpt>
      <trkpt lat="43.61703" lon="6.94944">
        <ele>47.4</ele>
        <time>2019-03-24T11:18:10Z</time>
      </trkpt>
      <trkpt lat="43.61704" lon="6.94954">
        <ele>47.2</ele>
        <time>2019-03-24T11:18:14Z</time>
      </trkpt>
      <trkpt lat="43.61702" lon="6.94965">
        <ele>47.4</ele>
        <time>2019-03-24T11:18:18Z</time>
      </trkpt>
      <trkpt lat="43.617" lon="6.9498">
        <ele>48.6</ele>
        <time>2019-03-24T11:18:22Z</time>
      </trkpt>
      <trkpt lat="43.61698" lon="6.94988">
        <ele>50.2</ele>
        <time>2019-03-24T11:18:24Z</time>
      </trkpt>
      <trkpt lat="43.61698" lon="6.95001">
        <ele>51.6</ele>
        <time>2019-03-24T11:18:27Z</time>
      </trkpt>
      <trkpt lat="43.61698" lon="6.95005">
        <ele>52.2</ele>
        <time>2019-03-24T11:18:28Z</time>
      </trkpt>
      <trkpt lat="43.61697" lon="6.95008">
        <ele>52.8</ele>
        <time>2019-03-24T11:18:29Z</time>
      </trkpt>
      <trkpt lat="43.61695" lon="6.95015">
        <ele>54</ele>
        <time>2019-03-24T11:18:31Z</time>
      </trkpt>
      <trkpt lat="43.61694" lon="6.95019">
        <ele>55.2</ele>
        <time>2019-03-24T11:18:32Z</time>
      </trkpt>
      <trkpt lat="43.61693" lon="6.95026">
        <ele>56.8</ele>
        <time>2019-03-24T11:18:34Z</time>
      </trkpt>
      <trkpt lat="43.61693" lon="6.9503">
        <ele>58.2</ele>
        <time>2019-03-24T11:18:35Z</time>
      </trkpt>
      <trkpt lat="43.61692" lon="6.95034">
        <ele>59.4</ele>
        <time>2019-03-24T11:18:36Z</time>
      </trkpt>
      <trkpt lat="43.61691" lon="6.95038">
        <ele>60</ele>
        <time>2019-03-24T11:18:37Z</time>
      </trkpt>
      <trkpt lat="43.61691" lon="6.95042">
        <ele>60.6</ele>
        <time>2019-03-24T11:18:38Z</time>
      </trkpt>
      <trkpt lat="43.61692" lon="6.95049">
        <ele>61.6</ele>
        <time>2019-03-24T11:18:40Z</time>
      </trkpt>
      <trkpt lat="43.61693" lon="6.95053">
        <ele>62.4</ele>
        <time>2019-03-24T11:18:41Z</time>
      </trkpt>
      <trkpt lat="43.61694" lon="6.95056">
        <ele>63.2</ele>
        <time>2019-03-24T11:18:42Z</time>
      </trkpt>
      <trkpt lat="43.61696" lon="6.95062">
        <ele>64.8</ele>
        <time>2019-03-24T11:18:44Z</time>
      </trkpt>
      <trkpt lat="43.61698" lon="6.95067">
        <ele>66</ele>
        <time>2019-03-24T11:18:46Z</time>
      </trkpt>
      <trkpt lat="43.61699" lon="6.95087">
        <ele>66.4</ele>
        <time>2019-03-24T11:18:51Z</time>
      </trkpt>
      <trkpt lat="43.61699" lon="6.95092">
        <ele>67</ele>
        <time>2019-03-24T11:18:53Z</time>
      </trkpt>
      <trkpt lat="43.617" lon="6.95095">
        <ele>67.8</ele>
        <time>2019-03-24T11:18:55Z</time>
      </trkpt>
      <trkpt lat="43.617" lon="6.95097">
        <ele>68</ele>
        <time>2019-03-24T11:18:56Z</time>
      </trkpt>
      <trkpt lat="43.617" lon="6.95098">
        <ele>68.6</ele>
        <time>2019-03-24T11:18:57Z</time>
      </trkpt>
      <trkpt lat="43.61703" lon="6.951">
        <ele>69</ele>
        <time>2019-03-24T11:19:00Z</time>
      </trkpt>
      <trkpt lat="43.61705" lon="6.95099">
        <ele>69.2</ele>
        <time>2019-03-24T11:19:01Z</time>
      </trkpt>
      <trkpt lat="43.61706" lon="6.95098">
        <ele>69.8</ele>
        <time>2019-03-24T11:19:03Z</time>
      </trkpt>
      <trkpt lat="43.61707" lon="6.95098">
        <ele>70</ele>
        <time>2019-03-24T11:19:04Z</time>
      </trkpt>
      <trkpt lat="43.61709" lon="6.95098">
        <ele>70.8</ele>
        <time>2019-03-24T11:19:06Z</time>
      </trkpt>
      <trkpt lat="43.6171" lon="6.951">
        <ele>71.4</ele>
        <time>2019-03-24T11:19:07Z</time>
      </trkpt>
      <trkpt lat="43.61712" lon="6.95109">
        <ele>72.4</ele>
        <time>2019-03-24T11:19:10Z</time>
      </trkpt>
      <trkpt lat="43.61712" lon="6.95111">
        <ele>72.4</ele>
        <time>2019-03-24T11:19:11Z</time>
      </trkpt>
      <trkpt lat="43.61715" lon="6.95123">
        <ele>73</ele>
        <time>2019-03-24T11:19:16Z</time>
      </trkpt>
      <trkpt lat="43.61718" lon="6.95127">
        <ele>73.6</ele>
        <time>2019-03-24T11:19:18Z</time>
      </trkpt>
      <trkpt lat="43.61722" lon="6.95129">
        <ele>74.4</ele>
        <time>2019-03-24T11:19:20Z</time>
      </trkpt>
      <trkpt lat="43.61723" lon="6.95129">
        <ele>74.6</ele>
        <time>2019-03-24T11:19:21Z</time>
      </trkpt>
      <trkpt lat="43.61725" lon="6.95128">
        <ele>74.8</ele>
        <time>2019-03-24T11:19:22Z</time>
      </trkpt>
      <trkpt lat="43.6173" lon="6.95121">
        <ele>76.2</ele>
        <time>2019-03-24T11:19:26Z</time>
      </trkpt>
      <trkpt lat="43.61738" lon="6.95115">
        <ele>77.4</ele>
        <time>2019-03-24T11:19:30Z</time>
      </trkpt>
      <trkpt lat="43.61744" lon="6.95112">
        <ele>78.4</ele>
        <time>2019-03-24T11:19:33Z</time>
      </trkpt>
      <trkpt lat="43.61749" lon="6.9511">
        <ele>79.4</ele>
        <time>2019-03-24T11:19:36Z</time>
      </trkpt>
      <trkpt lat="43.61798" lon="6.95061">
        <ele>80.8</ele>
        <time>2019-03-24T11:19:52Z</time>
      </trkpt>
      <trkpt lat="43.61806" lon="6.95056">
        <ele>82</ele>
        <time>2019-03-24T11:19:54Z</time>
      </trkpt>
      <trkpt lat="43.6182" lon="6.95041">
        <ele>81.2</ele>
        <time>2019-03-24T11:19:59Z</time>
      </trkpt>
      <trkpt lat="43.61836" lon="6.95028">
        <ele>81.6</ele>
        <time>2019-03-24T11:20:04Z</time>
      </trkpt>
      <trkpt lat="43.61843" lon="6.95016">
        <ele>80.8</ele>
        <time>2019-03-24T11:20:07Z</time>
      </trkpt>
      <trkpt lat="43.6185" lon="6.95001">
        <ele>80.2</ele>
        <time>2019-03-24T11:20:10Z</time>
      </trkpt>
      <trkpt lat="43.61854" lon="6.94992">
        <ele>79.8</ele>
        <time>2019-03-24T11:20:12Z</time>
      </trkpt>
      <trkpt lat="43.61857" lon="6.94981">
        <ele>80</ele>
        <time>2019-03-24T11:20:14Z</time>
      </trkpt>
      <trkpt lat="43.61859" lon="6.9497">
        <ele>80.4</ele>
        <time>2019-03-24T11:20:16Z</time>
      </trkpt>
      <trkpt lat="43.61861" lon="6.94962">
        <ele>81</ele>
        <time>2019-03-24T11:20:18Z</time>
      </trkpt>
      <trkpt lat="43.61862" lon="6.94955">
        <ele>82</ele>
        <time>2019-03-24T11:20:20Z</time>
      </trkpt>
      <trkpt lat="43.61863" lon="6.94952">
        <ele>82.4</ele>
        <time>2019-03-24T11:20:21Z</time>
      </trkpt>
      <trkpt lat="43.61864" lon="6.94949">
        <ele>83</ele>
        <time>2019-03-24T11:20:22Z</time>
      </trkpt>
      <trkpt lat="43.61867" lon="6.9494">
        <ele>84.2</ele>
        <time>2019-03-24T11:20:25Z</time>
      </trkpt>
      <trkpt lat="43.61867" lon="6.94937">
        <ele>84.6</ele>
        <time>2019-03-24T11:20:26Z</time>
      </trkpt>
      <trkpt lat="43.61868" lon="6.94932">
        <ele>85.4</ele>
        <time>2019-03-24T11:20:28Z</time>
      </trkpt>
      <trkpt lat="43.6187" lon="6.94923">
        <ele>86.6</ele>
        <time>2019-03-24T11:20:31Z</time>
      </trkpt>
      <trkpt lat="43.61868" lon="6.94913">
        <ele>86.6</ele>
        <time>2019-03-24T11:20:35Z</time>
      </trkpt>
      <trkpt lat="43.61867" lon="6.94895">
        <ele>87.2</ele>
        <time>2019-03-24T11:20:42Z</time>
      </trkpt>
      <trkpt lat="43.61867" lon="6.94887">
        <ele>87.8</ele>
        <time>2019-03-24T11:20:45Z</time>
      </trkpt>
      <trkpt lat="43.61867" lon="6.9488">
        <ele>89</ele>
        <time>2019-03-24T11:20:48Z</time>
      </trkpt>
      <trkpt lat="43.61867" lon="6.94877">
        <ele>89.4</ele>
        <time>2019-03-24T11:20:49Z</time>
      </trkpt>
      <trkpt lat="43.61866" lon="6.94871">
        <ele>90</ele>
        <time>2019-03-24T11:20:51Z</time>
      </trkpt>
      <trkpt lat="43.61867" lon="6.94858">
        <ele>91.2</ele>
        <time>2019-03-24T11:20:56Z</time>
      </trkpt>
      <trkpt lat="43.61868" lon="6.94856">
        <ele>91.4</ele>
        <time>2019-03-24T11:20:57Z</time>
      </trkpt>
      <trkpt lat="43.61869" lon="6.94848">
        <ele>92.2</ele>
        <time>2019-03-24T11:21:01Z</time>
      </trkpt>
      <trkpt lat="43.61871" lon="6.94846">
        <ele>91.6</ele>
        <time>2019-03-24T11:21:03Z</time>
      </trkpt>
      <trkpt lat="43.6188" lon="6.9484">
        <ele>92.4</ele>
        <time>2019-03-24T11:21:10Z</time>
      </trkpt>
      <trkpt lat="43.61884" lon="6.94838">
        <ele>93.2</ele>
        <time>2019-03-24T11:21:13Z</time>
      </trkpt>
      <trkpt lat="43.61889" lon="6.94836">
        <ele>94</ele>
        <time>2019-03-24T11:21:17Z</time>
      </trkpt>
      <trkpt lat="43.61892" lon="6.94835">
        <ele>94.2</ele>
        <time>2019-03-24T11:21:19Z</time>
      </trkpt>
      <trkpt lat="43.61898" lon="6.94833">
        <ele>94.8</ele>
        <time>2019-03-24T11:21:23Z</time>
      </trkpt>
      <trkpt lat="43.61903" lon="6.94831">
        <ele>95.2</ele>
        <time>2019-03-24T11:21:27Z</time>
      </trkpt>
      <trkpt lat="43.61906" lon="6.9483">
        <ele>96</ele>
        <time>2019-03-24T11:21:29Z</time>
      </trkpt>
      <trkpt lat="43.61908" lon="6.9483">
        <ele>96.2</ele>
        <time>2019-03-24T11:21:30Z</time>
      </trkpt>
      <trkpt lat="43.61909" lon="6.9483">
        <ele>96.4</ele>
        <time>2019-03-24T11:21:31Z</time>
      </trkpt>
      <trkpt lat="43.61922" lon="6.94827">
        <ele>96.6</ele>
        <time>2019-03-24T11:21:39Z</time>
      </trkpt>
      <trkpt lat="43.61934" lon="6.9483">
        <ele>97.4</ele>
        <time>2019-03-24T11:21:47Z</time>
      </trkpt>
      <trkpt lat="43.61936" lon="6.9483">
        <ele>97.4</ele>
        <time>2019-03-24T11:21:48Z</time>
      </trkpt>
      <trkpt lat="43.61943" lon="6.94835">
        <ele>97.2</ele>
        <time>2019-03-24T11:21:53Z</time>
      </trkpt>
      <trkpt lat="43.61952" lon="6.94847">
        <ele>96.2</ele>
        <time>2019-03-24T11:22:01Z</time>
      </trkpt>
      <trkpt lat="43.6196" lon="6.9486">
        <ele>95</ele>
        <time>2019-03-24T11:22:09Z</time>
      </trkpt>
      <trkpt lat="43.61963" lon="6.94866">
        <ele>94</ele>
        <time>2019-03-24T11:22:12Z</time>
      </trkpt>
      <trkpt lat="43.61967" lon="6.94876">
        <ele>93.2</ele>
        <time>2019-03-24T11:22:17Z</time>
      </trkpt>
      <trkpt lat="43.6197" lon="6.94883">
        <ele>92.6</ele>
        <time>2019-03-24T11:22:20Z</time>
      </trkpt>
      <trkpt lat="43.61977" lon="6.94897">
        <ele>92</ele>
        <time>2019-03-24T11:22:25Z</time>
      </trkpt>
      <trkpt lat="43.61984" lon="6.94911">
        <ele>93.8</ele>
        <time>2019-03-24T11:22:30Z</time>
      </trkpt>
      <trkpt lat="43.61988" lon="6.94921">
        <ele>93.8</ele>
        <time>2019-03-24T11:22:33Z</time>
      </trkpt>
      <trkpt lat="43.61994" lon="6.94944">
        <ele>94.4</ele>
        <time>2019-03-24T11:22:39Z</time>
      </trkpt>
      <trkpt lat="43.61997" lon="6.94963">
        <ele>94.8</ele>
        <time>2019-03-24T11:22:44Z</time>
      </trkpt>
      <trkpt lat="43.61999" lon="6.94981">
        <ele>95</ele>
        <time>2019-03-24T11:22:49Z</time>
      </trkpt>
      <trkpt lat="43.62007" lon="6.95012">
        <ele>95</ele>
        <time>2019-03-24T11:22:57Z</time>
      </trkpt>
      <trkpt lat="43.62012" lon="6.95032">
        <ele>95.8</ele>
        <time>2019-03-24T11:23:02Z</time>
      </trkpt>
      <trkpt lat="43.62016" lon="6.95044">
        <ele>95.8</ele>
        <time>2019-03-24T11:23:05Z</time>
      </trkpt>
      <trkpt lat="43.62023" lon="6.95064">
        <ele>96.4</ele>
        <time>2019-03-24T11:23:10Z</time>
      </trkpt>
      <trkpt lat="43.6203" lon="6.95078">
        <ele>96.8</ele>
        <time>2019-03-24T11:23:14Z</time>
      </trkpt>
      <trkpt lat="43.62033" lon="6.95091">
        <ele>97.4</ele>
        <time>2019-03-24T11:23:17Z</time>
      </trkpt>
      <trkpt lat="43.62035" lon="6.95112">
        <ele>97.2</ele>
        <time>2019-03-24T11:23:22Z</time>
      </trkpt>
      <trkpt lat="43.62033" lon="6.9513">
        <ele>96.2</ele>
        <time>2019-03-24T11:23:27Z</time>
      </trkpt>
      <trkpt lat="43.62032" lon="6.95142">
        <ele>95.6</ele>
        <time>2019-03-24T11:23:30Z</time>
      </trkpt>
      <trkpt lat="43.62031" lon="6.95155">
        <ele>94.8</ele>
        <time>2019-03-24T11:23:33Z</time>
      </trkpt>
      <trkpt lat="43.62031" lon="6.95168">
        <ele>94.6</ele>
        <time>2019-03-24T11:23:36Z</time>
      </trkpt>
      <trkpt lat="43.6203" lon="6.95183">
        <ele>94.6</ele>
        <time>2019-03-24T11:23:39Z</time>
      </trkpt>
      <trkpt lat="43.62032" lon="6.95219">
        <ele>95.4</ele>
        <time>2019-03-24T11:23:47Z</time>
      </trkpt>
      <trkpt lat="43.62036" lon="6.95238">
        <ele>95.8</ele>
        <time>2019-03-24T11:23:52Z</time>
      </trkpt>
      <trkpt lat="43.62039" lon="6.95244">
        <ele>96.4</ele>
        <time>2019-03-24T11:23:54Z</time>
      </trkpt>
      <trkpt lat="43.62042" lon="6.95251">
        <ele>97</ele>
        <time>2019-03-24T11:23:56Z</time>
      </trkpt>
      <trkpt lat="43.62052" lon="6.95265">
        <ele>97.8</ele>
        <time>2019-03-24T11:24:00Z</time>
      </trkpt>
      <trkpt lat="43.62054" lon="6.95268">
        <ele>98</ele>
        <time>2019-03-24T11:24:01Z</time>
      </trkpt>
      <trkpt lat="43.62066" lon="6.95284">
        <ele>99.2</ele>
        <time>2019-03-24T11:24:06Z</time>
      </trkpt>
      <trkpt lat="43.62071" lon="6.9529">
        <ele>99.8</ele>
        <time>2019-03-24T11:24:08Z</time>
      </trkpt>
      <trkpt lat="43.62077" lon="6.95294">
        <ele>100.4</ele>
        <time>2019-03-24T11:24:10Z</time>
      </trkpt>
      <trkpt lat="43.62089" lon="6.95303">
        <ele>101.6</ele>
        <time>2019-03-24T11:24:14Z</time>
      </trkpt>
      <trkpt lat="43.62092" lon="6.95305">
        <ele>101.8</ele>
        <time>2019-03-24T11:24:15Z</time>
      </trkpt>
      <trkpt lat="43.62113" lon="6.95318">
        <ele>102.6</ele>
        <time>2019-03-24T11:24:21Z</time>
      </trkpt>
      <trkpt lat="43.62119" lon="6.95322">
        <ele>102.4</ele>
        <time>2019-03-24T11:24:23Z</time>
      </trkpt>
      <trkpt lat="43.62138" lon="6.95339">
        <ele>102.6</ele>
        <time>2019-03-24T11:24:30Z</time>
      </trkpt>
      <trkpt lat="43.62156" lon="6.95357">
        <ele>102.8</ele>
        <time>2019-03-24T11:24:36Z</time>
      </trkpt>
      <trkpt lat="43.62178" lon="6.95383">
        <ele>103.4</ele>
        <time>2019-03-24T11:24:44Z</time>
      </trkpt>
      <trkpt lat="43.62183" lon="6.9539">
        <ele>103.6</ele>
        <time>2019-03-24T11:24:46Z</time>
      </trkpt>
      <trkpt lat="43.62198" lon="6.95415">
        <ele>104.4</ele>
        <time>2019-03-24T11:24:53Z</time>
      </trkpt>
      <trkpt lat="43.62216" lon="6.95443">
        <ele>104.4</ele>
        <time>2019-03-24T11:25:01Z</time>
      </trkpt>
      <trkpt lat="43.62228" lon="6.95461">
        <ele>104.6</ele>
        <time>2019-03-24T11:25:06Z</time>
      </trkpt>
      <trkpt lat="43.62234" lon="6.95472">
        <ele>105</ele>
        <time>2019-03-24T11:25:09Z</time>
      </trkpt>
      <trkpt lat="43.62248" lon="6.9549">
        <ele>105.4</ele>
        <time>2019-03-24T11:25:15Z</time>
      </trkpt>
      <trkpt lat="43.62262" lon="6.95516">
        <ele>105.6</ele>
        <time>2019-03-24T11:25:22Z</time>
      </trkpt>
      <trkpt lat="43.62271" lon="6.95536">
        <ele>106.8</ele>
        <time>2019-03-24T11:25:28Z</time>
      </trkpt>
      <trkpt lat="43.62275" lon="6.9555">
        <ele>106.4</ele>
        <time>2019-03-24T11:25:34Z</time>
      </trkpt>
      <trkpt lat="43.62276" lon="6.95553">
        <ele>106.6</ele>
        <time>2019-03-24T11:25:36Z</time>
      </trkpt>
      <trkpt lat="43.6228" lon="6.95549">
        <ele>108</ele>
        <time>2019-03-24T11:25:39Z</time>
      </trkpt>
      <trkpt lat="43.62285" lon="6.95549">
        <ele>109.8</ele>
        <time>2019-03-24T11:25:45Z</time>
      </trkpt>
      <trkpt lat="43.62291" lon="6.95545">
        <ele>111</ele>
        <time>2019-03-24T11:25:48Z</time>
      </trkpt>
      <trkpt lat="43.62297" lon="6.95541">
        <ele>112.2</ele>
        <time>2019-03-24T11:25:51Z</time>
      </trkpt>
      <trkpt lat="43.62304" lon="6.95537">
        <ele>113.6</ele>
        <time>2019-03-24T11:25:54Z</time>
      </trkpt>
      <trkpt lat="43.62311" lon="6.95532">
        <ele>114.8</ele>
        <time>2019-03-24T11:25:58Z</time>
      </trkpt>
      <trkpt lat="43.62311" lon="6.95527">
        <ele>115.6</ele>
        <time>2019-03-24T11:26:00Z</time>
      </trkpt>
      <trkpt lat="43.62311" lon="6.95526">
        <ele>115.8</ele>
        <time>2019-03-24T11:26:01Z</time>
      </trkpt>
      <trkpt lat="43.62311" lon="6.95524">
        <ele>116.2</ele>
        <time>2019-03-24T11:26:02Z</time>
      </trkpt>
      <trkpt lat="43.6231" lon="6.95518">
        <ele>116.6</ele>
        <time>2019-03-24T11:26:04Z</time>
      </trkpt>
      <trkpt lat="43.62308" lon="6.9551">
        <ele>116.8</ele>
        <time>2019-03-24T11:26:06Z</time>
      </trkpt>
      <trkpt lat="43.62306" lon="6.95503">
        <ele>117.2</ele>
        <time>2019-03-24T11:26:08Z</time>
      </trkpt>
      <trkpt lat="43.62305" lon="6.95492">
        <ele>117.8</ele>
        <time>2019-03-24T11:26:11Z</time>
      </trkpt>
      <trkpt lat="43.62306" lon="6.95481">
        <ele>118</ele>
        <time>2019-03-24T11:26:15Z</time>
      </trkpt>
      <trkpt lat="43.6231" lon="6.95467">
        <ele>117.4</ele>
        <time>2019-03-24T11:26:20Z</time>
      </trkpt>
      <trkpt lat="43.62311" lon="6.95465">
        <ele>117.4</ele>
        <time>2019-03-24T11:26:21Z</time>
      </trkpt>
      <trkpt lat="43.62316" lon="6.95454">
        <ele>116.2</ele>
        <time>2019-03-24T11:26:25Z</time>
      </trkpt>
      <trkpt lat="43.62318" lon="6.95446">
        <ele>114.6</ele>
        <time>2019-03-24T11:26:27Z</time>
      </trkpt>
      <trkpt lat="43.6232" lon="6.95439">
        <ele>113.4</ele>
        <time>2019-03-24T11:26:29Z</time>
      </trkpt>
      <trkpt lat="43.62324" lon="6.95424">
        <ele>112.4</ele>
        <time>2019-03-24T11:26:33Z</time>
      </trkpt>
      <trkpt lat="43.62325" lon="6.95419">
        <ele>112.4</ele>
        <time>2019-03-24T11:26:34Z</time>
      </trkpt>
      <trkpt lat="43.62327" lon="6.9541">
        <ele>111.2</ele>
        <time>2019-03-24T11:26:36Z</time>
      </trkpt>
      <trkpt lat="43.62331" lon="6.95392">
        <ele>110.2</ele>
        <time>2019-03-24T11:26:40Z</time>
      </trkpt>
      <trkpt lat="43.62331" lon="6.95387">
        <ele>110.2</ele>
        <time>2019-03-24T11:26:41Z</time>
      </trkpt>
      <trkpt lat="43.62337" lon="6.95363">
        <ele>109.8</ele>
        <time>2019-03-24T11:26:46Z</time>
      </trkpt>
      <trkpt lat="43.62339" lon="6.95343">
        <ele>109.8</ele>
        <time>2019-03-24T11:26:51Z</time>
      </trkpt>
      <trkpt lat="43.62342" lon="6.95326">
        <ele>111.2</ele>
        <time>2019-03-24T11:26:56Z</time>
      </trkpt>
      <trkpt lat="43.62342" lon="6.95323">
        <ele>111.4</ele>
        <time>2019-03-24T11:26:57Z</time>
      </trkpt>
      <trkpt lat="43.62344" lon="6.95321">
        <ele>112</ele>
        <time>2019-03-24T11:26:58Z</time>
      </trkpt>
      <trkpt lat="43.62346" lon="6.9532">
        <ele>112.6</ele>
        <time>2019-03-24T11:26:59Z</time>
      </trkpt>
      <trkpt lat="43.6235" lon="6.95319">
        <ele>113.8</ele>
        <time>2019-03-24T11:27:01Z</time>
      </trkpt>
      <trkpt lat="43.62353" lon="6.95321">
        <ele>115</ele>
        <time>2019-03-24T11:27:03Z</time>
      </trkpt>
      <trkpt lat="43.62358" lon="6.95322">
        <ele>116</ele>
        <time>2019-03-24T11:27:06Z</time>
      </trkpt>
      <trkpt lat="43.6236" lon="6.95322">
        <ele>116.2</ele>
        <time>2019-03-24T11:27:07Z</time>
      </trkpt>
      <trkpt lat="43.62368" lon="6.95322">
        <ele>116.6</ele>
        <time>2019-03-24T11:27:11Z</time>
      </trkpt>
      <trkpt lat="43.62378" lon="6.95321">
        <ele>117.2</ele>
        <time>2019-03-24T11:27:15Z</time>
      </trkpt>
      <trkpt lat="43.6238" lon="6.95322">
        <ele>117.6</ele>
        <time>2019-03-24T11:27:17Z</time>
      </trkpt>
      <trkpt lat="43.62392" lon="6.95323">
        <ele>117</ele>
        <time>2019-03-24T11:27:22Z</time>
      </trkpt>
      <trkpt lat="43.62401" lon="6.95326">
        <ele>117.8</ele>
        <time>2019-03-24T11:27:32Z</time>
      </trkpt>
      <trkpt lat="43.62404" lon="6.95326">
        <ele>118.4</ele>
        <time>2019-03-24T11:27:33Z</time>
      </trkpt>
      <trkpt lat="43.62409" lon="6.95325">
        <ele>119.4</ele>
        <time>2019-03-24T11:27:35Z</time>
      </trkpt>
      <trkpt lat="43.62413" lon="6.95327">
        <ele>120.6</ele>
        <time>2019-03-24T11:27:37Z</time>
      </trkpt>
      <trkpt lat="43.62418" lon="6.95328">
        <ele>121.6</ele>
        <time>2019-03-24T11:27:39Z</time>
      </trkpt>
      <trkpt lat="43.6242" lon="6.95328">
        <ele>122.2</ele>
        <time>2019-03-24T11:27:40Z</time>
      </trkpt>
      <trkpt lat="43.62425" lon="6.95329">
        <ele>122.8</ele>
        <time>2019-03-24T11:27:42Z</time>
      </trkpt>
      <trkpt lat="43.62436" lon="6.9533">
        <ele>123</ele>
        <time>2019-03-24T11:27:48Z</time>
      </trkpt>
      <trkpt lat="43.62447" lon="6.95329">
        <ele>123.8</ele>
        <time>2019-03-24T11:27:53Z</time>
      </trkpt>
      <trkpt lat="43.62449" lon="6.95329">
        <ele>124</ele>
        <time>2019-03-24T11:27:54Z</time>
      </trkpt>
      <trkpt lat="43.62461" lon="6.95328">
        <ele>123.6</ele>
        <time>2019-03-24T11:27:59Z</time>
      </trkpt>
      <trkpt lat="43.62479" lon="6.95328">
        <ele>123.6</ele>
        <time>2019-03-24T11:28:06Z</time>
      </trkpt>
      <trkpt lat="43.62495" lon="6.95322">
        <ele>122.6</ele>
        <time>2019-03-24T11:28:12Z</time>
      </trkpt>
      <trkpt lat="43.62499" lon="6.95322">
        <ele>122.4</ele>
        <time>2019-03-24T11:28:13Z</time>
      </trkpt>
      <trkpt lat="43.62517" lon="6.95324">
        <ele>121.6</ele>
        <time>2019-03-24T11:28:18Z</time>
      </trkpt>
      <trkpt lat="43.62521" lon="6.95324">
        <ele>121.6</ele>
        <time>2019-03-24T11:28:19Z</time>
      </trkpt>
      <trkpt lat="43.6254" lon="6.95328">
        <ele>120.4</ele>
        <time>2019-03-24T11:28:24Z</time>
      </trkpt>
      <trkpt lat="43.62545" lon="6.9533">
        <ele>120.4</ele>
        <time>2019-03-24T11:28:25Z</time>
      </trkpt>
      <trkpt lat="43.62567" lon="6.95338">
        <ele>120.2</ele>
        <time>2019-03-24T11:28:30Z</time>
      </trkpt>
      <trkpt lat="43.62572" lon="6.9534">
        <ele>120.2</ele>
        <time>2019-03-24T11:28:31Z</time>
      </trkpt>
      <trkpt lat="43.62583" lon="6.95344">
        <ele>120.8</ele>
        <time>2019-03-24T11:28:33Z</time>
      </trkpt>
      <trkpt lat="43.62593" lon="6.95348">
        <ele>121</ele>
        <time>2019-03-24T11:28:35Z</time>
      </trkpt>
      <trkpt lat="43.62605" lon="6.9535">
        <ele>121.2</ele>
        <time>2019-03-24T11:28:37Z</time>
      </trkpt>
      <trkpt lat="43.62627" lon="6.95363">
        <ele>121</ele>
        <time>2019-03-24T11:28:41Z</time>
      </trkpt>
      <trkpt lat="43.62648" lon="6.95381">
        <ele>120.6</ele>
        <time>2019-03-24T11:28:45Z</time>
      </trkpt>
      <trkpt lat="43.62652" lon="6.95388">
        <ele>120.6</ele>
        <time>2019-03-24T11:28:46Z</time>
      </trkpt>
      <trkpt lat="43.62677" lon="6.95442">
        <ele>119.8</ele>
        <time>2019-03-24T11:28:53Z</time>
      </trkpt>
      <trkpt lat="43.62686" lon="6.95469">
        <ele>119.4</ele>
        <time>2019-03-24T11:28:56Z</time>
      </trkpt>
      <trkpt lat="43.62688" lon="6.95477">
        <ele>119.2</ele>
        <time>2019-03-24T11:28:57Z</time>
      </trkpt>
      <trkpt lat="43.62689" lon="6.95485">
        <ele>119.2</ele>
        <time>2019-03-24T11:28:58Z</time>
      </trkpt>
      <trkpt lat="43.6269" lon="6.95519">
        <ele>118.2</ele>
        <time>2019-03-24T11:29:02Z</time>
      </trkpt>
      <trkpt lat="43.62691" lon="6.95527">
        <ele>118.4</ele>
        <time>2019-03-24T11:29:03Z</time>
      </trkpt>
      <trkpt lat="43.62693" lon="6.95542">
        <ele>118.4</ele>
        <time>2019-03-24T11:29:05Z</time>
      </trkpt>
      <trkpt lat="43.62695" lon="6.95597">
        <ele>119</ele>
        <time>2019-03-24T11:29:13Z</time>
      </trkpt>
      <trkpt lat="43.62699" lon="6.95644">
        <ele>118.8</ele>
        <time>2019-03-24T11:29:21Z</time>
      </trkpt>
      <trkpt lat="43.62701" lon="6.95652">
        <ele>118.6</ele>
        <time>2019-03-24T11:29:23Z</time>
      </trkpt>
      <trkpt lat="43.62707" lon="6.95655">
        <ele>118.6</ele>
        <time>2019-03-24T11:29:25Z</time>
      </trkpt>
      <trkpt lat="43.62718" lon="6.95657">
        <ele>118.2</ele>
        <time>2019-03-24T11:29:28Z</time>
      </trkpt>
      <trkpt lat="43.62726" lon="6.95656">
        <ele>117</ele>
        <time>2019-03-24T11:29:30Z</time>
      </trkpt>
      <trkpt lat="43.6273" lon="6.95655">
        <ele>116.4</ele>
        <time>2019-03-24T11:29:31Z</time>
      </trkpt>
      <trkpt lat="43.62734" lon="6.95654">
        <ele>115.8</ele>
        <time>2019-03-24T11:29:32Z</time>
      </trkpt>
      <trkpt lat="43.62742" lon="6.95653">
        <ele>114.8</ele>
        <time>2019-03-24T11:29:34Z</time>
      </trkpt>
      <trkpt lat="43.62747" lon="6.95653">
        <ele>114.4</ele>
        <time>2019-03-24T11:29:35Z</time>
      </trkpt>
      <trkpt lat="43.62752" lon="6.95653">
        <ele>113.8</ele>
        <time>2019-03-24T11:29:36Z</time>
      </trkpt>
      <trkpt lat="43.62758" lon="6.95653">
        <ele>113</ele>
        <time>2019-03-24T11:29:37Z</time>
      </trkpt>
      <trkpt lat="43.6277" lon="6.95649">
        <ele>112.2</ele>
        <time>2019-03-24T11:29:39Z</time>
      </trkpt>
      <trkpt lat="43.62775" lon="6.95644">
        <ele>111.8</ele>
        <time>2019-03-24T11:29:40Z</time>
      </trkpt>
      <trkpt lat="43.62786" lon="6.95626">
        <ele>110.8</ele>
        <time>2019-03-24T11:29:43Z</time>
      </trkpt>
      <trkpt lat="43.62788" lon="6.95619">
        <ele>110.6</ele>
        <time>2019-03-24T11:29:44Z</time>
      </trkpt>
      <trkpt lat="43.62794" lon="6.956">
        <ele>109.2</ele>
        <time>2019-03-24T11:29:47Z</time>
      </trkpt>
      <trkpt lat="43.62797" lon="6.95594">
        <ele>109</ele>
        <time>2019-03-24T11:29:48Z</time>
      </trkpt>
      <trkpt lat="43.628" lon="6.95589">
        <ele>108.8</ele>
        <time>2019-03-24T11:29:49Z</time>
      </trkpt>
      <trkpt lat="43.62811" lon="6.95579">
        <ele>108</ele>
        <time>2019-03-24T11:29:52Z</time>
      </trkpt>
      <trkpt lat="43.62816" lon="6.95577">
        <ele>107.8</ele>
        <time>2019-03-24T11:29:53Z</time>
      </trkpt>
      <trkpt lat="43.6282" lon="6.95575">
        <ele>107.4</ele>
        <time>2019-03-24T11:29:54Z</time>
      </trkpt>
      <trkpt lat="43.62824" lon="6.95574">
        <ele>107</ele>
        <time>2019-03-24T11:29:55Z</time>
      </trkpt>
      <trkpt lat="43.62841" lon="6.95569">
        <ele>106.2</ele>
        <time>2019-03-24T11:29:59Z</time>
      </trkpt>
      <trkpt lat="43.62875" lon="6.95563">
        <ele>106.6</ele>
        <time>2019-03-24T11:30:07Z</time>
      </trkpt>
      <trkpt lat="43.62894" lon="6.95559">
        <ele>108.4</ele>
        <time>2019-03-24T11:30:13Z</time>
      </trkpt>
      <trkpt lat="43.62912" lon="6.95547">
        <ele>109.2</ele>
        <time>2019-03-24T11:30:20Z</time>
      </trkpt>
      <trkpt lat="43.62914" lon="6.95544">
        <ele>109.2</ele>
        <time>2019-03-24T11:30:21Z</time>
      </trkpt>
      <trkpt lat="43.62914" lon="6.95535">
        <ele>109.6</ele>
        <time>2019-03-24T11:30:23Z</time>
      </trkpt>
      <trkpt lat="43.62913" lon="6.95499">
        <ele>110.2</ele>
        <time>2019-03-24T11:30:31Z</time>
      </trkpt>
      <trkpt lat="43.62918" lon="6.95485">
        <ele>110.6</ele>
        <time>2019-03-24T11:30:35Z</time>
      </trkpt>
      <trkpt lat="43.62921" lon="6.95483">
        <ele>110.8</ele>
        <time>2019-03-24T11:30:36Z</time>
      </trkpt>
      <trkpt lat="43.62937" lon="6.95475">
        <ele>111.6</ele>
        <time>2019-03-24T11:30:42Z</time>
      </trkpt>
      <trkpt lat="43.62939" lon="6.95473">
        <ele>111.6</ele>
        <time>2019-03-24T11:30:43Z</time>
      </trkpt>
      <trkpt lat="43.6294" lon="6.95466">
        <ele>112</ele>
        <time>2019-03-24T11:30:45Z</time>
      </trkpt>
      <trkpt lat="43.6294" lon="6.9546">
        <ele>112.2</ele>
        <time>2019-03-24T11:30:47Z</time>
      </trkpt>
      <trkpt lat="43.6294" lon="6.95441">
        <ele>112</ele>
        <time>2019-03-24T11:30:52Z</time>
      </trkpt>
      <trkpt lat="43.62938" lon="6.95426">
        <ele>112.4</ele>
        <time>2019-03-24T11:30:56Z</time>
      </trkpt>
      <trkpt lat="43.62938" lon="6.95423">
        <ele>112.8</ele>
        <time>2019-03-24T11:30:57Z</time>
      </trkpt>
      <trkpt lat="43.62935" lon="6.95404">
        <ele>112</ele>
        <time>2019-03-24T11:31:01Z</time>
      </trkpt>
      <trkpt lat="43.62932" lon="6.95386">
        <ele>112.4</ele>
        <time>2019-03-24T11:31:06Z</time>
      </trkpt>
      <trkpt lat="43.62932" lon="6.95363">
        <ele>113</ele>
        <time>2019-03-24T11:31:13Z</time>
      </trkpt>
      <trkpt lat="43.62931" lon="6.95345">
        <ele>113.4</ele>
        <time>2019-03-24T11:31:16Z</time>
      </trkpt>
      <trkpt lat="43.6293" lon="6.95337">
        <ele>114</ele>
        <time>2019-03-24T11:31:18Z</time>
      </trkpt>
      <trkpt lat="43.62931" lon="6.95327">
        <ele>115.4</ele>
        <time>2019-03-24T11:31:21Z</time>
      </trkpt>
      <trkpt lat="43.62931" lon="6.95324">
        <ele>115.4</ele>
        <time>2019-03-24T11:31:22Z</time>
      </trkpt>
      <trkpt lat="43.62929" lon="6.95305">
        <ele>114</ele>
        <time>2019-03-24T11:31:26Z</time>
      </trkpt>
      <trkpt lat="43.62929" lon="6.95294">
        <ele>113.4</ele>
        <time>2019-03-24T11:31:28Z</time>
      </trkpt>
      <trkpt lat="43.62928" lon="6.9528">
        <ele>113.2</ele>
        <time>2019-03-24T11:31:31Z</time>
      </trkpt>
      <trkpt lat="43.62928" lon="6.95277">
        <ele>113.2</ele>
        <time>2019-03-24T11:31:32Z</time>
      </trkpt>
      <trkpt lat="43.62928" lon="6.95276">
        <ele>113</ele>
        <time>2019-03-24T11:31:33Z</time>
      </trkpt>
      <trkpt lat="43.62931" lon="6.95269">
        <ele>112.4</ele>
        <time>2019-03-24T11:31:35Z</time>
      </trkpt>
      <trkpt lat="43.62933" lon="6.95265">
        <ele>112</ele>
        <time>2019-03-24T11:31:36Z</time>
      </trkpt>
      <trkpt lat="43.62941" lon="6.95259">
        <ele>110.8</ele>
        <time>2019-03-24T11:31:39Z</time>
      </trkpt>
      <trkpt lat="43.62946" lon="6.9526">
        <ele>110.2</ele>
        <time>2019-03-24T11:31:41Z</time>
      </trkpt>
      <trkpt lat="43.62951" lon="6.95261">
        <ele>110.2</ele>
        <time>2019-03-24T11:31:43Z</time>
      </trkpt>
      <trkpt lat="43.62965" lon="6.95251">
        <ele>109.8</ele>
        <time>2019-03-24T11:31:48Z</time>
      </trkpt>
      <trkpt lat="43.62969" lon="6.95246">
        <ele>109.8</ele>
        <time>2019-03-24T11:31:50Z</time>
      </trkpt>
      <trkpt lat="43.62974" lon="6.95243">
        <ele>109.6</ele>
        <time>2019-03-24T11:31:52Z</time>
      </trkpt>
      <trkpt lat="43.62993" lon="6.95239">
        <ele>109.4</ele>
        <time>2019-03-24T11:31:57Z</time>
      </trkpt>
      <trkpt lat="43.63022" lon="6.95231">
        <ele>110.8</ele>
        <time>2019-03-24T11:32:04Z</time>
      </trkpt>
      <trkpt lat="43.63026" lon="6.95228">
        <ele>111.2</ele>
        <time>2019-03-24T11:32:05Z</time>
      </trkpt>
      <trkpt lat="43.6304" lon="6.95214">
        <ele>111.6</ele>
        <time>2019-03-24T11:32:09Z</time>
      </trkpt>
      <trkpt lat="43.63048" lon="6.95209">
        <ele>112</ele>
        <time>2019-03-24T11:32:11Z</time>
      </trkpt>
      <trkpt lat="43.63056" lon="6.95206">
        <ele>112.4</ele>
        <time>2019-03-24T11:32:13Z</time>
      </trkpt>
      <trkpt lat="43.6306" lon="6.95204">
        <ele>112.8</ele>
        <time>2019-03-24T11:32:14Z</time>
      </trkpt>
      <trkpt lat="43.63064" lon="6.95203">
        <ele>113</ele>
        <time>2019-03-24T11:32:15Z</time>
      </trkpt>
      <trkpt lat="43.63088" lon="6.95195">
        <ele>114</ele>
        <time>2019-03-24T11:32:21Z</time>
      </trkpt>
      <trkpt lat="43.63091" lon="6.95192">
        <ele>114.2</ele>
        <time>2019-03-24T11:32:22Z</time>
      </trkpt>
      <trkpt lat="43.63108" lon="6.95184">
        <ele>115.2</ele>
        <time>2019-03-24T11:32:27Z</time>
      </trkpt>
      <trkpt lat="43.63111" lon="6.95182">
        <ele>115.4</ele>
        <time>2019-03-24T11:32:28Z</time>
      </trkpt>
      <trkpt lat="43.63123" lon="6.95165">
        <ele>116</ele>
        <time>2019-03-24T11:32:33Z</time>
      </trkpt>
      <trkpt lat="43.63125" lon="6.9514">
        <ele>116.2</ele>
        <time>2019-03-24T11:32:38Z</time>
      </trkpt>
      <trkpt lat="43.63134" lon="6.95117">
        <ele>115.6</ele>
        <time>2019-03-24T11:32:43Z</time>
      </trkpt>
      <trkpt lat="43.63137" lon="6.95115">
        <ele>115.6</ele>
        <time>2019-03-24T11:32:44Z</time>
      </trkpt>
      <trkpt lat="43.63144" lon="6.95116">
        <ele>115.4</ele>
        <time>2019-03-24T11:32:46Z</time>
      </trkpt>
      <trkpt lat="43.63154" lon="6.9512">
        <ele>115.6</ele>
        <time>2019-03-24T11:32:49Z</time>
      </trkpt>
      <trkpt lat="43.63163" lon="6.95127">
        <ele>115.4</ele>
        <time>2019-03-24T11:32:52Z</time>
      </trkpt>
      <trkpt lat="43.63166" lon="6.9513">
        <ele>115.6</ele>
        <time>2019-03-24T11:32:53Z</time>
      </trkpt>
      <trkpt lat="43.63165" lon="6.95137">
        <ele>115.4</ele>
        <time>2019-03-24T11:32:55Z</time>
      </trkpt>
      <trkpt lat="43.63152" lon="6.95152">
        <ele>115.2</ele>
        <time>2019-03-24T11:32:59Z</time>
      </trkpt>
      <trkpt lat="43.63147" lon="6.95175">
        <ele>115.4</ele>
        <time>2019-03-24T11:33:03Z</time>
      </trkpt>
      <trkpt lat="43.63145" lon="6.95219">
        <ele>116.2</ele>
        <time>2019-03-24T11:33:11Z</time>
      </trkpt>
      <trkpt lat="43.63145" lon="6.95225">
        <ele>116.2</ele>
        <time>2019-03-24T11:33:12Z</time>
      </trkpt>
      <trkpt lat="43.63147" lon="6.95242">
        <ele>115.6</ele>
        <time>2019-03-24T11:33:15Z</time>
      </trkpt>
      <trkpt lat="43.63152" lon="6.95258">
        <ele>115.2</ele>
        <time>2019-03-24T11:33:18Z</time>
      </trkpt>
      <trkpt lat="43.63153" lon="6.95264">
        <ele>115.2</ele>
        <time>2019-03-24T11:33:19Z</time>
      </trkpt>
      <trkpt lat="43.63155" lon="6.95286">
        <ele>115.2</ele>
        <time>2019-03-24T11:33:23Z</time>
      </trkpt>
      <trkpt lat="43.63157" lon="6.95305">
        <ele>115.4</ele>
        <time>2019-03-24T11:33:26Z</time>
      </trkpt>
      <trkpt lat="43.63157" lon="6.95312">
        <ele>115.4</ele>
        <time>2019-03-24T11:33:27Z</time>
      </trkpt>
      <trkpt lat="43.63164" lon="6.95328">
        <ele>115.4</ele>
        <time>2019-03-24T11:33:30Z</time>
      </trkpt>
      <trkpt lat="43.63182" lon="6.95339">
        <ele>115.8</ele>
        <time>2019-03-24T11:33:35Z</time>
      </trkpt>
      <trkpt lat="43.63191" lon="6.95345">
        <ele>115.8</ele>
        <time>2019-03-24T11:33:39Z</time>
      </trkpt>
    </trkseg>
  </trk>
</gpx>